<?xml version="1.0" encoding="UTF-8"?>
<TrainingCenterDatabase xmlns="http://www.garmin.com/xmlschemas/TrainingCenterDatabase/v2" xmlns:xsi="http://www.w3.org/2001/XMLSchema-instance" xsi:schemaLocation="http://www.garmin.com/xmlschemas/TrainingCenterDatabase/v2 http://www.garmin.com/xmlschemas/TrainingCenterDatabasev2.xsd">
  <Activities>
    <Activity Sport="Other">
      <Id>2018-05-22T09:24:17.000Z</Id>
      <Lap StartTime="2018-05-22T09:24:17.000Z">
        <TotalTimeSeconds>9895</TotalTimeSeconds>
        <DistanceMeters>35550</DistanceMeters>
        <Track>
          <Trackpoint>
            <Time>2018-05-22T09:24:17.000Z</Time>
            <Position>
              <LatitudeDegrees>28.95851916633546352386474609375</LatitudeDegrees>
              <LongitudeDegrees>-13.5571907646954059600830078125</LongitudeDegrees>
            </Position>
            <AltitudeMeters>13.3999996185302734375</AltitudeMeters>
            <DistanceMeters>0</DistanceMeters>
          </Trackpoint>
          <Trackpoint>
            <Time>2018-05-22T09:24:18.000Z</Time>
            <Position>
              <LatitudeDegrees>28.95851128734648227691650390625</LatitudeDegrees>
              <LongitudeDegrees>-13.55715950019657611846923828125</LongitudeDegrees>
            </Position>
            <AltitudeMeters>13.80000019073486328125</AltitudeMeters>
            <DistanceMeters>3.1688239152211</DistanceMeters>
          </Trackpoint>
          <Trackpoint>
            <Time>2018-05-22T09:24:22.000Z</Time>
            <Position>
              <LatitudeDegrees>28.9584972895681858062744140625</LatitudeDegrees>
              <LongitudeDegrees>-13.55703209526836872100830078125</LongitudeDegrees>
            </Position>
            <AltitudeMeters>13.3999996185302734375</AltitudeMeters>
            <DistanceMeters>15.67341522016</DistanceMeters>
          </Trackpoint>
          <Trackpoint>
            <Time>2018-05-22T09:24:25.000Z</Time>
            <Position>
              <LatitudeDegrees>28.958493433892726898193359375</LatitudeDegrees>
              <LongitudeDegrees>-13.55694257654249668121337890625</LongitudeDegrees>
            </Position>
            <AltitudeMeters>13.3999996185302734375</AltitudeMeters>
            <DistanceMeters>24.401917666609</DistanceMeters>
          </Trackpoint>
          <Trackpoint>
            <Time>2018-05-22T09:24:27.000Z</Time>
            <Position>
              <LatitudeDegrees>28.958488740026950836181640625</LatitudeDegrees>
              <LongitudeDegrees>-13.5568890161812305450439453125</LongitudeDegrees>
            </Position>
            <AltitudeMeters>13.19999980926513671875</AltitudeMeters>
            <DistanceMeters>29.64305232835</DistanceMeters>
          </Trackpoint>
          <Trackpoint>
            <Time>2018-05-22T09:24:29.000Z</Time>
            <Position>
              <LatitudeDegrees>28.95847474224865436553955078125</LatitudeDegrees>
              <LongitudeDegrees>-13.55682355351746082305908203125</LongitudeDegrees>
            </Position>
            <AltitudeMeters>13.19999980926513671875</AltitudeMeters>
            <DistanceMeters>36.206090088235</DistanceMeters>
          </Trackpoint>
          <Trackpoint>
            <Time>2018-05-22T09:24:34.000Z</Time>
            <Position>
              <LatitudeDegrees>28.95843450911343097686767578125</LatitudeDegrees>
              <LongitudeDegrees>-13.5566375590860843658447265625</LongitudeDegrees>
            </Position>
            <AltitudeMeters>13.19999980926513671875</AltitudeMeters>
            <DistanceMeters>54.864749397533</DistanceMeters>
          </Trackpoint>
          <Trackpoint>
            <Time>2018-05-22T09:24:35.000Z</Time>
            <Position>
              <LatitudeDegrees>28.95842545665800571441650390625</LatitudeDegrees>
              <LongitudeDegrees>-13.556595481932163238525390625</LongitudeDegrees>
            </Position>
            <AltitudeMeters>13.19999980926513671875</AltitudeMeters>
            <DistanceMeters>59.085690148589</DistanceMeters>
          </Trackpoint>
          <Trackpoint>
            <Time>2018-05-22T09:24:37.000Z</Time>
            <Position>
              <LatitudeDegrees>28.9584144763648509979248046875</LatitudeDegrees>
              <LongitudeDegrees>-13.556505627930164337158203125</LongitudeDegrees>
            </Position>
            <AltitudeMeters>13.19999980926513671875</AltitudeMeters>
            <DistanceMeters>67.921641763126</DistanceMeters>
          </Trackpoint>
          <Trackpoint>
            <Time>2018-05-22T09:24:40.000Z</Time>
            <Position>
              <LatitudeDegrees>28.95839243195950984954833984375</LatitudeDegrees>
              <LongitudeDegrees>-13.5563837550580501556396484375</LongitudeDegrees>
            </Position>
            <AltitudeMeters>13.19999980926513671875</AltitudeMeters>
            <DistanceMeters>80.040808127235</DistanceMeters>
          </Trackpoint>
          <Trackpoint>
            <Time>2018-05-22T09:24:41.000Z</Time>
            <Position>
              <LatitudeDegrees>28.95839142613112926483154296875</LatitudeDegrees>
              <LongitudeDegrees>-13.5563475452363491058349609375</LongitudeDegrees>
            </Position>
            <AltitudeMeters>13.3999996185302734375</AltitudeMeters>
            <DistanceMeters>83.568334929368</DistanceMeters>
          </Trackpoint>
          <Trackpoint>
            <Time>2018-05-22T09:24:42.000Z</Time>
            <Position>
              <LatitudeDegrees>28.95837843418121337890625</LatitudeDegrees>
              <LongitudeDegrees>-13.556303791701793670654296875</LongitudeDegrees>
            </Position>
            <AltitudeMeters>13.3999996185302734375</AltitudeMeters>
            <DistanceMeters>88.066823710159</DistanceMeters>
          </Trackpoint>
          <Trackpoint>
            <Time>2018-05-22T09:24:44.000Z</Time>
            <Position>
              <LatitudeDegrees>28.95834029652178287506103515625</LatitudeDegrees>
              <LongitudeDegrees>-13.55622190050780773162841796875</LongitudeDegrees>
            </Position>
            <AltitudeMeters>13.3999996185302734375</AltitudeMeters>
            <DistanceMeters>97.10086106344</DistanceMeters>
          </Trackpoint>
          <Trackpoint>
            <Time>2018-05-22T09:24:45.000Z</Time>
            <Position>
              <LatitudeDegrees>28.958324454724788665771484375</LatitudeDegrees>
              <LongitudeDegrees>-13.5561852715909481048583984375</LongitudeDegrees>
            </Position>
            <AltitudeMeters>13.19999980926513671875</AltitudeMeters>
            <DistanceMeters>101.08065428454</DistanceMeters>
          </Trackpoint>
          <Trackpoint>
            <Time>2018-05-22T09:24:46.000Z</Time>
            <Position>
              <LatitudeDegrees>28.95830961875617504119873046875</LatitudeDegrees>
              <LongitudeDegrees>-13.55614864267408847808837890625</LongitudeDegrees>
            </Position>
            <AltitudeMeters>13</AltitudeMeters>
            <DistanceMeters>105.01021287542</DistanceMeters>
          </Trackpoint>
          <Trackpoint>
            <Time>2018-05-22T09:24:47.000Z</Time>
            <Position>
              <LatitudeDegrees>28.9582937769591808319091796875</LatitudeDegrees>
              <LongitudeDegrees>-13.5561096668243408203125</LongitudeDegrees>
            </Position>
            <AltitudeMeters>13</AltitudeMeters>
            <DistanceMeters>109.19354744827</DistanceMeters>
          </Trackpoint>
          <Trackpoint>
            <Time>2018-05-22T09:24:51.000Z</Time>
            <Position>
              <LatitudeDegrees>28.95823619328439235687255859375</LatitudeDegrees>
              <LongitudeDegrees>-13.55594865046441555023193359375</LongitudeDegrees>
            </Position>
            <AltitudeMeters>12.80000019073486328125</AltitudeMeters>
            <DistanceMeters>126.13364187872</DistanceMeters>
          </Trackpoint>
          <Trackpoint>
            <Time>2018-05-22T09:24:57.000Z</Time>
            <Position>
              <LatitudeDegrees>28.9581509493291378021240234375</LatitudeDegrees>
              <LongitudeDegrees>-13.5557220876216888427734375</LongitudeDegrees>
            </Position>
            <AltitudeMeters>12.6000003814697265625</AltitudeMeters>
            <DistanceMeters>150.15116221785</DistanceMeters>
          </Trackpoint>
          <Trackpoint>
            <Time>2018-05-22T09:25:00.000Z</Time>
            <Position>
              <LatitudeDegrees>28.95810945890843868255615234375</LatitudeDegrees>
              <LongitudeDegrees>-13.55560817755758762359619140625</LongitudeDegrees>
            </Position>
            <AltitudeMeters>12.3999996185302734375</AltitudeMeters>
            <DistanceMeters>162.16706385952</DistanceMeters>
          </Trackpoint>
          <Trackpoint>
            <Time>2018-05-22T09:25:02.000Z</Time>
            <Position>
              <LatitudeDegrees>28.95808867178857326507568359375</LatitudeDegrees>
              <LongitudeDegrees>-13.55554078705608844757080078125</LongitudeDegrees>
            </Position>
            <AltitudeMeters>12.3999996185302734375</AltitudeMeters>
            <DistanceMeters>169.12610833193</DistanceMeters>
          </Trackpoint>
          <Trackpoint>
            <Time>2018-05-22T09:25:03.000Z</Time>
            <Position>
              <LatitudeDegrees>28.958074338734149932861328125</LatitudeDegrees>
              <LongitudeDegrees>-13.55550206266343593597412109375</LongitudeDegrees>
            </Position>
            <AltitudeMeters>12.19999980926513671875</AltitudeMeters>
            <DistanceMeters>173.21998447563</DistanceMeters>
          </Trackpoint>
          <Trackpoint>
            <Time>2018-05-22T09:25:12.000Z</Time>
            <Position>
              <LatitudeDegrees>28.9579125680029392242431640625</LatitudeDegrees>
              <LongitudeDegrees>-13.55514700524508953094482421875</LongitudeDegrees>
            </Position>
            <AltitudeMeters>12.6000003814697265625</AltitudeMeters>
            <DistanceMeters>212.20480262297</DistanceMeters>
          </Trackpoint>
          <Trackpoint>
            <Time>2018-05-22T09:25:13.000Z</Time>
            <Position>
              <LatitudeDegrees>28.95788935013115406036376953125</LatitudeDegrees>
              <LongitudeDegrees>-13.55511381290853023529052734375</LongitudeDegrees>
            </Position>
            <AltitudeMeters>12.6000003814697265625</AltitudeMeters>
            <DistanceMeters>216.34255864982</DistanceMeters>
          </Trackpoint>
          <Trackpoint>
            <Time>2018-05-22T09:25:14.000Z</Time>
            <Position>
              <LatitudeDegrees>28.95786680281162261962890625</LatitudeDegrees>
              <LongitudeDegrees>-13.5550812073051929473876953125</LongitudeDegrees>
            </Position>
            <AltitudeMeters>12.6000003814697265625</AltitudeMeters>
            <DistanceMeters>220.38873321265</DistanceMeters>
          </Trackpoint>
          <Trackpoint>
            <Time>2018-05-22T09:25:15.000Z</Time>
            <Position>
              <LatitudeDegrees>28.9578473567962646484375</LatitudeDegrees>
              <LongitudeDegrees>-13.55505664832890033721923828125</LongitudeDegrees>
            </Position>
            <AltitudeMeters>12.80000019073486328125</AltitudeMeters>
            <DistanceMeters>223.61404685064</DistanceMeters>
          </Trackpoint>
          <Trackpoint>
            <Time>2018-05-22T09:25:17.000Z</Time>
            <Position>
              <LatitudeDegrees>28.95779907703399658203125</LatitudeDegrees>
              <LongitudeDegrees>-13.55500635690987110137939453125</LongitudeDegrees>
            </Position>
            <AltitudeMeters>12.80000019073486328125</AltitudeMeters>
            <DistanceMeters>230.88529829585</DistanceMeters>
          </Trackpoint>
          <Trackpoint>
            <Time>2018-05-22T09:25:18.000Z</Time>
            <Position>
              <LatitudeDegrees>28.95777183584868907928466796875</LatitudeDegrees>
              <LongitudeDegrees>-13.5549880005419254302978515625</LongitudeDegrees>
            </Position>
            <AltitudeMeters>12.80000019073486328125</AltitudeMeters>
            <DistanceMeters>234.40513705367</DistanceMeters>
          </Trackpoint>
          <Trackpoint>
            <Time>2018-05-22T09:25:22.000Z</Time>
            <Position>
              <LatitudeDegrees>28.957701511681079864501953125</LatitudeDegrees>
              <LongitudeDegrees>-13.5549336858093738555908203125</LongitudeDegrees>
            </Position>
            <AltitudeMeters>12.6000003814697265625</AltitudeMeters>
            <DistanceMeters>243.85205430194</DistanceMeters>
          </Trackpoint>
          <Trackpoint>
            <Time>2018-05-22T09:25:23.000Z</Time>
            <Position>
              <LatitudeDegrees>28.95768231712281703948974609375</LatitudeDegrees>
              <LongitudeDegrees>-13.5549174249172210693359375</LongitudeDegrees>
            </Position>
            <AltitudeMeters>12.6000003814697265625</AltitudeMeters>
            <DistanceMeters>246.5128023043</DistanceMeters>
          </Trackpoint>
          <Trackpoint>
            <Time>2018-05-22T09:25:27.000Z</Time>
            <Position>
              <LatitudeDegrees>28.95760101266205310821533203125</LatitudeDegrees>
              <LongitudeDegrees>-13.55488121509552001953125</LongitudeDegrees>
            </Position>
            <AltitudeMeters>12.3999996185302734375</AltitudeMeters>
            <DistanceMeters>256.22414198432</DistanceMeters>
          </Trackpoint>
          <Trackpoint>
            <Time>2018-05-22T09:25:28.000Z</Time>
            <Position>
              <LatitudeDegrees>28.9575917087495326995849609375</LatitudeDegrees>
              <LongitudeDegrees>-13.55487241409718990325927734375</LongitudeDegrees>
            </Position>
            <AltitudeMeters>12.19999980926513671875</AltitudeMeters>
            <DistanceMeters>257.56465875495</DistanceMeters>
          </Trackpoint>
          <Trackpoint>
            <Time>2018-05-22T09:25:30.000Z</Time>
            <Position>
              <LatitudeDegrees>28.9575987495481967926025390625</LatitudeDegrees>
              <LongitudeDegrees>-13.55482161976397037506103515625</LongitudeDegrees>
            </Position>
            <AltitudeMeters>12.19999980926513671875</AltitudeMeters>
            <DistanceMeters>262.57320668437</DistanceMeters>
          </Trackpoint>
          <Trackpoint>
            <Time>2018-05-22T09:25:32.000Z</Time>
            <Position>
              <LatitudeDegrees>28.95760168321430683135986328125</LatitudeDegrees>
              <LongitudeDegrees>-13.55472237803041934967041015625</LongitudeDegrees>
            </Position>
            <AltitudeMeters>12.6000003814697265625</AltitudeMeters>
            <DistanceMeters>272.24354647435</DistanceMeters>
          </Trackpoint>
          <Trackpoint>
            <Time>2018-05-22T09:25:35.000Z</Time>
            <Position>
              <LatitudeDegrees>28.9576751925051212310791015625</LatitudeDegrees>
              <LongitudeDegrees>-13.5545928776264190673828125</LongitudeDegrees>
            </Position>
            <AltitudeMeters>13</AltitudeMeters>
            <DistanceMeters>287.27640026485</DistanceMeters>
          </Trackpoint>
          <Trackpoint>
            <Time>2018-05-22T09:25:46.000Z</Time>
            <Position>
              <LatitudeDegrees>28.95791231654584407806396484375</LatitudeDegrees>
              <LongitudeDegrees>-13.554250560700893402099609375</LongitudeDegrees>
            </Position>
            <AltitudeMeters>13</AltitudeMeters>
            <DistanceMeters>329.79594406356</DistanceMeters>
          </Trackpoint>
          <Trackpoint>
            <Time>2018-05-22T09:25:52.000Z</Time>
            <Position>
              <LatitudeDegrees>28.95794936455786228179931640625</LatitudeDegrees>
              <LongitudeDegrees>-13.55400002561509609222412109375</LongitudeDegrees>
            </Position>
            <AltitudeMeters>13.19999980926513671875</AltitudeMeters>
            <DistanceMeters>354.54087129143</DistanceMeters>
          </Trackpoint>
          <Trackpoint>
            <Time>2018-05-22T09:26:05.000Z</Time>
            <Position>
              <LatitudeDegrees>28.957843668758869171142578125</LatitudeDegrees>
              <LongitudeDegrees>-13.55352929793298244476318359375</LongitudeDegrees>
            </Position>
            <AltitudeMeters>13</AltitudeMeters>
            <DistanceMeters>401.86884982593</DistanceMeters>
          </Trackpoint>
          <Trackpoint>
            <Time>2018-05-22T09:26:17.000Z</Time>
            <Position>
              <LatitudeDegrees>28.95787342451512813568115234375</LatitudeDegrees>
              <LongitudeDegrees>-13.55294608511030673980712890625</LongitudeDegrees>
            </Position>
            <AltitudeMeters>12.6000003814697265625</AltitudeMeters>
            <DistanceMeters>458.76247936225</DistanceMeters>
          </Trackpoint>
          <Trackpoint>
            <Time>2018-05-22T09:26:32.000Z</Time>
            <Position>
              <LatitudeDegrees>28.95790879614651203155517578125</LatitudeDegrees>
              <LongitudeDegrees>-13.55229548178613185882568359375</LongitudeDegrees>
            </Position>
            <AltitudeMeters>12.80000019073486328125</AltitudeMeters>
            <DistanceMeters>522.24459208502</DistanceMeters>
          </Trackpoint>
          <Trackpoint>
            <Time>2018-05-22T09:26:36.000Z</Time>
            <Position>
              <LatitudeDegrees>28.957846350967884063720703125</LatitudeDegrees>
              <LongitudeDegrees>-13.552150726318359375</LongitudeDegrees>
            </Position>
            <AltitudeMeters>12.6000003814697265625</AltitudeMeters>
            <DistanceMeters>537.96196467962</DistanceMeters>
          </Trackpoint>
          <Trackpoint>
            <Time>2018-05-22T09:26:48.000Z</Time>
            <Position>
              <LatitudeDegrees>28.95790033042430877685546875</LatitudeDegrees>
              <LongitudeDegrees>-13.5517616383731365203857421875</LongitudeDegrees>
            </Position>
            <AltitudeMeters>13.6000003814697265625</AltitudeMeters>
            <DistanceMeters>576.32722800848</DistanceMeters>
          </Trackpoint>
          <Trackpoint>
            <Time>2018-05-22T09:26:51.000Z</Time>
            <Position>
              <LatitudeDegrees>28.957887925207614898681640625</LatitudeDegrees>
              <LongitudeDegrees>-13.5516774840652942657470703125</LongitudeDegrees>
            </Position>
            <AltitudeMeters>14</AltitudeMeters>
            <DistanceMeters>584.6381277624</DistanceMeters>
          </Trackpoint>
          <Trackpoint>
            <Time>2018-05-22T09:26:56.000Z</Time>
            <Position>
              <LatitudeDegrees>28.95772187970578670501708984375</LatitudeDegrees>
              <LongitudeDegrees>-13.55156709440052509307861328125</LongitudeDegrees>
            </Position>
            <AltitudeMeters>13</AltitudeMeters>
            <DistanceMeters>606.01871615053</DistanceMeters>
          </Trackpoint>
          <Trackpoint>
            <Time>2018-05-22T09:26:58.000Z</Time>
            <Position>
              <LatitudeDegrees>28.9576607756316661834716796875</LatitudeDegrees>
              <LongitudeDegrees>-13.5515282861888408660888671875</LongitudeDegrees>
            </Position>
            <AltitudeMeters>12.6000003814697265625</AltitudeMeters>
            <DistanceMeters>613.79988974818</DistanceMeters>
          </Trackpoint>
          <Trackpoint>
            <Time>2018-05-22T09:27:08.000Z</Time>
            <Position>
              <LatitudeDegrees>28.9572188816964626312255859375</LatitudeDegrees>
              <LongitudeDegrees>-13.5514562018215656280517578125</LongitudeDegrees>
            </Position>
            <AltitudeMeters>12.3999996185302734375</AltitudeMeters>
            <DistanceMeters>663.48205169297</DistanceMeters>
          </Trackpoint>
          <Trackpoint>
            <Time>2018-05-22T09:27:10.000Z</Time>
            <Position>
              <LatitudeDegrees>28.957157693803310394287109375</LatitudeDegrees>
              <LongitudeDegrees>-13.55140230618417263031005859375</LongitudeDegrees>
            </Position>
            <AltitudeMeters>12.3999996185302734375</AltitudeMeters>
            <DistanceMeters>672.08026289337</DistanceMeters>
          </Trackpoint>
          <Trackpoint>
            <Time>2018-05-22T09:27:18.000Z</Time>
            <Position>
              <LatitudeDegrees>28.95726305432617664337158203125</LatitudeDegrees>
              <LongitudeDegrees>-13.55107541196048259735107421875</LongitudeDegrees>
            </Position>
            <AltitudeMeters>12.3999996185302734375</AltitudeMeters>
            <DistanceMeters>706.00666314124</DistanceMeters>
          </Trackpoint>
          <Trackpoint>
            <Time>2018-05-22T09:27:22.000Z</Time>
            <Position>
              <LatitudeDegrees>28.9573627151548862457275390625</LatitudeDegrees>
              <LongitudeDegrees>-13.55091749690473079681396484375</LongitudeDegrees>
            </Position>
            <AltitudeMeters>12.19999980926513671875</AltitudeMeters>
            <DistanceMeters>724.96871956573</DistanceMeters>
          </Trackpoint>
          <Trackpoint>
            <Time>2018-05-22T09:27:24.000Z</Time>
            <Position>
              <LatitudeDegrees>28.9574240706861019134521484375</LatitudeDegrees>
              <LongitudeDegrees>-13.5508349351584911346435546875</LongitudeDegrees>
            </Position>
            <AltitudeMeters>12</AltitudeMeters>
            <DistanceMeters>735.51796892743</DistanceMeters>
          </Trackpoint>
          <Trackpoint>
            <Time>2018-05-22T09:27:29.000Z</Time>
            <Position>
              <LatitudeDegrees>28.9575568400323390960693359375</LatitudeDegrees>
              <LongitudeDegrees>-13.550634272396564483642578125</LongitudeDegrees>
            </Position>
            <AltitudeMeters>12.19999980926513671875</AltitudeMeters>
            <DistanceMeters>760.01828120169</DistanceMeters>
          </Trackpoint>
          <Trackpoint>
            <Time>2018-05-22T09:27:32.000Z</Time>
            <Position>
              <LatitudeDegrees>28.95762984640896320343017578125</LatitudeDegrees>
              <LongitudeDegrees>-13.550519607961177825927734375</LongitudeDegrees>
            </Position>
            <AltitudeMeters>12.6000003814697265625</AltitudeMeters>
            <DistanceMeters>773.82824914142</DistanceMeters>
          </Trackpoint>
          <Trackpoint>
            <Time>2018-05-22T09:27:41.000Z</Time>
            <Position>
              <LatitudeDegrees>28.9578213728964328765869140625</LatitudeDegrees>
              <LongitudeDegrees>-13.55013177730143070220947265625</LongitudeDegrees>
            </Position>
            <AltitudeMeters>14</AltitudeMeters>
            <DistanceMeters>817.1983416394</DistanceMeters>
          </Trackpoint>
          <Trackpoint>
            <Time>2018-05-22T09:27:49.000Z</Time>
            <Position>
              <LatitudeDegrees>28.95800703205168247222900390625</LatitudeDegrees>
              <LongitudeDegrees>-13.54972827248275279998779296875</LongitudeDegrees>
            </Position>
            <AltitudeMeters>13</AltitudeMeters>
            <DistanceMeters>861.59636430973</DistanceMeters>
          </Trackpoint>
          <Trackpoint>
            <Time>2018-05-22T09:27:53.000Z</Time>
            <Position>
              <LatitudeDegrees>28.95809554494917392730712890625</LatitudeDegrees>
              <LongitudeDegrees>-13.54954303242266178131103515625</LongitudeDegrees>
            </Position>
            <AltitudeMeters>12</AltitudeMeters>
            <DistanceMeters>882.15093038599</DistanceMeters>
          </Trackpoint>
          <Trackpoint>
            <Time>2018-05-22T09:27:55.000Z</Time>
            <Position>
              <LatitudeDegrees>28.95813510753214359283447265625</LatitudeDegrees>
              <LongitudeDegrees>-13.54945334605872631072998046875</LongitudeDegrees>
            </Position>
            <AltitudeMeters>12</AltitudeMeters>
            <DistanceMeters>891.9326832964</DistanceMeters>
          </Trackpoint>
          <Trackpoint>
            <Time>2018-05-22T09:27:56.000Z</Time>
            <Position>
              <LatitudeDegrees>28.95815237425267696380615234375</LatitudeDegrees>
              <LongitudeDegrees>-13.54940556921064853668212890625</LongitudeDegrees>
            </Position>
            <AltitudeMeters>12</AltitudeMeters>
            <DistanceMeters>896.96640900423</DistanceMeters>
          </Trackpoint>
          <Trackpoint>
            <Time>2018-05-22T09:27:57.000Z</Time>
            <Position>
              <LatitudeDegrees>28.958168886601924896240234375</LatitudeDegrees>
              <LongitudeDegrees>-13.54935511015355587005615234375</LongitudeDegrees>
            </Position>
            <AltitudeMeters>12</AltitudeMeters>
            <DistanceMeters>902.21270989164</DistanceMeters>
          </Trackpoint>
          <Trackpoint>
            <Time>2018-05-22T09:27:58.000Z</Time>
            <Position>
              <LatitudeDegrees>28.9581839740276336669921875</LatitudeDegrees>
              <LongitudeDegrees>-13.54930280707776546478271484375</LongitudeDegrees>
            </Position>
            <AltitudeMeters>12</AltitudeMeters>
            <DistanceMeters>907.57561894121</DistanceMeters>
          </Trackpoint>
          <Trackpoint>
            <Time>2018-05-22T09:27:59.000Z</Time>
            <Position>
              <LatitudeDegrees>28.95819948054850101470947265625</LatitudeDegrees>
              <LongitudeDegrees>-13.54925218038260936737060546875</LongitudeDegrees>
            </Position>
            <AltitudeMeters>12</AltitudeMeters>
            <DistanceMeters>912.79949595102</DistanceMeters>
          </Trackpoint>
          <Trackpoint>
            <Time>2018-05-22T09:28:00.000Z</Time>
            <Position>
              <LatitudeDegrees>28.958213143050670623779296875</LatitudeDegrees>
              <LongitudeDegrees>-13.549195267260074615478515625</LongitudeDegrees>
            </Position>
            <AltitudeMeters>12</AltitudeMeters>
            <DistanceMeters>918.54684487309</DistanceMeters>
          </Trackpoint>
          <Trackpoint>
            <Time>2018-05-22T09:28:01.000Z</Time>
            <Position>
              <LatitudeDegrees>28.958226554095745086669921875</LatitudeDegrees>
              <LongitudeDegrees>-13.54914003051817417144775390625</LongitudeDegrees>
            </Position>
            <AltitudeMeters>12</AltitudeMeters>
            <DistanceMeters>924.13001815399</DistanceMeters>
          </Trackpoint>
          <Trackpoint>
            <Time>2018-05-22T09:28:03.000Z</Time>
            <Position>
              <LatitudeDegrees>28.958250023424625396728515625</LatitudeDegrees>
              <LongitudeDegrees>-13.549028299748897552490234375</LongitudeDegrees>
            </Position>
            <AltitudeMeters>12</AltitudeMeters>
            <DistanceMeters>935.32019554527</DistanceMeters>
          </Trackpoint>
          <Trackpoint>
            <Time>2018-05-22T09:28:14.000Z</Time>
            <Position>
              <LatitudeDegrees>28.95833208225667476654052734375</LatitudeDegrees>
              <LongitudeDegrees>-13.54841298423707485198974609375</LongitudeDegrees>
            </Position>
            <AltitudeMeters>12.19999980926513671875</AltitudeMeters>
            <DistanceMeters>995.9354715407</DistanceMeters>
          </Trackpoint>
          <Trackpoint>
            <Time>2018-05-22T09:28:20.000Z</Time>
            <Position>
              <LatitudeDegrees>28.95839410834014415740966796875</LatitudeDegrees>
              <LongitudeDegrees>-13.5481081344187259674072265625</LongitudeDegrees>
            </Position>
            <AltitudeMeters>12.3999996185302734375</AltitudeMeters>
            <DistanceMeters>1026.4157993746</DistanceMeters>
          </Trackpoint>
          <Trackpoint>
            <Time>2018-05-22T09:28:28.000Z</Time>
            <Position>
              <LatitudeDegrees>28.9585586450994014739990234375</LatitudeDegrees>
              <LongitudeDegrees>-13.54776305146515369415283203125</LongitudeDegrees>
            </Position>
            <AltitudeMeters>12.19999980926513671875</AltitudeMeters>
            <DistanceMeters>1064.6880961436</DistanceMeters>
          </Trackpoint>
          <Trackpoint>
            <Time>2018-05-22T09:28:31.000Z</Time>
            <Position>
              <LatitudeDegrees>28.9586176536977291107177734375</LatitudeDegrees>
              <LongitudeDegrees>-13.54761234484612941741943359375</LongitudeDegrees>
            </Position>
            <AltitudeMeters>12</AltitudeMeters>
            <DistanceMeters>1080.7672789172</DistanceMeters>
          </Trackpoint>
          <Trackpoint>
            <Time>2018-05-22T09:28:38.000Z</Time>
            <Position>
              <LatitudeDegrees>28.9587567932903766632080078125</LatitudeDegrees>
              <LongitudeDegrees>-13.5472572036087512969970703125</LongitudeDegrees>
            </Position>
            <AltitudeMeters>11.80000019073486328125</AltitudeMeters>
            <DistanceMeters>1118.6618547353</DistanceMeters>
          </Trackpoint>
          <Trackpoint>
            <Time>2018-05-22T09:28:43.000Z</Time>
            <Position>
              <LatitudeDegrees>28.95888067781925201416015625</LatitudeDegrees>
              <LongitudeDegrees>-13.54701764881610870361328125</LongitudeDegrees>
            </Position>
            <AltitudeMeters>12.3999996185302734375</AltitudeMeters>
            <DistanceMeters>1145.7611345561</DistanceMeters>
          </Trackpoint>
          <Trackpoint>
            <Time>2018-05-22T09:28:46.000Z</Time>
            <Position>
              <LatitudeDegrees>28.95895443856716156005859375</LatitudeDegrees>
              <LongitudeDegrees>-13.54686585254967212677001953125</LongitudeDegrees>
            </Position>
            <AltitudeMeters>12.3999996185302734375</AltitudeMeters>
            <DistanceMeters>1162.6705502917</DistanceMeters>
          </Trackpoint>
          <Trackpoint>
            <Time>2018-05-22T09:28:51.000Z</Time>
            <Position>
              <LatitudeDegrees>28.95911344327032566070556640625</LatitudeDegrees>
              <LongitudeDegrees>-13.5466459952294826507568359375</LongitudeDegrees>
            </Position>
            <AltitudeMeters>12.19999980926513671875</AltitudeMeters>
            <DistanceMeters>1190.4487622971</DistanceMeters>
          </Trackpoint>
          <Trackpoint>
            <Time>2018-05-22T09:28:59.000Z</Time>
            <Position>
              <LatitudeDegrees>28.9593726955354213714599609375</LatitudeDegrees>
              <LongitudeDegrees>-13.54630275629460811614990234375</LongitudeDegrees>
            </Position>
            <AltitudeMeters>11.80000019073486328125</AltitudeMeters>
            <DistanceMeters>1234.6070537871</DistanceMeters>
          </Trackpoint>
          <Trackpoint>
            <Time>2018-05-22T09:29:06.000Z</Time>
            <Position>
              <LatitudeDegrees>28.9596218056976795196533203125</LatitudeDegrees>
              <LongitudeDegrees>-13.54600067250430583953857421875</LongitudeDegrees>
            </Position>
            <AltitudeMeters>11.3999996185302734375</AltitudeMeters>
            <DistanceMeters>1275.0321820394</DistanceMeters>
          </Trackpoint>
          <Trackpoint>
            <Time>2018-05-22T09:29:17.000Z</Time>
            <Position>
              <LatitudeDegrees>28.95999304018914699554443359375</LatitudeDegrees>
              <LongitudeDegrees>-13.54555458761751651763916015625</LongitudeDegrees>
            </Position>
            <AltitudeMeters>13.3999996185302734375</AltitudeMeters>
            <DistanceMeters>1334.9859813256</DistanceMeters>
          </Trackpoint>
          <Trackpoint>
            <Time>2018-05-22T09:29:19.000Z</Time>
            <Position>
              <LatitudeDegrees>28.96004567854106426239013671875</LatitudeDegrees>
              <LongitudeDegrees>-13.54546557180583477020263671875</LongitudeDegrees>
            </Position>
            <AltitudeMeters>14</AltitudeMeters>
            <DistanceMeters>1345.4492813216</DistanceMeters>
          </Trackpoint>
          <Trackpoint>
            <Time>2018-05-22T09:29:21.000Z</Time>
            <Position>
              <LatitudeDegrees>28.96009982563555240631103515625</LatitudeDegrees>
              <LongitudeDegrees>-13.54537747800350189208984375</LongitudeDegrees>
            </Position>
            <AltitudeMeters>14.3999996185302734375</AltitudeMeters>
            <DistanceMeters>1355.9332734275</DistanceMeters>
          </Trackpoint>
          <Trackpoint>
            <Time>2018-05-22T09:29:30.000Z</Time>
            <Position>
              <LatitudeDegrees>28.96035765297710895538330078125</LatitudeDegrees>
              <LongitudeDegrees>-13.54495544917881488800048828125</LongitudeDegrees>
            </Position>
            <AltitudeMeters>14.80000019073486328125</AltitudeMeters>
            <DistanceMeters>1406.0593923738</DistanceMeters>
          </Trackpoint>
          <Trackpoint>
            <Time>2018-05-22T09:29:40.000Z</Time>
            <Position>
              <LatitudeDegrees>28.96054490469396114349365234375</LatitudeDegrees>
              <LongitudeDegrees>-13.54441129602491855621337890625</LongitudeDegrees>
            </Position>
            <AltitudeMeters>15.19999980926513671875</AltitudeMeters>
            <DistanceMeters>1463.0024412862</DistanceMeters>
          </Trackpoint>
          <Trackpoint>
            <Time>2018-05-22T09:29:51.000Z</Time>
            <Position>
              <LatitudeDegrees>28.96058782003819942474365234375</LatitudeDegrees>
              <LongitudeDegrees>-13.54374996386468410491943359375</LongitudeDegrees>
            </Position>
            <AltitudeMeters>13.80000019073486328125</AltitudeMeters>
            <DistanceMeters>1527.5825152724</DistanceMeters>
          </Trackpoint>
          <Trackpoint>
            <Time>2018-05-22T09:29:53.000Z</Time>
            <Position>
              <LatitudeDegrees>28.960562758147716522216796875</LatitudeDegrees>
              <LongitudeDegrees>-13.543634712696075439453125</LongitudeDegrees>
            </Position>
            <AltitudeMeters>13.19999980926513671875</AltitudeMeters>
            <DistanceMeters>1539.1476997624</DistanceMeters>
          </Trackpoint>
          <Trackpoint>
            <Time>2018-05-22T09:29:59.000Z</Time>
            <Position>
              <LatitudeDegrees>28.9604881592094898223876953125</LatitudeDegrees>
              <LongitudeDegrees>-13.54327705688774585723876953125</LongitudeDegrees>
            </Position>
            <AltitudeMeters>13.19999980926513671875</AltitudeMeters>
            <DistanceMeters>1574.9536093764</DistanceMeters>
          </Trackpoint>
          <Trackpoint>
            <Time>2018-05-22T09:30:02.000Z</Time>
            <Position>
              <LatitudeDegrees>28.9604589901864528656005859375</LatitudeDegrees>
              <LongitudeDegrees>-13.54309089481830596923828125</LongitudeDegrees>
            </Position>
            <AltitudeMeters>13.19999980926513671875</AltitudeMeters>
            <DistanceMeters>1593.3711496992</DistanceMeters>
          </Trackpoint>
          <Trackpoint>
            <Time>2018-05-22T09:30:04.000Z</Time>
            <Position>
              <LatitudeDegrees>28.9604623429477214813232421875</LatitudeDegrees>
              <LongitudeDegrees>-13.542964495718479156494140625</LongitudeDegrees>
            </Position>
            <AltitudeMeters>13.19999980926513671875</AltitudeMeters>
            <DistanceMeters>1605.6858199668</DistanceMeters>
          </Trackpoint>
          <Trackpoint>
            <Time>2018-05-22T09:30:06.000Z</Time>
            <Position>
              <LatitudeDegrees>28.96049142815172672271728515625</LatitudeDegrees>
              <LongitudeDegrees>-13.542846478521823883056640625</LongitudeDegrees>
            </Position>
            <AltitudeMeters>13.19999980926513671875</AltitudeMeters>
            <DistanceMeters>1617.6259559332</DistanceMeters>
          </Trackpoint>
          <Trackpoint>
            <Time>2018-05-22T09:30:08.000Z</Time>
            <Position>
              <LatitudeDegrees>28.96054507233202457427978515625</LatitudeDegrees>
              <LongitudeDegrees>-13.5427443869411945343017578125</LongitudeDegrees>
            </Position>
            <AltitudeMeters>13.19999980926513671875</AltitudeMeters>
            <DistanceMeters>1629.2234982863</DistanceMeters>
          </Trackpoint>
          <Trackpoint>
            <Time>2018-05-22T09:30:11.000Z</Time>
            <Position>
              <LatitudeDegrees>28.96065227687358856201171875</LatitudeDegrees>
              <LongitudeDegrees>-13.5426233522593975067138671875</LongitudeDegrees>
            </Position>
            <AltitudeMeters>13.19999980926513671875</AltitudeMeters>
            <DistanceMeters>1645.9956460731</DistanceMeters>
          </Trackpoint>
          <Trackpoint>
            <Time>2018-05-22T09:30:13.000Z</Time>
            <Position>
              <LatitudeDegrees>28.96074556745588779449462890625</LatitudeDegrees>
              <LongitudeDegrees>-13.542563505470752716064453125</LongitudeDegrees>
            </Position>
            <AltitudeMeters>13.3999996185302734375</AltitudeMeters>
            <DistanceMeters>1657.9028384478</DistanceMeters>
          </Trackpoint>
          <Trackpoint>
            <Time>2018-05-22T09:30:15.000Z</Time>
            <Position>
              <LatitudeDegrees>28.9608438871800899505615234375</LatitudeDegrees>
              <LongitudeDegrees>-13.54253140278160572052001953125</LongitudeDegrees>
            </Position>
            <AltitudeMeters>13.6000003814697265625</AltitudeMeters>
            <DistanceMeters>1669.2834529494</DistanceMeters>
          </Trackpoint>
          <Trackpoint>
            <Time>2018-05-22T09:30:17.000Z</Time>
            <Position>
              <LatitudeDegrees>28.96095192991197109222412109375</LatitudeDegrees>
              <LongitudeDegrees>-13.54252788238227367401123046875</LongitudeDegrees>
            </Position>
            <AltitudeMeters>14</AltitudeMeters>
            <DistanceMeters>1681.3140001209</DistanceMeters>
          </Trackpoint>
          <Trackpoint>
            <Time>2018-05-22T09:30:19.000Z</Time>
            <Position>
              <LatitudeDegrees>28.961065672338008880615234375</LatitudeDegrees>
              <LongitudeDegrees>-13.5425422154366970062255859375</LongitudeDegrees>
            </Position>
            <AltitudeMeters>14.19999980926513671875</AltitudeMeters>
            <DistanceMeters>1694.0507706423</DistanceMeters>
          </Trackpoint>
          <Trackpoint>
            <Time>2018-05-22T09:30:24.000Z</Time>
            <Position>
              <LatitudeDegrees>28.96129625849425792694091796875</LatitudeDegrees>
              <LongitudeDegrees>-13.5425864718854427337646484375</LongitudeDegrees>
            </Position>
            <AltitudeMeters>13.19999980926513671875</AltitudeMeters>
            <DistanceMeters>1720.0749081553</DistanceMeters>
          </Trackpoint>
          <Trackpoint>
            <Time>2018-05-22T09:30:25.000Z</Time>
            <Position>
              <LatitudeDegrees>28.9613303728401660919189453125</LatitudeDegrees>
              <LongitudeDegrees>-13.5425884835422039031982421875</LongitudeDegrees>
            </Position>
            <AltitudeMeters>13</AltitudeMeters>
            <DistanceMeters>1723.8783516561</DistanceMeters>
          </Trackpoint>
          <Trackpoint>
            <Time>2018-05-22T09:30:38.000Z</Time>
            <Position>
              <LatitudeDegrees>28.96187268197536468505859375</LatitudeDegrees>
              <LongitudeDegrees>-13.54259024374186992645263671875</LongitudeDegrees>
            </Position>
            <AltitudeMeters>13</AltitudeMeters>
            <DistanceMeters>1784.2386444227</DistanceMeters>
          </Trackpoint>
          <Trackpoint>
            <Time>2018-05-22T09:30:45.000Z</Time>
            <Position>
              <LatitudeDegrees>28.9621558226644992828369140625</LatitudeDegrees>
              <LongitudeDegrees>-13.54260985739529132843017578125</LongitudeDegrees>
            </Position>
            <AltitudeMeters>13.19999980926513671875</AltitudeMeters>
            <DistanceMeters>1815.8106893096</DistanceMeters>
          </Trackpoint>
          <Trackpoint>
            <Time>2018-05-22T09:30:59.000Z</Time>
            <Position>
              <LatitudeDegrees>28.9626979641616344451904296875</LatitudeDegrees>
              <LongitudeDegrees>-13.542646653950214385986328125</LongitudeDegrees>
            </Position>
            <AltitudeMeters>13.80000019073486328125</AltitudeMeters>
            <DistanceMeters>1876.2584364331</DistanceMeters>
          </Trackpoint>
          <Trackpoint>
            <Time>2018-05-22T09:31:04.000Z</Time>
            <Position>
              <LatitudeDegrees>28.9628713019192218780517578125</LatitudeDegrees>
              <LongitudeDegrees>-13.54265511967241764068603515625</LongitudeDegrees>
            </Position>
            <AltitudeMeters>14</AltitudeMeters>
            <DistanceMeters>1895.5687439573</DistanceMeters>
          </Trackpoint>
          <Trackpoint>
            <Time>2018-05-22T09:31:09.000Z</Time>
            <Position>
              <LatitudeDegrees>28.96301186643540859222412109375</LatitudeDegrees>
              <LongitudeDegrees>-13.5425603203475475311279296875</LongitudeDegrees>
            </Position>
            <AltitudeMeters>14</AltitudeMeters>
            <DistanceMeters>1913.7345115868</DistanceMeters>
          </Trackpoint>
          <Trackpoint>
            <Time>2018-05-22T09:31:22.000Z</Time>
            <Position>
              <LatitudeDegrees>28.96327522583305835723876953125</LatitudeDegrees>
              <LongitudeDegrees>-13.542138375341892242431640625</LongitudeDegrees>
            </Position>
            <AltitudeMeters>14.19999980926513671875</AltitudeMeters>
            <DistanceMeters>1964.2081009829</DistanceMeters>
          </Trackpoint>
          <Trackpoint>
            <Time>2018-05-22T09:31:37.000Z</Time>
            <Position>
              <LatitudeDegrees>28.96364989690482616424560546875</LatitudeDegrees>
              <LongitudeDegrees>-13.541650213301181793212890625</LongitudeDegrees>
            </Position>
            <AltitudeMeters>13.80000019073486328125</AltitudeMeters>
            <DistanceMeters>2027.4447916971</DistanceMeters>
          </Trackpoint>
          <Trackpoint>
            <Time>2018-05-22T09:31:51.000Z</Time>
            <Position>
              <LatitudeDegrees>28.96402942948043346405029296875</LatitudeDegrees>
              <LongitudeDegrees>-13.54121410287916660308837890625</LongitudeDegrees>
            </Position>
            <AltitudeMeters>13.3999996185302734375</AltitudeMeters>
            <DistanceMeters>2087.3451733707</DistanceMeters>
          </Trackpoint>
          <Trackpoint>
            <Time>2018-05-22T09:31:57.000Z</Time>
            <Position>
              <LatitudeDegrees>28.9642160944640636444091796875</LatitudeDegrees>
              <LongitudeDegrees>-13.5410328023135662078857421875</LongitudeDegrees>
            </Position>
            <AltitudeMeters>13</AltitudeMeters>
            <DistanceMeters>2114.60956155</DistanceMeters>
          </Trackpoint>
          <Trackpoint>
            <Time>2018-05-22T09:32:09.000Z</Time>
            <Position>
              <LatitudeDegrees>28.96459621377289295196533203125</LatitudeDegrees>
              <LongitudeDegrees>-13.540702052414417266845703125</LongitudeDegrees>
            </Position>
            <AltitudeMeters>12.80000019073486328125</AltitudeMeters>
            <DistanceMeters>2167.7825065973</DistanceMeters>
          </Trackpoint>
          <Trackpoint>
            <Time>2018-05-22T09:32:17.000Z</Time>
            <Position>
              <LatitudeDegrees>28.9648494310677051544189453125</LatitudeDegrees>
              <LongitudeDegrees>-13.54042218066751956939697265625</LongitudeDegrees>
            </Position>
            <AltitudeMeters>12.80000019073486328125</AltitudeMeters>
            <DistanceMeters>2206.9883685607</DistanceMeters>
          </Trackpoint>
          <Trackpoint>
            <Time>2018-05-22T09:32:19.000Z</Time>
            <Position>
              <LatitudeDegrees>28.964909277856349945068359375</LatitudeDegrees>
              <LongitudeDegrees>-13.5403642617166042327880859375</LongitudeDegrees>
            </Position>
            <AltitudeMeters>12.80000019073486328125</AltitudeMeters>
            <DistanceMeters>2215.7173882671</DistanceMeters>
          </Trackpoint>
          <Trackpoint>
            <Time>2018-05-22T09:32:21.000Z</Time>
            <Position>
              <LatitudeDegrees>28.96497172303497791290283203125</LatitudeDegrees>
              <LongitudeDegrees>-13.54030231945216655731201171875</LongitudeDegrees>
            </Position>
            <AltitudeMeters>12.6000003814697265625</AltitudeMeters>
            <DistanceMeters>2224.9202729761</DistanceMeters>
          </Trackpoint>
          <Trackpoint>
            <Time>2018-05-22T09:32:32.000Z</Time>
            <Position>
              <LatitudeDegrees>28.96542283706367015838623046875</LatitudeDegrees>
              <LongitudeDegrees>-13.5398931987583637237548828125</LongitudeDegrees>
            </Position>
            <AltitudeMeters>11.6000003814697265625</AltitudeMeters>
            <DistanceMeters>2289.0159855351</DistanceMeters>
          </Trackpoint>
          <Trackpoint>
            <Time>2018-05-22T09:32:33.000Z</Time>
            <Position>
              <LatitudeDegrees>28.96547027863562107086181640625</LatitudeDegrees>
              <LongitudeDegrees>-13.5398636944591999053955078125</LongitudeDegrees>
            </Position>
            <AltitudeMeters>11.3999996185302734375</AltitudeMeters>
            <DistanceMeters>2295.027504971</DistanceMeters>
          </Trackpoint>
          <Trackpoint>
            <Time>2018-05-22T09:32:35.000Z</Time>
            <Position>
              <LatitudeDegrees>28.96557790227234363555908203125</LatitudeDegrees>
              <LongitudeDegrees>-13.539829663932323455810546875</LongitudeDegrees>
            </Position>
            <AltitudeMeters>11.6000003814697265625</AltitudeMeters>
            <DistanceMeters>2307.4560401884</DistanceMeters>
          </Trackpoint>
          <Trackpoint>
            <Time>2018-05-22T09:32:44.000Z</Time>
            <Position>
              <LatitudeDegrees>28.96607796661555767059326171875</LatitudeDegrees>
              <LongitudeDegrees>-13.53983611799776554107666015625</LongitudeDegrees>
            </Position>
            <AltitudeMeters>12.3999996185302734375</AltitudeMeters>
            <DistanceMeters>2363.1176897143</DistanceMeters>
          </Trackpoint>
          <Trackpoint>
            <Time>2018-05-22T09:32:52.000Z</Time>
            <Position>
              <LatitudeDegrees>28.9664825610816478729248046875</LatitudeDegrees>
              <LongitudeDegrees>-13.539853803813457489013671875</LongitudeDegrees>
            </Position>
            <AltitudeMeters>12.6000003814697265625</AltitudeMeters>
            <DistanceMeters>2408.1828003017</DistanceMeters>
          </Trackpoint>
          <Trackpoint>
            <Time>2018-05-22T09:32:55.000Z</Time>
            <Position>
              <LatitudeDegrees>28.96662329323589801788330078125</LatitudeDegrees>
              <LongitudeDegrees>-13.53985053487122058868408203125</LongitudeDegrees>
            </Position>
            <AltitudeMeters>13.80000019073486328125</AltitudeMeters>
            <DistanceMeters>2423.8498210108</DistanceMeters>
          </Trackpoint>
          <Trackpoint>
            <Time>2018-05-22T09:32:57.000Z</Time>
            <Position>
              <LatitudeDegrees>28.9667226187884807586669921875</LatitudeDegrees>
              <LongitudeDegrees>-13.53983678855001926422119140625</LongitudeDegrees>
            </Position>
            <AltitudeMeters>14.3999996185302734375</AltitudeMeters>
            <DistanceMeters>2434.9853950745</DistanceMeters>
          </Trackpoint>
          <Trackpoint>
            <Time>2018-05-22T09:32:59.000Z</Time>
            <Position>
              <LatitudeDegrees>28.9668164961040019989013671875</LatitudeDegrees>
              <LongitudeDegrees>-13.53978565894067287445068359375</LongitudeDegrees>
            </Position>
            <AltitudeMeters>14.80000019073486328125</AltitudeMeters>
            <DistanceMeters>2446.559165159</DistanceMeters>
          </Trackpoint>
          <Trackpoint>
            <Time>2018-05-22T09:33:00.000Z</Time>
            <Position>
              <LatitudeDegrees>28.96685899235308170318603515625</LatitudeDegrees>
              <LongitudeDegrees>-13.53974425233900547027587890625</LongitudeDegrees>
            </Position>
            <AltitudeMeters>14.80000019073486328125</AltitudeMeters>
            <DistanceMeters>2452.7737960371</DistanceMeters>
          </Trackpoint>
          <Trackpoint>
            <Time>2018-05-22T09:33:01.000Z</Time>
            <Position>
              <LatitudeDegrees>28.96689754910767078399658203125</LatitudeDegrees>
              <LongitudeDegrees>-13.53969647549092769622802734375</LongitudeDegrees>
            </Position>
            <AltitudeMeters>14.80000019073486328125</AltitudeMeters>
            <DistanceMeters>2459.1028891084</DistanceMeters>
          </Trackpoint>
          <Trackpoint>
            <Time>2018-05-22T09:33:11.000Z</Time>
            <Position>
              <LatitudeDegrees>28.9672235213220119476318359375</LatitudeDegrees>
              <LongitudeDegrees>-13.53919222019612789154052734375</LongitudeDegrees>
            </Position>
            <AltitudeMeters>15</AltitudeMeters>
            <DistanceMeters>2520.155907665</DistanceMeters>
          </Trackpoint>
          <Trackpoint>
            <Time>2018-05-22T09:33:22.000Z</Time>
            <Position>
              <LatitudeDegrees>28.9675484038889408111572265625</LatitudeDegrees>
              <LongitudeDegrees>-13.53869852609932422637939453125</LongitudeDegrees>
            </Position>
            <AltitudeMeters>14.3999996185302734375</AltitudeMeters>
            <DistanceMeters>2580.3117208858</DistanceMeters>
          </Trackpoint>
          <Trackpoint>
            <Time>2018-05-22T09:33:34.000Z</Time>
            <Position>
              <LatitudeDegrees>28.96792014129459857940673828125</LatitudeDegrees>
              <LongitudeDegrees>-13.53818689472973346710205078125</LongitudeDegrees>
            </Position>
            <AltitudeMeters>14.6000003814697265625</AltitudeMeters>
            <DistanceMeters>2645.0733156377</DistanceMeters>
          </Trackpoint>
          <Trackpoint>
            <Time>2018-05-22T09:33:41.000Z</Time>
            <Position>
              <LatitudeDegrees>28.9681559242308139801025390625</LatitudeDegrees>
              <LongitudeDegrees>-13.5379123874008655548095703125</LongitudeDegrees>
            </Position>
            <AltitudeMeters>14.80000019073486328125</AltitudeMeters>
            <DistanceMeters>2682.5330103643</DistanceMeters>
          </Trackpoint>
          <Trackpoint>
            <Time>2018-05-22T09:33:43.000Z</Time>
            <Position>
              <LatitudeDegrees>28.96823865361511707305908203125</LatitudeDegrees>
              <LongitudeDegrees>-13.53786922059953212738037109375</LongitudeDegrees>
            </Position>
            <AltitudeMeters>14.80000019073486328125</AltitudeMeters>
            <DistanceMeters>2692.655028312</DistanceMeters>
          </Trackpoint>
          <Trackpoint>
            <Time>2018-05-22T09:33:45.000Z</Time>
            <Position>
              <LatitudeDegrees>28.96832473576068878173828125</LatitudeDegrees>
              <LongitudeDegrees>-13.5378553904592990875244140625</LongitudeDegrees>
            </Position>
            <AltitudeMeters>14.80000019073486328125</AltitudeMeters>
            <DistanceMeters>2702.3305025895</DistanceMeters>
          </Trackpoint>
          <Trackpoint>
            <Time>2018-05-22T09:33:47.000Z</Time>
            <Position>
              <LatitudeDegrees>28.968409560620784759521484375</LatitudeDegrees>
              <LongitudeDegrees>-13.53787005878984928131103515625</LongitudeDegrees>
            </Position>
            <AltitudeMeters>14.80000019073486328125</AltitudeMeters>
            <DistanceMeters>2711.8791507585</DistanceMeters>
          </Trackpoint>
          <Trackpoint>
            <Time>2018-05-22T09:33:49.000Z</Time>
            <Position>
              <LatitudeDegrees>28.9684915356338024139404296875</LatitudeDegrees>
              <LongitudeDegrees>-13.5379149019718170166015625</LongitudeDegrees>
            </Position>
            <AltitudeMeters>14.80000019073486328125</AltitudeMeters>
            <DistanceMeters>2721.994029211</DistanceMeters>
          </Trackpoint>
          <Trackpoint>
            <Time>2018-05-22T09:33:53.000Z</Time>
            <Position>
              <LatitudeDegrees>28.96867702715098857879638671875</LatitudeDegrees>
              <LongitudeDegrees>-13.5379965417087078094482421875</LongitudeDegrees>
            </Position>
            <AltitudeMeters>13.80000019073486328125</AltitudeMeters>
            <DistanceMeters>2744.1173014224</DistanceMeters>
          </Trackpoint>
          <Trackpoint>
            <Time>2018-05-22T09:33:54.000Z</Time>
            <Position>
              <LatitudeDegrees>28.968716003000736236572265625</LatitudeDegrees>
              <LongitudeDegrees>-13.5379781015217304229736328125</LongitudeDegrees>
            </Position>
            <AltitudeMeters>13.6000003814697265625</AltitudeMeters>
            <DistanceMeters>2748.8131982139</DistanceMeters>
          </Trackpoint>
          <Trackpoint>
            <Time>2018-05-22T09:33:55.000Z</Time>
            <Position>
              <LatitudeDegrees>28.96874659694731235504150390625</LatitudeDegrees>
              <LongitudeDegrees>-13.5379444062709808349609375</LongitudeDegrees>
            </Position>
            <AltitudeMeters>13.3999996185302734375</AltitudeMeters>
            <DistanceMeters>2753.5426272864</DistanceMeters>
          </Trackpoint>
          <Trackpoint>
            <Time>2018-05-22T09:34:01.000Z</Time>
            <Position>
              <LatitudeDegrees>28.96891607902944087982177734375</LatitudeDegrees>
              <LongitudeDegrees>-13.53775790892541408538818359375</LongitudeDegrees>
            </Position>
            <AltitudeMeters>13</AltitudeMeters>
            <DistanceMeters>2779.7274449163</DistanceMeters>
          </Trackpoint>
          <Trackpoint>
            <Time>2018-05-22T09:34:09.000Z</Time>
            <Position>
              <LatitudeDegrees>28.969131745398044586181640625</LatitudeDegrees>
              <LongitudeDegrees>-13.53746571578085422515869140625</LongitudeDegrees>
            </Position>
            <AltitudeMeters>12.80000019073486328125</AltitudeMeters>
            <DistanceMeters>2816.9530611103</DistanceMeters>
          </Trackpoint>
          <Trackpoint>
            <Time>2018-05-22T09:34:12.000Z</Time>
            <Position>
              <LatitudeDegrees>28.969142138957977294921875</LatitudeDegrees>
              <LongitudeDegrees>-13.53730696253478527069091796875</LongitudeDegrees>
            </Position>
            <AltitudeMeters>13</AltitudeMeters>
            <DistanceMeters>2832.4549446838</DistanceMeters>
          </Trackpoint>
          <Trackpoint>
            <Time>2018-05-22T09:34:21.000Z</Time>
            <Position>
              <LatitudeDegrees>28.96926459856331348419189453125</LatitudeDegrees>
              <LongitudeDegrees>-13.53684495203197002410888671875</LongitudeDegrees>
            </Position>
            <AltitudeMeters>12.3999996185302734375</AltitudeMeters>
            <DistanceMeters>2879.4630188486</DistanceMeters>
          </Trackpoint>
          <Trackpoint>
            <Time>2018-05-22T09:34:24.000Z</Time>
            <Position>
              <LatitudeDegrees>28.96933064796030521392822265625</LatitudeDegrees>
              <LongitudeDegrees>-13.53669038973748683929443359375</LongitudeDegrees>
            </Position>
            <AltitudeMeters>12.3999996185302734375</AltitudeMeters>
            <DistanceMeters>2896.2130778071</DistanceMeters>
          </Trackpoint>
          <Trackpoint>
            <Time>2018-05-22T09:34:26.000Z</Time>
            <Position>
              <LatitudeDegrees>28.96940055303275585174560546875</LatitudeDegrees>
              <LongitudeDegrees>-13.536633141338825225830078125</LongitudeDegrees>
            </Position>
            <AltitudeMeters>12.3999996185302734375</AltitudeMeters>
            <DistanceMeters>2905.7843956643</DistanceMeters>
          </Trackpoint>
          <Trackpoint>
            <Time>2018-05-22T09:34:30.000Z</Time>
            <Position>
              <LatitudeDegrees>28.9695533551275730133056640625</LatitudeDegrees>
              <LongitudeDegrees>-13.5366430319845676422119140625</LongitudeDegrees>
            </Position>
            <AltitudeMeters>13.3999996185302734375</AltitudeMeters>
            <DistanceMeters>2922.8188453605</DistanceMeters>
          </Trackpoint>
          <Trackpoint>
            <Time>2018-05-22T09:34:31.000Z</Time>
            <Position>
              <LatitudeDegrees>28.969603814184665679931640625</LatitudeDegrees>
              <LongitudeDegrees>-13.53663674555718898773193359375</LongitudeDegrees>
            </Position>
            <AltitudeMeters>14.19999980926513671875</AltitudeMeters>
            <DistanceMeters>2928.4679417619</DistanceMeters>
          </Trackpoint>
          <Trackpoint>
            <Time>2018-05-22T09:34:33.000Z</Time>
            <Position>
              <LatitudeDegrees>28.96967916749417781829833984375</LatitudeDegrees>
              <LongitudeDegrees>-13.53660129010677337646484375</LongitudeDegrees>
            </Position>
            <AltitudeMeters>16</AltitudeMeters>
            <DistanceMeters>2937.5378919495</DistanceMeters>
          </Trackpoint>
          <Trackpoint>
            <Time>2018-05-22T09:34:48.000Z</Time>
            <Position>
              <LatitudeDegrees>28.97001796402037143707275390625</LatitudeDegrees>
              <LongitudeDegrees>-13.536096699535846710205078125</LongitudeDegrees>
            </Position>
            <AltitudeMeters>15.80000019073486328125</AltitudeMeters>
            <DistanceMeters>2999.474610259</DistanceMeters>
          </Trackpoint>
          <Trackpoint>
            <Time>2018-05-22T09:34:57.000Z</Time>
            <Position>
              <LatitudeDegrees>28.9702270925045013427734375</LatitudeDegrees>
              <LongitudeDegrees>-13.53580961935222148895263671875</LongitudeDegrees>
            </Position>
            <AltitudeMeters>17.200000762939453125</AltitudeMeters>
            <DistanceMeters>3035.8511046193</DistanceMeters>
          </Trackpoint>
          <Trackpoint>
            <Time>2018-05-22T09:35:00.000Z</Time>
            <Position>
              <LatitudeDegrees>28.9702778868377208709716796875</LatitudeDegrees>
              <LongitudeDegrees>-13.53571222163736820220947265625</LongitudeDegrees>
            </Position>
            <AltitudeMeters>18.200000762939453125</AltitudeMeters>
            <DistanceMeters>3046.8922110853</DistanceMeters>
          </Trackpoint>
          <Trackpoint>
            <Time>2018-05-22T09:35:04.000Z</Time>
            <Position>
              <LatitudeDegrees>28.970307223498821258544921875</LatitudeDegrees>
              <LongitudeDegrees>-13.53556822054088115692138671875</LongitudeDegrees>
            </Position>
            <AltitudeMeters>19.200000762939453125</AltitudeMeters>
            <DistanceMeters>3061.2896207402</DistanceMeters>
          </Trackpoint>
          <Trackpoint>
            <Time>2018-05-22T09:35:07.000Z</Time>
            <Position>
              <LatitudeDegrees>28.97033513523638248443603515625</LatitudeDegrees>
              <LongitudeDegrees>-13.5354531370103359222412109375</LongitudeDegrees>
            </Position>
            <AltitudeMeters>19.799999237060546875</AltitudeMeters>
            <DistanceMeters>3072.9186544415</DistanceMeters>
          </Trackpoint>
          <Trackpoint>
            <Time>2018-05-22T09:35:09.000Z</Time>
            <Position>
              <LatitudeDegrees>28.9703585207462310791015625</LatitudeDegrees>
              <LongitudeDegrees>-13.5353709943592548370361328125</LongitudeDegrees>
            </Position>
            <AltitudeMeters>20.200000762939453125</AltitudeMeters>
            <DistanceMeters>3081.3305317001</DistanceMeters>
          </Trackpoint>
          <Trackpoint>
            <Time>2018-05-22T09:35:13.000Z</Time>
            <Position>
              <LatitudeDegrees>28.97042700089514255523681640625</LatitudeDegrees>
              <LongitudeDegrees>-13.5352219641208648681640625</LongitudeDegrees>
            </Position>
            <AltitudeMeters>21.3999996185302734375</AltitudeMeters>
            <DistanceMeters>3097.7222956256</DistanceMeters>
          </Trackpoint>
          <Trackpoint>
            <Time>2018-05-22T09:35:20.000Z</Time>
            <Position>
              <LatitudeDegrees>28.9705601893365383148193359375</LatitudeDegrees>
              <LongitudeDegrees>-13.5349441878497600555419921875</LongitudeDegrees>
            </Position>
            <AltitudeMeters>22.3999996185302734375</AltitudeMeters>
            <DistanceMeters>3128.5666262851</DistanceMeters>
          </Trackpoint>
          <Trackpoint>
            <Time>2018-05-22T09:35:21.000Z</Time>
            <Position>
              <LatitudeDegrees>28.97057888098061084747314453125</LatitudeDegrees>
              <LongitudeDegrees>-13.5349052958190441131591796875</LongitudeDegrees>
            </Position>
            <AltitudeMeters>22.6000003814697265625</AltitudeMeters>
            <DistanceMeters>3132.8879915886</DistanceMeters>
          </Trackpoint>
          <Trackpoint>
            <Time>2018-05-22T09:35:34.000Z</Time>
            <Position>
              <LatitudeDegrees>28.97091818042099475860595703125</LatitudeDegrees>
              <LongitudeDegrees>-13.53446834720671176910400390625</LongitudeDegrees>
            </Position>
            <AltitudeMeters>23.799999237060546875</AltitudeMeters>
            <DistanceMeters>3189.7780498446</DistanceMeters>
          </Trackpoint>
          <Trackpoint>
            <Time>2018-05-22T09:35:45.000Z</Time>
            <Position>
              <LatitudeDegrees>28.97125094197690486907958984375</LatitudeDegrees>
              <LongitudeDegrees>-13.5341180674731731414794921875</LongitudeDegrees>
            </Position>
            <AltitudeMeters>24.6000003814697265625</AltitudeMeters>
            <DistanceMeters>3240.1278627627</DistanceMeters>
          </Trackpoint>
          <Trackpoint>
            <Time>2018-05-22T09:35:46.000Z</Time>
            <Position>
              <LatitudeDegrees>28.9712806977331638336181640625</LatitudeDegrees>
              <LongitudeDegrees>-13.5340868867933750152587890625</LongitudeDegrees>
            </Position>
            <AltitudeMeters>25</AltitudeMeters>
            <DistanceMeters>3244.6213303468</DistanceMeters>
          </Trackpoint>
          <Trackpoint>
            <Time>2018-05-22T09:35:51.000Z</Time>
            <Position>
              <LatitudeDegrees>28.97143341600894927978515625</LatitudeDegrees>
              <LongitudeDegrees>-13.53393006138503551483154296875</LongitudeDegrees>
            </Position>
            <AltitudeMeters>26</AltitudeMeters>
            <DistanceMeters>3267.4712541976</DistanceMeters>
          </Trackpoint>
          <Trackpoint>
            <Time>2018-05-22T09:35:59.000Z</Time>
            <Position>
              <LatitudeDegrees>28.97167556919157505035400390625</LatitudeDegrees>
              <LongitudeDegrees>-13.5336691327393054962158203125</LongitudeDegrees>
            </Position>
            <AltitudeMeters>27</AltitudeMeters>
            <DistanceMeters>3304.5111998548</DistanceMeters>
          </Trackpoint>
          <Trackpoint>
            <Time>2018-05-22T09:36:06.000Z</Time>
            <Position>
              <LatitudeDegrees>28.9718605577945709228515625</LatitudeDegrees>
              <LongitudeDegrees>-13.53342949412763118743896484375</LongitudeDegrees>
            </Position>
            <AltitudeMeters>28.200000762939453125</AltitudeMeters>
            <DistanceMeters>3335.63081663</DistanceMeters>
          </Trackpoint>
          <Trackpoint>
            <Time>2018-05-22T09:36:16.000Z</Time>
            <Position>
              <LatitudeDegrees>28.972082845866680145263671875</LatitudeDegrees>
              <LongitudeDegrees>-13.53308089077472686767578125</LongitudeDegrees>
            </Position>
            <AltitudeMeters>29.3999996185302734375</AltitudeMeters>
            <DistanceMeters>3377.6350967233</DistanceMeters>
          </Trackpoint>
          <Trackpoint>
            <Time>2018-05-22T09:36:24.000Z</Time>
            <Position>
              <LatitudeDegrees>28.9722843468189239501953125</LatitudeDegrees>
              <LongitudeDegrees>-13.53279062546789646148681640625</LongitudeDegrees>
            </Position>
            <AltitudeMeters>30.3999996185302734375</AltitudeMeters>
            <DistanceMeters>3413.7162283682</DistanceMeters>
          </Trackpoint>
          <Trackpoint>
            <Time>2018-05-22T09:36:30.000Z</Time>
            <Position>
              <LatitudeDegrees>28.972485847771167755126953125</LatitudeDegrees>
              <LongitudeDegrees>-13.5326039604842662811279296875</LongitudeDegrees>
            </Position>
            <AltitudeMeters>31.6000003814697265625</AltitudeMeters>
            <DistanceMeters>3442.5840241744</DistanceMeters>
          </Trackpoint>
          <Trackpoint>
            <Time>2018-05-22T09:36:35.000Z</Time>
            <Position>
              <LatitudeDegrees>28.9726596884429454803466796875</LatitudeDegrees>
              <LongitudeDegrees>-13.53245266713201999664306640625</LongitudeDegrees>
            </Position>
            <AltitudeMeters>31.6000003814697265625</AltitudeMeters>
            <DistanceMeters>3466.9026953237</DistanceMeters>
          </Trackpoint>
          <Trackpoint>
            <Time>2018-05-22T09:36:37.000Z</Time>
            <Position>
              <LatitudeDegrees>28.97269899956881999969482421875</LatitudeDegrees>
              <LongitudeDegrees>-13.53236884810030460357666015625</LongitudeDegrees>
            </Position>
            <AltitudeMeters>31.200000762939453125</AltitudeMeters>
            <DistanceMeters>3476.1628036337</DistanceMeters>
          </Trackpoint>
          <Trackpoint>
            <Time>2018-05-22T09:36:39.000Z</Time>
            <Position>
              <LatitudeDegrees>28.97272783331573009490966796875</LatitudeDegrees>
              <LongitudeDegrees>-13.53225183673202991485595703125</LongitudeDegrees>
            </Position>
            <AltitudeMeters>30.200000762939453125</AltitudeMeters>
            <DistanceMeters>3487.9996387725</DistanceMeters>
          </Trackpoint>
          <Trackpoint>
            <Time>2018-05-22T09:36:41.000Z</Time>
            <Position>
              <LatitudeDegrees>28.97280226461589336395263671875</LatitudeDegrees>
              <LongitudeDegrees>-13.53214086033403873443603515625</LongitudeDegrees>
            </Position>
            <AltitudeMeters>28.799999237060546875</AltitudeMeters>
            <DistanceMeters>3501.6160086833</DistanceMeters>
          </Trackpoint>
          <Trackpoint>
            <Time>2018-05-22T09:36:43.000Z</Time>
            <Position>
              <LatitudeDegrees>28.97290284745395183563232421875</LatitudeDegrees>
              <LongitudeDegrees>-13.53208151645958423614501953125</LongitudeDegrees>
            </Position>
            <AltitudeMeters>28.200000762939453125</AltitudeMeters>
            <DistanceMeters>3514.2141285263</DistanceMeters>
          </Trackpoint>
          <Trackpoint>
            <Time>2018-05-22T09:36:48.000Z</Time>
            <Position>
              <LatitudeDegrees>28.97316218353807926177978515625</LatitudeDegrees>
              <LongitudeDegrees>-13.53203088976442813873291015625</LongitudeDegrees>
            </Position>
            <AltitudeMeters>27.799999237060546875</AltitudeMeters>
            <DistanceMeters>3543.4966996035</DistanceMeters>
          </Trackpoint>
          <Trackpoint>
            <Time>2018-05-22T09:36:49.000Z</Time>
            <Position>
              <LatitudeDegrees>28.97321842610836029052734375</LatitudeDegrees>
              <LongitudeDegrees>-13.53203751146793365478515625</LongitudeDegrees>
            </Position>
            <AltitudeMeters>27.6000003814697265625</AltitudeMeters>
            <DistanceMeters>3549.7900226751</DistanceMeters>
          </Trackpoint>
          <Trackpoint>
            <Time>2018-05-22T09:36:52.000Z</Time>
            <Position>
              <LatitudeDegrees>28.97339704446494579315185546875</LatitudeDegrees>
              <LongitudeDegrees>-13.5320571251213550567626953125</LongitudeDegrees>
            </Position>
            <AltitudeMeters>26.799999237060546875</AltitudeMeters>
            <DistanceMeters>3569.7621424113</DistanceMeters>
          </Trackpoint>
          <Trackpoint>
            <Time>2018-05-22T09:36:53.000Z</Time>
            <Position>
              <LatitudeDegrees>28.973457477986812591552734375</LatitudeDegrees>
              <LongitudeDegrees>-13.532041870057582855224609375</LongitudeDegrees>
            </Position>
            <AltitudeMeters>26.6000003814697265625</AltitudeMeters>
            <DistanceMeters>3576.6501044928</DistanceMeters>
          </Trackpoint>
          <Trackpoint>
            <Time>2018-05-22T09:36:54.000Z</Time>
            <Position>
              <LatitudeDegrees>28.97351455874741077423095703125</LatitudeDegrees>
              <LongitudeDegrees>-13.5320127010345458984375</LongitudeDegrees>
            </Position>
            <AltitudeMeters>26.6000003814697265625</AltitudeMeters>
            <DistanceMeters>3583.6085001335</DistanceMeters>
          </Trackpoint>
          <Trackpoint>
            <Time>2018-05-22T09:36:56.000Z</Time>
            <Position>
              <LatitudeDegrees>28.9735957793891429901123046875</LatitudeDegrees>
              <LongitudeDegrees>-13.531913794577121734619140625</LongitudeDegrees>
            </Position>
            <AltitudeMeters>26.200000762939453125</AltitudeMeters>
            <DistanceMeters>3596.8168716038</DistanceMeters>
          </Trackpoint>
          <Trackpoint>
            <Time>2018-05-22T09:36:59.000Z</Time>
            <Position>
              <LatitudeDegrees>28.97363978438079357147216796875</LatitudeDegrees>
              <LongitudeDegrees>-13.5317164845764636993408203125</LongitudeDegrees>
            </Position>
            <AltitudeMeters>25.799999237060546875</AltitudeMeters>
            <DistanceMeters>3616.6437805368</DistanceMeters>
          </Trackpoint>
          <Trackpoint>
            <Time>2018-05-22T09:37:00.000Z</Time>
            <Position>
              <LatitudeDegrees>28.97363006137311458587646484375</LatitudeDegrees>
              <LongitudeDegrees>-13.5316480882465839385986328125</LongitudeDegrees>
            </Position>
            <AltitudeMeters>25.6000003814697265625</AltitudeMeters>
            <DistanceMeters>3623.3913464261</DistanceMeters>
          </Trackpoint>
          <Trackpoint>
            <Time>2018-05-22T09:37:02.000Z</Time>
            <Position>
              <LatitudeDegrees>28.973608352243900299072265625</LatitudeDegrees>
              <LongitudeDegrees>-13.5315151512622833251953125</LongitudeDegrees>
            </Position>
            <AltitudeMeters>24.6000003814697265625</AltitudeMeters>
            <DistanceMeters>3636.5593199937</DistanceMeters>
          </Trackpoint>
          <Trackpoint>
            <Time>2018-05-22T09:37:04.000Z</Time>
            <Position>
              <LatitudeDegrees>28.97366040386259555816650390625</LatitudeDegrees>
              <LongitudeDegrees>-13.53141280822455883026123046875</LongitudeDegrees>
            </Position>
            <AltitudeMeters>22.799999237060546875</AltitudeMeters>
            <DistanceMeters>3648.0861818735</DistanceMeters>
          </Trackpoint>
          <Trackpoint>
            <Time>2018-05-22T09:37:07.000Z</Time>
            <Position>
              <LatitudeDegrees>28.97369912825524806976318359375</LatitudeDegrees>
              <LongitudeDegrees>-13.53134147822856903076171875</LongitudeDegrees>
            </Position>
            <AltitudeMeters>21.799999237060546875</AltitudeMeters>
            <DistanceMeters>3656.2606889342</DistanceMeters>
          </Trackpoint>
          <Trackpoint>
            <Time>2018-05-22T09:37:08.000Z</Time>
            <Position>
              <LatitudeDegrees>28.9736769162118434906005859375</LatitudeDegrees>
              <LongitudeDegrees>-13.5313470102846622467041015625</LongitudeDegrees>
            </Position>
            <AltitudeMeters>21.6000003814697265625</AltitudeMeters>
            <DistanceMeters>3658.7909703807</DistanceMeters>
          </Trackpoint>
          <Trackpoint>
            <Time>2018-05-22T09:37:12.000Z</Time>
            <Position>
              <LatitudeDegrees>28.9735739864408969879150390625</LatitudeDegrees>
              <LongitudeDegrees>-13.531466536223888397216796875</LongitudeDegrees>
            </Position>
            <AltitudeMeters>20.799999237060546875</AltitudeMeters>
            <DistanceMeters>3675.1217473891</DistanceMeters>
          </Trackpoint>
          <Trackpoint>
            <Time>2018-05-22T09:37:13.000Z</Time>
            <Position>
              <LatitudeDegrees>28.97356417961418628692626953125</LatitudeDegrees>
              <LongitudeDegrees>-13.53151657618582248687744140625</LongitudeDegrees>
            </Position>
            <AltitudeMeters>20.6000003814697265625</AltitudeMeters>
            <DistanceMeters>3680.1149468705</DistanceMeters>
          </Trackpoint>
          <Trackpoint>
            <Time>2018-05-22T09:37:16.000Z</Time>
            <Position>
              <LatitudeDegrees>28.97353702224791049957275390625</LatitudeDegrees>
              <LongitudeDegrees>-13.5316655226051807403564453125</LongitudeDegrees>
            </Position>
            <AltitudeMeters>19.6000003814697265625</AltitudeMeters>
            <DistanceMeters>3694.9293647765</DistanceMeters>
          </Trackpoint>
          <Trackpoint>
            <Time>2018-05-22T09:37:20.000Z</Time>
            <Position>
              <LatitudeDegrees>28.97343090735375881195068359375</LatitudeDegrees>
              <LongitudeDegrees>-13.53181011043488979339599609375</LongitudeDegrees>
            </Position>
            <AltitudeMeters>18.799999237060546875</AltitudeMeters>
            <DistanceMeters>3713.3061653373</DistanceMeters>
          </Trackpoint>
          <Trackpoint>
            <Time>2018-05-22T09:37:21.000Z</Time>
            <Position>
              <LatitudeDegrees>28.97342227399349212646484375</LatitudeDegrees>
              <LongitudeDegrees>-13.531807176768779754638671875</LongitudeDegrees>
            </Position>
            <AltitudeMeters>18.3999996185302734375</AltitudeMeters>
            <DistanceMeters>3714.3028139258</DistanceMeters>
          </Trackpoint>
          <Trackpoint>
            <Time>2018-05-22T09:37:22.000Z</Time>
            <Position>
              <LatitudeDegrees>28.97343032062053680419921875</LatitudeDegrees>
              <LongitudeDegrees>-13.53178647346794605255126953125</LongitudeDegrees>
            </Position>
            <AltitudeMeters>18.200000762939453125</AltitudeMeters>
            <DistanceMeters>3716.5069421269</DistanceMeters>
          </Trackpoint>
          <Trackpoint>
            <Time>2018-05-22T09:37:27.000Z</Time>
            <Position>
              <LatitudeDegrees>28.97352729924023151397705078125</LatitudeDegrees>
              <LongitudeDegrees>-13.53163576684892177581787109375</LongitudeDegrees>
            </Position>
            <AltitudeMeters>17</AltitudeMeters>
            <DistanceMeters>3734.7240862332</DistanceMeters>
          </Trackpoint>
          <Trackpoint>
            <Time>2018-05-22T09:37:31.000Z</Time>
            <Position>
              <LatitudeDegrees>28.97354791872203350067138671875</LatitudeDegrees>
              <LongitudeDegrees>-13.53146611712872982025146484375</LongitudeDegrees>
            </Position>
            <AltitudeMeters>15.80000019073486328125</AltitudeMeters>
            <DistanceMeters>3751.4017483784</DistanceMeters>
          </Trackpoint>
          <Trackpoint>
            <Time>2018-05-22T09:37:35.000Z</Time>
            <Position>
              <LatitudeDegrees>28.97361665032804012298583984375</LatitudeDegrees>
              <LongitudeDegrees>-13.5313165001571178436279296875</LongitudeDegrees>
            </Position>
            <AltitudeMeters>15.19999980926513671875</AltitudeMeters>
            <DistanceMeters>3767.856742823</DistanceMeters>
          </Trackpoint>
          <Trackpoint>
            <Time>2018-05-22T09:37:37.000Z</Time>
            <Position>
              <LatitudeDegrees>28.97360374219715595245361328125</LatitudeDegrees>
              <LongitudeDegrees>-13.53122672997415065765380859375</LongitudeDegrees>
            </Position>
            <AltitudeMeters>15</AltitudeMeters>
            <DistanceMeters>3776.7156589177</DistanceMeters>
          </Trackpoint>
          <Trackpoint>
            <Time>2018-05-22T09:37:38.000Z</Time>
            <Position>
              <LatitudeDegrees>28.97358966059982776641845703125</LatitudeDegrees>
              <LongitudeDegrees>-13.53117828257381916046142578125</LongitudeDegrees>
            </Position>
            <AltitudeMeters>14.80000019073486328125</AltitudeMeters>
            <DistanceMeters>3781.6862010563</DistanceMeters>
          </Trackpoint>
          <Trackpoint>
            <Time>2018-05-22T09:37:42.000Z</Time>
            <Position>
              <LatitudeDegrees>28.97355278022587299346923828125</LatitudeDegrees>
              <LongitudeDegrees>-13.53103159926831722259521484375</LongitudeDegrees>
            </Position>
            <AltitudeMeters>14.19999980926513671875</AltitudeMeters>
            <DistanceMeters>3796.5471761114</DistanceMeters>
          </Trackpoint>
          <Trackpoint>
            <Time>2018-05-22T09:37:45.000Z</Time>
            <Position>
              <LatitudeDegrees>28.973584212362766265869140625</LatitudeDegrees>
              <LongitudeDegrees>-13.53106210939586162567138671875</LongitudeDegrees>
            </Position>
            <AltitudeMeters>13.6000003814697265625</AltitudeMeters>
            <DistanceMeters>3801.136090827</DistanceMeters>
          </Trackpoint>
          <Trackpoint>
            <Time>2018-05-22T09:37:47.000Z</Time>
            <Position>
              <LatitudeDegrees>28.973607681691646575927734375</LatitudeDegrees>
              <LongitudeDegrees>-13.53110837750136852264404296875</LongitudeDegrees>
            </Position>
            <AltitudeMeters>13.19999980926513671875</AltitudeMeters>
            <DistanceMeters>3806.3435200931</DistanceMeters>
          </Trackpoint>
          <Trackpoint>
            <Time>2018-05-22T09:37:49.000Z</Time>
            <Position>
              <LatitudeDegrees>28.97365503944456577301025390625</LatitudeDegrees>
              <LongitudeDegrees>-13.53111491538584232330322265625</LongitudeDegrees>
            </Position>
            <AltitudeMeters>12.6000003814697265625</AltitudeMeters>
            <DistanceMeters>3811.6531244718</DistanceMeters>
          </Trackpoint>
          <Trackpoint>
            <Time>2018-05-22T09:37:59.000Z</Time>
            <Position>
              <LatitudeDegrees>28.97383240051567554473876953125</LatitudeDegrees>
              <LongitudeDegrees>-13.53087502531707286834716796875</LongitudeDegrees>
            </Position>
            <AltitudeMeters>11.3999996185302734375</AltitudeMeters>
            <DistanceMeters>3842.2360814562</DistanceMeters>
          </Trackpoint>
          <Trackpoint>
            <Time>2018-05-22T09:38:14.000Z</Time>
            <Position>
              <LatitudeDegrees>28.9739766530692577362060546875</LatitudeDegrees>
              <LongitudeDegrees>-13.5303351469337940216064453125</LongitudeDegrees>
            </Position>
            <AltitudeMeters>12.6000003814697265625</AltitudeMeters>
            <DistanceMeters>3897.2019513787</DistanceMeters>
          </Trackpoint>
          <Trackpoint>
            <Time>2018-05-22T09:38:23.000Z</Time>
            <Position>
              <LatitudeDegrees>28.97390373051166534423828125</LatitudeDegrees>
              <LongitudeDegrees>-13.529928624629974365234375</LongitudeDegrees>
            </Position>
            <AltitudeMeters>12.19999980926513671875</AltitudeMeters>
            <DistanceMeters>3937.609205455</DistanceMeters>
          </Trackpoint>
          <Trackpoint>
            <Time>2018-05-22T09:38:37.000Z</Time>
            <Position>
              <LatitudeDegrees>28.97388000972568988800048828125</LatitudeDegrees>
              <LongitudeDegrees>-13.52929201908409595489501953125</LongitudeDegrees>
            </Position>
            <AltitudeMeters>12.6000003814697265625</AltitudeMeters>
            <DistanceMeters>3999.652554066</DistanceMeters>
          </Trackpoint>
          <Trackpoint>
            <Time>2018-05-22T09:38:50.000Z</Time>
            <Position>
              <LatitudeDegrees>28.9737288840115070343017578125</LatitudeDegrees>
              <LongitudeDegrees>-13.5286983288824558258056640625</LongitudeDegrees>
            </Position>
            <AltitudeMeters>13.3999996185302734375</AltitudeMeters>
            <DistanceMeters>4059.8585586286</DistanceMeters>
          </Trackpoint>
          <Trackpoint>
            <Time>2018-05-22T09:39:01.000Z</Time>
            <Position>
              <LatitudeDegrees>28.97360558621585369110107421875</LatitudeDegrees>
              <LongitudeDegrees>-13.52820463478565216064453125</LongitudeDegrees>
            </Position>
            <AltitudeMeters>13.80000019073486328125</AltitudeMeters>
            <DistanceMeters>4109.8507393882</DistanceMeters>
          </Trackpoint>
          <Trackpoint>
            <Time>2018-05-22T09:39:07.000Z</Time>
            <Position>
              <LatitudeDegrees>28.9735602401196956634521484375</LatitudeDegrees>
              <LongitudeDegrees>-13.52797086350619792938232421875</LongitudeDegrees>
            </Position>
            <AltitudeMeters>14.80000019073486328125</AltitudeMeters>
            <DistanceMeters>4133.1661978209</DistanceMeters>
          </Trackpoint>
          <Trackpoint>
            <Time>2018-05-22T09:39:09.000Z</Time>
            <Position>
              <LatitudeDegrees>28.9735602401196956634521484375</LatitudeDegrees>
              <LongitudeDegrees>-13.52787815965712070465087890625</LongitudeDegrees>
            </Position>
            <AltitudeMeters>14.80000019073486328125</AltitudeMeters>
            <DistanceMeters>4142.1922351396</DistanceMeters>
          </Trackpoint>
          <Trackpoint>
            <Time>2018-05-22T09:39:14.000Z</Time>
            <Position>
              <LatitudeDegrees>28.97356510162353515625</LatitudeDegrees>
              <LongitudeDegrees>-13.52758496068418025970458984375</LongitudeDegrees>
            </Position>
            <AltitudeMeters>14</AltitudeMeters>
            <DistanceMeters>4170.7466164558</DistanceMeters>
          </Trackpoint>
          <Trackpoint>
            <Time>2018-05-22T09:39:19.000Z</Time>
            <Position>
              <LatitudeDegrees>28.9735518582165241241455078125</LatitudeDegrees>
              <LongitudeDegrees>-13.52733559906482696533203125</LongitudeDegrees>
            </Position>
            <AltitudeMeters>15.3999996185302734375</AltitudeMeters>
            <DistanceMeters>4195.0721561065</DistanceMeters>
          </Trackpoint>
          <Trackpoint>
            <Time>2018-05-22T09:39:32.000Z</Time>
            <Position>
              <LatitudeDegrees>28.97354833781719207763671875</LatitudeDegrees>
              <LongitudeDegrees>-13.526702262461185455322265625</LongitudeDegrees>
            </Position>
            <AltitudeMeters>14.6000003814697265625</AltitudeMeters>
            <DistanceMeters>4256.7425170284</DistanceMeters>
          </Trackpoint>
          <Trackpoint>
            <Time>2018-05-22T09:39:36.000Z</Time>
            <Position>
              <LatitudeDegrees>28.9735776744782924652099609375</LatitudeDegrees>
              <LongitudeDegrees>-13.526515848934650421142578125</LongitudeDegrees>
            </Position>
            <AltitudeMeters>14.19999980926513671875</AltitudeMeters>
            <DistanceMeters>4275.185290394</DistanceMeters>
          </Trackpoint>
          <Trackpoint>
            <Time>2018-05-22T09:39:52.000Z</Time>
            <Position>
              <LatitudeDegrees>28.9738529361784458160400390625</LatitudeDegrees>
              <LongitudeDegrees>-13.525980412960052490234375</LongitudeDegrees>
            </Position>
            <AltitudeMeters>14.80000019073486328125</AltitudeMeters>
            <DistanceMeters>4335.6569346314</DistanceMeters>
          </Trackpoint>
          <Trackpoint>
            <Time>2018-05-22T09:39:55.000Z</Time>
            <Position>
              <LatitudeDegrees>28.9738802611827850341796875</LatitudeDegrees>
              <LongitudeDegrees>-13.5258692689239978790283203125</LongitudeDegrees>
            </Position>
            <AltitudeMeters>14.6000003814697265625</AltitudeMeters>
            <DistanceMeters>4346.898237481</DistanceMeters>
          </Trackpoint>
          <Trackpoint>
            <Time>2018-05-22T09:40:00.000Z</Time>
            <Position>
              <LatitudeDegrees>28.973975814878940582275390625</LatitudeDegrees>
              <LongitudeDegrees>-13.525819145143032073974609375</LongitudeDegrees>
            </Position>
            <AltitudeMeters>14.6000003814697265625</AltitudeMeters>
            <DistanceMeters>4358.6000355991</DistanceMeters>
          </Trackpoint>
          <Trackpoint>
            <Time>2018-05-22T09:40:03.000Z</Time>
            <Position>
              <LatitudeDegrees>28.97411151789128780364990234375</LatitudeDegrees>
              <LongitudeDegrees>-13.525750748813152313232421875</LongitudeDegrees>
            </Position>
            <AltitudeMeters>14.6000003814697265625</AltitudeMeters>
            <DistanceMeters>4375.107354787</DistanceMeters>
          </Trackpoint>
          <Trackpoint>
            <Time>2018-05-22T09:40:14.000Z</Time>
            <Position>
              <LatitudeDegrees>28.974440507590770721435546875</LatitudeDegrees>
              <LongitudeDegrees>-13.52540482766926288604736328125</LongitudeDegrees>
            </Position>
            <AltitudeMeters>14.3999996185302734375</AltitudeMeters>
            <DistanceMeters>4424.8601699333</DistanceMeters>
          </Trackpoint>
          <Trackpoint>
            <Time>2018-05-22T09:40:17.000Z</Time>
            <Position>
              <LatitudeDegrees>28.9745747856795787811279296875</LatitudeDegrees>
              <LongitudeDegrees>-13.5253891535103321075439453125</LongitudeDegrees>
            </Position>
            <AltitudeMeters>13.80000019073486328125</AltitudeMeters>
            <DistanceMeters>4439.8834096186</DistanceMeters>
          </Trackpoint>
          <Trackpoint>
            <Time>2018-05-22T09:40:27.000Z</Time>
            <Position>
              <LatitudeDegrees>28.97502631880342960357666015625</LatitudeDegrees>
              <LongitudeDegrees>-13.52541002444922924041748046875</LongitudeDegrees>
            </Position>
            <AltitudeMeters>14.80000019073486328125</AltitudeMeters>
            <DistanceMeters>4490.1811850818</DistanceMeters>
          </Trackpoint>
          <Trackpoint>
            <Time>2018-05-22T09:40:29.000Z</Time>
            <Position>
              <LatitudeDegrees>28.97511768154799938201904296875</LatitudeDegrees>
              <LongitudeDegrees>-13.52541647851467132568359375</LongitudeDegrees>
            </Position>
            <AltitudeMeters>15</AltitudeMeters>
            <DistanceMeters>4500.3698924974</DistanceMeters>
          </Trackpoint>
          <Trackpoint>
            <Time>2018-05-22T09:40:33.000Z</Time>
            <Position>
              <LatitudeDegrees>28.9752949588000774383544921875</LatitudeDegrees>
              <LongitudeDegrees>-13.5254236869513988494873046875</LongitudeDegrees>
            </Position>
            <AltitudeMeters>14.3999996185302734375</AltitudeMeters>
            <DistanceMeters>4520.1137363483</DistanceMeters>
          </Trackpoint>
          <Trackpoint>
            <Time>2018-05-22T09:40:37.000Z</Time>
            <Position>
              <LatitudeDegrees>28.97546703927218914031982421875</LatitudeDegrees>
              <LongitudeDegrees>-13.52543332614004611968994140625</LongitudeDegrees>
            </Position>
            <AltitudeMeters>13.6000003814697265625</AltitudeMeters>
            <DistanceMeters>4539.2898353507</DistanceMeters>
          </Trackpoint>
          <Trackpoint>
            <Time>2018-05-22T09:40:51.000Z</Time>
            <Position>
              <LatitudeDegrees>28.97603466175496578216552734375</LatitudeDegrees>
              <LongitudeDegrees>-13.52546618320047855377197265625</LongitudeDegrees>
            </Position>
            <AltitudeMeters>14.19999980926513671875</AltitudeMeters>
            <DistanceMeters>4602.5482276454</DistanceMeters>
          </Trackpoint>
          <Trackpoint>
            <Time>2018-05-22T09:40:54.000Z</Time>
            <Position>
              <LatitudeDegrees>28.97616156376898288726806640625</LatitudeDegrees>
              <LongitudeDegrees>-13.52546886540949344635009765625</LongitudeDegrees>
            </Position>
            <AltitudeMeters>14.6000003814697265625</AltitudeMeters>
            <DistanceMeters>4616.674964332</DistanceMeters>
          </Trackpoint>
          <Trackpoint>
            <Time>2018-05-22T09:41:03.000Z</Time>
            <Position>
              <LatitudeDegrees>28.97650203667581081390380859375</LatitudeDegrees>
              <LongitudeDegrees>-13.5254857130348682403564453125</LongitudeDegrees>
            </Position>
            <AltitudeMeters>15.80000019073486328125</AltitudeMeters>
            <DistanceMeters>4654.6057436499</DistanceMeters>
          </Trackpoint>
          <Trackpoint>
            <Time>2018-05-22T09:41:08.000Z</Time>
            <Position>
              <LatitudeDegrees>28.976658023893833160400390625</LatitudeDegrees>
              <LongitudeDegrees>-13.5254962742328643798828125</LongitudeDegrees>
            </Position>
            <AltitudeMeters>16.799999237060546875</AltitudeMeters>
            <DistanceMeters>4671.9977093423</DistanceMeters>
          </Trackpoint>
          <Trackpoint>
            <Time>2018-05-22T09:41:13.000Z</Time>
            <Position>
              <LatitudeDegrees>28.97683270275592803955078125</LatitudeDegrees>
              <LongitudeDegrees>-13.52549350820481777191162109375</LongitudeDegrees>
            </Position>
            <AltitudeMeters>15.80000019073486328125</AltitudeMeters>
            <DistanceMeters>4691.4415312526</DistanceMeters>
          </Trackpoint>
          <Trackpoint>
            <Time>2018-05-22T09:41:22.000Z</Time>
            <Position>
              <LatitudeDegrees>28.97716856561601161956787109375</LatitudeDegrees>
              <LongitudeDegrees>-13.5254863835871219635009765625</LongitudeDegrees>
            </Position>
            <AltitudeMeters>16</AltitudeMeters>
            <DistanceMeters>4728.8301660764</DistanceMeters>
          </Trackpoint>
          <Trackpoint>
            <Time>2018-05-22T09:41:29.000Z</Time>
            <Position>
              <LatitudeDegrees>28.97736755199730396270751953125</LatitudeDegrees>
              <LongitudeDegrees>-13.525234758853912353515625</LongitudeDegrees>
            </Position>
            <AltitudeMeters>16</AltitudeMeters>
            <DistanceMeters>4761.8571104396</DistanceMeters>
          </Trackpoint>
          <Trackpoint>
            <Time>2018-05-22T09:41:31.000Z</Time>
            <Position>
              <LatitudeDegrees>28.9773991517722606658935546875</LatitudeDegrees>
              <LongitudeDegrees>-13.52512487210333347320556640625</LongitudeDegrees>
            </Position>
            <AltitudeMeters>16</AltitudeMeters>
            <DistanceMeters>4773.1204822243</DistanceMeters>
          </Trackpoint>
          <Trackpoint>
            <Time>2018-05-22T09:41:35.000Z</Time>
            <Position>
              <LatitudeDegrees>28.97740795277059078216552734375</LatitudeDegrees>
              <LongitudeDegrees>-13.5248721577227115631103515625</LongitudeDegrees>
            </Position>
            <AltitudeMeters>15.80000019073486328125</AltitudeMeters>
            <DistanceMeters>4797.7463394429</DistanceMeters>
          </Trackpoint>
          <Trackpoint>
            <Time>2018-05-22T09:41:45.000Z</Time>
            <Position>
              <LatitudeDegrees>28.97744030691683292388916015625</LatitudeDegrees>
              <LongitudeDegrees>-13.524234630167484283447265625</LongitudeDegrees>
            </Position>
            <AltitudeMeters>15.3999996185302734375</AltitudeMeters>
            <DistanceMeters>4859.925623371</DistanceMeters>
          </Trackpoint>
          <Trackpoint>
            <Time>2018-05-22T09:41:47.000Z</Time>
            <Position>
              <LatitudeDegrees>28.97744382731616497039794921875</LatitudeDegrees>
              <LongitudeDegrees>-13.52412725798785686492919921875</LongitudeDegrees>
            </Position>
            <AltitudeMeters>15.19999980926513671875</AltitudeMeters>
            <DistanceMeters>4870.3880603077</DistanceMeters>
          </Trackpoint>
          <Trackpoint>
            <Time>2018-05-22T09:41:49.000Z</Time>
            <Position>
              <LatitudeDegrees>28.97744600661098957061767578125</LatitudeDegrees>
              <LongitudeDegrees>-13.52402281947433948516845703125</LongitudeDegrees>
            </Position>
            <AltitudeMeters>15</AltitudeMeters>
            <DistanceMeters>4880.5608021233</DistanceMeters>
          </Trackpoint>
          <Trackpoint>
            <Time>2018-05-22T09:41:50.000Z</Time>
            <Position>
              <LatitudeDegrees>28.97744734771549701690673828125</LatitudeDegrees>
              <LongitudeDegrees>-13.52397219277918338775634765625</LongitudeDegrees>
            </Position>
            <AltitudeMeters>15</AltitudeMeters>
            <DistanceMeters>4885.493045623</DistanceMeters>
          </Trackpoint>
          <Trackpoint>
            <Time>2018-05-22T09:41:54.000Z</Time>
            <Position>
              <LatitudeDegrees>28.97745489142835140228271484375</LatitudeDegrees>
              <LongitudeDegrees>-13.5237660817801952362060546875</LongitudeDegrees>
            </Position>
            <AltitudeMeters>15.3999996185302734375</AltitudeMeters>
            <DistanceMeters>4905.5792295672</DistanceMeters>
          </Trackpoint>
          <Trackpoint>
            <Time>2018-05-22T09:42:05.000Z</Time>
            <Position>
              <LatitudeDegrees>28.9774762652814388275146484375</LatitudeDegrees>
              <LongitudeDegrees>-13.5232122056186199188232421875</LongitudeDegrees>
            </Position>
            <AltitudeMeters>16.200000762939453125</AltitudeMeters>
            <DistanceMeters>4959.5615967739</DistanceMeters>
          </Trackpoint>
          <Trackpoint>
            <Time>2018-05-22T09:42:07.000Z</Time>
            <Position>
              <LatitudeDegrees>28.977453969419002532958984375</LatitudeDegrees>
              <LongitudeDegrees>-13.52311556227505207061767578125</LongitudeDegrees>
            </Position>
            <AltitudeMeters>16.3999996185302734375</AltitudeMeters>
            <DistanceMeters>4969.2933716246</DistanceMeters>
          </Trackpoint>
          <Trackpoint>
            <Time>2018-05-22T09:42:10.000Z</Time>
            <Position>
              <LatitudeDegrees>28.97738699801266193389892578125</LatitudeDegrees>
              <LongitudeDegrees>-13.52298949845135211944580078125</LongitudeDegrees>
            </Position>
            <AltitudeMeters>16.3999996185302734375</AltitudeMeters>
            <DistanceMeters>4983.6543575206</DistanceMeters>
          </Trackpoint>
          <Trackpoint>
            <Time>2018-05-22T09:42:11.000Z</Time>
            <Position>
              <LatitudeDegrees>28.977371491491794586181640625</LatitudeDegrees>
              <LongitudeDegrees>-13.522944152355194091796875</LongitudeDegrees>
            </Position>
            <AltitudeMeters>16.200000762939453125</AltitudeMeters>
            <DistanceMeters>4988.3952287769</DistanceMeters>
          </Trackpoint>
          <Trackpoint>
            <Time>2018-05-22T09:42:16.000Z</Time>
            <Position>
              <LatitudeDegrees>28.97729395888745784759521484375</LatitudeDegrees>
              <LongitudeDegrees>-13.52266059257090091705322265625</LongitudeDegrees>
            </Position>
            <AltitudeMeters>14.3999996185302734375</AltitudeMeters>
            <DistanceMeters>5017.3219287879</DistanceMeters>
          </Trackpoint>
          <Trackpoint>
            <Time>2018-05-22T09:42:18.000Z</Time>
            <Position>
              <LatitudeDegrees>28.97725246846675872802734375</LatitudeDegrees>
              <LongitudeDegrees>-13.5225486941635608673095703125</LongitudeDegrees>
            </Position>
            <AltitudeMeters>13.80000019073486328125</AltitudeMeters>
            <DistanceMeters>5029.1557120161</DistanceMeters>
          </Trackpoint>
          <Trackpoint>
            <Time>2018-05-22T09:42:20.000Z</Time>
            <Position>
              <LatitudeDegrees>28.9771966449916362762451171875</LatitudeDegrees>
              <LongitudeDegrees>-13.5224521346390247344970703125</LongitudeDegrees>
            </Position>
            <AltitudeMeters>13.80000019073486328125</AltitudeMeters>
            <DistanceMeters>5040.4250951007</DistanceMeters>
          </Trackpoint>
          <Trackpoint>
            <Time>2018-05-22T09:42:24.000Z</Time>
            <Position>
              <LatitudeDegrees>28.977043926715850830078125</LatitudeDegrees>
              <LongitudeDegrees>-13.52229170501232147216796875</LongitudeDegrees>
            </Position>
            <AltitudeMeters>14</AltitudeMeters>
            <DistanceMeters>5063.5105245221</DistanceMeters>
          </Trackpoint>
          <Trackpoint>
            <Time>2018-05-22T09:42:31.000Z</Time>
            <Position>
              <LatitudeDegrees>28.97675047628581523895263671875</LatitudeDegrees>
              <LongitudeDegrees>-13.52214057929813861846923828125</LongitudeDegrees>
            </Position>
            <AltitudeMeters>15.6000003814697265625</AltitudeMeters>
            <DistanceMeters>5099.3337053379</DistanceMeters>
          </Trackpoint>
          <Trackpoint>
            <Time>2018-05-22T09:42:34.000Z</Time>
            <Position>
              <LatitudeDegrees>28.97662977688014507293701171875</LatitudeDegrees>
              <LongitudeDegrees>-13.52208316326141357421875</LongitudeDegrees>
            </Position>
            <AltitudeMeters>16.200000762939453125</AltitudeMeters>
            <DistanceMeters>5113.8845885544</DistanceMeters>
          </Trackpoint>
          <Trackpoint>
            <Time>2018-05-22T09:42:37.000Z</Time>
            <Position>
              <LatitudeDegrees>28.9765076525509357452392578125</LatitudeDegrees>
              <LongitudeDegrees>-13.52198517881333827972412109375</LongitudeDegrees>
            </Position>
            <AltitudeMeters>15.80000019073486328125</AltitudeMeters>
            <DistanceMeters>5130.4911696173</DistanceMeters>
          </Trackpoint>
          <Trackpoint>
            <Time>2018-05-22T09:42:44.000Z</Time>
            <Position>
              <LatitudeDegrees>28.976260721683502197265625</LatitudeDegrees>
              <LongitudeDegrees>-13.52166406810283660888671875</LongitudeDegrees>
            </Position>
            <AltitudeMeters>14.19999980926513671875</AltitudeMeters>
            <DistanceMeters>5172.1198125235</DistanceMeters>
          </Trackpoint>
          <Trackpoint>
            <Time>2018-05-22T09:42:46.000Z</Time>
            <Position>
              <LatitudeDegrees>28.97619291208684444427490234375</LatitudeDegrees>
              <LongitudeDegrees>-13.52156776003539562225341796875</LongitudeDegrees>
            </Position>
            <AltitudeMeters>14</AltitudeMeters>
            <DistanceMeters>5184.1571131603</DistanceMeters>
          </Trackpoint>
          <Trackpoint>
            <Time>2018-05-22T09:42:48.000Z</Time>
            <Position>
              <LatitudeDegrees>28.9761224202811717987060546875</LatitudeDegrees>
              <LongitudeDegrees>-13.52149131707847118377685546875</LongitudeDegrees>
            </Position>
            <AltitudeMeters>14.6000003814697265625</AltitudeMeters>
            <DistanceMeters>5194.9726395116</DistanceMeters>
          </Trackpoint>
          <Trackpoint>
            <Time>2018-05-22T09:42:50.000Z</Time>
            <Position>
              <LatitudeDegrees>28.976092748343944549560546875</LatitudeDegrees>
              <LongitudeDegrees>-13.521433062851428985595703125</LongitudeDegrees>
            </Position>
            <AltitudeMeters>15.6000003814697265625</AltitudeMeters>
            <DistanceMeters>5201.5363651849</DistanceMeters>
          </Trackpoint>
          <Trackpoint>
            <Time>2018-05-22T09:42:54.000Z</Time>
            <Position>
              <LatitudeDegrees>28.97611328400671482086181640625</LatitudeDegrees>
              <LongitudeDegrees>-13.5214300453662872314453125</LongitudeDegrees>
            </Position>
            <AltitudeMeters>16.3999996185302734375</AltitudeMeters>
            <DistanceMeters>5203.8386802964</DistanceMeters>
          </Trackpoint>
          <Trackpoint>
            <Time>2018-05-22T09:43:04.000Z</Time>
            <Position>
              <LatitudeDegrees>28.97609165869653224945068359375</LatitudeDegrees>
              <LongitudeDegrees>-13.52139911614358425140380859375</LongitudeDegrees>
            </Position>
            <AltitudeMeters>16.3999996185302734375</AltitudeMeters>
            <DistanceMeters>5207.692830754</DistanceMeters>
          </Trackpoint>
          <Trackpoint>
            <Time>2018-05-22T09:43:05.000Z</Time>
            <Position>
              <LatitudeDegrees>28.9760798402130603790283203125</LatitudeDegrees>
              <LongitudeDegrees>-13.5213812626898288726806640625</LongitudeDegrees>
            </Position>
            <AltitudeMeters>16.6000003814697265625</AltitudeMeters>
            <DistanceMeters>5209.8701663122</DistanceMeters>
          </Trackpoint>
          <Trackpoint>
            <Time>2018-05-22T09:43:07.000Z</Time>
            <Position>
              <LatitudeDegrees>28.9760375954210758209228515625</LatitudeDegrees>
              <LongitudeDegrees>-13.52135620079934597015380859375</LongitudeDegrees>
            </Position>
            <AltitudeMeters>16.6000003814697265625</AltitudeMeters>
            <DistanceMeters>5215.1687045695</DistanceMeters>
          </Trackpoint>
          <Trackpoint>
            <Time>2018-05-22T09:43:26.000Z</Time>
            <Position>
              <LatitudeDegrees>28.97563836537301540374755859375</LatitudeDegrees>
              <LongitudeDegrees>-13.5209016501903533935546875</LongitudeDegrees>
            </Position>
            <AltitudeMeters>16</AltitudeMeters>
            <DistanceMeters>5277.8854721688</DistanceMeters>
          </Trackpoint>
          <Trackpoint>
            <Time>2018-05-22T09:43:29.000Z</Time>
            <Position>
              <LatitudeDegrees>28.9755531214177608489990234375</LatitudeDegrees>
              <LongitudeDegrees>-13.520801402628421783447265625</LongitudeDegrees>
            </Position>
            <AltitudeMeters>15.3999996185302734375</AltitudeMeters>
            <DistanceMeters>5291.4978624303</DistanceMeters>
          </Trackpoint>
          <Trackpoint>
            <Time>2018-05-22T09:43:32.000Z</Time>
            <Position>
              <LatitudeDegrees>28.975456394255161285400390625</LatitudeDegrees>
              <LongitudeDegrees>-13.5207045078277587890625</LongitudeDegrees>
            </Position>
            <AltitudeMeters>15.3999996185302734375</AltitudeMeters>
            <DistanceMeters>5305.8125574905</DistanceMeters>
          </Trackpoint>
          <Trackpoint>
            <Time>2018-05-22T09:43:39.000Z</Time>
            <Position>
              <LatitudeDegrees>28.9752678014338016510009765625</LatitudeDegrees>
              <LongitudeDegrees>-13.52053846232593059539794921875</LongitudeDegrees>
            </Position>
            <AltitudeMeters>16</AltitudeMeters>
            <DistanceMeters>5332.3081458573</DistanceMeters>
          </Trackpoint>
          <Trackpoint>
            <Time>2018-05-22T09:43:42.000Z</Time>
            <Position>
              <LatitudeDegrees>28.97514651529490947723388671875</LatitudeDegrees>
              <LongitudeDegrees>-13.520480208098888397216796875</LongitudeDegrees>
            </Position>
            <AltitudeMeters>15.3999996185302734375</AltitudeMeters>
            <DistanceMeters>5346.9512044573</DistanceMeters>
          </Trackpoint>
          <Trackpoint>
            <Time>2018-05-22T09:43:52.000Z</Time>
            <Position>
              <LatitudeDegrees>28.97511516697704792022705078125</LatitudeDegrees>
              <LongitudeDegrees>-13.520084582269191741943359375</LongitudeDegrees>
            </Position>
            <AltitudeMeters>14.6000003814697265625</AltitudeMeters>
            <DistanceMeters>5385.6312796333</DistanceMeters>
          </Trackpoint>
          <Trackpoint>
            <Time>2018-05-22T09:43:53.000Z</Time>
            <Position>
              <LatitudeDegrees>28.975118100643157958984375</LatitudeDegrees>
              <LongitudeDegrees>-13.5200357995927333831787109375</LongitudeDegrees>
            </Position>
            <AltitudeMeters>14.3999996185302734375</AltitudeMeters>
            <DistanceMeters>5390.3940049064</DistanceMeters>
          </Trackpoint>
          <Trackpoint>
            <Time>2018-05-22T09:43:59.000Z</Time>
            <Position>
              <LatitudeDegrees>28.97513008676469326019287109375</LatitudeDegrees>
              <LongitudeDegrees>-13.51974628865718841552734375</LongitudeDegrees>
            </Position>
            <AltitudeMeters>15.6000003814697265625</AltitudeMeters>
            <DistanceMeters>5418.6154992389</DistanceMeters>
          </Trackpoint>
          <Trackpoint>
            <Time>2018-05-22T09:44:02.000Z</Time>
            <Position>
              <LatitudeDegrees>28.975169397890567779541015625</LatitudeDegrees>
              <LongitudeDegrees>-13.51960949599742889404296875</LongitudeDegrees>
            </Position>
            <AltitudeMeters>15.3999996185302734375</AltitudeMeters>
            <DistanceMeters>5432.6357240599</DistanceMeters>
          </Trackpoint>
          <Trackpoint>
            <Time>2018-05-22T09:44:09.000Z</Time>
            <Position>
              <LatitudeDegrees>28.9753509499132633209228515625</LatitudeDegrees>
              <LongitudeDegrees>-13.5193290375173091888427734375</LongitudeDegrees>
            </Position>
            <AltitudeMeters>14.80000019073486328125</AltitudeMeters>
            <DistanceMeters>5466.6074754108</DistanceMeters>
          </Trackpoint>
          <Trackpoint>
            <Time>2018-05-22T09:44:11.000Z</Time>
            <Position>
              <LatitudeDegrees>28.97538791410624980926513671875</LatitudeDegrees>
              <LongitudeDegrees>-13.519236333668231964111328125</LongitudeDegrees>
            </Position>
            <AltitudeMeters>14.80000019073486328125</AltitudeMeters>
            <DistanceMeters>5476.5276454238</DistanceMeters>
          </Trackpoint>
          <Trackpoint>
            <Time>2018-05-22T09:44:13.000Z</Time>
            <Position>
              <LatitudeDegrees>28.975447006523609161376953125</LatitudeDegrees>
              <LongitudeDegrees>-13.519156537950038909912109375</LongitudeDegrees>
            </Position>
            <AltitudeMeters>14.19999980926513671875</AltitudeMeters>
            <DistanceMeters>5486.7074861529</DistanceMeters>
          </Trackpoint>
          <Trackpoint>
            <Time>2018-05-22T09:44:21.000Z</Time>
            <Position>
              <LatitudeDegrees>28.97573794238269329071044921875</LatitudeDegrees>
              <LongitudeDegrees>-13.5189552046358585357666015625</LongitudeDegrees>
            </Position>
            <AltitudeMeters>13.80000019073486328125</AltitudeMeters>
            <DistanceMeters>5524.560933817</DistanceMeters>
          </Trackpoint>
          <Trackpoint>
            <Time>2018-05-22T09:44:32.000Z</Time>
            <Position>
              <LatitudeDegrees>28.97607070393860340118408203125</LatitudeDegrees>
              <LongitudeDegrees>-13.5184667073190212249755859375</LongitudeDegrees>
            </Position>
            <AltitudeMeters>14.19999980926513671875</AltitudeMeters>
            <DistanceMeters>5584.8449557048</DistanceMeters>
          </Trackpoint>
          <Trackpoint>
            <Time>2018-05-22T09:44:37.000Z</Time>
            <Position>
              <LatitudeDegrees>28.97621789015829563140869140625</LatitudeDegrees>
              <LongitudeDegrees>-13.51825372315943241119384765625</LongitudeDegrees>
            </Position>
            <AltitudeMeters>14.3999996185302734375</AltitudeMeters>
            <DistanceMeters>5611.2729766794</DistanceMeters>
          </Trackpoint>
          <Trackpoint>
            <Time>2018-05-22T09:44:48.000Z</Time>
            <Position>
              <LatitudeDegrees>28.97662156261503696441650390625</LatitudeDegrees>
              <LongitudeDegrees>-13.51786136627197265625</LongitudeDegrees>
            </Position>
            <AltitudeMeters>13.19999980926513671875</AltitudeMeters>
            <DistanceMeters>5670.2489779376</DistanceMeters>
          </Trackpoint>
          <Trackpoint>
            <Time>2018-05-22T09:45:00.000Z</Time>
            <Position>
              <LatitudeDegrees>28.97699229419231414794921875</LatitudeDegrees>
              <LongitudeDegrees>-13.5173431970179080963134765625</LongitudeDegrees>
            </Position>
            <AltitudeMeters>13.6000003814697265625</AltitudeMeters>
            <DistanceMeters>5735.427191039</DistanceMeters>
          </Trackpoint>
          <Trackpoint>
            <Time>2018-05-22T09:45:06.000Z</Time>
            <Position>
              <LatitudeDegrees>28.97711039520800113677978515625</LatitudeDegrees>
              <LongitudeDegrees>-13.51705469191074371337890625</LongitudeDegrees>
            </Position>
            <AltitudeMeters>13.3999996185302734375</AltitudeMeters>
            <DistanceMeters>5766.4418784152</DistanceMeters>
          </Trackpoint>
          <Trackpoint>
            <Time>2018-05-22T09:45:12.000Z</Time>
            <Position>
              <LatitudeDegrees>28.97718608379364013671875</LatitudeDegrees>
              <LongitudeDegrees>-13.51677331142127513885498046875</LongitudeDegrees>
            </Position>
            <AltitudeMeters>12.80000019073486328125</AltitudeMeters>
            <DistanceMeters>5795.1053128775</DistanceMeters>
          </Trackpoint>
          <Trackpoint>
            <Time>2018-05-22T09:45:14.000Z</Time>
            <Position>
              <LatitudeDegrees>28.97723109461367130279541015625</LatitudeDegrees>
              <LongitudeDegrees>-13.516729809343814849853515625</LongitudeDegrees>
            </Position>
            <AltitudeMeters>13</AltitudeMeters>
            <DistanceMeters>5801.6655982625</DistanceMeters>
          </Trackpoint>
          <Trackpoint>
            <Time>2018-05-22T09:45:25.000Z</Time>
            <Position>
              <LatitudeDegrees>28.97752027027308940887451171875</LatitudeDegrees>
              <LongitudeDegrees>-13.5169096849858760833740234375</LongitudeDegrees>
            </Position>
            <AltitudeMeters>14.19999980926513671875</AltitudeMeters>
            <DistanceMeters>5838.3081014027</DistanceMeters>
          </Trackpoint>
          <Trackpoint>
            <Time>2018-05-22T09:45:29.000Z</Time>
            <Position>
              <LatitudeDegrees>28.9776405505836009979248046875</LatitudeDegrees>
              <LongitudeDegrees>-13.51697397418320178985595703125</LongitudeDegrees>
            </Position>
            <AltitudeMeters>14.80000019073486328125</AltitudeMeters>
            <DistanceMeters>5853.0865123075</DistanceMeters>
          </Trackpoint>
          <Trackpoint>
            <Time>2018-05-22T09:45:35.000Z</Time>
            <Position>
              <LatitudeDegrees>28.97780760191380977630615234375</LatitudeDegrees>
              <LongitudeDegrees>-13.5170619003474712371826171875</LongitudeDegrees>
            </Position>
            <AltitudeMeters>15.19999980926513671875</AltitudeMeters>
            <DistanceMeters>5873.5561136001</DistanceMeters>
          </Trackpoint>
          <Trackpoint>
            <Time>2018-05-22T09:45:36.000Z</Time>
            <Position>
              <LatitudeDegrees>28.97783710621297359466552734375</LatitudeDegrees>
              <LongitudeDegrees>-13.5170848667621612548828125</LongitudeDegrees>
            </Position>
            <AltitudeMeters>15.3999996185302734375</AltitudeMeters>
            <DistanceMeters>5877.5290940461</DistanceMeters>
          </Trackpoint>
          <Trackpoint>
            <Time>2018-05-22T09:45:50.000Z</Time>
            <Position>
              <LatitudeDegrees>28.97834387607872486114501953125</LatitudeDegrees>
              <LongitudeDegrees>-13.51734696887433528900146484375</LongitudeDegrees>
            </Position>
            <AltitudeMeters>15</AltitudeMeters>
            <DistanceMeters>5939.4382509298</DistanceMeters>
          </Trackpoint>
          <Trackpoint>
            <Time>2018-05-22T09:46:02.000Z</Time>
            <Position>
              <LatitudeDegrees>28.97885374724864959716796875</LatitudeDegrees>
              <LongitudeDegrees>-13.5176224820315837860107421875</LongitudeDegrees>
            </Position>
            <AltitudeMeters>15.19999980926513671875</AltitudeMeters>
            <DistanceMeters>6002.2088446444</DistanceMeters>
          </Trackpoint>
          <Trackpoint>
            <Time>2018-05-22T09:46:08.000Z</Time>
            <Position>
              <LatitudeDegrees>28.97910830564796924591064453125</LatitudeDegrees>
              <LongitudeDegrees>-13.5177512280642986297607421875</LongitudeDegrees>
            </Position>
            <AltitudeMeters>16.799999237060546875</AltitudeMeters>
            <DistanceMeters>6033.190905517</DistanceMeters>
          </Trackpoint>
          <Trackpoint>
            <Time>2018-05-22T09:46:12.000Z</Time>
            <Position>
              <LatitudeDegrees>28.97925649769604206085205078125</LatitudeDegrees>
              <LongitudeDegrees>-13.5178551636636257171630859375</LongitudeDegrees>
            </Position>
            <AltitudeMeters>17.3999996185302734375</AltitudeMeters>
            <DistanceMeters>6052.5420873945</DistanceMeters>
          </Trackpoint>
          <Trackpoint>
            <Time>2018-05-22T09:46:16.000Z</Time>
            <Position>
              <LatitudeDegrees>28.9794067852199077606201171875</LatitudeDegrees>
              <LongitudeDegrees>-13.5179574228823184967041015625</LongitudeDegrees>
            </Position>
            <AltitudeMeters>17.799999237060546875</AltitudeMeters>
            <DistanceMeters>6072.0084205853</DistanceMeters>
          </Trackpoint>
          <Trackpoint>
            <Time>2018-05-22T09:46:24.000Z</Time>
            <Position>
              <LatitudeDegrees>28.9797328412532806396484375</LatitudeDegrees>
              <LongitudeDegrees>-13.518076278269290924072265625</LongitudeDegrees>
            </Position>
            <AltitudeMeters>18.799999237060546875</AltitudeMeters>
            <DistanceMeters>6110.0996748695</DistanceMeters>
          </Trackpoint>
          <Trackpoint>
            <Time>2018-05-22T09:46:28.000Z</Time>
            <Position>
              <LatitudeDegrees>28.97988681681454181671142578125</LatitudeDegrees>
              <LongitudeDegrees>-13.518123887479305267333984375</LongitudeDegrees>
            </Position>
            <AltitudeMeters>20</AltitudeMeters>
            <DistanceMeters>6127.8534017536</DistanceMeters>
          </Trackpoint>
          <Trackpoint>
            <Time>2018-05-22T09:46:32.000Z</Time>
            <Position>
              <LatitudeDegrees>28.9800173230469226837158203125</LatitudeDegrees>
              <LongitudeDegrees>-13.51815900765359401702880859375</LongitudeDegrees>
            </Position>
            <AltitudeMeters>20.3999996185302734375</AltitudeMeters>
            <DistanceMeters>6142.7759244997</DistanceMeters>
          </Trackpoint>
          <Trackpoint>
            <Time>2018-05-22T09:46:44.000Z</Time>
            <Position>
              <LatitudeDegrees>28.98035435937345027923583984375</LatitudeDegrees>
              <LongitudeDegrees>-13.51764787919819355010986328125</LongitudeDegrees>
            </Position>
            <AltitudeMeters>19</AltitudeMeters>
            <DistanceMeters>6205.0967882536</DistanceMeters>
          </Trackpoint>
          <Trackpoint>
            <Time>2018-05-22T09:46:45.000Z</Time>
            <Position>
              <LatitudeDegrees>28.98038872517645359039306640625</LatitudeDegrees>
              <LongitudeDegrees>-13.5175953246653079986572265625</LongitudeDegrees>
            </Position>
            <AltitudeMeters>18.799999237060546875</AltitudeMeters>
            <DistanceMeters>6211.4855240853</DistanceMeters>
          </Trackpoint>
          <Trackpoint>
            <Time>2018-05-22T09:46:48.000Z</Time>
            <Position>
              <LatitudeDegrees>28.9804981090128421783447265625</LatitudeDegrees>
              <LongitudeDegrees>-13.517424166202545166015625</LongitudeDegrees>
            </Position>
            <AltitudeMeters>18.6000003814697265625</AltitudeMeters>
            <DistanceMeters>6232.1240488839</DistanceMeters>
          </Trackpoint>
          <Trackpoint>
            <Time>2018-05-22T09:46:52.000Z</Time>
            <Position>
              <LatitudeDegrees>28.980653844773769378662109375</LatitudeDegrees>
              <LongitudeDegrees>-13.517177738249301910400390625</LongitudeDegrees>
            </Position>
            <AltitudeMeters>17.6000003814697265625</AltitudeMeters>
            <DistanceMeters>6261.723917077</DistanceMeters>
          </Trackpoint>
          <Trackpoint>
            <Time>2018-05-22T09:46:59.000Z</Time>
            <Position>
              <LatitudeDegrees>28.980983085930347442626953125</LatitudeDegrees>
              <LongitudeDegrees>-13.51667381823062896728515625</LongitudeDegrees>
            </Position>
            <AltitudeMeters>17</AltitudeMeters>
            <DistanceMeters>6322.9625706142</DistanceMeters>
          </Trackpoint>
          <Trackpoint>
            <Time>2018-05-22T09:47:01.000Z</Time>
            <Position>
              <LatitudeDegrees>28.981077633798122406005859375</LatitudeDegrees>
              <LongitudeDegrees>-13.51652269251644611358642578125</LongitudeDegrees>
            </Position>
            <AltitudeMeters>16.6000003814697265625</AltitudeMeters>
            <DistanceMeters>6341.0526223093</DistanceMeters>
          </Trackpoint>
          <Trackpoint>
            <Time>2018-05-22T09:47:03.000Z</Time>
            <Position>
              <LatitudeDegrees>28.98116690106689929962158203125</LatitudeDegrees>
              <LongitudeDegrees>-13.51637634448707103729248046875</LongitudeDegrees>
            </Position>
            <AltitudeMeters>15.3999996185302734375</AltitudeMeters>
            <DistanceMeters>6358.4235472832</DistanceMeters>
          </Trackpoint>
          <Trackpoint>
            <Time>2018-05-22T09:47:10.000Z</Time>
            <Position>
              <LatitudeDegrees>28.9814462698996067047119140625</LatitudeDegrees>
              <LongitudeDegrees>-13.5159207880496978759765625</LongitudeDegrees>
            </Position>
            <AltitudeMeters>14.19999980926513671875</AltitudeMeters>
            <DistanceMeters>6412.5919419388</DistanceMeters>
          </Trackpoint>
          <Trackpoint>
            <Time>2018-05-22T09:47:15.000Z</Time>
            <Position>
              <LatitudeDegrees>28.98162807337939739227294921875</LatitudeDegrees>
              <LongitudeDegrees>-13.515607304871082305908203125</LongitudeDegrees>
            </Position>
            <AltitudeMeters>13</AltitudeMeters>
            <DistanceMeters>6449.2123823061</DistanceMeters>
          </Trackpoint>
          <Trackpoint>
            <Time>2018-05-22T09:47:18.000Z</Time>
            <Position>
              <LatitudeDegrees>28.98171910084784030914306640625</LatitudeDegrees>
              <LongitudeDegrees>-13.515430949628353118896484375</LongitudeDegrees>
            </Position>
            <AltitudeMeters>12.6000003814697265625</AltitudeMeters>
            <DistanceMeters>6469.1494308568</DistanceMeters>
          </Trackpoint>
          <Trackpoint>
            <Time>2018-05-22T09:47:20.000Z</Time>
            <Position>
              <LatitudeDegrees>28.981747515499591827392578125</LatitudeDegrees>
              <LongitudeDegrees>-13.51530111394822597503662109375</LongitudeDegrees>
            </Position>
            <AltitudeMeters>12.80000019073486328125</AltitudeMeters>
            <DistanceMeters>6482.1805700061</DistanceMeters>
          </Trackpoint>
          <Trackpoint>
            <Time>2018-05-22T09:47:29.000Z</Time>
            <Position>
              <LatitudeDegrees>28.98169646970927715301513671875</LatitudeDegrees>
              <LongitudeDegrees>-13.51466442458331584930419921875</LongitudeDegrees>
            </Position>
            <AltitudeMeters>14</AltitudeMeters>
            <DistanceMeters>6544.4310467497</DistanceMeters>
          </Trackpoint>
          <Trackpoint>
            <Time>2018-05-22T09:47:36.000Z</Time>
            <Position>
              <LatitudeDegrees>28.98167585022747516632080078125</LatitudeDegrees>
              <LongitudeDegrees>-13.51423409767448902130126953125</LongitudeDegrees>
            </Position>
            <AltitudeMeters>14</AltitudeMeters>
            <DistanceMeters>6586.3920936317</DistanceMeters>
          </Trackpoint>
          <Trackpoint>
            <Time>2018-05-22T09:47:42.000Z</Time>
            <Position>
              <LatitudeDegrees>28.98165933787822723388671875</LatitudeDegrees>
              <LongitudeDegrees>-13.51387568749487400054931640625</LongitudeDegrees>
            </Position>
            <AltitudeMeters>13</AltitudeMeters>
            <DistanceMeters>6621.3366093296</DistanceMeters>
          </Trackpoint>
          <Trackpoint>
            <Time>2018-05-22T09:47:43.000Z</Time>
            <Position>
              <LatitudeDegrees>28.98166495375335216522216796875</LatitudeDegrees>
              <LongitudeDegrees>-13.5138191096484661102294921875</LongitudeDegrees>
            </Position>
            <AltitudeMeters>12.80000019073486328125</AltitudeMeters>
            <DistanceMeters>6626.8800153349</DistanceMeters>
          </Trackpoint>
          <Trackpoint>
            <Time>2018-05-22T09:47:44.000Z</Time>
            <Position>
              <LatitudeDegrees>28.98167635314166545867919921875</LatitudeDegrees>
              <LongitudeDegrees>-13.51376353763043880462646484375</LongitudeDegrees>
            </Position>
            <AltitudeMeters>12.6000003814697265625</AltitudeMeters>
            <DistanceMeters>6632.4380627901</DistanceMeters>
          </Trackpoint>
          <Trackpoint>
            <Time>2018-05-22T09:47:49.000Z</Time>
            <Position>
              <LatitudeDegrees>28.9818088710308074951171875</LatitudeDegrees>
              <LongitudeDegrees>-13.51350638084113597869873046875</LongitudeDegrees>
            </Position>
            <AltitudeMeters>12.3999996185302734375</AltitudeMeters>
            <DistanceMeters>6661.4974433523</DistanceMeters>
          </Trackpoint>
          <Trackpoint>
            <Time>2018-05-22T09:48:02.000Z</Time>
            <Position>
              <LatitudeDegrees>28.98192755877971649169921875</LatitudeDegrees>
              <LongitudeDegrees>-13.51296977140009403228759765625</LongitudeDegrees>
            </Position>
            <AltitudeMeters>13.19999980926513671875</AltitudeMeters>
            <DistanceMeters>6715.3880641083</DistanceMeters>
          </Trackpoint>
          <Trackpoint>
            <Time>2018-05-22T09:48:11.000Z</Time>
            <Position>
              <LatitudeDegrees>28.98175296373665332794189453125</LatitudeDegrees>
              <LongitudeDegrees>-13.51248085498809814453125</LongitudeDegrees>
            </Position>
            <AltitudeMeters>13.80000019073486328125</AltitudeMeters>
            <DistanceMeters>6766.8046299203</DistanceMeters>
          </Trackpoint>
          <Trackpoint>
            <Time>2018-05-22T09:48:16.000Z</Time>
            <Position>
              <LatitudeDegrees>28.98170535452663898468017578125</LatitudeDegrees>
              <LongitudeDegrees>-13.5121829621493816375732421875</LongitudeDegrees>
            </Position>
            <AltitudeMeters>14</AltitudeMeters>
            <DistanceMeters>6796.2888024402</DistanceMeters>
          </Trackpoint>
          <Trackpoint>
            <Time>2018-05-22T09:48:18.000Z</Time>
            <Position>
              <LatitudeDegrees>28.9816937036812305450439453125</LatitudeDegrees>
              <LongitudeDegrees>-13.51206980645656585693359375</LongitudeDegrees>
            </Position>
            <AltitudeMeters>13.80000019073486328125</AltitudeMeters>
            <DistanceMeters>6807.3821284418</DistanceMeters>
          </Trackpoint>
          <Trackpoint>
            <Time>2018-05-22T09:48:24.000Z</Time>
            <Position>
              <LatitudeDegrees>28.98178632371127605438232421875</LatitudeDegrees>
              <LongitudeDegrees>-13.5118223726749420166015625</LongitudeDegrees>
            </Position>
            <AltitudeMeters>13.19999980926513671875</AltitudeMeters>
            <DistanceMeters>6833.5860787699</DistanceMeters>
          </Trackpoint>
          <Trackpoint>
            <Time>2018-05-22T09:48:25.000Z</Time>
            <Position>
              <LatitudeDegrees>28.9818174205720424652099609375</LatitudeDegrees>
              <LongitudeDegrees>-13.51178658194839954376220703125</LongitudeDegrees>
            </Position>
            <AltitudeMeters>12.80000019073486328125</AltitudeMeters>
            <DistanceMeters>6838.4972226471</DistanceMeters>
          </Trackpoint>
          <Trackpoint>
            <Time>2018-05-22T09:48:26.000Z</Time>
            <Position>
              <LatitudeDegrees>28.98185270838439464569091796875</LatitudeDegrees>
              <LongitudeDegrees>-13.51175271905958652496337890625</LongitudeDegrees>
            </Position>
            <AltitudeMeters>12.80000019073486328125</AltitudeMeters>
            <DistanceMeters>6843.6251445073</DistanceMeters>
          </Trackpoint>
          <Trackpoint>
            <Time>2018-05-22T09:48:33.000Z</Time>
            <Position>
              <LatitudeDegrees>28.9821480028331279754638671875</LatitudeDegrees>
              <LongitudeDegrees>-13.5115771181881427764892578125</LongitudeDegrees>
            </Position>
            <AltitudeMeters>14.19999980926513671875</AltitudeMeters>
            <DistanceMeters>6880.6728907165</DistanceMeters>
          </Trackpoint>
          <Trackpoint>
            <Time>2018-05-22T09:48:35.000Z</Time>
            <Position>
              <LatitudeDegrees>28.982243724167346954345703125</LatitudeDegrees>
              <LongitudeDegrees>-13.51153177209198474884033203125</LongitudeDegrees>
            </Position>
            <AltitudeMeters>14.80000019073486328125</AltitudeMeters>
            <DistanceMeters>6892.2056265559</DistanceMeters>
          </Trackpoint>
          <Trackpoint>
            <Time>2018-05-22T09:48:42.000Z</Time>
            <Position>
              <LatitudeDegrees>28.982596434652805328369140625</LatitudeDegrees>
              <LongitudeDegrees>-13.51137184537947177886962890625</LongitudeDegrees>
            </Position>
            <AltitudeMeters>15</AltitudeMeters>
            <DistanceMeters>6934.4383465615</DistanceMeters>
          </Trackpoint>
          <Trackpoint>
            <Time>2018-05-22T09:48:44.000Z</Time>
            <Position>
              <LatitudeDegrees>28.98269710130989551544189453125</LatitudeDegrees>
              <LongitudeDegrees>-13.5113655589520931243896484375</LongitudeDegrees>
            </Position>
            <AltitudeMeters>15.19999980926513671875</AltitudeMeters>
            <DistanceMeters>6945.6595490788</DistanceMeters>
          </Trackpoint>
          <Trackpoint>
            <Time>2018-05-22T09:48:45.000Z</Time>
            <Position>
              <LatitudeDegrees>28.9827431179583072662353515625</LatitudeDegrees>
              <LongitudeDegrees>-13.5113695822656154632568359375</LongitudeDegrees>
            </Position>
            <AltitudeMeters>15.3999996185302734375</AltitudeMeters>
            <DistanceMeters>6950.7953891554</DistanceMeters>
          </Trackpoint>
          <Trackpoint>
            <Time>2018-05-22T09:48:58.000Z</Time>
            <Position>
              <LatitudeDegrees>28.983276374638080596923828125</LatitudeDegrees>
              <LongitudeDegrees>-13.51143680512905120849609375</LongitudeDegrees>
            </Position>
            <AltitudeMeters>16.3999996185302734375</AltitudeMeters>
            <DistanceMeters>7010.5077145516</DistanceMeters>
          </Trackpoint>
          <Trackpoint>
            <Time>2018-05-22T09:49:07.000Z</Time>
            <Position>
              <LatitudeDegrees>28.9835464395582675933837890625</LatitudeDegrees>
              <LongitudeDegrees>-13.51128333248198032379150390625</LongitudeDegrees>
            </Position>
            <AltitudeMeters>17</AltitudeMeters>
            <DistanceMeters>7044.0756912405</DistanceMeters>
          </Trackpoint>
          <Trackpoint>
            <Time>2018-05-22T09:49:13.000Z</Time>
            <Position>
              <LatitudeDegrees>28.98377484641969203948974609375</LatitudeDegrees>
              <LongitudeDegrees>-13.511074371635913848876953125</LongitudeDegrees>
            </Position>
            <AltitudeMeters>15.19999980926513671875</AltitudeMeters>
            <DistanceMeters>7076.6364531348</DistanceMeters>
          </Trackpoint>
          <Trackpoint>
            <Time>2018-05-22T09:49:20.000Z</Time>
            <Position>
              <LatitudeDegrees>28.9840493537485599517822265625</LatitudeDegrees>
              <LongitudeDegrees>-13.510820567607879638671875</LongitudeDegrees>
            </Position>
            <AltitudeMeters>15</AltitudeMeters>
            <DistanceMeters>7115.9318092442</DistanceMeters>
          </Trackpoint>
          <Trackpoint>
            <Time>2018-05-22T09:49:28.000Z</Time>
            <Position>
              <LatitudeDegrees>28.98440969176590442657470703125</LatitudeDegrees>
              <LongitudeDegrees>-13.51051622070372104644775390625</LongitudeDegrees>
            </Position>
            <AltitudeMeters>15</AltitudeMeters>
            <DistanceMeters>7165.7972077679</DistanceMeters>
          </Trackpoint>
          <Trackpoint>
            <Time>2018-05-22T09:49:35.000Z</Time>
            <Position>
              <LatitudeDegrees>28.98468193598091602325439453125</LatitudeDegrees>
              <LongitudeDegrees>-13.51023442111909389495849609375</LongitudeDegrees>
            </Position>
            <AltitudeMeters>15.80000019073486328125</AltitudeMeters>
            <DistanceMeters>7206.6741614851</DistanceMeters>
          </Trackpoint>
          <Trackpoint>
            <Time>2018-05-22T09:49:38.000Z</Time>
            <Position>
              <LatitudeDegrees>28.9847443811595439910888671875</LatitudeDegrees>
              <LongitudeDegrees>-13.5100988857448101043701171875</LongitudeDegrees>
            </Position>
            <AltitudeMeters>16.200000762939453125</AltitudeMeters>
            <DistanceMeters>7221.5882099954</DistanceMeters>
          </Trackpoint>
          <Trackpoint>
            <Time>2018-05-22T09:49:42.000Z</Time>
            <Position>
              <LatitudeDegrees>28.984815292060375213623046875</LatitudeDegrees>
              <LongitudeDegrees>-13.50991590879857540130615234375</LongitudeDegrees>
            </Position>
            <AltitudeMeters>17.200000762939453125</AltitudeMeters>
            <DistanceMeters>7241.0730896206</DistanceMeters>
          </Trackpoint>
          <Trackpoint>
            <Time>2018-05-22T09:49:53.000Z</Time>
            <Position>
              <LatitudeDegrees>28.98503732867538928985595703125</LatitudeDegrees>
              <LongitudeDegrees>-13.50943579338490962982177734375</LongitudeDegrees>
            </Position>
            <AltitudeMeters>18</AltitudeMeters>
            <DistanceMeters>7293.9482625061</DistanceMeters>
          </Trackpoint>
          <Trackpoint>
            <Time>2018-05-22T09:50:00.000Z</Time>
            <Position>
              <LatitudeDegrees>28.98530269972980022430419921875</LatitudeDegrees>
              <LongitudeDegrees>-13.5092554986476898193359375</LongitudeDegrees>
            </Position>
            <AltitudeMeters>18</AltitudeMeters>
            <DistanceMeters>7328.3069579656</DistanceMeters>
          </Trackpoint>
          <Trackpoint>
            <Time>2018-05-22T09:50:13.000Z</Time>
            <Position>
              <LatitudeDegrees>28.9858266524970531463623046875</LatitudeDegrees>
              <LongitudeDegrees>-13.5090146027505397796630859375</LongitudeDegrees>
            </Position>
            <AltitudeMeters>18</AltitudeMeters>
            <DistanceMeters>7391.1635201266</DistanceMeters>
          </Trackpoint>
          <Trackpoint>
            <Time>2018-05-22T09:50:15.000Z</Time>
            <Position>
              <LatitudeDegrees>28.9858846552670001983642578125</LatitudeDegrees>
              <LongitudeDegrees>-13.50898870266973972320556640625</LongitudeDegrees>
            </Position>
            <AltitudeMeters>18.200000762939453125</AltitudeMeters>
            <DistanceMeters>7398.0939585403</DistanceMeters>
          </Trackpoint>
          <Trackpoint>
            <Time>2018-05-22T09:50:17.000Z</Time>
            <Position>
              <LatitudeDegrees>28.98594324477016925811767578125</LatitudeDegrees>
              <LongitudeDegrees>-13.5089669935405254364013671875</LongitudeDegrees>
            </Position>
            <AltitudeMeters>19.799999237060546875</AltitudeMeters>
            <DistanceMeters>7404.9490674245</DistanceMeters>
          </Trackpoint>
          <Trackpoint>
            <Time>2018-05-22T09:50:19.000Z</Time>
            <Position>
              <LatitudeDegrees>28.98600493557751178741455078125</LatitudeDegrees>
              <LongitudeDegrees>-13.50894679315388202667236328125</LongitudeDegrees>
            </Position>
            <AltitudeMeters>20.799999237060546875</AltitudeMeters>
            <DistanceMeters>7412.0912590932</DistanceMeters>
          </Trackpoint>
          <Trackpoint>
            <Time>2018-05-22T09:50:27.000Z</Time>
            <Position>
              <LatitudeDegrees>28.9862427301704883575439453125</LatitudeDegrees>
              <LongitudeDegrees>-13.508815951645374298095703125</LongitudeDegrees>
            </Position>
            <AltitudeMeters>21.799999237060546875</AltitudeMeters>
            <DistanceMeters>7441.4645068522</DistanceMeters>
          </Trackpoint>
          <Trackpoint>
            <Time>2018-05-22T09:50:30.000Z</Time>
            <Position>
              <LatitudeDegrees>28.9863444864749908447265625</LatitudeDegrees>
              <LongitudeDegrees>-13.508730791509151458740234375</LongitudeDegrees>
            </Position>
            <AltitudeMeters>22.200000762939453125</AltitudeMeters>
            <DistanceMeters>7455.5008243128</DistanceMeters>
          </Trackpoint>
          <Trackpoint>
            <Time>2018-05-22T09:50:32.000Z</Time>
            <Position>
              <LatitudeDegrees>28.986395783722400665283203125</LatitudeDegrees>
              <LongitudeDegrees>-13.50864755921065807342529296875</LongitudeDegrees>
            </Position>
            <AltitudeMeters>22.200000762939453125</AltitudeMeters>
            <DistanceMeters>7465.4137094561</DistanceMeters>
          </Trackpoint>
          <Trackpoint>
            <Time>2018-05-22T09:50:45.000Z</Time>
            <Position>
              <LatitudeDegrees>28.98661111481487751007080078125</LatitudeDegrees>
              <LongitudeDegrees>-13.50806795060634613037109375</LongitudeDegrees>
            </Position>
            <AltitudeMeters>21.6000003814697265625</AltitudeMeters>
            <DistanceMeters>7526.7228806314</DistanceMeters>
          </Trackpoint>
          <Trackpoint>
            <Time>2018-05-22T09:50:52.000Z</Time>
            <Position>
              <LatitudeDegrees>28.98673097603023052215576171875</LatitudeDegrees>
              <LongitudeDegrees>-13.507774583995342254638671875</LongitudeDegrees>
            </Position>
            <AltitudeMeters>23</AltitudeMeters>
            <DistanceMeters>7558.2469816136</DistanceMeters>
          </Trackpoint>
          <Trackpoint>
            <Time>2018-05-22T09:50:58.000Z</Time>
            <Position>
              <LatitudeDegrees>28.9868492446839809417724609375</LatitudeDegrees>
              <LongitudeDegrees>-13.5075209476053714752197265625</LongitudeDegrees>
            </Position>
            <AltitudeMeters>24.200000762939453125</AltitudeMeters>
            <DistanceMeters>7586.2303725637</DistanceMeters>
          </Trackpoint>
          <Trackpoint>
            <Time>2018-05-22T09:51:04.000Z</Time>
            <Position>
              <LatitudeDegrees>28.9869739674031734466552734375</LatitudeDegrees>
              <LongitudeDegrees>-13.50725700147449970245361328125</LongitudeDegrees>
            </Position>
            <AltitudeMeters>24.799999237060546875</AltitudeMeters>
            <DistanceMeters>7615.4379118599</DistanceMeters>
          </Trackpoint>
          <Trackpoint>
            <Time>2018-05-22T09:51:15.000Z</Time>
            <Position>
              <LatitudeDegrees>28.98720212280750274658203125</LatitudeDegrees>
              <LongitudeDegrees>-13.5067085735499858856201171875</LongitudeDegrees>
            </Position>
            <AltitudeMeters>23</AltitudeMeters>
            <DistanceMeters>7674.5634693958</DistanceMeters>
          </Trackpoint>
          <Trackpoint>
            <Time>2018-05-22T09:51:16.000Z</Time>
            <Position>
              <LatitudeDegrees>28.9872287772595882415771484375</LatitudeDegrees>
              <LongitudeDegrees>-13.50666289217770099639892578125</LongitudeDegrees>
            </Position>
            <AltitudeMeters>23.200000762939453125</AltitudeMeters>
            <DistanceMeters>7679.9095139097</DistanceMeters>
          </Trackpoint>
          <Trackpoint>
            <Time>2018-05-22T09:51:19.000Z</Time>
            <Position>
              <LatitudeDegrees>28.98733866401016712188720703125</LatitudeDegrees>
              <LongitudeDegrees>-13.5065483115613460540771484375</LongitudeDegrees>
            </Position>
            <AltitudeMeters>23.3999996185302734375</AltitudeMeters>
            <DistanceMeters>7696.4635384912</DistanceMeters>
          </Trackpoint>
          <Trackpoint>
            <Time>2018-05-22T09:51:21.000Z</Time>
            <Position>
              <LatitudeDegrees>28.9874292723834514617919921875</LatitudeDegrees>
              <LongitudeDegrees>-13.5065035521984100341796875</LongitudeDegrees>
            </Position>
            <AltitudeMeters>23.3999996185302734375</AltitudeMeters>
            <DistanceMeters>7707.4497116989</DistanceMeters>
          </Trackpoint>
          <Trackpoint>
            <Time>2018-05-22T09:51:23.000Z</Time>
            <Position>
              <LatitudeDegrees>28.98752306587994098663330078125</LatitudeDegrees>
              <LongitudeDegrees>-13.5065121017396450042724609375</LongitudeDegrees>
            </Position>
            <AltitudeMeters>23.3999996185302734375</AltitudeMeters>
            <DistanceMeters>7717.9225006536</DistanceMeters>
          </Trackpoint>
          <Trackpoint>
            <Time>2018-05-22T09:51:25.000Z</Time>
            <Position>
              <LatitudeDegrees>28.98760713636875152587890625</LatitudeDegrees>
              <LongitudeDegrees>-13.50656096823513507843017578125</LongitudeDegrees>
            </Position>
            <AltitudeMeters>23.200000762939453125</AltitudeMeters>
            <DistanceMeters>7728.4202648404</DistanceMeters>
          </Trackpoint>
          <Trackpoint>
            <Time>2018-05-22T09:51:38.000Z</Time>
            <Position>
              <LatitudeDegrees>28.9880468510091304779052734375</LatitudeDegrees>
              <LongitudeDegrees>-13.506990037858486175537109375</LongitudeDegrees>
            </Position>
            <AltitudeMeters>24.200000762939453125</AltitudeMeters>
            <DistanceMeters>7792.7651400004</DistanceMeters>
          </Trackpoint>
          <Trackpoint>
            <Time>2018-05-22T09:51:39.000Z</Time>
            <Position>
              <LatitudeDegrees>28.98808029480278491973876953125</LatitudeDegrees>
              <LongitudeDegrees>-13.50701962597668170928955078125</LongitudeDegrees>
            </Position>
            <AltitudeMeters>24.3999996185302734375</AltitudeMeters>
            <DistanceMeters>7797.4725604823</DistanceMeters>
          </Trackpoint>
          <Trackpoint>
            <Time>2018-05-22T09:51:46.000Z</Time>
            <Position>
              <LatitudeDegrees>28.98831230588257312774658203125</LatitudeDegrees>
              <LongitudeDegrees>-13.50723017938435077667236328125</LongitudeDegrees>
            </Position>
            <AltitudeMeters>25</AltitudeMeters>
            <DistanceMeters>7830.4431331567</DistanceMeters>
          </Trackpoint>
          <Trackpoint>
            <Time>2018-05-22T09:51:48.000Z</Time>
            <Position>
              <LatitudeDegrees>28.98839310742914676666259765625</LatitudeDegrees>
              <LongitudeDegrees>-13.50724308751523494720458984375</LongitudeDegrees>
            </Position>
            <AltitudeMeters>25.200000762939453125</AltitudeMeters>
            <DistanceMeters>7839.5240283817</DistanceMeters>
          </Trackpoint>
          <Trackpoint>
            <Time>2018-05-22T09:51:50.000Z</Time>
            <Position>
              <LatitudeDegrees>28.98846301250159740447998046875</LatitudeDegrees>
              <LongitudeDegrees>-13.5071833245456218719482421875</LongitudeDegrees>
            </Position>
            <AltitudeMeters>25.6000003814697265625</AltitudeMeters>
            <DistanceMeters>7849.2395514797</DistanceMeters>
          </Trackpoint>
          <Trackpoint>
            <Time>2018-05-22T09:51:58.000Z</Time>
            <Position>
              <LatitudeDegrees>28.98868597112596035003662109375</LatitudeDegrees>
              <LongitudeDegrees>-13.506856262683868408203125</LongitudeDegrees>
            </Position>
            <AltitudeMeters>26.200000762939453125</AltitudeMeters>
            <DistanceMeters>7889.6094677102</DistanceMeters>
          </Trackpoint>
          <Trackpoint>
            <Time>2018-05-22T09:52:01.000Z</Time>
            <Position>
              <LatitudeDegrees>28.9887589775025844573974609375</LatitudeDegrees>
              <LongitudeDegrees>-13.5067441128194332122802734375</LongitudeDegrees>
            </Position>
            <AltitudeMeters>27.3999996185302734375</AltitudeMeters>
            <DistanceMeters>7903.2198677106</DistanceMeters>
          </Trackpoint>
          <Trackpoint>
            <Time>2018-05-22T09:52:06.000Z</Time>
            <Position>
              <LatitudeDegrees>28.98885679431259632110595703125</LatitudeDegrees>
              <LongitudeDegrees>-13.506539762020111083984375</LongitudeDegrees>
            </Position>
            <AltitudeMeters>27.799999237060546875</AltitudeMeters>
            <DistanceMeters>7925.8990238715</DistanceMeters>
          </Trackpoint>
          <Trackpoint>
            <Time>2018-05-22T09:52:18.000Z</Time>
            <Position>
              <LatitudeDegrees>28.988994173705577850341796875</LatitudeDegrees>
              <LongitudeDegrees>-13.5059411264955997467041015625</LongitudeDegrees>
            </Position>
            <AltitudeMeters>26.6000003814697265625</AltitudeMeters>
            <DistanceMeters>7986.1530049377</DistanceMeters>
          </Trackpoint>
          <Trackpoint>
            <Time>2018-05-22T09:52:19.000Z</Time>
            <Position>
              <LatitudeDegrees>28.9890020526945590972900390625</LatitudeDegrees>
              <LongitudeDegrees>-13.50588605739176273345947265625</LongitudeDegrees>
            </Position>
            <AltitudeMeters>26.200000762939453125</AltitudeMeters>
            <DistanceMeters>7991.5845111507</DistanceMeters>
          </Trackpoint>
          <Trackpoint>
            <Time>2018-05-22T09:52:28.000Z</Time>
            <Position>
              <LatitudeDegrees>28.98909576237201690673828125</LatitudeDegrees>
              <LongitudeDegrees>-13.50534223951399326324462890625</LongitudeDegrees>
            </Position>
            <AltitudeMeters>25.200000762939453125</AltitudeMeters>
            <DistanceMeters>8045.546633892</DistanceMeters>
          </Trackpoint>
          <Trackpoint>
            <Time>2018-05-22T09:52:33.000Z</Time>
            <Position>
              <LatitudeDegrees>28.9891415275633335113525390625</LatitudeDegrees>
              <LongitudeDegrees>-13.50505314767360687255859375</LongitudeDegrees>
            </Position>
            <AltitudeMeters>24.3999996185302734375</AltitudeMeters>
            <DistanceMeters>8074.1488856481</DistanceMeters>
          </Trackpoint>
          <Trackpoint>
            <Time>2018-05-22T09:52:37.000Z</Time>
            <Position>
              <LatitudeDegrees>28.98917798884212970733642578125</LatitudeDegrees>
              <LongitudeDegrees>-13.504804708063602447509765625</LongitudeDegrees>
            </Position>
            <AltitudeMeters>24.200000762939453125</AltitudeMeters>
            <DistanceMeters>8098.6746160569</DistanceMeters>
          </Trackpoint>
          <Trackpoint>
            <Time>2018-05-22T09:52:45.000Z</Time>
            <Position>
              <LatitudeDegrees>28.9892654120922088623046875</LatitudeDegrees>
              <LongitudeDegrees>-13.504307158291339874267578125</LongitudeDegrees>
            </Position>
            <AltitudeMeters>23.799999237060546875</AltitudeMeters>
            <DistanceMeters>8148.0822024702</DistanceMeters>
          </Trackpoint>
          <Trackpoint>
            <Time>2018-05-22T09:52:46.000Z</Time>
            <Position>
              <LatitudeDegrees>28.9892655797302722930908203125</LatitudeDegrees>
              <LongitudeDegrees>-13.50424957461655139923095703125</LongitudeDegrees>
            </Position>
            <AltitudeMeters>23.6000003814697265625</AltitudeMeters>
            <DistanceMeters>8153.688778618</DistanceMeters>
          </Trackpoint>
          <Trackpoint>
            <Time>2018-05-22T09:52:48.000Z</Time>
            <Position>
              <LatitudeDegrees>28.9892292022705078125</LatitudeDegrees>
              <LongitudeDegrees>-13.5041353292763233184814453125</LongitudeDegrees>
            </Position>
            <AltitudeMeters>23.6000003814697265625</AltitudeMeters>
            <DistanceMeters>8165.525232311</DistanceMeters>
          </Trackpoint>
          <Trackpoint>
            <Time>2018-05-22T09:52:50.000Z</Time>
            <Position>
              <LatitudeDegrees>28.98914563469588756561279296875</LatitudeDegrees>
              <LongitudeDegrees>-13.5040437988936901092529296875</LongitudeDegrees>
            </Position>
            <AltitudeMeters>23</AltitudeMeters>
            <DistanceMeters>8178.406172672</DistanceMeters>
          </Trackpoint>
          <Trackpoint>
            <Time>2018-05-22T09:52:54.000Z</Time>
            <Position>
              <LatitudeDegrees>28.9888920821249485015869140625</LatitudeDegrees>
              <LongitudeDegrees>-13.50393458269536495208740234375</LongitudeDegrees>
            </Position>
            <AltitudeMeters>22</AltitudeMeters>
            <DistanceMeters>8208.5636456949</DistanceMeters>
          </Trackpoint>
          <Trackpoint>
            <Time>2018-05-22T09:52:56.000Z</Time>
            <Position>
              <LatitudeDegrees>28.98874112404882907867431640625</LatitudeDegrees>
              <LongitudeDegrees>-13.50388781167566776275634765625</LongitudeDegrees>
            </Position>
            <AltitudeMeters>21</AltitudeMeters>
            <DistanceMeters>8225.9716994455</DistanceMeters>
          </Trackpoint>
          <Trackpoint>
            <Time>2018-05-22T09:52:58.000Z</Time>
            <Position>
              <LatitudeDegrees>28.988589830696582794189453125</LatitudeDegrees>
              <LongitudeDegrees>-13.503842465579509735107421875</LongitudeDegrees>
            </Position>
            <AltitudeMeters>19.3999996185302734375</AltitudeMeters>
            <DistanceMeters>8243.380012559</DistanceMeters>
          </Trackpoint>
          <Trackpoint>
            <Time>2018-05-22T09:53:01.000Z</Time>
            <Position>
              <LatitudeDegrees>28.98837022483348846435546875</LatitudeDegrees>
              <LongitudeDegrees>-13.50375990383327007293701171875</LongitudeDegrees>
            </Position>
            <AltitudeMeters>18.3999996185302734375</AltitudeMeters>
            <DistanceMeters>8269.1103270648</DistanceMeters>
          </Trackpoint>
          <Trackpoint>
            <Time>2018-05-22T09:53:05.000Z</Time>
            <Position>
              <LatitudeDegrees>28.9881065301597118377685546875</LatitudeDegrees>
              <LongitudeDegrees>-13.50367248058319091796875</LongitudeDegrees>
            </Position>
            <AltitudeMeters>17.799999237060546875</AltitudeMeters>
            <DistanceMeters>8299.6690627287</DistanceMeters>
          </Trackpoint>
          <Trackpoint>
            <Time>2018-05-22T09:53:06.000Z</Time>
            <Position>
              <LatitudeDegrees>28.9880612678825855255126953125</LatitudeDegrees>
              <LongitudeDegrees>-13.50363015197217464447021484375</LongitudeDegrees>
            </Position>
            <AltitudeMeters>17.200000762939453125</AltitudeMeters>
            <DistanceMeters>8306.1775255733</DistanceMeters>
          </Trackpoint>
          <Trackpoint>
            <Time>2018-05-22T09:53:07.000Z</Time>
            <Position>
              <LatitudeDegrees>28.9880411513149738311767578125</LatitudeDegrees>
              <LongitudeDegrees>-13.50356183946132659912109375</LongitudeDegrees>
            </Position>
            <AltitudeMeters>16.799999237060546875</AltitudeMeters>
            <DistanceMeters>8313.1947192323</DistanceMeters>
          </Trackpoint>
          <Trackpoint>
            <Time>2018-05-22T09:53:08.000Z</Time>
            <Position>
              <LatitudeDegrees>28.988037295639514923095703125</LatitudeDegrees>
              <LongitudeDegrees>-13.50348045118153095245361328125</LongitudeDegrees>
            </Position>
            <AltitudeMeters>16.200000762939453125</AltitudeMeters>
            <DistanceMeters>8321.1304456087</DistanceMeters>
          </Trackpoint>
          <Trackpoint>
            <Time>2018-05-22T09:53:09.000Z</Time>
            <Position>
              <LatitudeDegrees>28.9880448393523693084716796875</LatitudeDegrees>
              <LongitudeDegrees>-13.5033977217972278594970703125</LongitudeDegrees>
            </Position>
            <AltitudeMeters>15.80000019073486328125</AltitudeMeters>
            <DistanceMeters>8329.2283722035</DistanceMeters>
          </Trackpoint>
          <Trackpoint>
            <Time>2018-05-22T09:53:18.000Z</Time>
            <Position>
              <LatitudeDegrees>28.98820937611162662506103515625</LatitudeDegrees>
              <LongitudeDegrees>-13.50278399884700775146484375</LongitudeDegrees>
            </Position>
            <AltitudeMeters>15.6000003814697265625</AltitudeMeters>
            <DistanceMeters>8391.7227976543</DistanceMeters>
          </Trackpoint>
          <Trackpoint>
            <Time>2018-05-22T09:53:21.000Z</Time>
            <Position>
              <LatitudeDegrees>28.98827156983315944671630859375</LatitudeDegrees>
              <LongitudeDegrees>-13.50261325947940349578857421875</LongitudeDegrees>
            </Position>
            <AltitudeMeters>17.3999996185302734375</AltitudeMeters>
            <DistanceMeters>8409.7295451361</DistanceMeters>
          </Trackpoint>
          <Trackpoint>
            <Time>2018-05-22T09:53:23.000Z</Time>
            <Position>
              <LatitudeDegrees>28.988312222063541412353515625</LatitudeDegrees>
              <LongitudeDegrees>-13.502501361072063446044921875</LongitudeDegrees>
            </Position>
            <AltitudeMeters>18.6000003814697265625</AltitudeMeters>
            <DistanceMeters>8421.52587838</DistanceMeters>
          </Trackpoint>
          <Trackpoint>
            <Time>2018-05-22T09:53:29.000Z</Time>
            <Position>
              <LatitudeDegrees>28.98843535222113132476806640625</LatitudeDegrees>
              <LongitudeDegrees>-13.50218678824603557586669921875</LongitudeDegrees>
            </Position>
            <AltitudeMeters>19</AltitudeMeters>
            <DistanceMeters>8455.0783835055</DistanceMeters>
          </Trackpoint>
          <Trackpoint>
            <Time>2018-05-22T09:53:37.000Z</Time>
            <Position>
              <LatitudeDegrees>28.9886949397623538970947265625</LatitudeDegrees>
              <LongitudeDegrees>-13.50183625705540180206298828125</LongitudeDegrees>
            </Position>
            <AltitudeMeters>19</AltitudeMeters>
            <DistanceMeters>8499.7933753556</DistanceMeters>
          </Trackpoint>
          <Trackpoint>
            <Time>2018-05-22T09:53:48.000Z</Time>
            <Position>
              <LatitudeDegrees>28.98916156031191349029541015625</LatitudeDegrees>
              <LongitudeDegrees>-13.5014212690293788909912109375</LongitudeDegrees>
            </Position>
            <AltitudeMeters>19.3999996185302734375</AltitudeMeters>
            <DistanceMeters>8565.5935256798</DistanceMeters>
          </Trackpoint>
          <Trackpoint>
            <Time>2018-05-22T09:53:54.000Z</Time>
            <Position>
              <LatitudeDegrees>28.98939005099236965179443359375</LatitudeDegrees>
              <LongitudeDegrees>-13.50118833594024181365966796875</LongitudeDegrees>
            </Position>
            <AltitudeMeters>19.6000003814697265625</AltitudeMeters>
            <DistanceMeters>8599.6674607139</DistanceMeters>
          </Trackpoint>
          <Trackpoint>
            <Time>2018-05-22T09:53:57.000Z</Time>
            <Position>
              <LatitudeDegrees>28.98948468267917633056640625</LatitudeDegrees>
              <LongitudeDegrees>-13.50107409060001373291015625</LongitudeDegrees>
            </Position>
            <AltitudeMeters>21</AltitudeMeters>
            <DistanceMeters>8614.9859321283</DistanceMeters>
          </Trackpoint>
          <Trackpoint>
            <Time>2018-05-22T09:54:09.000Z</Time>
            <Position>
              <LatitudeDegrees>28.98980788886547088623046875</LatitudeDegrees>
              <LongitudeDegrees>-13.5005418397486209869384765625</LongitudeDegrees>
            </Position>
            <AltitudeMeters>19.799999237060546875</AltitudeMeters>
            <DistanceMeters>8678.0669240829</DistanceMeters>
          </Trackpoint>
          <Trackpoint>
            <Time>2018-05-22T09:54:17.000Z</Time>
            <Position>
              <LatitudeDegrees>28.9900551550090312957763671875</LatitudeDegrees>
              <LongitudeDegrees>-13.50013271905481815338134765625</LongitudeDegrees>
            </Position>
            <AltitudeMeters>18.6000003814697265625</AltitudeMeters>
            <DistanceMeters>8726.4805870523</DistanceMeters>
          </Trackpoint>
          <Trackpoint>
            <Time>2018-05-22T09:54:21.000Z</Time>
            <Position>
              <LatitudeDegrees>28.99020795710384845733642578125</LatitudeDegrees>
              <LongitudeDegrees>-13.49991269409656524658203125</LongitudeDegrees>
            </Position>
            <AltitudeMeters>17.3999996185302734375</AltitudeMeters>
            <DistanceMeters>8753.8319431978</DistanceMeters>
          </Trackpoint>
          <Trackpoint>
            <Time>2018-05-22T09:54:30.000Z</Time>
            <Position>
              <LatitudeDegrees>28.9904635213315486907958984375</LatitudeDegrees>
              <LongitudeDegrees>-13.49937633611261844635009765625</LongitudeDegrees>
            </Position>
            <AltitudeMeters>19</AltitudeMeters>
            <DistanceMeters>8813.2945253169</DistanceMeters>
          </Trackpoint>
          <Trackpoint>
            <Time>2018-05-22T09:54:32.000Z</Time>
            <Position>
              <LatitudeDegrees>28.9904806204140186309814453125</LatitudeDegrees>
              <LongitudeDegrees>-13.49926804192364215850830078125</LongitudeDegrees>
            </Position>
            <AltitudeMeters>20.200000762939453125</AltitudeMeters>
            <DistanceMeters>8824.0081288973</DistanceMeters>
          </Trackpoint>
          <Trackpoint>
            <Time>2018-05-22T09:54:40.000Z</Time>
            <Position>
              <LatitudeDegrees>28.9905138127505779266357421875</LatitudeDegrees>
              <LongitudeDegrees>-13.49884408526122570037841796875</LongitudeDegrees>
            </Position>
            <AltitudeMeters>20.799999237060546875</AltitudeMeters>
            <DistanceMeters>8865.4476218624</DistanceMeters>
          </Trackpoint>
          <Trackpoint>
            <Time>2018-05-22T09:54:46.000Z</Time>
            <Position>
              <LatitudeDegrees>28.9906070195138454437255859375</LatitudeDegrees>
              <LongitudeDegrees>-13.49850981496274471282958984375</LongitudeDegrees>
            </Position>
            <AltitudeMeters>21.3999996185302734375</AltitudeMeters>
            <DistanceMeters>8899.6042734325</DistanceMeters>
          </Trackpoint>
          <Trackpoint>
            <Time>2018-05-22T09:54:48.000Z</Time>
            <Position>
              <LatitudeDegrees>28.99066661484539508819580078125</LatitudeDegrees>
              <LongitudeDegrees>-13.49841342307627201080322265625</LongitudeDegrees>
            </Position>
            <AltitudeMeters>21.3999996185302734375</AltitudeMeters>
            <DistanceMeters>8911.0966142763</DistanceMeters>
          </Trackpoint>
          <Trackpoint>
            <Time>2018-05-22T09:54:55.000Z</Time>
            <Position>
              <LatitudeDegrees>28.99095143191516399383544921875</LatitudeDegrees>
              <LongitudeDegrees>-13.4981006942689418792724609375</LongitudeDegrees>
            </Position>
            <AltitudeMeters>20</AltitudeMeters>
            <DistanceMeters>8955.0497312793</DistanceMeters>
          </Trackpoint>
          <Trackpoint>
            <Time>2018-05-22T09:54:59.000Z</Time>
            <Position>
              <LatitudeDegrees>28.9911186508834362030029296875</LatitudeDegrees>
              <LongitudeDegrees>-13.49790371954441070556640625</LongitudeDegrees>
            </Position>
            <AltitudeMeters>19.3999996185302734375</AltitudeMeters>
            <DistanceMeters>8981.7733654941</DistanceMeters>
          </Trackpoint>
          <Trackpoint>
            <Time>2018-05-22T09:55:01.000Z</Time>
            <Position>
              <LatitudeDegrees>28.99120255373418331146240234375</LatitudeDegrees>
              <LongitudeDegrees>-13.49780908785760402679443359375</LongitudeDegrees>
            </Position>
            <AltitudeMeters>18.799999237060546875</AltitudeMeters>
            <DistanceMeters>8994.8915272095</DistanceMeters>
          </Trackpoint>
          <Trackpoint>
            <Time>2018-05-22T09:55:11.000Z</Time>
            <Position>
              <LatitudeDegrees>28.991579152643680572509765625</LatitudeDegrees>
              <LongitudeDegrees>-13.497351519763469696044921875</LongitudeDegrees>
            </Position>
            <AltitudeMeters>18.6000003814697265625</AltitudeMeters>
            <DistanceMeters>9056.0581793366</DistanceMeters>
          </Trackpoint>
          <Trackpoint>
            <Time>2018-05-22T09:55:16.000Z</Time>
            <Position>
              <LatitudeDegrees>28.991775624454021453857421875</LatitudeDegrees>
              <LongitudeDegrees>-13.49715563468635082244873046875</LongitudeDegrees>
            </Position>
            <AltitudeMeters>17.799999237060546875</AltitudeMeters>
            <DistanceMeters>9085.0730892416</DistanceMeters>
          </Trackpoint>
          <Trackpoint>
            <Time>2018-05-22T09:55:17.000Z</Time>
            <Position>
              <LatitudeDegrees>28.99182029999792575836181640625</LatitudeDegrees>
              <LongitudeDegrees>-13.49712613038718700408935546875</LongitudeDegrees>
            </Position>
            <AltitudeMeters>17.3999996185302734375</AltitudeMeters>
            <DistanceMeters>9090.8157227119</DistanceMeters>
          </Trackpoint>
          <Trackpoint>
            <Time>2018-05-22T09:55:20.000Z</Time>
            <Position>
              <LatitudeDegrees>28.99196765385568141937255859375</LatitudeDegrees>
              <LongitudeDegrees>-13.49706695415079593658447265625</LongitudeDegrees>
            </Position>
            <AltitudeMeters>16.6000003814697265625</AltitudeMeters>
            <DistanceMeters>9108.1985998606</DistanceMeters>
          </Trackpoint>
          <Trackpoint>
            <Time>2018-05-22T09:55:24.000Z</Time>
            <Position>
              <LatitudeDegrees>28.99218927137553691864013671875</LatitudeDegrees>
              <LongitudeDegrees>-13.49698363803327083587646484375</LongitudeDegrees>
            </Position>
            <AltitudeMeters>15.3999996185302734375</AltitudeMeters>
            <DistanceMeters>9134.1643778696</DistanceMeters>
          </Trackpoint>
          <Trackpoint>
            <Time>2018-05-22T09:55:26.000Z</Time>
            <Position>
              <LatitudeDegrees>28.99230326525866985321044921875</LatitudeDegrees>
              <LongitudeDegrees>-13.49693183787167072296142578125</LongitudeDegrees>
            </Position>
            <AltitudeMeters>14.19999980926513671875</AltitudeMeters>
            <DistanceMeters>9147.8171738454</DistanceMeters>
          </Trackpoint>
          <Trackpoint>
            <Time>2018-05-22T09:55:27.000Z</Time>
            <Position>
              <LatitudeDegrees>28.99235439486801624298095703125</LatitudeDegrees>
              <LongitudeDegrees>-13.4968980588018894195556640625</LongitudeDegrees>
            </Position>
            <AltitudeMeters>14</AltitudeMeters>
            <DistanceMeters>9154.3891488629</DistanceMeters>
          </Trackpoint>
          <Trackpoint>
            <Time>2018-05-22T09:55:34.000Z</Time>
            <Position>
              <LatitudeDegrees>28.99264122359454631805419921875</LatitudeDegrees>
              <LongitudeDegrees>-13.49656521342694759368896484375</LongitudeDegrees>
            </Position>
            <AltitudeMeters>15.19999980926513671875</AltitudeMeters>
            <DistanceMeters>9199.877475241</DistanceMeters>
          </Trackpoint>
          <Trackpoint>
            <Time>2018-05-22T09:55:44.000Z</Time>
            <Position>
              <LatitudeDegrees>28.99298856966197490692138671875</LatitudeDegrees>
              <LongitudeDegrees>-13.49608744494616985321044921875</LongitudeDegrees>
            </Position>
            <AltitudeMeters>14.80000019073486328125</AltitudeMeters>
            <DistanceMeters>9260.3592728926</DistanceMeters>
          </Trackpoint>
          <Trackpoint>
            <Time>2018-05-22T09:55:54.000Z</Time>
            <Position>
              <LatitudeDegrees>28.993300460278987884521484375</LatitudeDegrees>
              <LongitudeDegrees>-13.495642952620983123779296875</LongitudeDegrees>
            </Position>
            <AltitudeMeters>15</AltitudeMeters>
            <DistanceMeters>9315.8354259984</DistanceMeters>
          </Trackpoint>
          <Trackpoint>
            <Time>2018-05-22T09:55:57.000Z</Time>
            <Position>
              <LatitudeDegrees>28.99336843751370906829833984375</LatitudeDegrees>
              <LongitudeDegrees>-13.49550607614219188690185546875</LongitudeDegrees>
            </Position>
            <AltitudeMeters>15</AltitudeMeters>
            <DistanceMeters>9331.1592018989</DistanceMeters>
          </Trackpoint>
          <Trackpoint>
            <Time>2018-05-22T09:56:07.000Z</Time>
            <Position>
              <LatitudeDegrees>28.99343557655811309814453125</LatitudeDegrees>
              <LongitudeDegrees>-13.49497583694756031036376953125</LongitudeDegrees>
            </Position>
            <AltitudeMeters>16.3999996185302734375</AltitudeMeters>
            <DistanceMeters>9383.3176159887</DistanceMeters>
          </Trackpoint>
          <Trackpoint>
            <Time>2018-05-22T09:56:12.000Z</Time>
            <Position>
              <LatitudeDegrees>28.99346172809600830078125</LatitudeDegrees>
              <LongitudeDegrees>-13.494689427316188812255859375</LongitudeDegrees>
            </Position>
            <AltitudeMeters>17.6000003814697265625</AltitudeMeters>
            <DistanceMeters>9411.3517851961</DistanceMeters>
          </Trackpoint>
          <Trackpoint>
            <Time>2018-05-22T09:56:16.000Z</Time>
            <Position>
              <LatitudeDegrees>28.993485867977142333984375</LatitudeDegrees>
              <LongitudeDegrees>-13.49445599131286144256591796875</LongitudeDegrees>
            </Position>
            <AltitudeMeters>18</AltitudeMeters>
            <DistanceMeters>9434.2356702058</DistanceMeters>
          </Trackpoint>
          <Trackpoint>
            <Time>2018-05-22T09:56:21.000Z</Time>
            <Position>
              <LatitudeDegrees>28.993508331477642059326171875</LatitudeDegrees>
              <LongitudeDegrees>-13.494187183678150177001953125</LongitudeDegrees>
            </Position>
            <AltitudeMeters>18.6000003814697265625</AltitudeMeters>
            <DistanceMeters>9460.5239137808</DistanceMeters>
          </Trackpoint>
          <Trackpoint>
            <Time>2018-05-22T09:56:32.000Z</Time>
            <Position>
              <LatitudeDegrees>28.9936392568051815032958984375</LatitudeDegrees>
              <LongitudeDegrees>-13.49357672967016696929931640625</LongitudeDegrees>
            </Position>
            <AltitudeMeters>18.6000003814697265625</AltitudeMeters>
            <DistanceMeters>9521.7138871146</DistanceMeters>
          </Trackpoint>
          <Trackpoint>
            <Time>2018-05-22T09:56:40.000Z</Time>
            <Position>
              <LatitudeDegrees>28.99374713189899921417236328125</LatitudeDegrees>
              <LongitudeDegrees>-13.4932266175746917724609375</LongitudeDegrees>
            </Position>
            <AltitudeMeters>18.799999237060546875</AltitudeMeters>
            <DistanceMeters>9557.8511610171</DistanceMeters>
          </Trackpoint>
          <Trackpoint>
            <Time>2018-05-22T09:56:46.000Z</Time>
            <Position>
              <LatitudeDegrees>28.9938819967210292816162109375</LatitudeDegrees>
              <LongitudeDegrees>-13.49300064146518707275390625</LongitudeDegrees>
            </Position>
            <AltitudeMeters>19.6000003814697265625</AltitudeMeters>
            <DistanceMeters>9584.4839129326</DistanceMeters>
          </Trackpoint>
          <Trackpoint>
            <Time>2018-05-22T09:56:57.000Z</Time>
            <Position>
              <LatitudeDegrees>28.99426060728728771209716796875</LatitudeDegrees>
              <LongitudeDegrees>-13.4927758388221263885498046875</LongitudeDegrees>
            </Position>
            <AltitudeMeters>20.799999237060546875</AltitudeMeters>
            <DistanceMeters>9631.9680879548</DistanceMeters>
          </Trackpoint>
          <Trackpoint>
            <Time>2018-05-22T09:56:59.000Z</Time>
            <Position>
              <LatitudeDegrees>28.9943406544625759124755859375</LatitudeDegrees>
              <LongitudeDegrees>-13.4927352704107761383056640625</LongitudeDegrees>
            </Position>
            <AltitudeMeters>20.799999237060546875</AltitudeMeters>
            <DistanceMeters>9641.7133080118</DistanceMeters>
          </Trackpoint>
          <Trackpoint>
            <Time>2018-05-22T09:57:07.000Z</Time>
            <Position>
              <LatitudeDegrees>28.99463309906423091888427734375</LatitudeDegrees>
              <LongitudeDegrees>-13.49252580665051937103271484375</LongitudeDegrees>
            </Position>
            <AltitudeMeters>21.3999996185302734375</AltitudeMeters>
            <DistanceMeters>9680.1231482779</DistanceMeters>
          </Trackpoint>
          <Trackpoint>
            <Time>2018-05-22T09:57:13.000Z</Time>
            <Position>
              <LatitudeDegrees>28.9948449097573757171630859375</LatitudeDegrees>
              <LongitudeDegrees>-13.4923745132982730865478515625</LongitudeDegrees>
            </Position>
            <AltitudeMeters>20.799999237060546875</AltitudeMeters>
            <DistanceMeters>9707.921020525</DistanceMeters>
          </Trackpoint>
          <Trackpoint>
            <Time>2018-05-22T09:57:16.000Z</Time>
            <Position>
              <LatitudeDegrees>28.99494037963449954986572265625</LatitudeDegrees>
              <LongitudeDegrees>-13.4923017583787441253662109375</LongitudeDegrees>
            </Position>
            <AltitudeMeters>20.799999237060546875</AltitudeMeters>
            <DistanceMeters>9720.6917765971</DistanceMeters>
          </Trackpoint>
          <Trackpoint>
            <Time>2018-05-22T09:57:17.000Z</Time>
            <Position>
              <LatitudeDegrees>28.99497122503817081451416015625</LatitudeDegrees>
              <LongitudeDegrees>-13.4922786243259906768798828125</LongitudeDegrees>
            </Position>
            <AltitudeMeters>21</AltitudeMeters>
            <DistanceMeters>9724.7988659311</DistanceMeters>
          </Trackpoint>
          <Trackpoint>
            <Time>2018-05-22T09:57:21.000Z</Time>
            <Position>
              <LatitudeDegrees>28.99509695358574390411376953125</LatitudeDegrees>
              <LongitudeDegrees>-13.4921844117343425750732421875</LongitudeDegrees>
            </Position>
            <AltitudeMeters>21</AltitudeMeters>
            <DistanceMeters>9741.5305852066</DistanceMeters>
          </Trackpoint>
          <Trackpoint>
            <Time>2018-05-22T09:57:26.000Z</Time>
            <Position>
              <LatitudeDegrees>28.99526928551495075225830078125</LatitudeDegrees>
              <LongitudeDegrees>-13.492074273526668548583984375</LongitudeDegrees>
            </Position>
            <AltitudeMeters>21.3999996185302734375</AltitudeMeters>
            <DistanceMeters>9763.504986399</DistanceMeters>
          </Trackpoint>
          <Trackpoint>
            <Time>2018-05-22T09:57:29.000Z</Time>
            <Position>
              <LatitudeDegrees>28.9953863807022571563720703125</LatitudeDegrees>
              <LongitudeDegrees>-13.49199456162750720977783203125</LongitudeDegrees>
            </Position>
            <AltitudeMeters>21.799999237060546875</AltitudeMeters>
            <DistanceMeters>9778.6735838224</DistanceMeters>
          </Trackpoint>
          <Trackpoint>
            <Time>2018-05-22T09:57:37.000Z</Time>
            <Position>
              <LatitudeDegrees>28.99567245505750179290771484375</LatitudeDegrees>
              <LongitudeDegrees>-13.4917703457176685333251953125</LongitudeDegrees>
            </Position>
            <AltitudeMeters>22</AltitudeMeters>
            <DistanceMeters>9817.2777113988</DistanceMeters>
          </Trackpoint>
          <Trackpoint>
            <Time>2018-05-22T09:57:43.000Z</Time>
            <Position>
              <LatitudeDegrees>28.9958403445780277252197265625</LatitudeDegrees>
              <LongitudeDegrees>-13.4916057251393795013427734375</LongitudeDegrees>
            </Position>
            <AltitudeMeters>22</AltitudeMeters>
            <DistanceMeters>9841.8949498742</DistanceMeters>
          </Trackpoint>
          <Trackpoint>
            <Time>2018-05-22T09:57:48.000Z</Time>
            <Position>
              <LatitudeDegrees>28.9959610439836978912353515625</LatitudeDegrees>
              <LongitudeDegrees>-13.49152986891567707061767578125</LongitudeDegrees>
            </Position>
            <AltitudeMeters>23</AltitudeMeters>
            <DistanceMeters>9857.2252065429</DistanceMeters>
          </Trackpoint>
          <Trackpoint>
            <Time>2018-05-22T09:57:54.000Z</Time>
            <Position>
              <LatitudeDegrees>28.99605081416666507720947265625</LatitudeDegrees>
              <LongitudeDegrees>-13.49139609374105930328369140625</LongitudeDegrees>
            </Position>
            <AltitudeMeters>23.6000003814697265625</AltitudeMeters>
            <DistanceMeters>9873.6398165272</DistanceMeters>
          </Trackpoint>
          <Trackpoint>
            <Time>2018-05-22T09:58:02.000Z</Time>
            <Position>
              <LatitudeDegrees>28.996200598776340484619140625</LatitudeDegrees>
              <LongitudeDegrees>-13.4911866299808025360107421875</LongitudeDegrees>
            </Position>
            <AltitudeMeters>23.200000762939453125</AltitudeMeters>
            <DistanceMeters>9899.978849404</DistanceMeters>
          </Trackpoint>
          <Trackpoint>
            <Time>2018-05-22T09:58:07.000Z</Time>
            <Position>
              <LatitudeDegrees>28.9963321946561336517333984375</LatitudeDegrees>
              <LongitudeDegrees>-13.49104925058782100677490234375</LongitudeDegrees>
            </Position>
            <AltitudeMeters>23.3999996185302734375</AltitudeMeters>
            <DistanceMeters>9919.813271764</DistanceMeters>
          </Trackpoint>
          <Trackpoint>
            <Time>2018-05-22T09:58:18.000Z</Time>
            <Position>
              <LatitudeDegrees>28.99664291180670261383056640625</LatitudeDegrees>
              <LongitudeDegrees>-13.49073375575244426727294921875</LongitudeDegrees>
            </Position>
            <AltitudeMeters>24</AltitudeMeters>
            <DistanceMeters>9966.0662010821</DistanceMeters>
          </Trackpoint>
          <Trackpoint>
            <Time>2018-05-22T09:58:20.000Z</Time>
            <Position>
              <LatitudeDegrees>28.996704183518886566162109375</LatitudeDegrees>
              <LongitudeDegrees>-13.490671813488006591796875</LongitudeDegrees>
            </Position>
            <AltitudeMeters>24.200000762939453125</AltitudeMeters>
            <DistanceMeters>9975.169938864</DistanceMeters>
          </Trackpoint>
          <Trackpoint>
            <Time>2018-05-22T09:58:31.000Z</Time>
            <Position>
              <LatitudeDegrees>28.99700668640434741973876953125</LatitudeDegrees>
              <LongitudeDegrees>-13.49032388068735599517822265625</LongitudeDegrees>
            </Position>
            <AltitudeMeters>24.6000003814697265625</AltitudeMeters>
            <DistanceMeters>10022.928402917</DistanceMeters>
          </Trackpoint>
          <Trackpoint>
            <Time>2018-05-22T09:58:33.000Z</Time>
            <Position>
              <LatitudeDegrees>28.997047506272792816162109375</LatitudeDegrees>
              <LongitudeDegrees>-13.49023352377116680145263671875</LongitudeDegrees>
            </Position>
            <AltitudeMeters>24.200000762939453125</AltitudeMeters>
            <DistanceMeters>10032.828526639</DistanceMeters>
          </Trackpoint>
          <Trackpoint>
            <Time>2018-05-22T09:58:38.000Z</Time>
            <Position>
              <LatitudeDegrees>28.99721338413655757904052734375</LatitudeDegrees>
              <LongitudeDegrees>-13.4900295920670032501220703125</LongitudeDegrees>
            </Position>
            <AltitudeMeters>23</AltitudeMeters>
            <DistanceMeters>10059.939133641</DistanceMeters>
          </Trackpoint>
          <Trackpoint>
            <Time>2018-05-22T09:58:40.000Z</Time>
            <Position>
              <LatitudeDegrees>28.99730055592954158782958984375</LatitudeDegrees>
              <LongitudeDegrees>-13.48992959596216678619384765625</LongitudeDegrees>
            </Position>
            <AltitudeMeters>21.799999237060546875</AltitudeMeters>
            <DistanceMeters>10073.682900921</DistanceMeters>
          </Trackpoint>
          <Trackpoint>
            <Time>2018-05-22T09:58:42.000Z</Time>
            <Position>
              <LatitudeDegrees>28.99738018400967121124267578125</LatitudeDegrees>
              <LongitudeDegrees>-13.48980286158621311187744140625</LongitudeDegrees>
            </Position>
            <AltitudeMeters>21</AltitudeMeters>
            <DistanceMeters>10088.873806211</DistanceMeters>
          </Trackpoint>
          <Trackpoint>
            <Time>2018-05-22T09:58:43.000Z</Time>
            <Position>
              <LatitudeDegrees>28.997412621974945068359375</LatitudeDegrees>
              <LongitudeDegrees>-13.48973345942795276641845703125</LongitudeDegrees>
            </Position>
            <AltitudeMeters>20.3999996185302734375</AltitudeMeters>
            <DistanceMeters>10096.5345155</DistanceMeters>
          </Trackpoint>
          <Trackpoint>
            <Time>2018-05-22T09:58:44.000Z</Time>
            <Position>
              <LatitudeDegrees>28.99745428003370761871337890625</LatitudeDegrees>
              <LongitudeDegrees>-13.48967361263930797576904296875</LongitudeDegrees>
            </Position>
            <AltitudeMeters>20</AltitudeMeters>
            <DistanceMeters>10103.980633238</DistanceMeters>
          </Trackpoint>
          <Trackpoint>
            <Time>2018-05-22T09:58:46.000Z</Time>
            <Position>
              <LatitudeDegrees>28.9975777454674243927001953125</LatitudeDegrees>
              <LongitudeDegrees>-13.4896054677665233612060546875</LongitudeDegrees>
            </Position>
            <AltitudeMeters>19.200000762939453125</AltitudeMeters>
            <DistanceMeters>10119.24004185</DistanceMeters>
          </Trackpoint>
          <Trackpoint>
            <Time>2018-05-22T09:58:48.000Z</Time>
            <Position>
              <LatitudeDegrees>28.99770297110080718994140625</LatitudeDegrees>
              <LongitudeDegrees>-13.48955542780458927154541015625</LongitudeDegrees>
            </Position>
            <AltitudeMeters>18.6000003814697265625</AltitudeMeters>
            <DistanceMeters>10134.004698142</DistanceMeters>
          </Trackpoint>
          <Trackpoint>
            <Time>2018-05-22T09:58:50.000Z</Time>
            <Position>
              <LatitudeDegrees>28.99780145846307277679443359375</LatitudeDegrees>
              <LongitudeDegrees>-13.48946440033614635467529296875</LongitudeDegrees>
            </Position>
            <AltitudeMeters>18.200000762939453125</AltitudeMeters>
            <DistanceMeters>10148.100078305</DistanceMeters>
          </Trackpoint>
          <Trackpoint>
            <Time>2018-05-22T09:58:54.000Z</Time>
            <Position>
              <LatitudeDegrees>28.99794436991214752197265625</LatitudeDegrees>
              <LongitudeDegrees>-13.48926541395485401153564453125</LongitudeDegrees>
            </Position>
            <AltitudeMeters>18</AltitudeMeters>
            <DistanceMeters>10173.164804083</DistanceMeters>
          </Trackpoint>
          <Trackpoint>
            <Time>2018-05-22T09:58:58.000Z</Time>
            <Position>
              <LatitudeDegrees>28.998099267482757568359375</LatitudeDegrees>
              <LongitudeDegrees>-13.48913381807506084442138671875</LongitudeDegrees>
            </Position>
            <AltitudeMeters>18.3999996185302734375</AltitudeMeters>
            <DistanceMeters>10194.643784635</DistanceMeters>
          </Trackpoint>
          <Trackpoint>
            <Time>2018-05-22T09:59:12.000Z</Time>
            <Position>
              <LatitudeDegrees>28.99857795797288417816162109375</LatitudeDegrees>
              <LongitudeDegrees>-13.488867022097110748291015625</LongitudeDegrees>
            </Position>
            <AltitudeMeters>16.799999237060546875</AltitudeMeters>
            <DistanceMeters>10253.916235918</DistanceMeters>
          </Trackpoint>
          <Trackpoint>
            <Time>2018-05-22T09:59:14.000Z</Time>
            <Position>
              <LatitudeDegrees>28.9986616931855678558349609375</LatitudeDegrees>
              <LongitudeDegrees>-13.4887961111962795257568359375</LongitudeDegrees>
            </Position>
            <AltitudeMeters>15.80000019073486328125</AltitudeMeters>
            <DistanceMeters>10265.513778271</DistanceMeters>
          </Trackpoint>
          <Trackpoint>
            <Time>2018-05-22T09:59:16.000Z</Time>
            <Position>
              <LatitudeDegrees>28.998748362064361572265625</LatitudeDegrees>
              <LongitudeDegrees>-13.48871153779327869415283203125</LongitudeDegrees>
            </Position>
            <AltitudeMeters>14.80000019073486328125</AltitudeMeters>
            <DistanceMeters>10278.196196086</DistanceMeters>
          </Trackpoint>
          <Trackpoint>
            <Time>2018-05-22T09:59:22.000Z</Time>
            <Position>
              <LatitudeDegrees>28.9989929459989070892333984375</LatitudeDegrees>
              <LongitudeDegrees>-13.488525040447711944580078125</LongitudeDegrees>
            </Position>
            <AltitudeMeters>14</AltitudeMeters>
            <DistanceMeters>10310.917552016</DistanceMeters>
          </Trackpoint>
          <Trackpoint>
            <Time>2018-05-22T09:59:27.000Z</Time>
            <Position>
              <LatitudeDegrees>28.99917910806834697723388671875</LatitudeDegrees>
              <LongitudeDegrees>-13.4883733280003070831298828125</LongitudeDegrees>
            </Position>
            <AltitudeMeters>14.19999980926513671875</AltitudeMeters>
            <DistanceMeters>10336.362540735</DistanceMeters>
          </Trackpoint>
          <Trackpoint>
            <Time>2018-05-22T09:59:29.000Z</Time>
            <Position>
              <LatitudeDegrees>28.99924783967435359954833984375</LatitudeDegrees>
              <LongitudeDegrees>-13.4883101284503936767578125</LongitudeDegrees>
            </Position>
            <AltitudeMeters>14.19999980926513671875</AltitudeMeters>
            <DistanceMeters>10346.179770787</DistanceMeters>
          </Trackpoint>
          <Trackpoint>
            <Time>2018-05-22T09:59:34.000Z</Time>
            <Position>
              <LatitudeDegrees>28.9993946067988872528076171875</LatitudeDegrees>
              <LongitudeDegrees>-13.48812731914222240447998046875</LongitudeDegrees>
            </Position>
            <AltitudeMeters>14.6000003814697265625</AltitudeMeters>
            <DistanceMeters>10370.336750319</DistanceMeters>
          </Trackpoint>
          <Trackpoint>
            <Time>2018-05-22T09:59:38.000Z</Time>
            <Position>
              <LatitudeDegrees>28.9994727261364459991455078125</LatitudeDegrees>
              <LongitudeDegrees>-13.487957082688808441162109375</LongitudeDegrees>
            </Position>
            <AltitudeMeters>13.80000019073486328125</AltitudeMeters>
            <DistanceMeters>10389.051706238</DistanceMeters>
          </Trackpoint>
          <Trackpoint>
            <Time>2018-05-22T09:59:39.000Z</Time>
            <Position>
              <LatitudeDegrees>28.9994961954653263092041015625</LatitudeDegrees>
              <LongitudeDegrees>-13.48791408352553844451904296875</LongitudeDegrees>
            </Position>
            <AltitudeMeters>13.6000003814697265625</AltitudeMeters>
            <DistanceMeters>10393.985780223</DistanceMeters>
          </Trackpoint>
          <Trackpoint>
            <Time>2018-05-22T09:59:48.000Z</Time>
            <Position>
              <LatitudeDegrees>28.999710939824581146240234375</LatitudeDegrees>
              <LongitudeDegrees>-13.487555086612701416015625</LongitudeDegrees>
            </Position>
            <AltitudeMeters>13.80000019073486328125</AltitudeMeters>
            <DistanceMeters>10436.325060512</DistanceMeters>
          </Trackpoint>
          <Trackpoint>
            <Time>2018-05-22T09:59:51.000Z</Time>
            <Position>
              <LatitudeDegrees>28.99977472610771656036376953125</LatitudeDegrees>
              <LongitudeDegrees>-13.487475626170635223388671875</LongitudeDegrees>
            </Position>
            <AltitudeMeters>15</AltitudeMeters>
            <DistanceMeters>10446.824544938</DistanceMeters>
          </Trackpoint>
          <Trackpoint>
            <Time>2018-05-22T09:59:54.000Z</Time>
            <Position>
              <LatitudeDegrees>28.99986608885228633880615234375</LatitudeDegrees>
              <LongitudeDegrees>-13.4874731115996837615966796875</LongitudeDegrees>
            </Position>
            <AltitudeMeters>15.3999996185302734375</AltitudeMeters>
            <DistanceMeters>10456.996399041</DistanceMeters>
          </Trackpoint>
          <Trackpoint>
            <Time>2018-05-22T09:59:59.000Z</Time>
            <Position>
              <LatitudeDegrees>29.00002651847898960113525390625</LatitudeDegrees>
              <LongitudeDegrees>-13.4875939786434173583984375</LongitudeDegrees>
            </Position>
            <AltitudeMeters>13.80000019073486328125</AltitudeMeters>
            <DistanceMeters>10478.380577097</DistanceMeters>
          </Trackpoint>
          <Trackpoint>
            <Time>2018-05-22T10:00:03.000Z</Time>
            <Position>
              <LatitudeDegrees>29.0001734532415866851806640625</LatitudeDegrees>
              <LongitudeDegrees>-13.4876985847949981689453125</LongitudeDegrees>
            </Position>
            <AltitudeMeters>13.3999996185302734375</AltitudeMeters>
            <DistanceMeters>10497.64593985</DistanceMeters>
          </Trackpoint>
          <Trackpoint>
            <Time>2018-05-22T10:00:05.000Z</Time>
            <Position>
              <LatitudeDegrees>29.0002356469631195068359375</LatitudeDegrees>
              <LongitudeDegrees>-13.487764634191989898681640625</LongitudeDegrees>
            </Position>
            <AltitudeMeters>13.80000019073486328125</AltitudeMeters>
            <DistanceMeters>10507.093335024</DistanceMeters>
          </Trackpoint>
          <Trackpoint>
            <Time>2018-05-22T10:00:07.000Z</Time>
            <Position>
              <LatitudeDegrees>29.0003149397671222686767578125</LatitudeDegrees>
              <LongitudeDegrees>-13.48777561448514461517333984375</LongitudeDegrees>
            </Position>
            <AltitudeMeters>14.6000003814697265625</AltitudeMeters>
            <DistanceMeters>10515.983286038</DistanceMeters>
          </Trackpoint>
          <Trackpoint>
            <Time>2018-05-22T10:00:14.000Z</Time>
            <Position>
              <LatitudeDegrees>29.000693298876285552978515625</LatitudeDegrees>
              <LongitudeDegrees>-13.487703613936901092529296875</LongitudeDegrees>
            </Position>
            <AltitudeMeters>14</AltitudeMeters>
            <DistanceMeters>10558.674718303</DistanceMeters>
          </Trackpoint>
          <Trackpoint>
            <Time>2018-05-22T10:00:17.000Z</Time>
            <Position>
              <LatitudeDegrees>29.00079899467527866363525390625</LatitudeDegrees>
              <LongitudeDegrees>-13.4876357205212116241455078125</LongitudeDegrees>
            </Position>
            <AltitudeMeters>15.3999996185302734375</AltitudeMeters>
            <DistanceMeters>10572.168511744</DistanceMeters>
          </Trackpoint>
          <Trackpoint>
            <Time>2018-05-22T10:00:20.000Z</Time>
            <Position>
              <LatitudeDegrees>29.0008617751300334930419921875</LatitudeDegrees>
              <LongitudeDegrees>-13.4876008518040180206298828125</LongitudeDegrees>
            </Position>
            <AltitudeMeters>16.6000003814697265625</AltitudeMeters>
            <DistanceMeters>10579.936328091</DistanceMeters>
          </Trackpoint>
          <Trackpoint>
            <Time>2018-05-22T10:00:23.000Z</Time>
            <Position>
              <LatitudeDegrees>29.0009127371013164520263671875</LatitudeDegrees>
              <LongitudeDegrees>-13.48758752457797527313232421875</LongitudeDegrees>
            </Position>
            <AltitudeMeters>16.799999237060546875</AltitudeMeters>
            <DistanceMeters>10585.755502144</DistanceMeters>
          </Trackpoint>
          <Trackpoint>
            <Time>2018-05-22T10:00:41.000Z</Time>
            <Position>
              <LatitudeDegrees>29.00145982392132282257080078125</LatitudeDegrees>
              <LongitudeDegrees>-13.48767603747546672821044921875</LongitudeDegrees>
            </Position>
            <AltitudeMeters>17.3999996185302734375</AltitudeMeters>
            <DistanceMeters>10647.25394023</DistanceMeters>
          </Trackpoint>
          <Trackpoint>
            <Time>2018-05-22T10:00:43.000Z</Time>
            <Position>
              <LatitudeDegrees>29.00150324217975139617919921875</LatitudeDegrees>
              <LongitudeDegrees>-13.4876449406147003173828125</LongitudeDegrees>
            </Position>
            <AltitudeMeters>17.3999996185302734375</AltitudeMeters>
            <DistanceMeters>10652.956334927</DistanceMeters>
          </Trackpoint>
          <Trackpoint>
            <Time>2018-05-22T10:00:46.000Z</Time>
            <Position>
              <LatitudeDegrees>29.00154062546789646148681640625</LatitudeDegrees>
              <LongitudeDegrees>-13.48753673024475574493408203125</LongitudeDegrees>
            </Position>
            <AltitudeMeters>17.799999237060546875</AltitudeMeters>
            <DistanceMeters>10664.282466921</DistanceMeters>
          </Trackpoint>
          <Trackpoint>
            <Time>2018-05-22T10:00:50.000Z</Time>
            <Position>
              <LatitudeDegrees>29.0016131289303302764892578125</LatitudeDegrees>
              <LongitudeDegrees>-13.48738250322639942169189453125</LongitudeDegrees>
            </Position>
            <AltitudeMeters>18.6000003814697265625</AltitudeMeters>
            <DistanceMeters>10681.326985669</DistanceMeters>
          </Trackpoint>
          <Trackpoint>
            <Time>2018-05-22T10:00:52.000Z</Time>
            <Position>
              <LatitudeDegrees>29.00169937871396541595458984375</LatitudeDegrees>
              <LongitudeDegrees>-13.487374372780323028564453125</LongitudeDegrees>
            </Position>
            <AltitudeMeters>18.200000762939453125</AltitudeMeters>
            <DistanceMeters>10690.958963939</DistanceMeters>
          </Trackpoint>
          <Trackpoint>
            <Time>2018-05-22T10:01:04.000Z</Time>
            <Position>
              <LatitudeDegrees>29.0022058971226215362548828125</LatitudeDegrees>
              <LongitudeDegrees>-13.4874459542334079742431640625</LongitudeDegrees>
            </Position>
            <AltitudeMeters>16.799999237060546875</AltitudeMeters>
            <DistanceMeters>10747.76443636</DistanceMeters>
          </Trackpoint>
          <Trackpoint>
            <Time>2018-05-22T10:01:05.000Z</Time>
            <Position>
              <LatitudeDegrees>29.00224688462913036346435546875</LatitudeDegrees>
              <LongitudeDegrees>-13.48745073191821575164794921875</LongitudeDegrees>
            </Position>
            <AltitudeMeters>16.6000003814697265625</AltitudeMeters>
            <DistanceMeters>10752.349413782</DistanceMeters>
          </Trackpoint>
          <Trackpoint>
            <Time>2018-05-22T10:01:18.000Z</Time>
            <Position>
              <LatitudeDegrees>29.0028077177703380584716796875</LatitudeDegrees>
              <LongitudeDegrees>-13.48747202195227146148681640625</LongitudeDegrees>
            </Position>
            <AltitudeMeters>17.6000003814697265625</AltitudeMeters>
            <DistanceMeters>10814.805681138</DistanceMeters>
          </Trackpoint>
          <Trackpoint>
            <Time>2018-05-22T10:01:27.000Z</Time>
            <Position>
              <LatitudeDegrees>29.003195799887180328369140625</LatitudeDegrees>
              <LongitudeDegrees>-13.4875001013278961181640625</LongitudeDegrees>
            </Position>
            <AltitudeMeters>17.3999996185302734375</AltitudeMeters>
            <DistanceMeters>10858.086463799</DistanceMeters>
          </Trackpoint>
          <Trackpoint>
            <Time>2018-05-22T10:01:30.000Z</Time>
            <Position>
              <LatitudeDegrees>29.0033253841102123260498046875</LatitudeDegrees>
              <LongitudeDegrees>-13.48750722594559192657470703125</LongitudeDegrees>
            </Position>
            <AltitudeMeters>17.799999237060546875</AltitudeMeters>
            <DistanceMeters>10872.526460169</DistanceMeters>
          </Trackpoint>
          <Trackpoint>
            <Time>2018-05-22T10:01:43.000Z</Time>
            <Position>
              <LatitudeDegrees>29.00388655252754688262939453125</LatitudeDegrees>
              <LongitudeDegrees>-13.48755952902138233184814453125</LongitudeDegrees>
            </Position>
            <AltitudeMeters>18.6000003814697265625</AltitudeMeters>
            <DistanceMeters>10935.192813858</DistanceMeters>
          </Trackpoint>
          <Trackpoint>
            <Time>2018-05-22T10:01:46.000Z</Time>
            <Position>
              <LatitudeDegrees>29.0040175616741180419921875</LatitudeDegrees>
              <LongitudeDegrees>-13.48756380379199981689453125</LongitudeDegrees>
            </Position>
            <AltitudeMeters>18.799999237060546875</AltitudeMeters>
            <DistanceMeters>10949.779956187</DistanceMeters>
          </Trackpoint>
          <Trackpoint>
            <Time>2018-05-22T10:01:56.000Z</Time>
            <Position>
              <LatitudeDegrees>29.0044467151165008544921875</LatitudeDegrees>
              <LongitudeDegrees>-13.4875864349305629730224609375</LongitudeDegrees>
            </Position>
            <AltitudeMeters>19.3999996185302734375</AltitudeMeters>
            <DistanceMeters>10997.596337538</DistanceMeters>
          </Trackpoint>
          <Trackpoint>
            <Time>2018-05-22T10:02:02.000Z</Time>
            <Position>
              <LatitudeDegrees>29.00469825603067874908447265625</LatitudeDegrees>
              <LongitudeDegrees>-13.4876042045652866363525390625</LongitudeDegrees>
            </Position>
            <AltitudeMeters>20</AltitudeMeters>
            <DistanceMeters>11025.646607604</DistanceMeters>
          </Trackpoint>
          <Trackpoint>
            <Time>2018-05-22T10:02:07.000Z</Time>
            <Position>
              <LatitudeDegrees>29.004882238805294036865234375</LatitudeDegrees>
              <LongitudeDegrees>-13.48760562948882579803466796875</LongitudeDegrees>
            </Position>
            <AltitudeMeters>21</AltitudeMeters>
            <DistanceMeters>11046.124809431</DistanceMeters>
          </Trackpoint>
          <Trackpoint>
            <Time>2018-05-22T10:02:12.000Z</Time>
            <Position>
              <LatitudeDegrees>29.0050128288567066192626953125</LatitudeDegrees>
              <LongitudeDegrees>-13.48750739358365535736083984375</LongitudeDegrees>
            </Position>
            <AltitudeMeters>21.3999996185302734375</AltitudeMeters>
            <DistanceMeters>11063.523264034</DistanceMeters>
          </Trackpoint>
          <Trackpoint>
            <Time>2018-05-22T10:02:14.000Z</Time>
            <Position>
              <LatitudeDegrees>29.00504560209810733795166015625</LatitudeDegrees>
              <LongitudeDegrees>-13.48741603083908557891845703125</LongitudeDegrees>
            </Position>
            <AltitudeMeters>21</AltitudeMeters>
            <DistanceMeters>11073.136004135</DistanceMeters>
          </Trackpoint>
          <Trackpoint>
            <Time>2018-05-22T10:02:19.000Z</Time>
            <Position>
              <LatitudeDegrees>29.005148112773895263671875</LatitudeDegrees>
              <LongitudeDegrees>-13.48717362619936466217041015625</LongitudeDegrees>
            </Position>
            <AltitudeMeters>20.6000003814697265625</AltitudeMeters>
            <DistanceMeters>11099.345812135</DistanceMeters>
          </Trackpoint>
          <Trackpoint>
            <Time>2018-05-22T10:02:30.000Z</Time>
            <Position>
              <LatitudeDegrees>29.0054176747798919677734375</LatitudeDegrees>
              <LongitudeDegrees>-13.48662494681775569915771484375</LongitudeDegrees>
            </Position>
            <AltitudeMeters>20.799999237060546875</AltitudeMeters>
            <DistanceMeters>11160.60547471</DistanceMeters>
          </Trackpoint>
          <Trackpoint>
            <Time>2018-05-22T10:02:33.000Z</Time>
            <Position>
              <LatitudeDegrees>29.0054999850690364837646484375</LatitudeDegrees>
              <LongitudeDegrees>-13.48648597486317157745361328125</LongitudeDegrees>
            </Position>
            <AltitudeMeters>22</AltitudeMeters>
            <DistanceMeters>11176.943162111</DistanceMeters>
          </Trackpoint>
          <Trackpoint>
            <Time>2018-05-22T10:02:41.000Z</Time>
            <Position>
              <LatitudeDegrees>29.00576208718121051788330078125</LatitudeDegrees>
              <LongitudeDegrees>-13.486130498349666595458984375</LongitudeDegrees>
            </Position>
            <AltitudeMeters>23</AltitudeMeters>
            <DistanceMeters>11222.202122665</DistanceMeters>
          </Trackpoint>
          <Trackpoint>
            <Time>2018-05-22T10:02:48.000Z</Time>
            <Position>
              <LatitudeDegrees>29.0060488320887088775634765625</LatitudeDegrees>
              <LongitudeDegrees>-13.4858473576605319976806640625</LongitudeDegrees>
            </Position>
            <AltitudeMeters>24.200000762939453125</AltitudeMeters>
            <DistanceMeters>11264.370862905</DistanceMeters>
          </Trackpoint>
          <Trackpoint>
            <Time>2018-05-22T10:02:51.000Z</Time>
            <Position>
              <LatitudeDegrees>29.00615771301090717315673828125</LatitudeDegrees>
              <LongitudeDegrees>-13.48573663271963596343994140625</LongitudeDegrees>
            </Position>
            <AltitudeMeters>24.799999237060546875</AltitudeMeters>
            <DistanceMeters>11280.589002954</DistanceMeters>
          </Trackpoint>
          <Trackpoint>
            <Time>2018-05-22T10:02:53.000Z</Time>
            <Position>
              <LatitudeDegrees>29.0062275342643260955810546875</LatitudeDegrees>
              <LongitudeDegrees>-13.4856639616191387176513671875</LongitudeDegrees>
            </Position>
            <AltitudeMeters>25.3999996185302734375</AltitudeMeters>
            <DistanceMeters>11291.09751402</DistanceMeters>
          </Trackpoint>
          <Trackpoint>
            <Time>2018-05-22T10:02:57.000Z</Time>
            <Position>
              <LatitudeDegrees>29.0063683502376079559326171875</LatitudeDegrees>
              <LongitudeDegrees>-13.4855184517800807952880859375</LongitudeDegrees>
            </Position>
            <AltitudeMeters>26.3999996185302734375</AltitudeMeters>
            <DistanceMeters>11312.222531839</DistanceMeters>
          </Trackpoint>
          <Trackpoint>
            <Time>2018-05-22T10:03:01.000Z</Time>
            <Position>
              <LatitudeDegrees>29.00650807656347751617431640625</LatitudeDegrees>
              <LongitudeDegrees>-13.48537168465554714202880859375</LongitudeDegrees>
            </Position>
            <AltitudeMeters>27.6000003814697265625</AltitudeMeters>
            <DistanceMeters>11333.340281607</DistanceMeters>
          </Trackpoint>
          <Trackpoint>
            <Time>2018-05-22T10:03:05.000Z</Time>
            <Position>
              <LatitudeDegrees>29.00663598440587520599365234375</LatitudeDegrees>
              <LongitudeDegrees>-13.48522852174937725067138671875</LongitudeDegrees>
            </Position>
            <AltitudeMeters>28.799999237060546875</AltitudeMeters>
            <DistanceMeters>11353.261924605</DistanceMeters>
          </Trackpoint>
          <Trackpoint>
            <Time>2018-05-22T10:03:10.000Z</Time>
            <Position>
              <LatitudeDegrees>29.00678853504359722137451171875</LatitudeDegrees>
              <LongitudeDegrees>-13.48507328890264034271240234375</LongitudeDegrees>
            </Position>
            <AltitudeMeters>30</AltitudeMeters>
            <DistanceMeters>11375.991194356</DistanceMeters>
          </Trackpoint>
          <Trackpoint>
            <Time>2018-05-22T10:03:11.000Z</Time>
            <Position>
              <LatitudeDegrees>29.00681954808533191680908203125</LatitudeDegrees>
              <LongitudeDegrees>-13.485042862594127655029296875</LongitudeDegrees>
            </Position>
            <AltitudeMeters>30.200000762939453125</AltitudeMeters>
            <DistanceMeters>11380.538597467</DistanceMeters>
          </Trackpoint>
          <Trackpoint>
            <Time>2018-05-22T10:03:15.000Z</Time>
            <Position>
              <LatitudeDegrees>29.00695600546896457672119140625</LatitudeDegrees>
              <LongitudeDegrees>-13.48493565805256366729736328125</LongitudeDegrees>
            </Position>
            <AltitudeMeters>31</AltitudeMeters>
            <DistanceMeters>11398.966186151</DistanceMeters>
          </Trackpoint>
          <Trackpoint>
            <Time>2018-05-22T10:03:17.000Z</Time>
            <Position>
              <LatitudeDegrees>29.00703496299684047698974609375</LatitudeDegrees>
              <LongitudeDegrees>-13.48493255674839019775390625</LongitudeDegrees>
            </Position>
            <AltitudeMeters>31.799999237060546875</AltitudeMeters>
            <DistanceMeters>11407.759623737</DistanceMeters>
          </Trackpoint>
          <Trackpoint>
            <Time>2018-05-22T10:03:19.000Z</Time>
            <Position>
              <LatitudeDegrees>29.00709531269967555999755859375</LatitudeDegrees>
              <LongitudeDegrees>-13.4849947504699230194091796875</LongitudeDegrees>
            </Position>
            <AltitudeMeters>32</AltitudeMeters>
            <DistanceMeters>11416.802153372</DistanceMeters>
          </Trackpoint>
          <Trackpoint>
            <Time>2018-05-22T10:03:24.000Z</Time>
            <Position>
              <LatitudeDegrees>29.00723361410200595855712890625</LatitudeDegrees>
              <LongitudeDegrees>-13.48518175072968006134033203125</LongitudeDegrees>
            </Position>
            <AltitudeMeters>30.799999237060546875</AltitudeMeters>
            <DistanceMeters>11440.640983059</DistanceMeters>
          </Trackpoint>
          <Trackpoint>
            <Time>2018-05-22T10:03:28.000Z</Time>
            <Position>
              <LatitudeDegrees>29.00735448114573955535888671875</LatitudeDegrees>
              <LongitudeDegrees>-13.48532541655004024505615234375</LongitudeDegrees>
            </Position>
            <AltitudeMeters>30.200000762939453125</AltitudeMeters>
            <DistanceMeters>11460.045754577</DistanceMeters>
          </Trackpoint>
          <Trackpoint>
            <Time>2018-05-22T10:03:29.000Z</Time>
            <Position>
              <LatitudeDegrees>29.0073852427303791046142578125</LatitudeDegrees>
              <LongitudeDegrees>-13.48536162637174129486083984375</LongitudeDegrees>
            </Position>
            <AltitudeMeters>30.200000762939453125</AltitudeMeters>
            <DistanceMeters>11464.96057446</DistanceMeters>
          </Trackpoint>
          <Trackpoint>
            <Time>2018-05-22T10:03:30.000Z</Time>
            <Position>
              <LatitudeDegrees>29.00741550140082836151123046875</LatitudeDegrees>
              <LongitudeDegrees>-13.48539766855537891387939453125</LongitudeDegrees>
            </Position>
            <AltitudeMeters>30.200000762939453125</AltitudeMeters>
            <DistanceMeters>11469.824605739</DistanceMeters>
          </Trackpoint>
          <Trackpoint>
            <Time>2018-05-22T10:03:36.000Z</Time>
            <Position>
              <LatitudeDegrees>29.00758548639714717864990234375</LatitudeDegrees>
              <LongitudeDegrees>-13.4856140054762363433837890625</LongitudeDegrees>
            </Position>
            <AltitudeMeters>30.3999996185302734375</AltitudeMeters>
            <DistanceMeters>11498.133636529</DistanceMeters>
          </Trackpoint>
          <Trackpoint>
            <Time>2018-05-22T10:03:39.000Z</Time>
            <Position>
              <LatitudeDegrees>29.00766846723854541778564453125</LatitudeDegrees>
              <LongitudeDegrees>-13.48572690971195697784423828125</LongitudeDegrees>
            </Position>
            <AltitudeMeters>30.3999996185302734375</AltitudeMeters>
            <DistanceMeters>11512.489591205</DistanceMeters>
          </Trackpoint>
          <Trackpoint>
            <Time>2018-05-22T10:03:52.000Z</Time>
            <Position>
              <LatitudeDegrees>29.0080410428345203399658203125</LatitudeDegrees>
              <LongitudeDegrees>-13.4862017445266246795654296875</LongitudeDegrees>
            </Position>
            <AltitudeMeters>30.200000762939453125</AltitudeMeters>
            <DistanceMeters>11574.585822753</DistanceMeters>
          </Trackpoint>
          <Trackpoint>
            <Time>2018-05-22T10:03:53.000Z</Time>
            <Position>
              <LatitudeDegrees>29.00807415135204792022705078125</LatitudeDegrees>
              <LongitudeDegrees>-13.4862403012812137603759765625</LongitudeDegrees>
            </Position>
            <AltitudeMeters>30</AltitudeMeters>
            <DistanceMeters>11579.845875436</DistanceMeters>
          </Trackpoint>
          <Trackpoint>
            <Time>2018-05-22T10:03:57.000Z</Time>
            <Position>
              <LatitudeDegrees>29.0082160569727420806884765625</LatitudeDegrees>
              <LongitudeDegrees>-13.48639863543212413787841796875</LongitudeDegrees>
            </Position>
            <AltitudeMeters>30</AltitudeMeters>
            <DistanceMeters>11601.913566583</DistanceMeters>
          </Trackpoint>
          <Trackpoint>
            <Time>2018-05-22T10:04:05.000Z</Time>
            <Position>
              <LatitudeDegrees>29.0085362456738948822021484375</LatitudeDegrees>
              <LongitudeDegrees>-13.4867155551910400390625</LongitudeDegrees>
            </Position>
            <AltitudeMeters>29</AltitudeMeters>
            <DistanceMeters>11649.048253784</DistanceMeters>
          </Trackpoint>
          <Trackpoint>
            <Time>2018-05-22T10:04:10.000Z</Time>
            <Position>
              <LatitudeDegrees>29.00873355567455291748046875</LatitudeDegrees>
              <LongitudeDegrees>-13.48690004087984561920166015625</LongitudeDegrees>
            </Position>
            <AltitudeMeters>28</AltitudeMeters>
            <DistanceMeters>11677.416712374</DistanceMeters>
          </Trackpoint>
          <Trackpoint>
            <Time>2018-05-22T10:04:14.000Z</Time>
            <Position>
              <LatitudeDegrees>29.00888283737003803253173828125</LatitudeDegrees>
              <LongitudeDegrees>-13.48702208139002323150634765625</LongitudeDegrees>
            </Position>
            <AltitudeMeters>28.6000003814697265625</AltitudeMeters>
            <DistanceMeters>11697.841930407</DistanceMeters>
          </Trackpoint>
          <Trackpoint>
            <Time>2018-05-22T10:04:15.000Z</Time>
            <Position>
              <LatitudeDegrees>29.00891921482980251312255859375</LatitudeDegrees>
              <LongitudeDegrees>-13.4870516695082187652587890625</LongitudeDegrees>
            </Position>
            <AltitudeMeters>29.3999996185302734375</AltitudeMeters>
            <DistanceMeters>11702.810655495</DistanceMeters>
          </Trackpoint>
          <Trackpoint>
            <Time>2018-05-22T10:04:16.000Z</Time>
            <Position>
              <LatitudeDegrees>29.00895508937537670135498046875</LatitudeDegrees>
              <LongitudeDegrees>-13.48708192817866802215576171875</LongitudeDegrees>
            </Position>
            <AltitudeMeters>30.6000003814697265625</AltitudeMeters>
            <DistanceMeters>11707.772105725</DistanceMeters>
          </Trackpoint>
          <Trackpoint>
            <Time>2018-05-22T10:04:18.000Z</Time>
            <Position>
              <LatitudeDegrees>29.009028263390064239501953125</LatitudeDegrees>
              <LongitudeDegrees>-13.4871358238160610198974609375</LongitudeDegrees>
            </Position>
            <AltitudeMeters>31.6000003814697265625</AltitudeMeters>
            <DistanceMeters>11717.460171299</DistanceMeters>
          </Trackpoint>
          <Trackpoint>
            <Time>2018-05-22T10:04:22.000Z</Time>
            <Position>
              <LatitudeDegrees>29.00916329585015773773193359375</LatitudeDegrees>
              <LongitudeDegrees>-13.4872400946915149688720703125</LongitudeDegrees>
            </Position>
            <AltitudeMeters>32.59999847412109375</AltitudeMeters>
            <DistanceMeters>11735.595590904</DistanceMeters>
          </Trackpoint>
          <Trackpoint>
            <Time>2018-05-22T10:04:23.000Z</Time>
            <Position>
              <LatitudeDegrees>29.00919598527252674102783203125</LatitudeDegrees>
              <LongitudeDegrees>-13.487265072762966156005859375</LongitudeDegrees>
            </Position>
            <AltitudeMeters>32.799999237060546875</AltitudeMeters>
            <DistanceMeters>11739.971981213</DistanceMeters>
          </Trackpoint>
          <Trackpoint>
            <Time>2018-05-22T10:04:25.000Z</Time>
            <Position>
              <LatitudeDegrees>29.009261615574359893798828125</LatitudeDegrees>
              <LongitudeDegrees>-13.48731435835361480712890625</LongitudeDegrees>
            </Position>
            <AltitudeMeters>33</AltitudeMeters>
            <DistanceMeters>11748.711339688</DistanceMeters>
          </Trackpoint>
          <Trackpoint>
            <Time>2018-05-22T10:04:39.000Z</Time>
            <Position>
              <LatitudeDegrees>29.00965221226215362548828125</LatitudeDegrees>
              <LongitudeDegrees>-13.48754880018532276153564453125</LongitudeDegrees>
            </Position>
            <AltitudeMeters>33.799999237060546875</AltitudeMeters>
            <DistanceMeters>11797.810825513</DistanceMeters>
          </Trackpoint>
          <Trackpoint>
            <Time>2018-05-22T10:04:42.000Z</Time>
            <Position>
              <LatitudeDegrees>29.00972086004912853240966796875</LatitudeDegrees>
              <LongitudeDegrees>-13.4875834174454212188720703125</LongitudeDegrees>
            </Position>
            <AltitudeMeters>35</AltitudeMeters>
            <DistanceMeters>11806.16128959</DistanceMeters>
          </Trackpoint>
          <Trackpoint>
            <Time>2018-05-22T10:04:45.000Z</Time>
            <Position>
              <LatitudeDegrees>29.00978565216064453125</LatitudeDegrees>
              <LongitudeDegrees>-13.487621806561946868896484375</LongitudeDegrees>
            </Position>
            <AltitudeMeters>36</AltitudeMeters>
            <DistanceMeters>11814.282599727</DistanceMeters>
          </Trackpoint>
          <Trackpoint>
            <Time>2018-05-22T10:04:48.000Z</Time>
            <Position>
              <LatitudeDegrees>29.0098471753299236297607421875</LatitudeDegrees>
              <LongitudeDegrees>-13.48765675909817218780517578125</LongitudeDegrees>
            </Position>
            <AltitudeMeters>36.59999847412109375</AltitudeMeters>
            <DistanceMeters>11821.928560419</DistanceMeters>
          </Trackpoint>
          <Trackpoint>
            <Time>2018-05-22T10:04:53.000Z</Time>
            <Position>
              <LatitudeDegrees>29.00995186530053615570068359375</LatitudeDegrees>
              <LongitudeDegrees>-13.48771409131586551666259765625</LongitudeDegrees>
            </Position>
            <AltitudeMeters>37.200000762939453125</AltitudeMeters>
            <DistanceMeters>11834.84835001</DistanceMeters>
          </Trackpoint>
          <Trackpoint>
            <Time>2018-05-22T10:04:59.000Z</Time>
            <Position>
              <LatitudeDegrees>29.01008899323642253875732421875</LatitudeDegrees>
              <LongitudeDegrees>-13.487806208431720733642578125</LongitudeDegrees>
            </Position>
            <AltitudeMeters>38.200000762939453125</AltitudeMeters>
            <DistanceMeters>11852.549865555</DistanceMeters>
          </Trackpoint>
          <Trackpoint>
            <Time>2018-05-22T10:05:00.000Z</Time>
            <Position>
              <LatitudeDegrees>29.01011313311755657196044921875</LatitudeDegrees>
              <LongitudeDegrees>-13.48782104440033435821533203125</LongitudeDegrees>
            </Position>
            <AltitudeMeters>38.59999847412109375</AltitudeMeters>
            <DistanceMeters>11855.60109626</DistanceMeters>
          </Trackpoint>
          <Trackpoint>
            <Time>2018-05-22T10:05:03.000Z</Time>
            <Position>
              <LatitudeDegrees>29.01018287055194377899169921875</LatitudeDegrees>
              <LongitudeDegrees>-13.48787317983806133270263671875</LongitudeDegrees>
            </Position>
            <AltitudeMeters>39.200000762939453125</AltitudeMeters>
            <DistanceMeters>11864.874846745</DistanceMeters>
          </Trackpoint>
          <Trackpoint>
            <Time>2018-05-22T10:05:07.000Z</Time>
            <Position>
              <LatitudeDegrees>29.01028512977063655853271484375</LatitudeDegrees>
              <LongitudeDegrees>-13.48794425837695598602294921875</LongitudeDegrees>
            </Position>
            <AltitudeMeters>40.40000152587890625</AltitudeMeters>
            <DistanceMeters>11878.194189139</DistanceMeters>
          </Trackpoint>
          <Trackpoint>
            <Time>2018-05-22T10:05:16.000Z</Time>
            <Position>
              <LatitudeDegrees>29.01053071953356266021728515625</LatitudeDegrees>
              <LongitudeDegrees>-13.48810284398496150970458984375</LongitudeDegrees>
            </Position>
            <AltitudeMeters>41.40000152587890625</AltitudeMeters>
            <DistanceMeters>11909.586102784</DistanceMeters>
          </Trackpoint>
          <Trackpoint>
            <Time>2018-05-22T10:05:29.000Z</Time>
            <Position>
              <LatitudeDegrees>29.0109096653759479522705078125</LatitudeDegrees>
              <LongitudeDegrees>-13.4883689694106578826904296875</LongitudeDegrees>
            </Position>
            <AltitudeMeters>42.40000152587890625</AltitudeMeters>
            <DistanceMeters>11959.082981574</DistanceMeters>
          </Trackpoint>
          <Trackpoint>
            <Time>2018-05-22T10:05:31.000Z</Time>
            <Position>
              <LatitudeDegrees>29.01097722351551055908203125</LatitudeDegrees>
              <LongitudeDegrees>-13.488415069878101348876953125</LongitudeDegrees>
            </Position>
            <AltitudeMeters>42.59999847412109375</AltitudeMeters>
            <DistanceMeters>11967.839887944</DistanceMeters>
          </Trackpoint>
          <Trackpoint>
            <Time>2018-05-22T10:05:32.000Z</Time>
            <Position>
              <LatitudeDegrees>29.01101117022335529327392578125</LatitudeDegrees>
              <LongitudeDegrees>-13.4884390421211719512939453125</LongitudeDegrees>
            </Position>
            <AltitudeMeters>42.799999237060546875</AltitudeMeters>
            <DistanceMeters>11972.280798543</DistanceMeters>
          </Trackpoint>
          <Trackpoint>
            <Time>2018-05-22T10:05:45.000Z</Time>
            <Position>
              <LatitudeDegrees>29.01144702918827533721923828125</LatitudeDegrees>
              <LongitudeDegrees>-13.4887044131755828857421875</LongitudeDegrees>
            </Position>
            <AltitudeMeters>43.40000152587890625</AltitudeMeters>
            <DistanceMeters>12027.240918185</DistanceMeters>
          </Trackpoint>
          <Trackpoint>
            <Time>2018-05-22T10:05:57.000Z</Time>
            <Position>
              <LatitudeDegrees>29.01185774244368076324462890625</LatitudeDegrees>
              <LongitudeDegrees>-13.48893365822732448577880859375</LongitudeDegrees>
            </Position>
            <AltitudeMeters>44.799999237060546875</AltitudeMeters>
            <DistanceMeters>12078.109420476</DistanceMeters>
          </Trackpoint>
          <Trackpoint>
            <Time>2018-05-22T10:06:00.000Z</Time>
            <Position>
              <LatitudeDegrees>29.0119627676904201507568359375</LatitudeDegrees>
              <LongitudeDegrees>-13.4889969415962696075439453125</LongitudeDegrees>
            </Position>
            <AltitudeMeters>45.799999237060546875</AltitudeMeters>
            <DistanceMeters>12091.322576721</DistanceMeters>
          </Trackpoint>
          <Trackpoint>
            <Time>2018-05-22T10:06:12.000Z</Time>
            <Position>
              <LatitudeDegrees>29.01224699802696704864501953125</LatitudeDegrees>
              <LongitudeDegrees>-13.48915041424334049224853515625</LongitudeDegrees>
            </Position>
            <AltitudeMeters>45.59999847412109375</AltitudeMeters>
            <DistanceMeters>12126.307639553</DistanceMeters>
          </Trackpoint>
          <Trackpoint>
            <Time>2018-05-22T10:06:16.000Z</Time>
            <Position>
              <LatitudeDegrees>29.01230064220726490020751953125</LatitudeDegrees>
              <LongitudeDegrees>-13.489103056490421295166015625</LongitudeDegrees>
            </Position>
            <AltitudeMeters>45.59999847412109375</AltitudeMeters>
            <DistanceMeters>12133.850749765</DistanceMeters>
          </Trackpoint>
          <Trackpoint>
            <Time>2018-05-22T10:06:24.000Z</Time>
            <Position>
              <LatitudeDegrees>29.01245704852044582366943359375</LatitudeDegrees>
              <LongitudeDegrees>-13.48917706869542598724365234375</LongitudeDegrees>
            </Position>
            <AltitudeMeters>44.799999237060546875</AltitudeMeters>
            <DistanceMeters>12152.690739542</DistanceMeters>
          </Trackpoint>
          <Trackpoint>
            <Time>2018-05-22T10:06:25.000Z</Time>
            <Position>
              <LatitudeDegrees>29.0124811045825481414794921875</LatitudeDegrees>
              <LongitudeDegrees>-13.48918176256120204925537109375</LongitudeDegrees>
            </Position>
            <AltitudeMeters>44.799999237060546875</AltitudeMeters>
            <DistanceMeters>12155.406908251</DistanceMeters>
          </Trackpoint>
          <Trackpoint>
            <Time>2018-05-22T10:06:33.000Z</Time>
            <Position>
              <LatitudeDegrees>29.01266441680490970611572265625</LatitudeDegrees>
              <LongitudeDegrees>-13.48924060352146625518798828125</LongitudeDegrees>
            </Position>
            <AltitudeMeters>45.200000762939453125</AltitudeMeters>
            <DistanceMeters>12176.598717796</DistanceMeters>
          </Trackpoint>
          <Trackpoint>
            <Time>2018-05-22T10:06:35.000Z</Time>
            <Position>
              <LatitudeDegrees>29.01269383728504180908203125</LatitudeDegrees>
              <LongitudeDegrees>-13.4892846085131168365478515625</LongitudeDegrees>
            </Position>
            <AltitudeMeters>45.799999237060546875</AltitudeMeters>
            <DistanceMeters>12181.99017549</DistanceMeters>
          </Trackpoint>
          <Trackpoint>
            <Time>2018-05-22T10:06:50.000Z</Time>
            <Position>
              <LatitudeDegrees>29.0130299516022205352783203125</LatitudeDegrees>
              <LongitudeDegrees>-13.48956783302128314971923828125</LongitudeDegrees>
            </Position>
            <AltitudeMeters>47.59999847412109375</AltitudeMeters>
            <DistanceMeters>12228.460473543</DistanceMeters>
          </Trackpoint>
          <Trackpoint>
            <Time>2018-05-22T10:06:52.000Z</Time>
            <Position>
              <LatitudeDegrees>29.013077057898044586181640625</LatitudeDegrees>
              <LongitudeDegrees>-13.48960152827203273773193359375</LongitudeDegrees>
            </Position>
            <AltitudeMeters>48.799999237060546875</AltitudeMeters>
            <DistanceMeters>12234.645245473</DistanceMeters>
          </Trackpoint>
          <Trackpoint>
            <Time>2018-05-22T10:07:00.000Z</Time>
            <Position>
              <LatitudeDegrees>29.01327378116548061370849609375</LatitudeDegrees>
              <LongitudeDegrees>-13.48964125849306583404541015625</LongitudeDegrees>
            </Position>
            <AltitudeMeters>47.799999237060546875</AltitudeMeters>
            <DistanceMeters>12256.879872188</DistanceMeters>
          </Trackpoint>
          <Trackpoint>
            <Time>2018-05-22T10:07:05.000Z</Time>
            <Position>
              <LatitudeDegrees>29.01339381001889705657958984375</LatitudeDegrees>
              <LongitudeDegrees>-13.48964477889239788055419921875</LongitudeDegrees>
            </Position>
            <AltitudeMeters>47.59999847412109375</AltitudeMeters>
            <DistanceMeters>12270.243885503</DistanceMeters>
          </Trackpoint>
          <Trackpoint>
            <Time>2018-05-22T10:07:09.000Z</Time>
            <Position>
              <LatitudeDegrees>29.01349171064794063568115234375</LatitudeDegrees>
              <LongitudeDegrees>-13.48964964039623737335205078125</LongitudeDegrees>
            </Position>
            <AltitudeMeters>47.59999847412109375</AltitudeMeters>
            <DistanceMeters>12281.150038213</DistanceMeters>
          </Trackpoint>
          <Trackpoint>
            <Time>2018-05-22T10:07:19.000Z</Time>
            <Position>
              <LatitudeDegrees>29.01371785439550876617431640625</LatitudeDegrees>
              <LongitudeDegrees>-13.4896378219127655029296875</LongitudeDegrees>
            </Position>
            <AltitudeMeters>49</AltitudeMeters>
            <DistanceMeters>12306.346636286</DistanceMeters>
          </Trackpoint>
          <Trackpoint>
            <Time>2018-05-22T10:07:24.000Z</Time>
            <Position>
              <LatitudeDegrees>29.0138292498886585235595703125</LatitudeDegrees>
              <LongitudeDegrees>-13.4896646440029144287109375</LongitudeDegrees>
            </Position>
            <AltitudeMeters>49.59999847412109375</AltitudeMeters>
            <DistanceMeters>12319.0173004</DistanceMeters>
          </Trackpoint>
          <Trackpoint>
            <Time>2018-05-22T10:07:29.000Z</Time>
            <Position>
              <LatitudeDegrees>29.01393528096377849578857421875</LatitudeDegrees>
              <LongitudeDegrees>-13.48969624377787113189697265625</LongitudeDegrees>
            </Position>
            <AltitudeMeters>50.200000762939453125</AltitudeMeters>
            <DistanceMeters>12331.213341528</DistanceMeters>
          </Trackpoint>
          <Trackpoint>
            <Time>2018-05-22T10:07:34.000Z</Time>
            <Position>
              <LatitudeDegrees>29.014023207128047943115234375</LatitudeDegrees>
              <LongitudeDegrees>-13.4897504746913909912109375</LongitudeDegrees>
            </Position>
            <AltitudeMeters>51.200000762939453125</AltitudeMeters>
            <DistanceMeters>12342.332685334</DistanceMeters>
          </Trackpoint>
          <Trackpoint>
            <Time>2018-05-22T10:07:44.000Z</Time>
            <Position>
              <LatitudeDegrees>29.014163352549076080322265625</LatitudeDegrees>
              <LongitudeDegrees>-13.4898378141224384307861328125</LongitudeDegrees>
            </Position>
            <AltitudeMeters>52</AltitudeMeters>
            <DistanceMeters>12360.097344395</DistanceMeters>
          </Trackpoint>
          <Trackpoint>
            <Time>2018-05-22T10:07:48.000Z</Time>
            <Position>
              <LatitudeDegrees>29.014186151325702667236328125</LatitudeDegrees>
              <LongitudeDegrees>-13.48988366313278675079345703125</LongitudeDegrees>
            </Position>
            <AltitudeMeters>51.799999237060546875</AltitudeMeters>
            <DistanceMeters>12365.231425923</DistanceMeters>
          </Trackpoint>
          <Trackpoint>
            <Time>2018-05-22T10:07:52.000Z</Time>
            <Position>
              <LatitudeDegrees>29.0142475068569183349609375</LatitudeDegrees>
              <LongitudeDegrees>-13.48990897648036479949951171875</LongitudeDegrees>
            </Position>
            <AltitudeMeters>51.40000152587890625</AltitudeMeters>
            <DistanceMeters>12372.491491777</DistanceMeters>
          </Trackpoint>
          <Trackpoint>
            <Time>2018-05-22T10:07:57.000Z</Time>
            <Position>
              <LatitudeDegrees>29.0143137238919734954833984375</LatitudeDegrees>
              <LongitudeDegrees>-13.48992708139121532440185546875</LongitudeDegrees>
            </Position>
            <AltitudeMeters>52.40000152587890625</AltitudeMeters>
            <DistanceMeters>12380.069239207</DistanceMeters>
          </Trackpoint>
          <Trackpoint>
            <Time>2018-05-22T10:08:03.000Z</Time>
            <Position>
              <LatitudeDegrees>29.0144243650138378143310546875</LatitudeDegrees>
              <LongitudeDegrees>-13.48996547050774097442626953125</LongitudeDegrees>
            </Position>
            <AltitudeMeters>53</AltitudeMeters>
            <DistanceMeters>12392.93825634</DistanceMeters>
          </Trackpoint>
          <Trackpoint>
            <Time>2018-05-22T10:08:13.000Z</Time>
            <Position>
              <LatitudeDegrees>29.01456576772034168243408203125</LatitudeDegrees>
              <LongitudeDegrees>-13.4900862537324428558349609375</LongitudeDegrees>
            </Position>
            <AltitudeMeters>53.59999847412109375</AltitudeMeters>
            <DistanceMeters>12412.583061684</DistanceMeters>
          </Trackpoint>
          <Trackpoint>
            <Time>2018-05-22T10:08:17.000Z</Time>
            <Position>
              <LatitudeDegrees>29.01458689011633396148681640625</LatitudeDegrees>
              <LongitudeDegrees>-13.4901546500623226165771484375</LongitudeDegrees>
            </Position>
            <AltitudeMeters>54.799999237060546875</AltitudeMeters>
            <DistanceMeters>12419.643872689</DistanceMeters>
          </Trackpoint>
          <Trackpoint>
            <Time>2018-05-22T10:08:24.000Z</Time>
            <Position>
              <LatitudeDegrees>29.0146681107580661773681640625</LatitudeDegrees>
              <LongitudeDegrees>-13.49025950767099857330322265625</LongitudeDegrees>
            </Position>
            <AltitudeMeters>56</AltitudeMeters>
            <DistanceMeters>12433.278136647</DistanceMeters>
          </Trackpoint>
          <Trackpoint>
            <Time>2018-05-22T10:08:28.000Z</Time>
            <Position>
              <LatitudeDegrees>29.014702141284942626953125</LatitudeDegrees>
              <LongitudeDegrees>-13.49030242301523685455322265625</LongitudeDegrees>
            </Position>
            <AltitudeMeters>57</AltitudeMeters>
            <DistanceMeters>12438.917633897</DistanceMeters>
          </Trackpoint>
          <Trackpoint>
            <Time>2018-05-22T10:08:33.000Z</Time>
            <Position>
              <LatitudeDegrees>29.0147049911320209503173828125</LatitudeDegrees>
              <LongitudeDegrees>-13.49031583406031131744384765625</LongitudeDegrees>
            </Position>
            <AltitudeMeters>58.200000762939453125</AltitudeMeters>
            <DistanceMeters>12440.26151458</DistanceMeters>
          </Trackpoint>
          <Trackpoint>
            <Time>2018-05-22T10:08:40.000Z</Time>
            <Position>
              <LatitudeDegrees>29.0147036500275135040283203125</LatitudeDegrees>
              <LongitudeDegrees>-13.49031734280288219451904296875</LongitudeDegrees>
            </Position>
            <AltitudeMeters>58.200000762939453125</AltitudeMeters>
            <DistanceMeters>12440.451568008</DistanceMeters>
          </Trackpoint>
          <Trackpoint>
            <Time>2018-05-22T10:08:48.000Z</Time>
            <Position>
              <LatitudeDegrees>29.0147053264081478118896484375</LatitudeDegrees>
              <LongitudeDegrees>-13.49031667225062847137451171875</LongitudeDegrees>
            </Position>
            <AltitudeMeters>58.200000762939453125</AltitudeMeters>
            <DistanceMeters>12440.664054201</DistanceMeters>
          </Trackpoint>
          <Trackpoint>
            <Time>2018-05-22T10:08:50.000Z</Time>
            <Position>
              <LatitudeDegrees>29.0147049911320209503173828125</LatitudeDegrees>
              <LongitudeDegrees>-13.4903164207935333251953125</LongitudeDegrees>
            </Position>
            <AltitudeMeters>58.200000762939453125</AltitudeMeters>
            <DistanceMeters>12440.664054201</DistanceMeters>
          </Trackpoint>
          <Trackpoint>
            <Time>2018-05-22T10:09:22.000Z</Time>
            <Position>
              <LatitudeDegrees>29.0147190727293491363525390625</LatitudeDegrees>
              <LongitudeDegrees>-13.4904114715754985809326171875</LongitudeDegrees>
            </Position>
            <AltitudeMeters>59.40000152587890625</AltitudeMeters>
            <DistanceMeters>12450.047190422</DistanceMeters>
          </Trackpoint>
          <Trackpoint>
            <Time>2018-05-22T10:09:27.000Z</Time>
            <Position>
              <LatitudeDegrees>29.0147039853036403656005859375</LatitudeDegrees>
              <LongitudeDegrees>-13.49044575355947017669677734375</LongitudeDegrees>
            </Position>
            <AltitudeMeters>59.59999847412109375</AltitudeMeters>
            <DistanceMeters>12453.783565427</DistanceMeters>
          </Trackpoint>
          <Trackpoint>
            <Time>2018-05-22T10:09:31.000Z</Time>
            <Position>
              <LatitudeDegrees>29.01468613184988498687744140625</LatitudeDegrees>
              <LongitudeDegrees>-13.490477018058300018310546875</LongitudeDegrees>
            </Position>
            <AltitudeMeters>60.200000762939453125</AltitudeMeters>
            <DistanceMeters>12457.419501608</DistanceMeters>
          </Trackpoint>
          <Trackpoint>
            <Time>2018-05-22T10:09:32.000Z</Time>
            <Position>
              <LatitudeDegrees>29.0146805159747600555419921875</LatitudeDegrees>
              <LongitudeDegrees>-13.4904825501143932342529296875</LongitudeDegrees>
            </Position>
            <AltitudeMeters>60.40000152587890625</AltitudeMeters>
            <DistanceMeters>12458.242457095</DistanceMeters>
          </Trackpoint>
          <Trackpoint>
            <Time>2018-05-22T10:09:37.000Z</Time>
            <Position>
              <LatitudeDegrees>29.01464908383786678314208984375</LatitudeDegrees>
              <LongitudeDegrees>-13.4905073605477809906005859375</LongitudeDegrees>
            </Position>
            <AltitudeMeters>61.200000762939453125</AltitudeMeters>
            <DistanceMeters>12462.492180955</DistanceMeters>
          </Trackpoint>
          <Trackpoint>
            <Time>2018-05-22T10:09:40.000Z</Time>
            <Position>
              <LatitudeDegrees>29.014628715813159942626953125</LatitudeDegrees>
              <LongitudeDegrees>-13.490525968372821807861328125</LongitudeDegrees>
            </Position>
            <AltitudeMeters>61.59999847412109375</AltitudeMeters>
            <DistanceMeters>12465.393220639</DistanceMeters>
          </Trackpoint>
          <Trackpoint>
            <Time>2018-05-22T10:09:41.000Z</Time>
            <Position>
              <LatitudeDegrees>29.01462360285222530364990234375</LatitudeDegrees>
              <LongitudeDegrees>-13.49053376354277133941650390625</LongitudeDegrees>
            </Position>
            <AltitudeMeters>61.799999237060546875</AltitudeMeters>
            <DistanceMeters>12466.338724509</DistanceMeters>
          </Trackpoint>
          <Trackpoint>
            <Time>2018-05-22T10:09:44.000Z</Time>
            <Position>
              <LatitudeDegrees>29.014604575932025909423828125</LatitudeDegrees>
              <LongitudeDegrees>-13.49055840633809566497802734375</LongitudeDegrees>
            </Position>
            <AltitudeMeters>62.40000152587890625</AltitudeMeters>
            <DistanceMeters>12469.538741179</DistanceMeters>
          </Trackpoint>
          <Trackpoint>
            <Time>2018-05-22T10:09:48.000Z</Time>
            <Position>
              <LatitudeDegrees>29.0145785920321941375732421875</LatitudeDegrees>
              <LongitudeDegrees>-13.4905884973704814910888671875</LongitudeDegrees>
            </Position>
            <AltitudeMeters>62.40000152587890625</AltitudeMeters>
            <DistanceMeters>12473.654615741</DistanceMeters>
          </Trackpoint>
          <Trackpoint>
            <Time>2018-05-22T10:09:50.000Z</Time>
            <Position>
              <LatitudeDegrees>29.0145708806812763214111328125</LatitudeDegrees>
              <LongitudeDegrees>-13.490606434643268585205078125</LongitudeDegrees>
            </Position>
            <AltitudeMeters>62.200000762939453125</AltitudeMeters>
            <DistanceMeters>12475.597441506</DistanceMeters>
          </Trackpoint>
          <Trackpoint>
            <Time>2018-05-22T10:09:54.000Z</Time>
            <Position>
              <LatitudeDegrees>29.014567025005817413330078125</LatitudeDegrees>
              <LongitudeDegrees>-13.49062982015311717987060546875</LongitudeDegrees>
            </Position>
            <AltitudeMeters>61.799999237060546875</AltitudeMeters>
            <DistanceMeters>12477.915392214</DistanceMeters>
          </Trackpoint>
          <Trackpoint>
            <Time>2018-05-22T10:09:56.000Z</Time>
            <Position>
              <LatitudeDegrees>29.01457096450030803680419921875</LatitudeDegrees>
              <LongitudeDegrees>-13.4906521998345851898193359375</LongitudeDegrees>
            </Position>
            <AltitudeMeters>62</AltitudeMeters>
            <DistanceMeters>12480.137879967</DistanceMeters>
          </Trackpoint>
          <Trackpoint>
            <Time>2018-05-22T10:09:57.000Z</Time>
            <Position>
              <LatitudeDegrees>29.0145718865096569061279296875</LatitudeDegrees>
              <LongitudeDegrees>-13.490657396614551544189453125</LongitudeDegrees>
            </Position>
            <AltitudeMeters>62</AltitudeMeters>
            <DistanceMeters>12480.649614485</DistanceMeters>
          </Trackpoint>
          <Trackpoint>
            <Time>2018-05-22T10:10:00.000Z</Time>
            <Position>
              <LatitudeDegrees>29.01457213796675205230712890625</LatitudeDegrees>
              <LongitudeDegrees>-13.49065504968166351318359375</LongitudeDegrees>
            </Position>
            <AltitudeMeters>62.200000762939453125</AltitudeMeters>
            <DistanceMeters>12480.882381447</DistanceMeters>
          </Trackpoint>
          <Trackpoint>
            <Time>2018-05-22T10:10:04.000Z</Time>
            <Position>
              <LatitudeDegrees>29.01458303444087505340576171875</LatitudeDegrees>
              <LongitudeDegrees>-13.49068363197147846221923828125</LongitudeDegrees>
            </Position>
            <AltitudeMeters>62.200000762939453125</AltitudeMeters>
            <DistanceMeters>12483.91580326</DistanceMeters>
          </Trackpoint>
          <Trackpoint>
            <Time>2018-05-22T10:10:06.000Z</Time>
            <Position>
              <LatitudeDegrees>29.0146003849804401397705078125</LatitudeDegrees>
              <LongitudeDegrees>-13.490713723003864288330078125</LongitudeDegrees>
            </Position>
            <AltitudeMeters>62.200000762939453125</AltitudeMeters>
            <DistanceMeters>12487.422791158</DistanceMeters>
          </Trackpoint>
          <Trackpoint>
            <Time>2018-05-22T10:10:09.000Z</Time>
            <Position>
              <LatitudeDegrees>29.01463768444955348968505859375</LatitudeDegrees>
              <LongitudeDegrees>-13.4907589852809906005859375</LongitudeDegrees>
            </Position>
            <AltitudeMeters>61.799999237060546875</AltitudeMeters>
            <DistanceMeters>12493.476969904</DistanceMeters>
          </Trackpoint>
          <Trackpoint>
            <Time>2018-05-22T10:10:12.000Z</Time>
            <Position>
              <LatitudeDegrees>29.0146959386765956878662109375</LatitudeDegrees>
              <LongitudeDegrees>-13.49076208658516407012939453125</LongitudeDegrees>
            </Position>
            <AltitudeMeters>61.799999237060546875</AltitudeMeters>
            <DistanceMeters>12499.967371018</DistanceMeters>
          </Trackpoint>
          <Trackpoint>
            <Time>2018-05-22T10:10:15.000Z</Time>
            <Position>
              <LatitudeDegrees>29.0147455595433712005615234375</LatitudeDegrees>
              <LongitudeDegrees>-13.490734510123729705810546875</LongitudeDegrees>
            </Position>
            <AltitudeMeters>62.40000152587890625</AltitudeMeters>
            <DistanceMeters>12506.108185233</DistanceMeters>
          </Trackpoint>
          <Trackpoint>
            <Time>2018-05-22T10:10:16.000Z</Time>
            <Position>
              <LatitudeDegrees>29.01476006023585796356201171875</LatitudeDegrees>
              <LongitudeDegrees>-13.4907279722392559051513671875</LongitudeDegrees>
            </Position>
            <AltitudeMeters>62.799999237060546875</AltitudeMeters>
            <DistanceMeters>12507.84486181</DistanceMeters>
          </Trackpoint>
          <Trackpoint>
            <Time>2018-05-22T10:10:22.000Z</Time>
            <Position>
              <LatitudeDegrees>29.0148025564849376678466796875</LatitudeDegrees>
              <LongitudeDegrees>-13.49071632139384746551513671875</LongitudeDegrees>
            </Position>
            <AltitudeMeters>63.40000152587890625</AltitudeMeters>
            <DistanceMeters>12512.708893089</DistanceMeters>
          </Trackpoint>
          <Trackpoint>
            <Time>2018-05-22T10:10:24.000Z</Time>
            <Position>
              <LatitudeDegrees>29.01481973938643932342529296875</LatitudeDegrees>
              <LongitudeDegrees>-13.49070006050169467926025390625</LongitudeDegrees>
            </Position>
            <AltitudeMeters>63.40000152587890625</AltitudeMeters>
            <DistanceMeters>12515.192346775</DistanceMeters>
          </Trackpoint>
          <Trackpoint>
            <Time>2018-05-22T10:10:28.000Z</Time>
            <Position>
              <LatitudeDegrees>29.0148649178445339202880859375</LatitudeDegrees>
              <LongitudeDegrees>-13.49065345712006092071533203125</LongitudeDegrees>
            </Position>
            <AltitudeMeters>63.799999237060546875</AltitudeMeters>
            <DistanceMeters>12521.963958709</DistanceMeters>
          </Trackpoint>
          <Trackpoint>
            <Time>2018-05-22T10:10:40.000Z</Time>
            <Position>
              <LatitudeDegrees>29.0150587074458599090576171875</LatitudeDegrees>
              <LongitudeDegrees>-13.49054415710270404815673828125</LongitudeDegrees>
            </Position>
            <AltitudeMeters>64.1999969482421875</AltitudeMeters>
            <DistanceMeters>12546.013791481</DistanceMeters>
          </Trackpoint>
          <Trackpoint>
            <Time>2018-05-22T10:11:01.000Z</Time>
            <Position>
              <LatitudeDegrees>29.01550219394266605377197265625</LatitudeDegrees>
              <LongitudeDegrees>-13.490435443818569183349609375</LongitudeDegrees>
            </Position>
            <AltitudeMeters>65</AltitudeMeters>
            <DistanceMeters>12596.496146557</DistanceMeters>
          </Trackpoint>
          <Trackpoint>
            <Time>2018-05-22T10:11:06.000Z</Time>
            <Position>
              <LatitudeDegrees>29.0156048722565174102783203125</LatitudeDegrees>
              <LongitudeDegrees>-13.490393869578838348388671875</LongitudeDegrees>
            </Position>
            <AltitudeMeters>66.1999969482421875</AltitudeMeters>
            <DistanceMeters>12608.619410318</DistanceMeters>
          </Trackpoint>
          <Trackpoint>
            <Time>2018-05-22T10:11:07.000Z</Time>
            <Position>
              <LatitudeDegrees>29.0156226418912410736083984375</LatitudeDegrees>
              <LongitudeDegrees>-13.49038875661790370941162109375</LongitudeDegrees>
            </Position>
            <AltitudeMeters>66.40000152587890625</AltitudeMeters>
            <DistanceMeters>12610.659720402</DistanceMeters>
          </Trackpoint>
          <Trackpoint>
            <Time>2018-05-22T10:11:09.000Z</Time>
            <Position>
              <LatitudeDegrees>29.0156601928174495697021484375</LatitudeDegrees>
              <LongitudeDegrees>-13.49039194174110889434814453125</LongitudeDegrees>
            </Position>
            <AltitudeMeters>67</AltitudeMeters>
            <DistanceMeters>12614.851680416</DistanceMeters>
          </Trackpoint>
          <Trackpoint>
            <Time>2018-05-22T10:11:11.000Z</Time>
            <Position>
              <LatitudeDegrees>29.015678130090236663818359375</LatitudeDegrees>
              <LongitudeDegrees>-13.49039680324494838714599609375</LongitudeDegrees>
            </Position>
            <AltitudeMeters>67.40000152587890625</AltitudeMeters>
            <DistanceMeters>12616.903025249</DistanceMeters>
          </Trackpoint>
          <Trackpoint>
            <Time>2018-05-22T10:11:15.000Z</Time>
            <Position>
              <LatitudeDegrees>29.01573437266051769256591796875</LatitudeDegrees>
              <LongitudeDegrees>-13.49036629311740398406982421875</LongitudeDegrees>
            </Position>
            <AltitudeMeters>68.1999969482421875</AltitudeMeters>
            <DistanceMeters>12623.832160581</DistanceMeters>
          </Trackpoint>
          <Trackpoint>
            <Time>2018-05-22T10:11:16.000Z</Time>
            <Position>
              <LatitudeDegrees>29.0157430060207843780517578125</LatitudeDegrees>
              <LongitudeDegrees>-13.490356318652629852294921875</LongitudeDegrees>
            </Position>
            <AltitudeMeters>68.40000152587890625</AltitudeMeters>
            <DistanceMeters>12625.196050514</DistanceMeters>
          </Trackpoint>
          <Trackpoint>
            <Time>2018-05-22T10:11:20.000Z</Time>
            <Position>
              <LatitudeDegrees>29.01576287113130092620849609375</LatitudeDegrees>
              <LongitudeDegrees>-13.4903387166559696197509765625</LongitudeDegrees>
            </Position>
            <AltitudeMeters>69.59999847412109375</AltitudeMeters>
            <DistanceMeters>12627.992485065</DistanceMeters>
          </Trackpoint>
          <Trackpoint>
            <Time>2018-05-22T10:11:31.000Z</Time>
            <Position>
              <LatitudeDegrees>29.01585490442812442779541015625</LatitudeDegrees>
              <LongitudeDegrees>-13.4903011657297611236572265625</LongitudeDegrees>
            </Position>
            <AltitudeMeters>69.59999847412109375</AltitudeMeters>
            <DistanceMeters>12638.86878965</DistanceMeters>
          </Trackpoint>
          <Trackpoint>
            <Time>2018-05-22T10:11:39.000Z</Time>
            <Position>
              <LatitudeDegrees>29.015967138111591339111328125</LatitudeDegrees>
              <LongitudeDegrees>-13.4902947954833507537841796875</LongitudeDegrees>
            </Position>
            <AltitudeMeters>70</AltitudeMeters>
            <DistanceMeters>12651.376269184</DistanceMeters>
          </Trackpoint>
          <Trackpoint>
            <Time>2018-05-22T10:11:48.000Z</Time>
            <Position>
              <LatitudeDegrees>29.01608280837535858154296875</LatitudeDegrees>
              <LongitudeDegrees>-13.49024442024528980255126953125</LongitudeDegrees>
            </Position>
            <AltitudeMeters>70.59999847412109375</AltitudeMeters>
            <DistanceMeters>12665.152193348</DistanceMeters>
          </Trackpoint>
          <Trackpoint>
            <Time>2018-05-22T10:11:49.000Z</Time>
            <Position>
              <LatitudeDegrees>29.01607744395732879638671875</LatitudeDegrees>
              <LongitudeDegrees>-13.49024442024528980255126953125</LongitudeDegrees>
            </Position>
            <AltitudeMeters>70.8000030517578125</AltitudeMeters>
            <DistanceMeters>12665.745634989</DistanceMeters>
          </Trackpoint>
          <Trackpoint>
            <Time>2018-05-22T10:12:17.000Z</Time>
            <Position>
              <LatitudeDegrees>29.01612496934831142425537109375</LatitudeDegrees>
              <LongitudeDegrees>-13.490216173231601715087890625</LongitudeDegrees>
            </Position>
            <AltitudeMeters>70.59999847412109375</AltitudeMeters>
            <DistanceMeters>12671.707378096</DistanceMeters>
          </Trackpoint>
          <Trackpoint>
            <Time>2018-05-22T10:12:29.000Z</Time>
            <Position>
              <LatitudeDegrees>29.016368128359317779541015625</LatitudeDegrees>
              <LongitudeDegrees>-13.49013009108603000640869140625</LongitudeDegrees>
            </Position>
            <AltitudeMeters>71</AltitudeMeters>
            <DistanceMeters>12700.03872884</DistanceMeters>
          </Trackpoint>
          <Trackpoint>
            <Time>2018-05-22T10:12:35.000Z</Time>
            <Position>
              <LatitudeDegrees>29.01648388244211673736572265625</LatitudeDegrees>
              <LongitudeDegrees>-13.49005448631942272186279296875</LongitudeDegrees>
            </Position>
            <AltitudeMeters>71.8000030517578125</AltitudeMeters>
            <DistanceMeters>12714.875682825</DistanceMeters>
          </Trackpoint>
          <Trackpoint>
            <Time>2018-05-22T10:12:38.000Z</Time>
            <Position>
              <LatitudeDegrees>29.016552530229091644287109375</LatitudeDegrees>
              <LongitudeDegrees>-13.49004325456917285919189453125</LongitudeDegrees>
            </Position>
            <AltitudeMeters>72.40000152587890625</AltitudeMeters>
            <DistanceMeters>12722.593349844</DistanceMeters>
          </Trackpoint>
          <Trackpoint>
            <Time>2018-05-22T10:12:39.000Z</Time>
            <Position>
              <LatitudeDegrees>29.01657256297767162322998046875</LatitudeDegrees>
              <LongitudeDegrees>-13.4900316037237644195556640625</LongitudeDegrees>
            </Position>
            <AltitudeMeters>72.59999847412109375</AltitudeMeters>
            <DistanceMeters>12725.093112413</DistanceMeters>
          </Trackpoint>
          <Trackpoint>
            <Time>2018-05-22T10:12:42.000Z</Time>
            <Position>
              <LatitudeDegrees>29.0166194178164005279541015625</LatitudeDegrees>
              <LongitudeDegrees>-13.48997418768703937530517578125</LongitudeDegrees>
            </Position>
            <AltitudeMeters>73</AltitudeMeters>
            <DistanceMeters>12732.737301361</DistanceMeters>
          </Trackpoint>
          <Trackpoint>
            <Time>2018-05-22T10:12:44.000Z</Time>
            <Position>
              <LatitudeDegrees>29.0166588127613067626953125</LatitudeDegrees>
              <LongitudeDegrees>-13.48994518630206584930419921875</LongitudeDegrees>
            </Position>
            <AltitudeMeters>74</AltitudeMeters>
            <DistanceMeters>12737.951662316</DistanceMeters>
          </Trackpoint>
          <Trackpoint>
            <Time>2018-05-22T10:12:46.000Z</Time>
            <Position>
              <LatitudeDegrees>29.0166992135345935821533203125</LatitudeDegrees>
              <LongitudeDegrees>-13.48993931896984577178955078125</LongitudeDegrees>
            </Position>
            <AltitudeMeters>75.40000152587890625</AltitudeMeters>
            <DistanceMeters>12742.484147717</DistanceMeters>
          </Trackpoint>
          <Trackpoint>
            <Time>2018-05-22T10:13:05.000Z</Time>
            <Position>
              <LatitudeDegrees>29.01700842194259166717529296875</LatitudeDegrees>
              <LongitudeDegrees>-13.48983353935182094573974609375</LongitudeDegrees>
            </Position>
            <AltitudeMeters>76.59999847412109375</AltitudeMeters>
            <DistanceMeters>12778.406633907</DistanceMeters>
          </Trackpoint>
          <Trackpoint>
            <Time>2018-05-22T10:13:13.000Z</Time>
            <Position>
              <LatitudeDegrees>29.01710498146712779998779296875</LatitudeDegrees>
              <LongitudeDegrees>-13.48970680497586727142333984375</LongitudeDegrees>
            </Position>
            <AltitudeMeters>77</AltitudeMeters>
            <DistanceMeters>12794.76724288</DistanceMeters>
          </Trackpoint>
          <Trackpoint>
            <Time>2018-05-22T10:13:21.000Z</Time>
            <Position>
              <LatitudeDegrees>29.0172730386257171630859375</LatitudeDegrees>
              <LongitudeDegrees>-13.48959566093981266021728515625</LongitudeDegrees>
            </Position>
            <AltitudeMeters>77.40000152587890625</AltitudeMeters>
            <DistanceMeters>12816.375323142</DistanceMeters>
          </Trackpoint>
          <Trackpoint>
            <Time>2018-05-22T10:13:22.000Z</Time>
            <Position>
              <LatitudeDegrees>29.01730799116194248199462890625</LatitudeDegrees>
              <LongitudeDegrees>-13.48959599621593952178955078125</LongitudeDegrees>
            </Position>
            <AltitudeMeters>77.40000152587890625</AltitudeMeters>
            <DistanceMeters>12820.265619804</DistanceMeters>
          </Trackpoint>
          <Trackpoint>
            <Time>2018-05-22T10:13:27.000Z</Time>
            <Position>
              <LatitudeDegrees>29.017476551234722137451171875</LatitudeDegrees>
              <LongitudeDegrees>-13.48960622213780879974365234375</LongitudeDegrees>
            </Position>
            <AltitudeMeters>75.8000030517578125</AltitudeMeters>
            <DistanceMeters>12839.053052519</DistanceMeters>
          </Trackpoint>
          <Trackpoint>
            <Time>2018-05-22T10:13:29.000Z</Time>
            <Position>
              <LatitudeDegrees>29.0175417624413967132568359375</LatitudeDegrees>
              <LongitudeDegrees>-13.4896068088710308074951171875</LongitudeDegrees>
            </Position>
            <AltitudeMeters>76</AltitudeMeters>
            <DistanceMeters>12846.311252432</DistanceMeters>
          </Trackpoint>
          <Trackpoint>
            <Time>2018-05-22T10:13:30.000Z</Time>
            <Position>
              <LatitudeDegrees>29.01756213046610355377197265625</LatitudeDegrees>
              <LongitudeDegrees>-13.48958979360759258270263671875</LongitudeDegrees>
            </Position>
            <AltitudeMeters>76</AltitudeMeters>
            <DistanceMeters>12849.118966224</DistanceMeters>
          </Trackpoint>
          <Trackpoint>
            <Time>2018-05-22T10:13:31.000Z</Time>
            <Position>
              <LatitudeDegrees>29.01757604442536830902099609375</LatitudeDegrees>
              <LongitudeDegrees>-13.4895655699074268341064453125</LongitudeDegrees>
            </Position>
            <AltitudeMeters>76.1999969482421875</AltitudeMeters>
            <DistanceMeters>12851.939515345</DistanceMeters>
          </Trackpoint>
          <Trackpoint>
            <Time>2018-05-22T10:13:33.000Z</Time>
            <Position>
              <LatitudeDegrees>29.01760621927678585052490234375</LatitudeDegrees>
              <LongitudeDegrees>-13.48951519466936588287353515625</LongitudeDegrees>
            </Position>
            <AltitudeMeters>76</AltitudeMeters>
            <DistanceMeters>12857.882294912</DistanceMeters>
          </Trackpoint>
          <Trackpoint>
            <Time>2018-05-22T10:13:36.000Z</Time>
            <Position>
              <LatitudeDegrees>29.01766673661768436431884765625</LatitudeDegrees>
              <LongitudeDegrees>-13.489456437528133392333984375</LongitudeDegrees>
            </Position>
            <AltitudeMeters>76</AltitudeMeters>
            <DistanceMeters>12866.718246526</DistanceMeters>
          </Trackpoint>
          <Trackpoint>
            <Time>2018-05-22T10:13:43.000Z</Time>
            <Position>
              <LatitudeDegrees>29.01781283318996429443359375</LatitudeDegrees>
              <LongitudeDegrees>-13.4893442876636981964111328125</LongitudeDegrees>
            </Position>
            <AltitudeMeters>76.8000030517578125</AltitudeMeters>
            <DistanceMeters>12886.302973408</DistanceMeters>
          </Trackpoint>
          <Trackpoint>
            <Time>2018-05-22T10:13:45.000Z</Time>
            <Position>
              <LatitudeDegrees>29.01786354370415210723876953125</LatitudeDegrees>
              <LongitudeDegrees>-13.48932676948606967926025390625</LongitudeDegrees>
            </Position>
            <AltitudeMeters>77</AltitudeMeters>
            <DistanceMeters>12892.199225973</DistanceMeters>
          </Trackpoint>
          <Trackpoint>
            <Time>2018-05-22T10:13:46.000Z</Time>
            <Position>
              <LatitudeDegrees>29.01788969524204730987548828125</LatitudeDegrees>
              <LongitudeDegrees>-13.48931671120226383209228515625</LongitudeDegrees>
            </Position>
            <AltitudeMeters>77</AltitudeMeters>
            <DistanceMeters>12895.269633081</DistanceMeters>
          </Trackpoint>
          <Trackpoint>
            <Time>2018-05-22T10:13:49.000Z</Time>
            <Position>
              <LatitudeDegrees>29.01795792393386363983154296875</LatitudeDegrees>
              <LongitudeDegrees>-13.489272035658359527587890625</LongitudeDegrees>
            </Position>
            <AltitudeMeters>77.40000152587890625</AltitudeMeters>
            <DistanceMeters>12904.020350094</DistanceMeters>
          </Trackpoint>
          <Trackpoint>
            <Time>2018-05-22T10:13:54.000Z</Time>
            <Position>
              <LatitudeDegrees>29.01805154979228973388671875</LatitudeDegrees>
              <LongitudeDegrees>-13.48916298709809780120849609375</LongitudeDegrees>
            </Position>
            <AltitudeMeters>77</AltitudeMeters>
            <DistanceMeters>12918.894383604</DistanceMeters>
          </Trackpoint>
          <Trackpoint>
            <Time>2018-05-22T10:13:55.000Z</Time>
            <Position>
              <LatitudeDegrees>29.01807568967342376708984375</LatitudeDegrees>
              <LongitudeDegrees>-13.489145301282405853271484375</LongitudeDegrees>
            </Position>
            <AltitudeMeters>77</AltitudeMeters>
            <DistanceMeters>12922.085923394</DistanceMeters>
          </Trackpoint>
          <Trackpoint>
            <Time>2018-05-22T10:13:57.000Z</Time>
            <Position>
              <LatitudeDegrees>29.01811617426574230194091796875</LatitudeDegrees>
              <LongitudeDegrees>-13.489104397594928741455078125</LongitudeDegrees>
            </Position>
            <AltitudeMeters>76.59999847412109375</AltitudeMeters>
            <DistanceMeters>12928.098944771</DistanceMeters>
          </Trackpoint>
          <Trackpoint>
            <Time>2018-05-22T10:13:59.000Z</Time>
            <Position>
              <LatitudeDegrees>29.01815841905772686004638671875</LatitudeDegrees>
              <LongitudeDegrees>-13.4890609793365001678466796875</LongitudeDegrees>
            </Position>
            <AltitudeMeters>76.1999969482421875</AltitudeMeters>
            <DistanceMeters>12934.420185809</DistanceMeters>
          </Trackpoint>
          <Trackpoint>
            <Time>2018-05-22T10:14:00.000Z</Time>
            <Position>
              <LatitudeDegrees>29.01818029582500457763671875</LatitudeDegrees>
              <LongitudeDegrees>-13.48904228769242763519287109375</LongitudeDegrees>
            </Position>
            <AltitudeMeters>76.1999969482421875</AltitudeMeters>
            <DistanceMeters>12937.458069633</DistanceMeters>
          </Trackpoint>
          <Trackpoint>
            <Time>2018-05-22T10:14:03.000Z</Time>
            <Position>
              <LatitudeDegrees>29.01825330220162868499755859375</LatitudeDegrees>
              <LongitudeDegrees>-13.48900389857590198516845703125</LongitudeDegrees>
            </Position>
            <AltitudeMeters>76</AltitudeMeters>
            <DistanceMeters>12946.401694018</DistanceMeters>
          </Trackpoint>
          <Trackpoint>
            <Time>2018-05-22T10:14:08.000Z</Time>
            <Position>
              <LatitudeDegrees>29.01838355697691440582275390625</LatitudeDegrees>
              <LongitudeDegrees>-13.48896718584001064300537109375</LongitudeDegrees>
            </Position>
            <AltitudeMeters>75.8000030517578125</AltitudeMeters>
            <DistanceMeters>12961.333290966</DistanceMeters>
          </Trackpoint>
          <Trackpoint>
            <Time>2018-05-22T10:14:09.000Z</Time>
            <Position>
              <LatitudeDegrees>29.0184141509234905242919921875</LatitudeDegrees>
              <LongitudeDegrees>-13.48895511589944362640380859375</LongitudeDegrees>
            </Position>
            <AltitudeMeters>75.1999969482421875</AltitudeMeters>
            <DistanceMeters>12964.935543018</DistanceMeters>
          </Trackpoint>
          <Trackpoint>
            <Time>2018-05-22T10:14:13.000Z</Time>
            <Position>
              <LatitudeDegrees>29.01853878982365131378173828125</LatitudeDegrees>
              <LongitudeDegrees>-13.488898538053035736083984375</LongitudeDegrees>
            </Position>
            <AltitudeMeters>74.40000152587890625</AltitudeMeters>
            <DistanceMeters>12979.861091111</DistanceMeters>
          </Trackpoint>
          <Trackpoint>
            <Time>2018-05-22T10:14:18.000Z</Time>
            <Position>
              <LatitudeDegrees>29.01866736821830272674560546875</LatitudeDegrees>
              <LongitudeDegrees>-13.48882301710546016693115234375</LongitudeDegrees>
            </Position>
            <AltitudeMeters>74.40000152587890625</AltitudeMeters>
            <DistanceMeters>12995.949537624</DistanceMeters>
          </Trackpoint>
          <Trackpoint>
            <Time>2018-05-22T10:14:20.000Z</Time>
            <Position>
              <LatitudeDegrees>29.01871397159993648529052734375</LatitudeDegrees>
              <LongitudeDegrees>-13.4888440556824207305908203125</LongitudeDegrees>
            </Position>
            <AltitudeMeters>74</AltitudeMeters>
            <DistanceMeters>13001.527047225</DistanceMeters>
          </Trackpoint>
          <Trackpoint>
            <Time>2018-05-22T10:14:26.000Z</Time>
            <Position>
              <LatitudeDegrees>29.01885160245001316070556640625</LatitudeDegrees>
              <LongitudeDegrees>-13.48883659578859806060791015625</LongitudeDegrees>
            </Position>
            <AltitudeMeters>73</AltitudeMeters>
            <DistanceMeters>13016.862898717</DistanceMeters>
          </Trackpoint>
          <Trackpoint>
            <Time>2018-05-22T10:14:36.000Z</Time>
            <Position>
              <LatitudeDegrees>29.01911345310509204864501953125</LatitudeDegrees>
              <LongitudeDegrees>-13.48880507983267307281494140625</LongitudeDegrees>
            </Position>
            <AltitudeMeters>72.59999847412109375</AltitudeMeters>
            <DistanceMeters>13046.16828082</DistanceMeters>
          </Trackpoint>
          <Trackpoint>
            <Time>2018-05-22T10:14:57.000Z</Time>
            <Position>
              <LatitudeDegrees>29.01967721991240978240966796875</LatitudeDegrees>
              <LongitudeDegrees>-13.48872930742800235748291015625</LongitudeDegrees>
            </Position>
            <AltitudeMeters>73.1999969482421875</AltitudeMeters>
            <DistanceMeters>13109.348541124</DistanceMeters>
          </Trackpoint>
          <Trackpoint>
            <Time>2018-05-22T10:15:14.000Z</Time>
            <Position>
              <LatitudeDegrees>29.02024618349969387054443359375</LatitudeDegrees>
              <LongitudeDegrees>-13.48865454085171222686767578125</LongitudeDegrees>
            </Position>
            <AltitudeMeters>72.59999847412109375</AltitudeMeters>
            <DistanceMeters>13173.092061636</DistanceMeters>
          </Trackpoint>
          <Trackpoint>
            <Time>2018-05-22T10:15:22.000Z</Time>
            <Position>
              <LatitudeDegrees>29.0205399692058563232421875</LatitudeDegrees>
              <LongitudeDegrees>-13.48861782811582088470458984375</LongitudeDegrees>
            </Position>
            <AltitudeMeters>73</AltitudeMeters>
            <DistanceMeters>13205.985720441</DistanceMeters>
          </Trackpoint>
          <Trackpoint>
            <Time>2018-05-22T10:15:37.000Z</Time>
            <Position>
              <LatitudeDegrees>29.0210685320198535919189453125</LatitudeDegrees>
              <LongitudeDegrees>-13.488705419003963470458984375</LongitudeDegrees>
            </Position>
            <AltitudeMeters>72.59999847412109375</AltitudeMeters>
            <DistanceMeters>13265.430228296</DistanceMeters>
          </Trackpoint>
          <Trackpoint>
            <Time>2018-05-22T10:15:52.000Z</Time>
            <Position>
              <LatitudeDegrees>29.0215033851563930511474609375</LatitudeDegrees>
              <LongitudeDegrees>-13.48903424106538295745849609375</LongitudeDegrees>
            </Position>
            <AltitudeMeters>73.40000152587890625</AltitudeMeters>
            <DistanceMeters>13323.453978961</DistanceMeters>
          </Trackpoint>
          <Trackpoint>
            <Time>2018-05-22T10:15:56.000Z</Time>
            <Position>
              <LatitudeDegrees>29.02162634767591953277587890625</LatitudeDegrees>
              <LongitudeDegrees>-13.48913080058991909027099609375</LongitudeDegrees>
            </Position>
            <AltitudeMeters>73.1999969482421875</AltitudeMeters>
            <DistanceMeters>13340.055937378</DistanceMeters>
          </Trackpoint>
          <Trackpoint>
            <Time>2018-05-22T10:15:58.000Z</Time>
            <Position>
              <LatitudeDegrees>29.0216881223022937774658203125</LatitudeDegrees>
              <LongitudeDegrees>-13.48917581140995025634765625</LongitudeDegrees>
            </Position>
            <AltitudeMeters>73.1999969482421875</AltitudeMeters>
            <DistanceMeters>13348.20832124</DistanceMeters>
          </Trackpoint>
          <Trackpoint>
            <Time>2018-05-22T10:16:05.000Z</Time>
            <Position>
              <LatitudeDegrees>29.02190051972866058349609375</LatitudeDegrees>
              <LongitudeDegrees>-13.48933364264667034149169921875</LongitudeDegrees>
            </Position>
            <AltitudeMeters>72.59999847412109375</AltitudeMeters>
            <DistanceMeters>13376.401003421</DistanceMeters>
          </Trackpoint>
          <Trackpoint>
            <Time>2018-05-22T10:16:20.000Z</Time>
            <Position>
              <LatitudeDegrees>29.0223881788551807403564453125</LatitudeDegrees>
              <LongitudeDegrees>-13.48967612721025943756103515625</LongitudeDegrees>
            </Position>
            <AltitudeMeters>73.40000152587890625</AltitudeMeters>
            <DistanceMeters>13440.096482189</DistanceMeters>
          </Trackpoint>
          <Trackpoint>
            <Time>2018-05-22T10:16:31.000Z</Time>
            <Position>
              <LatitudeDegrees>29.02277232147753238677978515625</LatitudeDegrees>
              <LongitudeDegrees>-13.48988701589405536651611328125</LongitudeDegrees>
            </Position>
            <AltitudeMeters>73.40000152587890625</AltitudeMeters>
            <DistanceMeters>13487.523667028</DistanceMeters>
          </Trackpoint>
          <Trackpoint>
            <Time>2018-05-22T10:16:35.000Z</Time>
            <Position>
              <LatitudeDegrees>29.0228736586868762969970703125</LatitudeDegrees>
              <LongitudeDegrees>-13.489955328404903411865234375</LongitudeDegrees>
            </Position>
            <AltitudeMeters>74.59999847412109375</AltitudeMeters>
            <DistanceMeters>13500.616334485</DistanceMeters>
          </Trackpoint>
          <Trackpoint>
            <Time>2018-05-22T10:16:37.000Z</Time>
            <Position>
              <LatitudeDegrees>29.0229138918220996856689453125</LatitudeDegrees>
              <LongitudeDegrees>-13.48998122848570346832275390625</LongitudeDegrees>
            </Position>
            <AltitudeMeters>75.8000030517578125</AltitudeMeters>
            <DistanceMeters>13505.753932508</DistanceMeters>
          </Trackpoint>
          <Trackpoint>
            <Time>2018-05-22T10:16:40.000Z</Time>
            <Position>
              <LatitudeDegrees>29.02297700755298137664794921875</LatitudeDegrees>
              <LongitudeDegrees>-13.4900188632309436798095703125</LongitudeDegrees>
            </Position>
            <AltitudeMeters>77</AltitudeMeters>
            <DistanceMeters>13513.675992296</DistanceMeters>
          </Trackpoint>
          <Trackpoint>
            <Time>2018-05-22T10:16:52.000Z</Time>
            <Position>
              <LatitudeDegrees>29.0232436358928680419921875</LatitudeDegrees>
              <LongitudeDegrees>-13.4901796281337738037109375</LongitudeDegrees>
            </Position>
            <AltitudeMeters>78.1999969482421875</AltitudeMeters>
            <DistanceMeters>13547.224325605</DistanceMeters>
          </Trackpoint>
          <Trackpoint>
            <Time>2018-05-22T10:17:01.000Z</Time>
            <Position>
              <LatitudeDegrees>29.0234221704304218292236328125</LatitudeDegrees>
              <LongitudeDegrees>-13.4902904368937015533447265625</LongitudeDegrees>
            </Position>
            <AltitudeMeters>79.1999969482421875</AltitudeMeters>
            <DistanceMeters>13569.833495589</DistanceMeters>
          </Trackpoint>
          <Trackpoint>
            <Time>2018-05-22T10:17:02.000Z</Time>
            <Position>
              <LatitudeDegrees>29.0234409458935260772705078125</LatitudeDegrees>
              <LongitudeDegrees>-13.49030636250972747802734375</LongitudeDegrees>
            </Position>
            <AltitudeMeters>79.1999969482421875</AltitudeMeters>
            <DistanceMeters>13572.43590934</DistanceMeters>
          </Trackpoint>
          <Trackpoint>
            <Time>2018-05-22T10:17:24.000Z</Time>
            <Position>
              <LatitudeDegrees>29.0238766372203826904296875</LatitudeDegrees>
              <LongitudeDegrees>-13.49068229086697101593017578125</LongitudeDegrees>
            </Position>
            <AltitudeMeters>79.8000030517578125</AltitudeMeters>
            <DistanceMeters>13633.18303256</DistanceMeters>
          </Trackpoint>
          <Trackpoint>
            <Time>2018-05-22T10:17:27.000Z</Time>
            <Position>
              <LatitudeDegrees>29.0239170379936695098876953125</LatitudeDegrees>
              <LongitudeDegrees>-13.490757644176483154296875</LongitudeDegrees>
            </Position>
            <AltitudeMeters>79.8000030517578125</AltitudeMeters>
            <DistanceMeters>13641.785443644</DistanceMeters>
          </Trackpoint>
          <Trackpoint>
            <Time>2018-05-22T10:17:48.000Z</Time>
            <Position>
              <LatitudeDegrees>29.02436220087110996246337890625</LatitudeDegrees>
              <LongitudeDegrees>-13.4911447204649448394775390625</LongitudeDegrees>
            </Position>
            <AltitudeMeters>79.1999969482421875</AltitudeMeters>
            <DistanceMeters>13704.027869017</DistanceMeters>
          </Trackpoint>
          <Trackpoint>
            <Time>2018-05-22T10:18:01.000Z</Time>
            <Position>
              <LatitudeDegrees>29.0246405638754367828369140625</LatitudeDegrees>
              <LongitudeDegrees>-13.49136591888964176177978515625</LongitudeDegrees>
            </Position>
            <AltitudeMeters>79.1999969482421875</AltitudeMeters>
            <DistanceMeters>13741.755150118</DistanceMeters>
          </Trackpoint>
          <Trackpoint>
            <Time>2018-05-22T10:18:15.000Z</Time>
            <Position>
              <LatitudeDegrees>29.0249315835535526275634765625</LatitudeDegrees>
              <LongitudeDegrees>-13.49162978120148181915283203125</LongitudeDegrees>
            </Position>
            <AltitudeMeters>80.40000152587890625</AltitudeMeters>
            <DistanceMeters>13783.090897051</DistanceMeters>
          </Trackpoint>
          <Trackpoint>
            <Time>2018-05-22T10:18:20.000Z</Time>
            <Position>
              <LatitudeDegrees>29.0250499360263347625732421875</LatitudeDegrees>
              <LongitudeDegrees>-13.49170018918812274932861328125</LongitudeDegrees>
            </Position>
            <AltitudeMeters>81.40000152587890625</AltitudeMeters>
            <DistanceMeters>13797.939714396</DistanceMeters>
          </Trackpoint>
          <Trackpoint>
            <Time>2018-05-22T10:18:25.000Z</Time>
            <Position>
              <LatitudeDegrees>29.02516879141330718994140625</LatitudeDegrees>
              <LongitudeDegrees>-13.491761125624179840087890625</LongitudeDegrees>
            </Position>
            <AltitudeMeters>82.40000152587890625</AltitudeMeters>
            <DistanceMeters>13812.437128967</DistanceMeters>
          </Trackpoint>
          <Trackpoint>
            <Time>2018-05-22T10:18:46.000Z</Time>
            <Position>
              <LatitudeDegrees>29.025692157447338104248046875</LatitudeDegrees>
              <LongitudeDegrees>-13.49201769568026065826416015625</LongitudeDegrees>
            </Position>
            <AltitudeMeters>81.8000030517578125</AltitudeMeters>
            <DistanceMeters>13875.815103326</DistanceMeters>
          </Trackpoint>
          <Trackpoint>
            <Time>2018-05-22T10:18:56.000Z</Time>
            <Position>
              <LatitudeDegrees>29.02592374943196773529052734375</LatitudeDegrees>
              <LongitudeDegrees>-13.49213873036205768585205078125</LongitudeDegrees>
            </Position>
            <AltitudeMeters>83.59999847412109375</AltitudeMeters>
            <DistanceMeters>13904.155695758</DistanceMeters>
          </Trackpoint>
          <Trackpoint>
            <Time>2018-05-22T10:19:05.000Z</Time>
            <Position>
              <LatitudeDegrees>29.02611603029072284698486328125</LatitudeDegrees>
              <LongitudeDegrees>-13.4922824800014495849609375</LongitudeDegrees>
            </Position>
            <AltitudeMeters>84.59999847412109375</AltitudeMeters>
            <DistanceMeters>13929.723886624</DistanceMeters>
          </Trackpoint>
          <Trackpoint>
            <Time>2018-05-22T10:19:10.000Z</Time>
            <Position>
              <LatitudeDegrees>29.0262398310005664825439453125</LatitudeDegrees>
              <LongitudeDegrees>-13.49234911613166332244873046875</LongitudeDegrees>
            </Position>
            <AltitudeMeters>85.59999847412109375</AltitudeMeters>
            <DistanceMeters>13944.953085007</DistanceMeters>
          </Trackpoint>
          <Trackpoint>
            <Time>2018-05-22T10:19:18.000Z</Time>
            <Position>
              <LatitudeDegrees>29.026444852352142333984375</LatitudeDegrees>
              <LongitudeDegrees>-13.4924650378525257110595703125</LongitudeDegrees>
            </Position>
            <AltitudeMeters>86.8000030517578125</AltitudeMeters>
            <DistanceMeters>13970.408895456</DistanceMeters>
          </Trackpoint>
          <Trackpoint>
            <Time>2018-05-22T10:19:21.000Z</Time>
            <Position>
              <LatitudeDegrees>29.02652054093778133392333984375</LatitudeDegrees>
              <LongitudeDegrees>-13.49251507781445980072021484375</LongitudeDegrees>
            </Position>
            <AltitudeMeters>87.1999969482421875</AltitudeMeters>
            <DistanceMeters>13980.139742366</DistanceMeters>
          </Trackpoint>
          <Trackpoint>
            <Time>2018-05-22T10:19:40.000Z</Time>
            <Position>
              <LatitudeDegrees>29.0269673801958560943603515625</LatitudeDegrees>
              <LongitudeDegrees>-13.49288807250559329986572265625</LongitudeDegrees>
            </Position>
            <AltitudeMeters>87.59999847412109375</AltitudeMeters>
            <DistanceMeters>14041.712580408</DistanceMeters>
          </Trackpoint>
          <Trackpoint>
            <Time>2018-05-22T10:19:44.000Z</Time>
            <Position>
              <LatitudeDegrees>29.02702496387064456939697265625</LatitudeDegrees>
              <LongitudeDegrees>-13.49292478524148464202880859375</LongitudeDegrees>
            </Position>
            <AltitudeMeters>87.8000030517578125</AltitudeMeters>
            <DistanceMeters>14049.051202616</DistanceMeters>
          </Trackpoint>
          <Trackpoint>
            <Time>2018-05-22T10:20:05.000Z</Time>
            <Position>
              <LatitudeDegrees>29.02736744843423366546630859375</LatitudeDegrees>
              <LongitudeDegrees>-13.49304665811359882354736328125</LongitudeDegrees>
            </Position>
            <AltitudeMeters>88.8000030517578125</AltitudeMeters>
            <DistanceMeters>14088.973168273</DistanceMeters>
          </Trackpoint>
          <Trackpoint>
            <Time>2018-05-22T10:20:08.000Z</Time>
            <Position>
              <LatitudeDegrees>29.02742578648030757904052734375</LatitudeDegrees>
              <LongitudeDegrees>-13.493065349757671356201171875</LongitudeDegrees>
            </Position>
            <AltitudeMeters>90.1999969482421875</AltitudeMeters>
            <DistanceMeters>14095.716048585</DistanceMeters>
          </Trackpoint>
          <Trackpoint>
            <Time>2018-05-22T10:20:14.000Z</Time>
            <Position>
              <LatitudeDegrees>29.027547575533390045166015625</LatitudeDegrees>
              <LongitudeDegrees>-13.49309611134231090545654296875</LongitudeDegrees>
            </Position>
            <AltitudeMeters>90.40000152587890625</AltitudeMeters>
            <DistanceMeters>14109.598082348</DistanceMeters>
          </Trackpoint>
          <Trackpoint>
            <Time>2018-05-22T10:20:29.000Z</Time>
            <Position>
              <LatitudeDegrees>29.0278444625437259674072265625</LatitudeDegrees>
              <LongitudeDegrees>-13.49320105277001857757568359375</LongitudeDegrees>
            </Position>
            <AltitudeMeters>91</AltitudeMeters>
            <DistanceMeters>14144.184412401</DistanceMeters>
          </Trackpoint>
          <Trackpoint>
            <Time>2018-05-22T10:20:33.000Z</Time>
            <Position>
              <LatitudeDegrees>29.02789131738245487213134765625</LatitudeDegrees>
              <LongitudeDegrees>-13.49326324649155139923095703125</LongitudeDegrees>
            </Position>
            <AltitudeMeters>91.40000152587890625</AltitudeMeters>
            <DistanceMeters>14152.174006282</DistanceMeters>
          </Trackpoint>
          <Trackpoint>
            <Time>2018-05-22T10:20:39.000Z</Time>
            <Position>
              <LatitudeDegrees>29.027967341244220733642578125</LatitudeDegrees>
              <LongitudeDegrees>-13.49335460923612117767333984375</LongitudeDegrees>
            </Position>
            <AltitudeMeters>91.59999847412109375</AltitudeMeters>
            <DistanceMeters>14164.448280003</DistanceMeters>
          </Trackpoint>
          <Trackpoint>
            <Time>2018-05-22T10:20:43.000Z</Time>
            <Position>
              <LatitudeDegrees>29.02803297154605388641357421875</LatitudeDegrees>
              <LongitudeDegrees>-13.49341562949120998382568359375</LongitudeDegrees>
            </Position>
            <AltitudeMeters>92.8000030517578125</AltitudeMeters>
            <DistanceMeters>14173.862161786</DistanceMeters>
          </Trackpoint>
          <Trackpoint>
            <Time>2018-05-22T10:20:47.000Z</Time>
            <Position>
              <LatitudeDegrees>29.02808074839413166046142578125</LatitudeDegrees>
              <LongitudeDegrees>-13.49347564391791820526123046875</LongitudeDegrees>
            </Position>
            <AltitudeMeters>94</AltitudeMeters>
            <DistanceMeters>14181.760819783</DistanceMeters>
          </Trackpoint>
          <Trackpoint>
            <Time>2018-05-22T10:20:51.000Z</Time>
            <Position>
              <LatitudeDegrees>29.02810941450297832489013671875</LatitudeDegrees>
              <LongitudeDegrees>-13.4935422800481319427490234375</LongitudeDegrees>
            </Position>
            <AltitudeMeters>95</AltitudeMeters>
            <DistanceMeters>14188.98784975</DistanceMeters>
          </Trackpoint>
          <Trackpoint>
            <Time>2018-05-22T10:20:57.000Z</Time>
            <Position>
              <LatitudeDegrees>29.02814160101115703582763671875</LatitudeDegrees>
              <LongitudeDegrees>-13.49363892339169979095458984375</LongitudeDegrees>
            </Position>
            <AltitudeMeters>96.59999847412109375</AltitudeMeters>
            <DistanceMeters>14199.052609934</DistanceMeters>
          </Trackpoint>
          <Trackpoint>
            <Time>2018-05-22T10:21:00.000Z</Time>
            <Position>
              <LatitudeDegrees>29.0281646512448787689208984375</LatitudeDegrees>
              <LongitudeDegrees>-13.49368452094495296478271484375</LongitudeDegrees>
            </Position>
            <AltitudeMeters>97.8000030517578125</AltitudeMeters>
            <DistanceMeters>14204.17788967</DistanceMeters>
          </Trackpoint>
          <Trackpoint>
            <Time>2018-05-22T10:21:13.000Z</Time>
            <Position>
              <LatitudeDegrees>29.0283275954425334930419921875</LatitudeDegrees>
              <LongitudeDegrees>-13.49382483400404453277587890625</LongitudeDegrees>
            </Position>
            <AltitudeMeters>98.8000030517578125</AltitudeMeters>
            <DistanceMeters>14226.879928851</DistanceMeters>
          </Trackpoint>
          <Trackpoint>
            <Time>2018-05-22T10:21:18.000Z</Time>
            <Position>
              <LatitudeDegrees>29.028376042842864990234375</LatitudeDegrees>
              <LongitudeDegrees>-13.4939063899219036102294921875</LongitudeDegrees>
            </Position>
            <AltitudeMeters>99.8000030517578125</AltitudeMeters>
            <DistanceMeters>14236.475274567</DistanceMeters>
          </Trackpoint>
          <Trackpoint>
            <Time>2018-05-22T10:21:23.000Z</Time>
            <Position>
              <LatitudeDegrees>29.0284144319593906402587890625</LatitudeDegrees>
              <LongitudeDegrees>-13.4939888678491115570068359375</LongitudeDegrees>
            </Position>
            <AltitudeMeters>101</AltitudeMeters>
            <DistanceMeters>14245.568591344</DistanceMeters>
          </Trackpoint>
          <Trackpoint>
            <Time>2018-05-22T10:21:36.000Z</Time>
            <Position>
              <LatitudeDegrees>29.02850336395204067230224609375</LatitudeDegrees>
              <LongitudeDegrees>-13.49420906044542789459228515625</LongitudeDegrees>
            </Position>
            <AltitudeMeters>102</AltitudeMeters>
            <DistanceMeters>14269.173311355</DistanceMeters>
          </Trackpoint>
          <Trackpoint>
            <Time>2018-05-22T10:21:42.000Z</Time>
            <Position>
              <LatitudeDegrees>29.02856773696839809417724609375</LatitudeDegrees>
              <LongitudeDegrees>-13.4943060390651226043701171875</LongitudeDegrees>
            </Position>
            <AltitudeMeters>103.1999969482421875</AltitudeMeters>
            <DistanceMeters>14281.022727317</DistanceMeters>
          </Trackpoint>
          <Trackpoint>
            <Time>2018-05-22T10:21:52.000Z</Time>
            <Position>
              <LatitudeDegrees>29.02868307195603847503662109375</LatitudeDegrees>
              <LongitudeDegrees>-13.4944523870944976806640625</LongitudeDegrees>
            </Position>
            <AltitudeMeters>103.8000030517578125</AltitudeMeters>
            <DistanceMeters>14300.19670714</DistanceMeters>
          </Trackpoint>
          <Trackpoint>
            <Time>2018-05-22T10:21:55.000Z</Time>
            <Position>
              <LatitudeDegrees>29.02871777303516864776611328125</LatitudeDegrees>
              <LongitudeDegrees>-13.4944979846477508544921875</LongitudeDegrees>
            </Position>
            <AltitudeMeters>104.1999969482421875</AltitudeMeters>
            <DistanceMeters>14306.078392516</DistanceMeters>
          </Trackpoint>
          <Trackpoint>
            <Time>2018-05-22T10:21:58.000Z</Time>
            <Position>
              <LatitudeDegrees>29.0287463553249835968017578125</LatitudeDegrees>
              <LongitudeDegrees>-13.49454383365809917449951171875</LongitudeDegrees>
            </Position>
            <AltitudeMeters>105.1999969482421875</AltitudeMeters>
            <DistanceMeters>14311.557900174</DistanceMeters>
          </Trackpoint>
          <Trackpoint>
            <Time>2018-05-22T10:22:26.000Z</Time>
            <Position>
              <LatitudeDegrees>29.02909965254366397857666015625</LatitudeDegrees>
              <LongitudeDegrees>-13.49495689384639263153076171875</LongitudeDegrees>
            </Position>
            <AltitudeMeters>106.1999969482421875</AltitudeMeters>
            <DistanceMeters>14367.79155922</DistanceMeters>
          </Trackpoint>
          <Trackpoint>
            <Time>2018-05-22T10:22:27.000Z</Time>
            <Position>
              <LatitudeDegrees>29.0291097946465015411376953125</LatitudeDegrees>
              <LongitudeDegrees>-13.4949732385575771331787109375</LongitudeDegrees>
            </Position>
            <AltitudeMeters>106.40000152587890625</AltitudeMeters>
            <DistanceMeters>14369.74365867</DistanceMeters>
          </Trackpoint>
          <Trackpoint>
            <Time>2018-05-22T10:22:32.000Z</Time>
            <Position>
              <LatitudeDegrees>29.02915312908589839935302734375</LatitudeDegrees>
              <LongitudeDegrees>-13.49506669677793979644775390625</LongitudeDegrees>
            </Position>
            <AltitudeMeters>107.40000152587890625</AltitudeMeters>
            <DistanceMeters>14380.039047798</DistanceMeters>
          </Trackpoint>
          <Trackpoint>
            <Time>2018-05-22T10:22:45.000Z</Time>
            <Position>
              <LatitudeDegrees>29.02925136499106884002685546875</LatitudeDegrees>
              <LongitudeDegrees>-13.49531538784503936767578125</LongitudeDegrees>
            </Position>
            <AltitudeMeters>108.59999847412109375</AltitudeMeters>
            <DistanceMeters>14406.596761946</DistanceMeters>
          </Trackpoint>
          <Trackpoint>
            <Time>2018-05-22T10:22:49.000Z</Time>
            <Position>
              <LatitudeDegrees>29.02929143048822879791259765625</LatitudeDegrees>
              <LongitudeDegrees>-13.49538914859294891357421875</LongitudeDegrees>
            </Position>
            <AltitudeMeters>109.59999847412109375</AltitudeMeters>
            <DistanceMeters>14415.047196522</DistanceMeters>
          </Trackpoint>
          <Trackpoint>
            <Time>2018-05-22T10:22:56.000Z</Time>
            <Position>
              <LatitudeDegrees>29.02938011102378368377685546875</LatitudeDegrees>
              <LongitudeDegrees>-13.49552057683467864990234375</LongitudeDegrees>
            </Position>
            <AltitudeMeters>110.59999847412109375</AltitudeMeters>
            <DistanceMeters>14431.20341482</DistanceMeters>
          </Trackpoint>
          <Trackpoint>
            <Time>2018-05-22T10:23:12.000Z</Time>
            <Position>
              <LatitudeDegrees>29.02968026697635650634765625</LatitudeDegrees>
              <LongitudeDegrees>-13.4959230758249759674072265625</LongitudeDegrees>
            </Position>
            <AltitudeMeters>111.8000030517578125</AltitudeMeters>
            <DistanceMeters>14482.685885889</DistanceMeters>
          </Trackpoint>
          <Trackpoint>
            <Time>2018-05-22T10:23:20.000Z</Time>
            <Position>
              <LatitudeDegrees>29.0298901498317718505859375</LatitudeDegrees>
              <LongitudeDegrees>-13.4961487166583538055419921875</LongitudeDegrees>
            </Position>
            <AltitudeMeters>112</AltitudeMeters>
            <DistanceMeters>14514.746806519</DistanceMeters>
          </Trackpoint>
          <Trackpoint>
            <Time>2018-05-22T10:23:25.000Z</Time>
            <Position>
              <LatitudeDegrees>29.03003255836665630340576171875</LatitudeDegrees>
              <LongitudeDegrees>-13.49627436138689517974853515625</LongitudeDegrees>
            </Position>
            <AltitudeMeters>111.59999847412109375</AltitudeMeters>
            <DistanceMeters>14534.765216357</DistanceMeters>
          </Trackpoint>
          <Trackpoint>
            <Time>2018-05-22T10:23:34.000Z</Time>
            <Position>
              <LatitudeDegrees>29.0303027071058750152587890625</LatitudeDegrees>
              <LongitudeDegrees>-13.49638366140425205230712890625</LongitudeDegrees>
            </Position>
            <AltitudeMeters>113</AltitudeMeters>
            <DistanceMeters>14566.65938685</DistanceMeters>
          </Trackpoint>
          <Trackpoint>
            <Time>2018-05-22T10:23:38.000Z</Time>
            <Position>
              <LatitudeDegrees>29.03039432130753993988037109375</LatitudeDegrees>
              <LongitudeDegrees>-13.49640176631510257720947265625</LongitudeDegrees>
            </Position>
            <AltitudeMeters>113.59999847412109375</AltitudeMeters>
            <DistanceMeters>14577.007704421</DistanceMeters>
          </Trackpoint>
          <Trackpoint>
            <Time>2018-05-22T10:23:43.000Z</Time>
            <Position>
              <LatitudeDegrees>29.03052541427314281463623046875</LatitudeDegrees>
              <LongitudeDegrees>-13.49640226922929286956787109375</LongitudeDegrees>
            </Position>
            <AltitudeMeters>114</AltitudeMeters>
            <DistanceMeters>14591.598560538</DistanceMeters>
          </Trackpoint>
          <Trackpoint>
            <Time>2018-05-22T10:23:46.000Z</Time>
            <Position>
              <LatitudeDegrees>29.0306031145155429840087890625</LatitudeDegrees>
              <LongitudeDegrees>-13.4964058734476566314697265625</LongitudeDegrees>
            </Position>
            <AltitudeMeters>115.1999969482421875</AltitudeMeters>
            <DistanceMeters>14600.253819874</DistanceMeters>
          </Trackpoint>
          <Trackpoint>
            <Time>2018-05-22T10:23:49.000Z</Time>
            <Position>
              <LatitudeDegrees>29.030668996274471282958984375</LatitudeDegrees>
              <LongitudeDegrees>-13.4964296780526638031005859375</LongitudeDegrees>
            </Position>
            <AltitudeMeters>116.1999969482421875</AltitudeMeters>
            <DistanceMeters>14607.943941501</DistanceMeters>
          </Trackpoint>
          <Trackpoint>
            <Time>2018-05-22T10:24:00.000Z</Time>
            <Position>
              <LatitudeDegrees>29.0308998338878154754638671875</LatitudeDegrees>
              <LongitudeDegrees>-13.49661047570407390594482421875</LongitudeDegrees>
            </Position>
            <AltitudeMeters>116.1999969482421875</AltitudeMeters>
            <DistanceMeters>14639.08386377</DistanceMeters>
          </Trackpoint>
          <Trackpoint>
            <Time>2018-05-22T10:24:08.000Z</Time>
            <Position>
              <LatitudeDegrees>29.0310782007873058319091796875</LatitudeDegrees>
              <LongitudeDegrees>-13.49668842740356922149658203125</LongitudeDegrees>
            </Position>
            <AltitudeMeters>116</AltitudeMeters>
            <DistanceMeters>14660.336519925</DistanceMeters>
          </Trackpoint>
          <Trackpoint>
            <Time>2018-05-22T10:24:13.000Z</Time>
            <Position>
              <LatitudeDegrees>29.03121675364673137664794921875</LatitudeDegrees>
              <LongitudeDegrees>-13.49670611321926116943359375</LongitudeDegrees>
            </Position>
            <AltitudeMeters>115.1999969482421875</AltitudeMeters>
            <DistanceMeters>14675.853541492</DistanceMeters>
          </Trackpoint>
          <Trackpoint>
            <Time>2018-05-22T10:24:19.000Z</Time>
            <Position>
              <LatitudeDegrees>29.03138573281466960906982421875</LatitudeDegrees>
              <LongitudeDegrees>-13.49668473936617374420166015625</LongitudeDegrees>
            </Position>
            <AltitudeMeters>115.40000152587890625</AltitudeMeters>
            <DistanceMeters>14694.776030524</DistanceMeters>
          </Trackpoint>
          <Trackpoint>
            <Time>2018-05-22T10:24:25.000Z</Time>
            <Position>
              <LatitudeDegrees>29.0315566398203372955322265625</LatitudeDegrees>
              <LongitudeDegrees>-13.49665741436183452606201171875</LongitudeDegrees>
            </Position>
            <AltitudeMeters>115.59999847412109375</AltitudeMeters>
            <DistanceMeters>14713.983419027</DistanceMeters>
          </Trackpoint>
          <Trackpoint>
            <Time>2018-05-22T10:24:45.000Z</Time>
            <Position>
              <LatitudeDegrees>29.03209852986037731170654296875</LatitudeDegrees>
              <LongitudeDegrees>-13.49679462611675262451171875</LongitudeDegrees>
            </Position>
            <AltitudeMeters>115</AltitudeMeters>
            <DistanceMeters>14775.7572887</DistanceMeters>
          </Trackpoint>
          <Trackpoint>
            <Time>2018-05-22T10:24:56.000Z</Time>
            <Position>
              <LatitudeDegrees>29.03247755952179431915283203125</LatitudeDegrees>
              <LongitudeDegrees>-13.49683997221291065216064453125</LongitudeDegrees>
            </Position>
            <AltitudeMeters>114.1999969482421875</AltitudeMeters>
            <DistanceMeters>14818.17423792</DistanceMeters>
          </Trackpoint>
          <Trackpoint>
            <Time>2018-05-22T10:24:57.000Z</Time>
            <Position>
              <LatitudeDegrees>29.03250924311578273773193359375</LatitudeDegrees>
              <LongitudeDegrees>-13.4968417324125766754150390625</LongitudeDegrees>
            </Position>
            <AltitudeMeters>114.1999969482421875</AltitudeMeters>
            <DistanceMeters>14821.704323683</DistanceMeters>
          </Trackpoint>
          <Trackpoint>
            <Time>2018-05-22T10:25:15.000Z</Time>
            <Position>
              <LatitudeDegrees>29.03304702602326869964599609375</LatitudeDegrees>
              <LongitudeDegrees>-13.49695798940956592559814453125</LongitudeDegrees>
            </Position>
            <AltitudeMeters>114.59999847412109375</AltitudeMeters>
            <DistanceMeters>14882.620524267</DistanceMeters>
          </Trackpoint>
          <Trackpoint>
            <Time>2018-05-22T10:25:19.000Z</Time>
            <Position>
              <LatitudeDegrees>29.03315431438386440277099609375</LatitudeDegrees>
              <LongitudeDegrees>-13.49703376181423664093017578125</LongitudeDegrees>
            </Position>
            <AltitudeMeters>115.1999969482421875</AltitudeMeters>
            <DistanceMeters>14896.655554995</DistanceMeters>
          </Trackpoint>
          <Trackpoint>
            <Time>2018-05-22T10:25:30.000Z</Time>
            <Position>
              <LatitudeDegrees>29.033439718186855316162109375</LatitudeDegrees>
              <LongitudeDegrees>-13.49726124666631221771240234375</LongitudeDegrees>
            </Position>
            <AltitudeMeters>114.1999969482421875</AltitudeMeters>
            <DistanceMeters>14935.374714222</DistanceMeters>
          </Trackpoint>
          <Trackpoint>
            <Time>2018-05-22T10:25:37.000Z</Time>
            <Position>
              <LatitudeDegrees>29.03358413837850093841552734375</LatitudeDegrees>
              <LongitudeDegrees>-13.49741312675178050994873046875</LongitudeDegrees>
            </Position>
            <AltitudeMeters>114</AltitudeMeters>
            <DistanceMeters>14957.211224626</DistanceMeters>
          </Trackpoint>
          <Trackpoint>
            <Time>2018-05-22T10:25:52.000Z</Time>
            <Position>
              <LatitudeDegrees>29.03386342339217662811279296875</LatitudeDegrees>
              <LongitudeDegrees>-13.49790665321052074432373046875</LongitudeDegrees>
            </Position>
            <AltitudeMeters>112.8000030517578125</AltitudeMeters>
            <DistanceMeters>15014.420779309</DistanceMeters>
          </Trackpoint>
          <Trackpoint>
            <Time>2018-05-22T10:25:54.000Z</Time>
            <Position>
              <LatitudeDegrees>29.033912122249603271484375</LatitudeDegrees>
              <LongitudeDegrees>-13.49798862822353839874267578125</LongitudeDegrees>
            </Position>
            <AltitudeMeters>111.59999847412109375</AltitudeMeters>
            <DistanceMeters>15024.06540566</DistanceMeters>
          </Trackpoint>
          <Trackpoint>
            <Time>2018-05-22T10:25:56.000Z</Time>
            <Position>
              <LatitudeDegrees>29.03396702371537685394287109375</LatitudeDegrees>
              <LongitudeDegrees>-13.49807538092136383056640625</LongitudeDegrees>
            </Position>
            <AltitudeMeters>110.59999847412109375</AltitudeMeters>
            <DistanceMeters>15034.487198186</DistanceMeters>
          </Trackpoint>
          <Trackpoint>
            <Time>2018-05-22T10:25:57.000Z</Time>
            <Position>
              <LatitudeDegrees>29.033999629318714141845703125</LatitudeDegrees>
              <LongitudeDegrees>-13.4981147758662700653076171875</LongitudeDegrees>
            </Position>
            <AltitudeMeters>110.1999969482421875</AltitudeMeters>
            <DistanceMeters>15039.766101094</DistanceMeters>
          </Trackpoint>
          <Trackpoint>
            <Time>2018-05-22T10:25:58.000Z</Time>
            <Position>
              <LatitudeDegrees>29.03403441421687602996826171875</LatitudeDegrees>
              <LongitudeDegrees>-13.498150147497653961181640625</LongitudeDegrees>
            </Position>
            <AltitudeMeters>109.8000030517578125</AltitudeMeters>
            <DistanceMeters>15044.94658246</DistanceMeters>
          </Trackpoint>
          <Trackpoint>
            <Time>2018-05-22T10:26:01.000Z</Time>
            <Position>
              <LatitudeDegrees>29.03414840810000896453857421875</LatitudeDegrees>
              <LongitudeDegrees>-13.498232625424861907958984375</LongitudeDegrees>
            </Position>
            <AltitudeMeters>109.1999969482421875</AltitudeMeters>
            <DistanceMeters>15059.959901151</DistanceMeters>
          </Trackpoint>
          <Trackpoint>
            <Time>2018-05-22T10:26:06.000Z</Time>
            <Position>
              <LatitudeDegrees>29.03431420214474201202392578125</LatitudeDegrees>
              <LongitudeDegrees>-13.498362042009830474853515625</LongitudeDegrees>
            </Position>
            <AltitudeMeters>108.1999969482421875</AltitudeMeters>
            <DistanceMeters>15082.301285966</DistanceMeters>
          </Trackpoint>
          <Trackpoint>
            <Time>2018-05-22T10:26:21.000Z</Time>
            <Position>
              <LatitudeDegrees>29.034717790782451629638671875</LatitudeDegrees>
              <LongitudeDegrees>-13.498787172138690948486328125</LongitudeDegrees>
            </Position>
            <AltitudeMeters>107.59999847412109375</AltitudeMeters>
            <DistanceMeters>15143.370202293</DistanceMeters>
          </Trackpoint>
          <Trackpoint>
            <Time>2018-05-22T10:26:26.000Z</Time>
            <Position>
              <LatitudeDegrees>29.03483337722718715667724609375</LatitudeDegrees>
              <LongitudeDegrees>-13.49893813021481037139892578125</LongitudeDegrees>
            </Position>
            <AltitudeMeters>107.1999969482421875</AltitudeMeters>
            <DistanceMeters>15162.89767187</DistanceMeters>
          </Trackpoint>
          <Trackpoint>
            <Time>2018-05-22T10:26:41.000Z</Time>
            <Position>
              <LatitudeDegrees>29.0351782925426959991455078125</LatitudeDegrees>
              <LongitudeDegrees>-13.49939678795635700225830078125</LongitudeDegrees>
            </Position>
            <AltitudeMeters>107.1999969482421875</AltitudeMeters>
            <DistanceMeters>15221.769923405</DistanceMeters>
          </Trackpoint>
          <Trackpoint>
            <Time>2018-05-22T10:26:42.000Z</Time>
            <Position>
              <LatitudeDegrees>29.0352000854909420013427734375</LatitudeDegrees>
              <LongitudeDegrees>-13.49942746572196483612060546875</LongitudeDegrees>
            </Position>
            <AltitudeMeters>107.1999969482421875</AltitudeMeters>
            <DistanceMeters>15225.615864801</DistanceMeters>
          </Trackpoint>
          <Trackpoint>
            <Time>2018-05-22T10:26:43.000Z</Time>
            <Position>
              <LatitudeDegrees>29.035221375524997711181640625</LatitudeDegrees>
              <LongitudeDegrees>-13.499457053840160369873046875</LongitudeDegrees>
            </Position>
            <AltitudeMeters>107.1999969482421875</AltitudeMeters>
            <DistanceMeters>15229.344982353</DistanceMeters>
          </Trackpoint>
          <Trackpoint>
            <Time>2018-05-22T10:26:44.000Z</Time>
            <Position>
              <LatitudeDegrees>29.03524207882583141326904296875</LatitudeDegrees>
              <LongitudeDegrees>-13.49948613904416561126708984375</LongitudeDegrees>
            </Position>
            <AltitudeMeters>107</AltitudeMeters>
            <DistanceMeters>15232.994552569</DistanceMeters>
          </Trackpoint>
          <Trackpoint>
            <Time>2018-05-22T10:26:47.000Z</Time>
            <Position>
              <LatitudeDegrees>29.0353023447096347808837890625</LatitudeDegrees>
              <LongitudeDegrees>-13.499572388827800750732421875</LongitudeDegrees>
            </Position>
            <AltitudeMeters>106.8000030517578125</AltitudeMeters>
            <DistanceMeters>15243.738876524</DistanceMeters>
          </Trackpoint>
          <Trackpoint>
            <Time>2018-05-22T10:26:54.000Z</Time>
            <Position>
              <LatitudeDegrees>29.0354471839964389801025390625</LatitudeDegrees>
              <LongitudeDegrees>-13.49977858364582061767578125</LongitudeDegrees>
            </Position>
            <AltitudeMeters>106.8000030517578125</AltitudeMeters>
            <DistanceMeters>15269.478314135</DistanceMeters>
          </Trackpoint>
          <Trackpoint>
            <Time>2018-05-22T10:27:02.000Z</Time>
            <Position>
              <LatitudeDegrees>29.03559361584484577178955078125</LatitudeDegrees>
              <LongitudeDegrees>-13.5000288672745227813720703125</LongitudeDegrees>
            </Position>
            <AltitudeMeters>106</AltitudeMeters>
            <DistanceMeters>15298.784312506</DistanceMeters>
          </Trackpoint>
          <Trackpoint>
            <Time>2018-05-22T10:27:11.000Z</Time>
            <Position>
              <LatitudeDegrees>29.035762511193752288818359375</LatitudeDegrees>
              <LongitudeDegrees>-13.5003158636391162872314453125</LongitudeDegrees>
            </Position>
            <AltitudeMeters>106.1999969482421875</AltitudeMeters>
            <DistanceMeters>15332.449931831</DistanceMeters>
          </Trackpoint>
          <Trackpoint>
            <Time>2018-05-22T10:27:27.000Z</Time>
            <Position>
              <LatitudeDegrees>29.0360315702855587005615234375</LatitudeDegrees>
              <LongitudeDegrees>-13.50080050528049468994140625</LongitudeDegrees>
            </Position>
            <AltitudeMeters>107</AltitudeMeters>
            <DistanceMeters>15388.316427348</DistanceMeters>
          </Trackpoint>
          <Trackpoint>
            <Time>2018-05-22T10:27:44.000Z</Time>
            <Position>
              <LatitudeDegrees>29.0363435447216033935546875</LatitudeDegrees>
              <LongitudeDegrees>-13.501319177448749542236328125</LongitudeDegrees>
            </Position>
            <AltitudeMeters>107</AltitudeMeters>
            <DistanceMeters>15449.580511961</DistanceMeters>
          </Trackpoint>
          <Trackpoint>
            <Time>2018-05-22T10:27:57.000Z</Time>
            <Position>
              <LatitudeDegrees>29.0365824289619922637939453125</LatitudeDegrees>
              <LongitudeDegrees>-13.50168957374989986419677734375</LongitudeDegrees>
            </Position>
            <AltitudeMeters>106</AltitudeMeters>
            <DistanceMeters>15494.370262829</DistanceMeters>
          </Trackpoint>
          <Trackpoint>
            <Time>2018-05-22T10:27:58.000Z</Time>
            <Position>
              <LatitudeDegrees>29.03660036623477935791015625</LatitudeDegrees>
              <LongitudeDegrees>-13.50171513855457305908203125</LongitudeDegrees>
            </Position>
            <AltitudeMeters>106</AltitudeMeters>
            <DistanceMeters>15497.561802618</DistanceMeters>
          </Trackpoint>
          <Trackpoint>
            <Time>2018-05-22T10:28:05.000Z</Time>
            <Position>
              <LatitudeDegrees>29.036711342632770538330078125</LatitudeDegrees>
              <LongitudeDegrees>-13.50188202224671840667724609375</LongitudeDegrees>
            </Position>
            <AltitudeMeters>106.40000152587890625</AltitudeMeters>
            <DistanceMeters>15517.965346041</DistanceMeters>
          </Trackpoint>
          <Trackpoint>
            <Time>2018-05-22T10:28:25.000Z</Time>
            <Position>
              <LatitudeDegrees>29.0370397455990314483642578125</LatitudeDegrees>
              <LongitudeDegrees>-13.5023925639688968658447265625</LongitudeDegrees>
            </Position>
            <AltitudeMeters>106.59999847412109375</AltitudeMeters>
            <DistanceMeters>15579.644565034</DistanceMeters>
          </Trackpoint>
          <Trackpoint>
            <Time>2018-05-22T10:28:40.000Z</Time>
            <Position>
              <LatitudeDegrees>29.03723604977130889892578125</LatitudeDegrees>
              <LongitudeDegrees>-13.502787686884403228759765625</LongitudeDegrees>
            </Position>
            <AltitudeMeters>107</AltitudeMeters>
            <DistanceMeters>15623.868858546</DistanceMeters>
          </Trackpoint>
          <Trackpoint>
            <Time>2018-05-22T10:28:47.000Z</Time>
            <Position>
              <LatitudeDegrees>29.03732514940202236175537109375</LatitudeDegrees>
              <LongitudeDegrees>-13.5029635392129421234130859375</LongitudeDegrees>
            </Position>
            <AltitudeMeters>108.1999969482421875</AltitudeMeters>
            <DistanceMeters>15643.647203056</DistanceMeters>
          </Trackpoint>
          <Trackpoint>
            <Time>2018-05-22T10:28:57.000Z</Time>
            <Position>
              <LatitudeDegrees>29.03744995594024658203125</LatitudeDegrees>
              <LongitudeDegrees>-13.50319412536919116973876953125</LongitudeDegrees>
            </Position>
            <AltitudeMeters>109.40000152587890625</AltitudeMeters>
            <DistanceMeters>15670.037954011</DistanceMeters>
          </Trackpoint>
          <Trackpoint>
            <Time>2018-05-22T10:29:01.000Z</Time>
            <Position>
              <LatitudeDegrees>29.037495218217372894287109375</LatitudeDegrees>
              <LongitudeDegrees>-13.50327392108738422393798828125</LongitudeDegrees>
            </Position>
            <AltitudeMeters>110.59999847412109375</AltitudeMeters>
            <DistanceMeters>15679.294160864</DistanceMeters>
          </Trackpoint>
          <Trackpoint>
            <Time>2018-05-22T10:29:06.000Z</Time>
            <Position>
              <LatitudeDegrees>29.037562943994998931884765625</LatitudeDegrees>
              <LongitudeDegrees>-13.50336712785065174102783203125</LongitudeDegrees>
            </Position>
            <AltitudeMeters>111.59999847412109375</AltitudeMeters>
            <DistanceMeters>15691.087431716</DistanceMeters>
          </Trackpoint>
          <Trackpoint>
            <Time>2018-05-22T10:29:10.000Z</Time>
            <Position>
              <LatitudeDegrees>29.03762103058397769927978515625</LatitudeDegrees>
              <LongitudeDegrees>-13.50343451835215091705322265625</LongitudeDegrees>
            </Position>
            <AltitudeMeters>111.59999847412109375</AltitudeMeters>
            <DistanceMeters>15700.296201877</DistanceMeters>
          </Trackpoint>
          <Trackpoint>
            <Time>2018-05-22T10:29:16.000Z</Time>
            <Position>
              <LatitudeDegrees>29.03771691955626010894775390625</LatitudeDegrees>
              <LongitudeDegrees>-13.50353577174246311187744140625</LongitudeDegrees>
            </Position>
            <AltitudeMeters>112.59999847412109375</AltitudeMeters>
            <DistanceMeters>15714.821307937</DistanceMeters>
          </Trackpoint>
          <Trackpoint>
            <Time>2018-05-22T10:29:19.000Z</Time>
            <Position>
              <LatitudeDegrees>29.0377689711749553680419921875</LatitudeDegrees>
              <LongitudeDegrees>-13.50357734598219394683837890625</LongitudeDegrees>
            </Position>
            <AltitudeMeters>113.8000030517578125</AltitudeMeters>
            <DistanceMeters>15721.887232693</DistanceMeters>
          </Trackpoint>
          <Trackpoint>
            <Time>2018-05-22T10:29:24.000Z</Time>
            <Position>
              <LatitudeDegrees>29.03785874135792255401611328125</LatitudeDegrees>
              <LongitudeDegrees>-13.50365311838686466217041015625</LongitudeDegrees>
            </Position>
            <AltitudeMeters>115</AltitudeMeters>
            <DistanceMeters>15734.304864728</DistanceMeters>
          </Trackpoint>
          <Trackpoint>
            <Time>2018-05-22T10:29:30.000Z</Time>
            <Position>
              <LatitudeDegrees>29.03796284459531307220458984375</LatitudeDegrees>
              <LongitudeDegrees>-13.5037410445511341094970703125</LongitudeDegrees>
            </Position>
            <AltitudeMeters>116</AltitudeMeters>
            <DistanceMeters>15748.708858493</DistanceMeters>
          </Trackpoint>
          <Trackpoint>
            <Time>2018-05-22T10:29:44.000Z</Time>
            <Position>
              <LatitudeDegrees>29.0382103621959686279296875</LatitudeDegrees>
              <LongitudeDegrees>-13.5039334930479526519775390625</LongitudeDegrees>
            </Position>
            <AltitudeMeters>117.1999969482421875</AltitudeMeters>
            <DistanceMeters>15782.020703293</DistanceMeters>
          </Trackpoint>
          <Trackpoint>
            <Time>2018-05-22T10:29:48.000Z</Time>
            <Position>
              <LatitudeDegrees>29.03830113820731639862060546875</LatitudeDegrees>
              <LongitudeDegrees>-13.50398219190537929534912109375</LongitudeDegrees>
            </Position>
            <AltitudeMeters>118.1999969482421875</AltitudeMeters>
            <DistanceMeters>15793.180578485</DistanceMeters>
          </Trackpoint>
          <Trackpoint>
            <Time>2018-05-22T10:29:52.000Z</Time>
            <Position>
              <LatitudeDegrees>29.03838277794420719146728515625</LatitudeDegrees>
              <LongitudeDegrees>-13.5040360875427722930908203125</LongitudeDegrees>
            </Position>
            <AltitudeMeters>119.40000152587890625</AltitudeMeters>
            <DistanceMeters>15803.67188926</DistanceMeters>
          </Trackpoint>
          <Trackpoint>
            <Time>2018-05-22T10:30:03.000Z</Time>
            <Position>
              <LatitudeDegrees>29.0385860390961170196533203125</LatitudeDegrees>
              <LongitudeDegrees>-13.5042815096676349639892578125</LongitudeDegrees>
            </Position>
            <AltitudeMeters>120</AltitudeMeters>
            <DistanceMeters>15836.568293184</DistanceMeters>
          </Trackpoint>
          <Trackpoint>
            <Time>2018-05-22T10:30:14.000Z</Time>
            <Position>
              <LatitudeDegrees>29.0388133563101291656494140625</LatitudeDegrees>
              <LongitudeDegrees>-13.50452651269733905792236328125</LongitudeDegrees>
            </Position>
            <AltitudeMeters>119.59999847412109375</AltitudeMeters>
            <DistanceMeters>15871.332359127</DistanceMeters>
          </Trackpoint>
          <Trackpoint>
            <Time>2018-05-22T10:30:30.000Z</Time>
            <Position>
              <LatitudeDegrees>29.03913262300193309783935546875</LatitudeDegrees>
              <LongitudeDegrees>-13.50486849434673786163330078125</LongitudeDegrees>
            </Position>
            <AltitudeMeters>120.40000152587890625</AltitudeMeters>
            <DistanceMeters>15920.016836578</DistanceMeters>
          </Trackpoint>
          <Trackpoint>
            <Time>2018-05-22T10:30:47.000Z</Time>
            <Position>
              <LatitudeDegrees>29.03944292105734348297119140625</LatitudeDegrees>
              <LongitudeDegrees>-13.505242578685283660888671875</LongitudeDegrees>
            </Position>
            <AltitudeMeters>121.40000152587890625</AltitudeMeters>
            <DistanceMeters>15970.195620893</DistanceMeters>
          </Trackpoint>
          <Trackpoint>
            <Time>2018-05-22T10:30:48.000Z</Time>
            <Position>
              <LatitudeDegrees>29.03946404345333576202392578125</LatitudeDegrees>
              <LongitudeDegrees>-13.505264706909656524658203125</LongitudeDegrees>
            </Position>
            <AltitudeMeters>121.40000152587890625</AltitudeMeters>
            <DistanceMeters>15973.384330048</DistanceMeters>
          </Trackpoint>
          <Trackpoint>
            <Time>2018-05-22T10:30:51.000Z</Time>
            <Position>
              <LatitudeDegrees>29.03953260742127895355224609375</LatitudeDegrees>
              <LongitudeDegrees>-13.50534006021916866302490234375</LongitudeDegrees>
            </Position>
            <AltitudeMeters>121.1999969482421875</AltitudeMeters>
            <DistanceMeters>15983.967337094</DistanceMeters>
          </Trackpoint>
          <Trackpoint>
            <Time>2018-05-22T10:30:53.000Z</Time>
            <Position>
              <LatitudeDegrees>29.03958105482161045074462890625</LatitudeDegrees>
              <LongitudeDegrees>-13.50539823062717914581298828125</LongitudeDegrees>
            </Position>
            <AltitudeMeters>121.1999969482421875</AltitudeMeters>
            <DistanceMeters>15991.784981073</DistanceMeters>
          </Trackpoint>
          <Trackpoint>
            <Time>2018-05-22T10:30:56.000Z</Time>
            <Position>
              <LatitudeDegrees>29.03963805176317691802978515625</LatitudeDegrees>
              <LongitudeDegrees>-13.505496717989444732666015625</LongitudeDegrees>
            </Position>
            <AltitudeMeters>121.1999969482421875</AltitudeMeters>
            <DistanceMeters>16003.278107637</DistanceMeters>
          </Trackpoint>
          <Trackpoint>
            <Time>2018-05-22T10:31:07.000Z</Time>
            <Position>
              <LatitudeDegrees>29.039806611835956573486328125</LatitudeDegrees>
              <LongitudeDegrees>-13.50580659694969654083251953125</LongitudeDegrees>
            </Position>
            <AltitudeMeters>121.59999847412109375</AltitudeMeters>
            <DistanceMeters>16038.792172979</DistanceMeters>
          </Trackpoint>
          <Trackpoint>
            <Time>2018-05-22T10:31:09.000Z</Time>
            <Position>
              <LatitudeDegrees>29.039814658463001251220703125</LatitudeDegrees>
              <LongitudeDegrees>-13.50585722364485263824462890625</LongitudeDegrees>
            </Position>
            <AltitudeMeters>122.8000030517578125</AltitudeMeters>
            <DistanceMeters>16043.79891765</DistanceMeters>
          </Trackpoint>
          <Trackpoint>
            <Time>2018-05-22T10:31:13.000Z</Time>
            <Position>
              <LatitudeDegrees>29.03983242809772491455078125</LatitudeDegrees>
              <LongitudeDegrees>-13.5059590637683868408203125</LongitudeDegrees>
            </Position>
            <AltitudeMeters>124</AltitudeMeters>
            <DistanceMeters>16053.903971061</DistanceMeters>
          </Trackpoint>
          <Trackpoint>
            <Time>2018-05-22T10:31:17.000Z</Time>
            <Position>
              <LatitudeDegrees>29.03986369259655475616455078125</LatitudeDegrees>
              <LongitudeDegrees>-13.506061322987079620361328125</LongitudeDegrees>
            </Position>
            <AltitudeMeters>124.59999847412109375</AltitudeMeters>
            <DistanceMeters>16064.445941977</DistanceMeters>
          </Trackpoint>
          <Trackpoint>
            <Time>2018-05-22T10:31:19.000Z</Time>
            <Position>
              <LatitudeDegrees>29.0398859046399593353271484375</LatitudeDegrees>
              <LongitudeDegrees>-13.50611169822514057159423828125</LongitudeDegrees>
            </Position>
            <AltitudeMeters>125</AltitudeMeters>
            <DistanceMeters>16069.936151005</DistanceMeters>
          </Trackpoint>
          <Trackpoint>
            <Time>2018-05-22T10:31:25.000Z</Time>
            <Position>
              <LatitudeDegrees>29.03995153494179248809814453125</LatitudeDegrees>
              <LongitudeDegrees>-13.50625385530292987823486328125</LongitudeDegrees>
            </Position>
            <AltitudeMeters>126</AltitudeMeters>
            <DistanceMeters>16085.579522497</DistanceMeters>
          </Trackpoint>
          <Trackpoint>
            <Time>2018-05-22T10:31:28.000Z</Time>
            <Position>
              <LatitudeDegrees>29.0399833023548126220703125</LatitudeDegrees>
              <LongitudeDegrees>-13.50631940178573131561279296875</LongitudeDegrees>
            </Position>
            <AltitudeMeters>126.8000030517578125</AltitudeMeters>
            <DistanceMeters>16092.871855469</DistanceMeters>
          </Trackpoint>
          <Trackpoint>
            <Time>2018-05-22T10:31:31.000Z</Time>
            <Position>
              <LatitudeDegrees>29.04000953771173954010009765625</LatitudeDegrees>
              <LongitudeDegrees>-13.50638578645884990692138671875</LongitudeDegrees>
            </Position>
            <AltitudeMeters>127.1999969482421875</AltitudeMeters>
            <DistanceMeters>16099.960746455</DistanceMeters>
          </Trackpoint>
          <Trackpoint>
            <Time>2018-05-22T10:31:48.000Z</Time>
            <Position>
              <LatitudeDegrees>29.0402139723300933837890625</LatitudeDegrees>
              <LongitudeDegrees>-13.50669843144714832305908203125</LongitudeDegrees>
            </Position>
            <AltitudeMeters>128.1999969482421875</AltitudeMeters>
            <DistanceMeters>16137.951709043</DistanceMeters>
          </Trackpoint>
          <Trackpoint>
            <Time>2018-05-22T10:31:56.000Z</Time>
            <Position>
              <LatitudeDegrees>29.0403373539447784423828125</LatitudeDegrees>
              <LongitudeDegrees>-13.50683840923011302947998046875</LongitudeDegrees>
            </Position>
            <AltitudeMeters>129.1999969482421875</AltitudeMeters>
            <DistanceMeters>16157.293789258</DistanceMeters>
          </Trackpoint>
          <Trackpoint>
            <Time>2018-05-22T10:32:01.000Z</Time>
            <Position>
              <LatitudeDegrees>29.0404189936816692352294921875</LatitudeDegrees>
              <LongitudeDegrees>-13.506912924349308013916015625</LongitudeDegrees>
            </Position>
            <AltitudeMeters>130.399993896484375</AltitudeMeters>
            <DistanceMeters>16168.918939755</DistanceMeters>
          </Trackpoint>
          <Trackpoint>
            <Time>2018-05-22T10:32:15.000Z</Time>
            <Position>
              <LatitudeDegrees>29.0406751446425914764404296875</LatitudeDegrees>
              <LongitudeDegrees>-13.5070347972214221954345703125</LongitudeDegrees>
            </Position>
            <AltitudeMeters>131.399993896484375</AltitudeMeters>
            <DistanceMeters>16199.797212238</DistanceMeters>
          </Trackpoint>
          <Trackpoint>
            <Time>2018-05-22T10:32:20.000Z</Time>
            <Position>
              <LatitudeDegrees>29.04076181352138519287109375</LatitudeDegrees>
              <LongitudeDegrees>-13.5070834122598171234130859375</LongitudeDegrees>
            </Position>
            <AltitudeMeters>132.399993896484375</AltitudeMeters>
            <DistanceMeters>16210.54111596</DistanceMeters>
          </Trackpoint>
          <Trackpoint>
            <Time>2018-05-22T10:32:25.000Z</Time>
            <Position>
              <LatitudeDegrees>29.0408458001911640167236328125</LatitudeDegrees>
              <LongitudeDegrees>-13.50714585743844509124755859375</LongitudeDegrees>
            </Position>
            <AltitudeMeters>133.600006103515625</AltitudeMeters>
            <DistanceMeters>16221.690467167</DistanceMeters>
          </Trackpoint>
          <Trackpoint>
            <Time>2018-05-22T10:32:31.000Z</Time>
            <Position>
              <LatitudeDegrees>29.04094546101987361907958984375</LatitudeDegrees>
              <LongitudeDegrees>-13.50720704533159732818603515625</LongitudeDegrees>
            </Position>
            <AltitudeMeters>134.600006103515625</AltitudeMeters>
            <DistanceMeters>16234.279982715</DistanceMeters>
          </Trackpoint>
          <Trackpoint>
            <Time>2018-05-22T10:32:39.000Z</Time>
            <Position>
              <LatitudeDegrees>29.04108024202287197113037109375</LatitudeDegrees>
              <LongitudeDegrees>-13.507295809686183929443359375</LongitudeDegrees>
            </Position>
            <AltitudeMeters>135.600006103515625</AltitudeMeters>
            <DistanceMeters>16251.590240559</DistanceMeters>
          </Trackpoint>
          <Trackpoint>
            <Time>2018-05-22T10:32:46.000Z</Time>
            <Position>
              <LatitudeDegrees>29.04119222424924373626708984375</LatitudeDegrees>
              <LongitudeDegrees>-13.5073600150644779205322265625</LongitudeDegrees>
            </Position>
            <AltitudeMeters>136.1999969482421875</AltitudeMeters>
            <DistanceMeters>16265.531990645</DistanceMeters>
          </Trackpoint>
          <Trackpoint>
            <Time>2018-05-22T10:32:51.000Z</Time>
            <Position>
              <LatitudeDegrees>29.0412746183574199676513671875</LatitudeDegrees>
              <LongitudeDegrees>-13.5074042715132236480712890625</LongitudeDegrees>
            </Position>
            <AltitudeMeters>136.8000030517578125</AltitudeMeters>
            <DistanceMeters>16275.663817184</DistanceMeters>
          </Trackpoint>
          <Trackpoint>
            <Time>2018-05-22T10:32:59.000Z</Time>
            <Position>
              <LatitudeDegrees>29.04140328057110309600830078125</LatitudeDegrees>
              <LongitudeDegrees>-13.507472164928913116455078125</LongitudeDegrees>
            </Position>
            <AltitudeMeters>137.8000030517578125</AltitudeMeters>
            <DistanceMeters>16291.434816695</DistanceMeters>
          </Trackpoint>
          <Trackpoint>
            <Time>2018-05-22T10:33:15.000Z</Time>
            <Position>
              <LatitudeDegrees>29.04167803935706615447998046875</LatitudeDegrees>
              <LongitudeDegrees>-13.50761524401605129241943359375</LongitudeDegrees>
            </Position>
            <AltitudeMeters>138.8000030517578125</AltitudeMeters>
            <DistanceMeters>16325.036402641</DistanceMeters>
          </Trackpoint>
          <Trackpoint>
            <Time>2018-05-22T10:33:40.000Z</Time>
            <Position>
              <LatitudeDegrees>29.04212680645287036895751953125</LatitudeDegrees>
              <LongitudeDegrees>-13.50779059343039989471435546875</LongitudeDegrees>
            </Position>
            <AltitudeMeters>139.600006103515625</AltitudeMeters>
            <DistanceMeters>16377.819016586</DistanceMeters>
          </Trackpoint>
          <Trackpoint>
            <Time>2018-05-22T10:33:41.000Z</Time>
            <Position>
              <LatitudeDegrees>29.042146839201450347900390625</LatitudeDegrees>
              <LongitudeDegrees>-13.50779662840068340301513671875</LongitudeDegrees>
            </Position>
            <AltitudeMeters>139.600006103515625</AltitudeMeters>
            <DistanceMeters>16380.125250535</DistanceMeters>
          </Trackpoint>
          <Trackpoint>
            <Time>2018-05-22T10:33:43.000Z</Time>
            <Position>
              <LatitudeDegrees>29.04218397103250026702880859375</LatitudeDegrees>
              <LongitudeDegrees>-13.50780911743640899658203125</LongitudeDegrees>
            </Position>
            <AltitudeMeters>139.8000030517578125</AltitudeMeters>
            <DistanceMeters>16384.433011797</DistanceMeters>
          </Trackpoint>
          <Trackpoint>
            <Time>2018-05-22T10:33:49.000Z</Time>
            <Position>
              <LatitudeDegrees>29.04229410924017429351806640625</LatitudeDegrees>
              <LongitudeDegrees>-13.50785781629383563995361328125</LongitudeDegrees>
            </Position>
            <AltitudeMeters>141</AltitudeMeters>
            <DistanceMeters>16397.575587733</DistanceMeters>
          </Trackpoint>
          <Trackpoint>
            <Time>2018-05-22T10:33:58.000Z</Time>
            <Position>
              <LatitudeDegrees>29.0424521081149578094482421875</LatitudeDegrees>
              <LongitudeDegrees>-13.50793811492621898651123046875</LongitudeDegrees>
            </Position>
            <AltitudeMeters>142</AltitudeMeters>
            <DistanceMeters>16416.818673367</DistanceMeters>
          </Trackpoint>
          <Trackpoint>
            <Time>2018-05-22T10:34:04.000Z</Time>
            <Position>
              <LatitudeDegrees>29.04254506342113018035888671875</LatitudeDegrees>
              <LongitudeDegrees>-13.50799326784908771514892578125</LongitudeDegrees>
            </Position>
            <AltitudeMeters>143</AltitudeMeters>
            <DistanceMeters>16428.474078552</DistanceMeters>
          </Trackpoint>
          <Trackpoint>
            <Time>2018-05-22T10:34:11.000Z</Time>
            <Position>
              <LatitudeDegrees>29.04265000484883785247802734375</LatitudeDegrees>
              <LongitudeDegrees>-13.5080565512180328369140625</LongitudeDegrees>
            </Position>
            <AltitudeMeters>144.1999969482421875</AltitudeMeters>
            <DistanceMeters>16441.678005464</DistanceMeters>
          </Trackpoint>
          <Trackpoint>
            <Time>2018-05-22T10:34:20.000Z</Time>
            <Position>
              <LatitudeDegrees>29.042791239917278289794921875</LatitudeDegrees>
              <LongitudeDegrees>-13.508138023316860198974609375</LongitudeDegrees>
            </Position>
            <AltitudeMeters>145.399993896484375</AltitudeMeters>
            <DistanceMeters>16459.283611785</DistanceMeters>
          </Trackpoint>
          <Trackpoint>
            <Time>2018-05-22T10:34:27.000Z</Time>
            <Position>
              <LatitudeDegrees>29.042894504964351654052734375</LatitudeDegrees>
              <LongitudeDegrees>-13.50821220315992832183837890625</LongitudeDegrees>
            </Position>
            <AltitudeMeters>146.399993896484375</AltitudeMeters>
            <DistanceMeters>16472.856141375</DistanceMeters>
          </Trackpoint>
          <Trackpoint>
            <Time>2018-05-22T10:34:35.000Z</Time>
            <Position>
              <LatitudeDegrees>29.04300212860107421875</LatitudeDegrees>
              <LongitudeDegrees>-13.5083205811679363250732421875</LongitudeDegrees>
            </Position>
            <AltitudeMeters>147.399993896484375</AltitudeMeters>
            <DistanceMeters>16488.81553786</DistanceMeters>
          </Trackpoint>
          <Trackpoint>
            <Time>2018-05-22T10:34:42.000Z</Time>
            <Position>
              <LatitudeDegrees>29.0430839359760284423828125</LatitudeDegrees>
              <LongitudeDegrees>-13.508430384099483489990234375</LongitudeDegrees>
            </Position>
            <AltitudeMeters>148.600006103515625</AltitudeMeters>
            <DistanceMeters>16502.85346357</DistanceMeters>
          </Trackpoint>
          <Trackpoint>
            <Time>2018-05-22T10:34:49.000Z</Time>
            <Position>
              <LatitudeDegrees>29.04315995983779430389404296875</LatitudeDegrees>
              <LongitudeDegrees>-13.508542366325855255126953125</LongitudeDegrees>
            </Position>
            <AltitudeMeters>149.8000030517578125</AltitudeMeters>
            <DistanceMeters>16516.649365904</DistanceMeters>
          </Trackpoint>
          <Trackpoint>
            <Time>2018-05-22T10:34:58.000Z</Time>
            <Position>
              <LatitudeDegrees>29.0432708524167537689208984375</LatitudeDegrees>
              <LongitudeDegrees>-13.508687876164913177490234375</LongitudeDegrees>
            </Position>
            <AltitudeMeters>151</AltitudeMeters>
            <DistanceMeters>16535.43295307</DistanceMeters>
          </Trackpoint>
          <Trackpoint>
            <Time>2018-05-22T10:35:14.000Z</Time>
            <Position>
              <LatitudeDegrees>29.04345475137233734130859375</LatitudeDegrees>
              <LongitudeDegrees>-13.50894276984035968780517578125</LongitudeDegrees>
            </Position>
            <AltitudeMeters>152</AltitudeMeters>
            <DistanceMeters>16567.590757012</DistanceMeters>
          </Trackpoint>
          <Trackpoint>
            <Time>2018-05-22T10:35:32.000Z</Time>
            <Position>
              <LatitudeDegrees>29.0436477027833461761474609375</LatitudeDegrees>
              <LongitudeDegrees>-13.50923999212682247161865234375</LongitudeDegrees>
            </Position>
            <AltitudeMeters>153</AltitudeMeters>
            <DistanceMeters>16603.614029565</DistanceMeters>
          </Trackpoint>
          <Trackpoint>
            <Time>2018-05-22T10:35:33.000Z</Time>
            <Position>
              <LatitudeDegrees>29.04366119764745235443115234375</LatitudeDegrees>
              <LongitudeDegrees>-13.5092546604573726654052734375</LongitudeDegrees>
            </Position>
            <AltitudeMeters>153.1999969482421875</AltitudeMeters>
            <DistanceMeters>16605.682907579</DistanceMeters>
          </Trackpoint>
          <Trackpoint>
            <Time>2018-05-22T10:35:43.000Z</Time>
            <Position>
              <LatitudeDegrees>29.043845348060131072998046875</LatitudeDegrees>
              <LongitudeDegrees>-13.5092918761074542999267578125</LongitudeDegrees>
            </Position>
            <AltitudeMeters>153.399993896484375</AltitudeMeters>
            <DistanceMeters>16626.496578262</DistanceMeters>
          </Trackpoint>
          <Trackpoint>
            <Time>2018-05-22T10:36:04.000Z</Time>
            <Position>
              <LatitudeDegrees>29.0440339408814907073974609375</LatitudeDegrees>
              <LongitudeDegrees>-13.50920948199927806854248046875</LongitudeDegrees>
            </Position>
            <AltitudeMeters>154</AltitudeMeters>
            <DistanceMeters>16648.966327574</DistanceMeters>
          </Trackpoint>
          <Trackpoint>
            <Time>2018-05-22T10:36:06.000Z</Time>
            <Position>
              <LatitudeDegrees>29.0440446697175502777099609375</LatitudeDegrees>
              <LongitudeDegrees>-13.5092224739491939544677734375</LongitudeDegrees>
            </Position>
            <AltitudeMeters>154.1999969482421875</AltitudeMeters>
            <DistanceMeters>16650.708196021</DistanceMeters>
          </Trackpoint>
          <Trackpoint>
            <Time>2018-05-22T10:36:10.000Z</Time>
            <Position>
              <LatitudeDegrees>29.0440835617482662200927734375</LatitudeDegrees>
              <LongitudeDegrees>-13.50927829742431640625</LongitudeDegrees>
            </Position>
            <AltitudeMeters>154.8000030517578125</AltitudeMeters>
            <DistanceMeters>16657.654252344</DistanceMeters>
          </Trackpoint>
          <Trackpoint>
            <Time>2018-05-22T10:36:12.000Z</Time>
            <Position>
              <LatitudeDegrees>29.04409051872789859771728515625</LatitudeDegrees>
              <LongitudeDegrees>-13.50930671207606792449951171875</LongitudeDegrees>
            </Position>
            <AltitudeMeters>154.8000030517578125</AltitudeMeters>
            <DistanceMeters>16660.528712284</DistanceMeters>
          </Trackpoint>
          <Trackpoint>
            <Time>2018-05-22T10:36:20.000Z</Time>
            <Position>
              <LatitudeDegrees>29.044050872325897216796875</LatitudeDegrees>
              <LongitudeDegrees>-13.50936588831245899200439453125</LongitudeDegrees>
            </Position>
            <AltitudeMeters>155</AltitudeMeters>
            <DistanceMeters>16667.783178874</DistanceMeters>
          </Trackpoint>
          <Trackpoint>
            <Time>2018-05-22T10:36:22.000Z</Time>
            <Position>
              <LatitudeDegrees>29.04403754509985446929931640625</LatitudeDegrees>
              <LongitudeDegrees>-13.5094135813415050506591796875</LongitudeDegrees>
            </Position>
            <AltitudeMeters>155.399993896484375</AltitudeMeters>
            <DistanceMeters>16672.655557243</DistanceMeters>
          </Trackpoint>
          <Trackpoint>
            <Time>2018-05-22T10:36:30.000Z</Time>
            <Position>
              <LatitudeDegrees>29.043963365256786346435546875</LatitudeDegrees>
              <LongitudeDegrees>-13.50963444449007511138916015625</LongitudeDegrees>
            </Position>
            <AltitudeMeters>154</AltitudeMeters>
            <DistanceMeters>16695.67792391</DistanceMeters>
          </Trackpoint>
          <Trackpoint>
            <Time>2018-05-22T10:36:44.000Z</Time>
            <Position>
              <LatitudeDegrees>29.0441512875258922576904296875</LatitudeDegrees>
              <LongitudeDegrees>-13.5100046731531620025634765625</LongitudeDegrees>
            </Position>
            <AltitudeMeters>155</AltitudeMeters>
            <DistanceMeters>16737.334865231</DistanceMeters>
          </Trackpoint>
          <Trackpoint>
            <Time>2018-05-22T10:37:05.000Z</Time>
            <Position>
              <LatitudeDegrees>29.04442277736961841583251953125</LatitudeDegrees>
              <LongitudeDegrees>-13.5104906558990478515625</LongitudeDegrees>
            </Position>
            <AltitudeMeters>156</AltitudeMeters>
            <DistanceMeters>16793.453430254</DistanceMeters>
          </Trackpoint>
          <Trackpoint>
            <Time>2018-05-22T10:37:11.000Z</Time>
            <Position>
              <LatitudeDegrees>29.0444885753095149993896484375</LatitudeDegrees>
              <LongitudeDegrees>-13.51060087792575359344482421875</LongitudeDegrees>
            </Position>
            <AltitudeMeters>157</AltitudeMeters>
            <DistanceMeters>16806.440491809</DistanceMeters>
          </Trackpoint>
          <Trackpoint>
            <Time>2018-05-22T10:37:19.000Z</Time>
            <Position>
              <LatitudeDegrees>29.04456694610416889190673828125</LatitudeDegrees>
              <LongitudeDegrees>-13.51073272526264190673828125</LongitudeDegrees>
            </Position>
            <AltitudeMeters>157.8000030517578125</AltitudeMeters>
            <DistanceMeters>16821.954021304</DistanceMeters>
          </Trackpoint>
          <Trackpoint>
            <Time>2018-05-22T10:37:21.000Z</Time>
            <Position>
              <LatitudeDegrees>29.04459225945174694061279296875</LatitudeDegrees>
              <LongitudeDegrees>-13.51076767779886722564697265625</LongitudeDegrees>
            </Position>
            <AltitudeMeters>158.1999969482421875</AltitudeMeters>
            <DistanceMeters>16826.37046389</DistanceMeters>
          </Trackpoint>
          <Trackpoint>
            <Time>2018-05-22T10:37:28.000Z</Time>
            <Position>
              <LatitudeDegrees>29.0446763299405574798583984375</LatitudeDegrees>
              <LongitudeDegrees>-13.5108851082623004913330078125</LongitudeDegrees>
            </Position>
            <AltitudeMeters>158.600006103515625</AltitudeMeters>
            <DistanceMeters>16841.139706476</DistanceMeters>
          </Trackpoint>
          <Trackpoint>
            <Time>2018-05-22T10:37:36.000Z</Time>
            <Position>
              <LatitudeDegrees>29.0447608195245265960693359375</LatitudeDegrees>
              <LongitudeDegrees>-13.511022068560123443603515625</LongitudeDegrees>
            </Position>
            <AltitudeMeters>159.1999969482421875</AltitudeMeters>
            <DistanceMeters>16857.450565197</DistanceMeters>
          </Trackpoint>
          <Trackpoint>
            <Time>2018-05-22T10:37:46.000Z</Time>
            <Position>
              <LatitudeDegrees>29.04485494829714298248291015625</LatitudeDegrees>
              <LongitudeDegrees>-13.51120957173407077789306640625</LongitudeDegrees>
            </Position>
            <AltitudeMeters>160.399993896484375</AltitudeMeters>
            <DistanceMeters>16878.489917546</DistanceMeters>
          </Trackpoint>
          <Trackpoint>
            <Time>2018-05-22T10:37:53.000Z</Time>
            <Position>
              <LatitudeDegrees>29.0449257753789424896240234375</LatitudeDegrees>
              <LongitudeDegrees>-13.51132809184491634368896484375</LongitudeDegrees>
            </Position>
            <AltitudeMeters>161.399993896484375</AltitudeMeters>
            <DistanceMeters>16892.459490984</DistanceMeters>
          </Trackpoint>
          <Trackpoint>
            <Time>2018-05-22T10:38:01.000Z</Time>
            <Position>
              <LatitudeDegrees>29.04501772485673427581787109375</LatitudeDegrees>
              <LongitudeDegrees>-13.51146203465759754180908203125</LongitudeDegrees>
            </Position>
            <AltitudeMeters>162.1999969482421875</AltitudeMeters>
            <DistanceMeters>16909.030689633</DistanceMeters>
          </Trackpoint>
          <Trackpoint>
            <Time>2018-05-22T10:38:04.000Z</Time>
            <Position>
              <LatitudeDegrees>29.045055024325847625732421875</LatitudeDegrees>
              <LongitudeDegrees>-13.51151953451335430145263671875</LongitudeDegrees>
            </Position>
            <AltitudeMeters>162.399993896484375</AltitudeMeters>
            <DistanceMeters>16915.998163419</DistanceMeters>
          </Trackpoint>
          <Trackpoint>
            <Time>2018-05-22T10:38:11.000Z</Time>
            <Position>
              <LatitudeDegrees>29.0451380051672458648681640625</LatitudeDegrees>
              <LongitudeDegrees>-13.51163486950099468231201171875</LongitudeDegrees>
            </Position>
            <AltitudeMeters>163.399993896484375</AltitudeMeters>
            <DistanceMeters>16930.53290244</DistanceMeters>
          </Trackpoint>
          <Trackpoint>
            <Time>2018-05-22T10:38:28.000Z</Time>
            <Position>
              <LatitudeDegrees>29.0453032962977886199951171875</LatitudeDegrees>
              <LongitudeDegrees>-13.51192622445523738861083984375</LongitudeDegrees>
            </Position>
            <AltitudeMeters>164.600006103515625</AltitudeMeters>
            <DistanceMeters>16964.329163759</DistanceMeters>
          </Trackpoint>
          <Trackpoint>
            <Time>2018-05-22T10:38:38.000Z</Time>
            <Position>
              <LatitudeDegrees>29.0453820861876010894775390625</LatitudeDegrees>
              <LongitudeDegrees>-13.5121179185807704925537109375</LongitudeDegrees>
            </Position>
            <AltitudeMeters>165.8000030517578125</AltitudeMeters>
            <DistanceMeters>16984.940543538</DistanceMeters>
          </Trackpoint>
          <Trackpoint>
            <Time>2018-05-22T10:38:46.000Z</Time>
            <Position>
              <LatitudeDegrees>29.0454457886517047882080078125</LatitudeDegrees>
              <LongitudeDegrees>-13.51225730963051319122314453125</LongitudeDegrees>
            </Position>
            <AltitudeMeters>166.8000030517578125</AltitudeMeters>
            <DistanceMeters>17000.244860668</DistanceMeters>
          </Trackpoint>
          <Trackpoint>
            <Time>2018-05-22T10:38:53.000Z</Time>
            <Position>
              <LatitudeDegrees>29.045507647097110748291015625</LatitudeDegrees>
              <LongitudeDegrees>-13.51237247698009014129638671875</LongitudeDegrees>
            </Position>
            <AltitudeMeters>167.399993896484375</AltitudeMeters>
            <DistanceMeters>17013.397052286</DistanceMeters>
          </Trackpoint>
          <Trackpoint>
            <Time>2018-05-22T10:38:57.000Z</Time>
            <Position>
              <LatitudeDegrees>29.0455349721014499664306640625</LatitudeDegrees>
              <LongitudeDegrees>-13.5124444775283336639404296875</LongitudeDegrees>
            </Position>
            <AltitudeMeters>167.8000030517578125</AltitudeMeters>
            <DistanceMeters>17021.034741323</DistanceMeters>
          </Trackpoint>
          <Trackpoint>
            <Time>2018-05-22T10:39:04.000Z</Time>
            <Position>
              <LatitudeDegrees>29.045590125024318695068359375</LatitudeDegrees>
              <LongitudeDegrees>-13.51258076727390289306640625</LongitudeDegrees>
            </Position>
            <AltitudeMeters>168.600006103515625</AltitudeMeters>
            <DistanceMeters>17035.64816932</DistanceMeters>
          </Trackpoint>
          <Trackpoint>
            <Time>2018-05-22T10:39:09.000Z</Time>
            <Position>
              <LatitudeDegrees>29.0456114150583744049072265625</LatitudeDegrees>
              <LongitudeDegrees>-13.512690067291259765625</LongitudeDegrees>
            </Position>
            <AltitudeMeters>168.600006103515625</AltitudeMeters>
            <DistanceMeters>17046.544381739</DistanceMeters>
          </Trackpoint>
          <Trackpoint>
            <Time>2018-05-22T10:39:27.000Z</Time>
            <Position>
              <LatitudeDegrees>29.045665897428989410400390625</LatitudeDegrees>
              <LongitudeDegrees>-13.51310119964182376861572265625</LongitudeDegrees>
            </Position>
            <AltitudeMeters>169</AltitudeMeters>
            <DistanceMeters>17087.006127367</DistanceMeters>
          </Trackpoint>
          <Trackpoint>
            <Time>2018-05-22T10:39:31.000Z</Time>
            <Position>
              <LatitudeDegrees>29.04569850303232669830322265625</LatitudeDegrees>
              <LongitudeDegrees>-13.51318116299808025360107421875</LongitudeDegrees>
            </Position>
            <AltitudeMeters>169</AltitudeMeters>
            <DistanceMeters>17095.591200689</DistanceMeters>
          </Trackpoint>
          <Trackpoint>
            <Time>2018-05-22T10:39:34.000Z</Time>
            <Position>
              <LatitudeDegrees>29.04572582803666591644287109375</LatitudeDegrees>
              <LongitudeDegrees>-13.51324067451059818267822265625</LongitudeDegrees>
            </Position>
            <AltitudeMeters>169</AltitudeMeters>
            <DistanceMeters>17102.132187021</DistanceMeters>
          </Trackpoint>
          <Trackpoint>
            <Time>2018-05-22T10:39:48.000Z</Time>
            <Position>
              <LatitudeDegrees>29.045859016478061676025390625</LatitudeDegrees>
              <LongitudeDegrees>-13.51349246688187122344970703125</LongitudeDegrees>
            </Position>
            <AltitudeMeters>169.399993896484375</AltitudeMeters>
            <DistanceMeters>17130.768200044</DistanceMeters>
          </Trackpoint>
          <Trackpoint>
            <Time>2018-05-22T10:40:01.000Z</Time>
            <Position>
              <LatitudeDegrees>29.04597007669508457183837890625</LatitudeDegrees>
              <LongitudeDegrees>-13.5137527249753475189208984375</LongitudeDegrees>
            </Position>
            <AltitudeMeters>169.8000030517578125</AltitudeMeters>
            <DistanceMeters>17158.94806737</DistanceMeters>
          </Trackpoint>
          <Trackpoint>
            <Time>2018-05-22T10:40:02.000Z</Time>
            <Position>
              <LatitudeDegrees>29.045977704226970672607421875</LatitudeDegrees>
              <LongitudeDegrees>-13.5137728415429592132568359375</LongitudeDegrees>
            </Position>
            <AltitudeMeters>170.1999969482421875</AltitudeMeters>
            <DistanceMeters>17161.081411816</DistanceMeters>
          </Trackpoint>
          <Trackpoint>
            <Time>2018-05-22T10:40:05.000Z</Time>
            <Position>
              <LatitudeDegrees>29.04599924571812152862548828125</LatitudeDegrees>
              <LongitudeDegrees>-13.5138305090367794036865234375</LongitudeDegrees>
            </Position>
            <AltitudeMeters>171.399993896484375</AltitudeMeters>
            <DistanceMeters>17167.183133309</DistanceMeters>
          </Trackpoint>
          <Trackpoint>
            <Time>2018-05-22T10:40:18.000Z</Time>
            <Position>
              <LatitudeDegrees>29.0460875071585178375244140625</LatitudeDegrees>
              <LongitudeDegrees>-13.51408925838768482208251953125</LongitudeDegrees>
            </Position>
            <AltitudeMeters>172.600006103515625</AltitudeMeters>
            <DistanceMeters>17194.209004862</DistanceMeters>
          </Trackpoint>
          <Trackpoint>
            <Time>2018-05-22T10:40:45.000Z</Time>
            <Position>
              <LatitudeDegrees>29.04647567309439182281494140625</LatitudeDegrees>
              <LongitudeDegrees>-13.51441497914493083953857421875</LongitudeDegrees>
            </Position>
            <AltitudeMeters>172.399993896484375</AltitudeMeters>
            <DistanceMeters>17247.791265218</DistanceMeters>
          </Trackpoint>
          <Trackpoint>
            <Time>2018-05-22T10:40:50.000Z</Time>
            <Position>
              <LatitudeDegrees>29.04647299088537693023681640625</LatitudeDegrees>
              <LongitudeDegrees>-13.51451355032622814178466796875</LongitudeDegrees>
            </Position>
            <AltitudeMeters>173.8000030517578125</AltitudeMeters>
            <DistanceMeters>17257.387551978</DistanceMeters>
          </Trackpoint>
          <Trackpoint>
            <Time>2018-05-22T10:41:00.000Z</Time>
            <Position>
              <LatitudeDegrees>29.0465146489441394805908203125</LatitudeDegrees>
              <LongitudeDegrees>-13.5147137939929962158203125</LongitudeDegrees>
            </Position>
            <AltitudeMeters>174.8000030517578125</AltitudeMeters>
            <DistanceMeters>17277.415883306</DistanceMeters>
          </Trackpoint>
          <Trackpoint>
            <Time>2018-05-22T10:41:13.000Z</Time>
            <Position>
              <LatitudeDegrees>29.04665705747902393341064453125</LatitudeDegrees>
              <LongitudeDegrees>-13.5149134509265422821044921875</LongitudeDegrees>
            </Position>
            <AltitudeMeters>175.8000030517578125</AltitudeMeters>
            <DistanceMeters>17302.488893933</DistanceMeters>
          </Trackpoint>
          <Trackpoint>
            <Time>2018-05-22T10:41:22.000Z</Time>
            <Position>
              <LatitudeDegrees>29.0467409603297710418701171875</LatitudeDegrees>
              <LongitudeDegrees>-13.51504974067211151123046875</LongitudeDegrees>
            </Position>
            <AltitudeMeters>176.8000030517578125</AltitudeMeters>
            <DistanceMeters>17318.708425894</DistanceMeters>
          </Trackpoint>
          <Trackpoint>
            <Time>2018-05-22T10:41:23.000Z</Time>
            <Position>
              <LatitudeDegrees>29.0467505156993865966796875</LatitudeDegrees>
              <LongitudeDegrees>-13.5150639899075031280517578125</LongitudeDegrees>
            </Position>
            <AltitudeMeters>177</AltitudeMeters>
            <DistanceMeters>17320.455470781</DistanceMeters>
          </Trackpoint>
          <Trackpoint>
            <Time>2018-05-22T10:41:29.000Z</Time>
            <Position>
              <LatitudeDegrees>29.0468217618763446807861328125</LatitudeDegrees>
              <LongitudeDegrees>-13.51514051668345928192138671875</LongitudeDegrees>
            </Position>
            <AltitudeMeters>177.8000030517578125</AltitudeMeters>
            <DistanceMeters>17331.333020673</DistanceMeters>
          </Trackpoint>
          <Trackpoint>
            <Time>2018-05-22T10:41:30.000Z</Time>
            <Position>
              <LatitudeDegrees>29.04682821594178676605224609375</LatitudeDegrees>
              <LongitudeDegrees>-13.515156693756580352783203125</LongitudeDegrees>
            </Position>
            <AltitudeMeters>178</AltitudeMeters>
            <DistanceMeters>17333.059266665</DistanceMeters>
          </Trackpoint>
          <Trackpoint>
            <Time>2018-05-22T10:41:42.000Z</Time>
            <Position>
              <LatitudeDegrees>29.0468787588179111480712890625</LatitudeDegrees>
              <LongitudeDegrees>-13.5154472105205059051513671875</LongitudeDegrees>
            </Position>
            <AltitudeMeters>179.399993896484375</AltitudeMeters>
            <DistanceMeters>17361.881512977</DistanceMeters>
          </Trackpoint>
          <Trackpoint>
            <Time>2018-05-22T10:41:52.000Z</Time>
            <Position>
              <LatitudeDegrees>29.04692955315113067626953125</LatitudeDegrees>
              <LongitudeDegrees>-13.5156068019568920135498046875</LongitudeDegrees>
            </Position>
            <AltitudeMeters>180.399993896484375</AltitudeMeters>
            <DistanceMeters>17378.407147667</DistanceMeters>
          </Trackpoint>
          <Trackpoint>
            <Time>2018-05-22T10:41:57.000Z</Time>
            <Position>
              <LatitudeDegrees>29.04696081764996051788330078125</LatitudeDegrees>
              <LongitudeDegrees>-13.515678383409976959228515625</LongitudeDegrees>
            </Position>
            <AltitudeMeters>181.399993896484375</AltitudeMeters>
            <DistanceMeters>17386.192961893</DistanceMeters>
          </Trackpoint>
          <Trackpoint>
            <Time>2018-05-22T10:42:05.000Z</Time>
            <Position>
              <LatitudeDegrees>29.04704011045396327972412109375</LatitudeDegrees>
              <LongitudeDegrees>-13.51578039117157459259033203125</LongitudeDegrees>
            </Position>
            <AltitudeMeters>182.600006103515625</AltitudeMeters>
            <DistanceMeters>17399.474963753</DistanceMeters>
          </Trackpoint>
          <Trackpoint>
            <Time>2018-05-22T10:42:11.000Z</Time>
            <Position>
              <LatitudeDegrees>29.047085456550121307373046875</LatitudeDegrees>
              <LongitudeDegrees>-13.515871502459049224853515625</LongitudeDegrees>
            </Position>
            <AltitudeMeters>183.8000030517578125</AltitudeMeters>
            <DistanceMeters>17409.676071582</DistanceMeters>
          </Trackpoint>
          <Trackpoint>
            <Time>2018-05-22T10:42:19.000Z</Time>
            <Position>
              <LatitudeDegrees>29.04713817872107028961181640625</LatitudeDegrees>
              <LongitudeDegrees>-13.51600318215787410736083984375</LongitudeDegrees>
            </Position>
            <AltitudeMeters>185</AltitudeMeters>
            <DistanceMeters>17423.768568566</DistanceMeters>
          </Trackpoint>
          <Trackpoint>
            <Time>2018-05-22T10:42:29.000Z</Time>
            <Position>
              <LatitudeDegrees>29.0472314693033695220947265625</LatitudeDegrees>
              <LongitudeDegrees>-13.51609957404434680938720703125</LongitudeDegrees>
            </Position>
            <AltitudeMeters>186</AltitudeMeters>
            <DistanceMeters>17437.760748074</DistanceMeters>
          </Trackpoint>
          <Trackpoint>
            <Time>2018-05-22T10:42:33.000Z</Time>
            <Position>
              <LatitudeDegrees>29.04726273380219936370849609375</LatitudeDegrees>
              <LongitudeDegrees>-13.51614567451179027557373046875</LongitudeDegrees>
            </Position>
            <AltitudeMeters>186.600006103515625</AltitudeMeters>
            <DistanceMeters>17443.438544557</DistanceMeters>
          </Trackpoint>
          <Trackpoint>
            <Time>2018-05-22T10:42:38.000Z</Time>
            <Position>
              <LatitudeDegrees>29.047318808734416961669921875</LatitudeDegrees>
              <LongitudeDegrees>-13.5161952115595340728759765625</LongitudeDegrees>
            </Position>
            <AltitudeMeters>187.399993896484375</AltitudeMeters>
            <DistanceMeters>17451.323471717</DistanceMeters>
          </Trackpoint>
          <Trackpoint>
            <Time>2018-05-22T10:42:40.000Z</Time>
            <Position>
              <LatitudeDegrees>29.04733766801655292510986328125</LatitudeDegrees>
              <LongitudeDegrees>-13.5162216983735561370849609375</LongitudeDegrees>
            </Position>
            <AltitudeMeters>188.8000030517578125</AltitudeMeters>
            <DistanceMeters>17454.646690562</DistanceMeters>
          </Trackpoint>
          <Trackpoint>
            <Time>2018-05-22T10:42:50.000Z</Time>
            <Position>
              <LatitudeDegrees>29.0474088303744792938232421875</LatitudeDegrees>
              <LongitudeDegrees>-13.51637869141995906829833984375</LongitudeDegrees>
            </Position>
            <AltitudeMeters>188</AltitudeMeters>
            <DistanceMeters>17471.853874425</DistanceMeters>
          </Trackpoint>
          <Trackpoint>
            <Time>2018-05-22T10:42:57.000Z</Time>
            <Position>
              <LatitudeDegrees>29.0475104190409183502197265625</LatitudeDegrees>
              <LongitudeDegrees>-13.51646452210843563079833984375</LongitudeDegrees>
            </Position>
            <AltitudeMeters>188.600006103515625</AltitudeMeters>
            <DistanceMeters>17485.910763582</DistanceMeters>
          </Trackpoint>
          <Trackpoint>
            <Time>2018-05-22T10:43:07.000Z</Time>
            <Position>
              <LatitudeDegrees>29.04759968630969524383544921875</LatitudeDegrees>
              <LongitudeDegrees>-13.51660734973847866058349609375</LongitudeDegrees>
            </Position>
            <AltitudeMeters>189.399993896484375</AltitudeMeters>
            <DistanceMeters>17502.994442069</DistanceMeters>
          </Trackpoint>
          <Trackpoint>
            <Time>2018-05-22T10:43:10.000Z</Time>
            <Position>
              <LatitudeDegrees>29.04763572849333286285400390625</LatitudeDegrees>
              <LongitudeDegrees>-13.51663760840892791748046875</LongitudeDegrees>
            </Position>
            <AltitudeMeters>189.8000030517578125</AltitudeMeters>
            <DistanceMeters>17507.970431379</DistanceMeters>
          </Trackpoint>
          <Trackpoint>
            <Time>2018-05-22T10:43:14.000Z</Time>
            <Position>
              <LatitudeDegrees>29.04767948202788829803466796875</LatitudeDegrees>
              <LongitudeDegrees>-13.51668161340057849884033203125</LongitudeDegrees>
            </Position>
            <AltitudeMeters>190.8000030517578125</AltitudeMeters>
            <DistanceMeters>17514.455264916</DistanceMeters>
          </Trackpoint>
          <Trackpoint>
            <Time>2018-05-22T10:43:27.000Z</Time>
            <Position>
              <LatitudeDegrees>29.04784125275909900665283203125</LatitudeDegrees>
              <LongitudeDegrees>-13.5168225131928920745849609375</LongitudeDegrees>
            </Position>
            <AltitudeMeters>192</AltitudeMeters>
            <DistanceMeters>17537.08599216</DistanceMeters>
          </Trackpoint>
          <Trackpoint>
            <Time>2018-05-22T10:43:35.000Z</Time>
            <Position>
              <LatitudeDegrees>29.0479362197220325469970703125</LatitudeDegrees>
              <LongitudeDegrees>-13.51691362448036670684814453125</LongitudeDegrees>
            </Position>
            <AltitudeMeters>192.8000030517578125</AltitudeMeters>
            <DistanceMeters>17550.881567216</DistanceMeters>
          </Trackpoint>
          <Trackpoint>
            <Time>2018-05-22T10:43:36.000Z</Time>
            <Position>
              <LatitudeDegrees>29.047935716807842254638671875</LatitudeDegrees>
              <LongitudeDegrees>-13.51691412739455699920654296875</LongitudeDegrees>
            </Position>
            <AltitudeMeters>193</AltitudeMeters>
            <DistanceMeters>17550.881567216</DistanceMeters>
          </Trackpoint>
          <Trackpoint>
            <Time>2018-05-22T10:43:39.000Z</Time>
            <Position>
              <LatitudeDegrees>29.0479335375130176544189453125</LatitudeDegrees>
              <LongitudeDegrees>-13.5169158875942230224609375</LongitudeDegrees>
            </Position>
            <AltitudeMeters>194.1999969482421875</AltitudeMeters>
            <DistanceMeters>17551.166647359</DistanceMeters>
          </Trackpoint>
          <Trackpoint>
            <Time>2018-05-22T10:44:04.000Z</Time>
            <Position>
              <LatitudeDegrees>29.04797921888530254364013671875</LatitudeDegrees>
              <LongitudeDegrees>-13.5169992037117481231689453125</LongitudeDegrees>
            </Position>
            <AltitudeMeters>194.399993896484375</AltitudeMeters>
            <DistanceMeters>17560.736078127</DistanceMeters>
          </Trackpoint>
          <Trackpoint>
            <Time>2018-05-22T10:44:14.000Z</Time>
            <Position>
              <LatitudeDegrees>29.04802464880049228668212890625</LatitudeDegrees>
              <LongitudeDegrees>-13.517048321664333343505859375</LongitudeDegrees>
            </Position>
            <AltitudeMeters>195</AltitudeMeters>
            <DistanceMeters>17567.694473767</DistanceMeters>
          </Trackpoint>
          <Trackpoint>
            <Time>2018-05-22T10:44:15.000Z</Time>
            <Position>
              <LatitudeDegrees>29.048031605780124664306640625</LatitudeDegrees>
              <LongitudeDegrees>-13.5170572064816951751708984375</LongitudeDegrees>
            </Position>
            <AltitudeMeters>195.1999969482421875</AltitudeMeters>
            <DistanceMeters>17568.854422641</DistanceMeters>
          </Trackpoint>
          <Trackpoint>
            <Time>2018-05-22T10:44:29.000Z</Time>
            <Position>
              <LatitudeDegrees>29.04809002764523029327392578125</LatitudeDegrees>
              <LongitudeDegrees>-13.51711696945130825042724609375</LongitudeDegrees>
            </Position>
            <AltitudeMeters>196.1999969482421875</AltitudeMeters>
            <DistanceMeters>17577.577750802</DistanceMeters>
          </Trackpoint>
          <Trackpoint>
            <Time>2018-05-22T10:44:36.000Z</Time>
            <Position>
              <LatitudeDegrees>29.04809254221618175506591796875</LatitudeDegrees>
              <LongitudeDegrees>-13.51711571216583251953125</LongitudeDegrees>
            </Position>
            <AltitudeMeters>196.600006103515625</AltitudeMeters>
            <DistanceMeters>17577.878251658</DistanceMeters>
          </Trackpoint>
          <Trackpoint>
            <Time>2018-05-22T10:44:48.000Z</Time>
            <Position>
              <LatitudeDegrees>29.04812724329531192779541015625</LatitudeDegrees>
              <LongitudeDegrees>-13.51713918149471282958984375</LongitudeDegrees>
            </Position>
            <AltitudeMeters>196.600006103515625</AltitudeMeters>
            <DistanceMeters>17582.365686389</DistanceMeters>
          </Trackpoint>
          <Trackpoint>
            <Time>2018-05-22T10:44:50.000Z</Time>
            <Position>
              <LatitudeDegrees>29.0481420792639255523681640625</LatitudeDegrees>
              <LongitudeDegrees>-13.5171463899314403533935546875</LongitudeDegrees>
            </Position>
            <AltitudeMeters>196.8000030517578125</AltitudeMeters>
            <DistanceMeters>17584.15864685</DistanceMeters>
          </Trackpoint>
          <Trackpoint>
            <Time>2018-05-22T10:44:53.000Z</Time>
            <Position>
              <LatitudeDegrees>29.04816546477377414703369140625</LatitudeDegrees>
              <LongitudeDegrees>-13.51714110933244228363037109375</LongitudeDegrees>
            </Position>
            <AltitudeMeters>196.8000030517578125</AltitudeMeters>
            <DistanceMeters>17586.810896753</DistanceMeters>
          </Trackpoint>
          <Trackpoint>
            <Time>2018-05-22T10:45:00.000Z</Time>
            <Position>
              <LatitudeDegrees>29.04820762574672698974609375</LatitudeDegrees>
              <LongitudeDegrees>-13.5170816816389560699462890625</LongitudeDegrees>
            </Position>
            <AltitudeMeters>197.1999969482421875</AltitudeMeters>
            <DistanceMeters>17594.257620828</DistanceMeters>
          </Trackpoint>
          <Trackpoint>
            <Time>2018-05-22T10:45:07.000Z</Time>
            <Position>
              <LatitudeDegrees>29.04826956801116466522216796875</LatitudeDegrees>
              <LongitudeDegrees>-13.5170917399227619171142578125</LongitudeDegrees>
            </Position>
            <AltitudeMeters>196.600006103515625</AltitudeMeters>
            <DistanceMeters>17601.22120543</DistanceMeters>
          </Trackpoint>
          <Trackpoint>
            <Time>2018-05-22T10:45:13.000Z</Time>
            <Position>
              <LatitudeDegrees>29.04829974286258220672607421875</LatitudeDegrees>
              <LongitudeDegrees>-13.517126105725765228271484375</LongitudeDegrees>
            </Position>
            <AltitudeMeters>197.1999969482421875</AltitudeMeters>
            <DistanceMeters>17605.961124226</DistanceMeters>
          </Trackpoint>
          <Trackpoint>
            <Time>2018-05-22T10:45:20.000Z</Time>
            <Position>
              <LatitudeDegrees>29.0483432449400424957275390625</LatitudeDegrees>
              <LongitudeDegrees>-13.5171742178499698638916015625</LongitudeDegrees>
            </Position>
            <AltitudeMeters>197.8000030517578125</AltitudeMeters>
            <DistanceMeters>17612.695964534</DistanceMeters>
          </Trackpoint>
          <Trackpoint>
            <Time>2018-05-22T10:45:22.000Z</Time>
            <Position>
              <LatitudeDegrees>29.0483469329774379730224609375</LatitudeDegrees>
              <LongitudeDegrees>-13.5171789117157459259033203125</LongitudeDegrees>
            </Position>
            <AltitudeMeters>197.8000030517578125</AltitudeMeters>
            <DistanceMeters>17613.311808029</DistanceMeters>
          </Trackpoint>
          <Trackpoint>
            <Time>2018-05-22T10:45:25.000Z</Time>
            <Position>
              <LatitudeDegrees>29.04836528934538364410400390625</LatitudeDegrees>
              <LongitudeDegrees>-13.5171921551227569580078125</LongitudeDegrees>
            </Position>
            <AltitudeMeters>198.399993896484375</AltitudeMeters>
            <DistanceMeters>17615.727057371</DistanceMeters>
          </Trackpoint>
          <Trackpoint>
            <Time>2018-05-22T10:45:27.000Z</Time>
            <Position>
              <LatitudeDegrees>29.0483801253139972686767578125</LatitudeDegrees>
              <LongitudeDegrees>-13.5172069072723388671875</LongitudeDegrees>
            </Position>
            <AltitudeMeters>198.600006103515625</AltitudeMeters>
            <DistanceMeters>17617.914736624</DistanceMeters>
          </Trackpoint>
          <Trackpoint>
            <Time>2018-05-22T10:45:37.000Z</Time>
            <Position>
              <LatitudeDegrees>29.04850007034838199615478515625</LatitudeDegrees>
              <LongitudeDegrees>-13.51728812791407108306884765625</LongitudeDegrees>
            </Position>
            <AltitudeMeters>199</AltitudeMeters>
            <DistanceMeters>17633.428266119</DistanceMeters>
          </Trackpoint>
          <Trackpoint>
            <Time>2018-05-22T10:45:41.000Z</Time>
            <Position>
              <LatitudeDegrees>29.04855321161448955535888671875</LatitudeDegrees>
              <LongitudeDegrees>-13.51732701994478702545166015625</LongitudeDegrees>
            </Position>
            <AltitudeMeters>199.399993896484375</AltitudeMeters>
            <DistanceMeters>17640.449962309</DistanceMeters>
          </Trackpoint>
          <Trackpoint>
            <Time>2018-05-22T10:45:49.000Z</Time>
            <Position>
              <LatitudeDegrees>29.04864055104553699493408203125</LatitudeDegrees>
              <LongitudeDegrees>-13.51739533245563507080078125</LongitudeDegrees>
            </Position>
            <AltitudeMeters>200.399993896484375</AltitudeMeters>
            <DistanceMeters>17652.226375771</DistanceMeters>
          </Trackpoint>
          <Trackpoint>
            <Time>2018-05-22T10:45:58.000Z</Time>
            <Position>
              <LatitudeDegrees>29.048777930438518524169921875</LatitudeDegrees>
              <LongitudeDegrees>-13.51741276681423187255859375</LongitudeDegrees>
            </Position>
            <AltitudeMeters>200.8000030517578125</AltitudeMeters>
            <DistanceMeters>17667.611021807</DistanceMeters>
          </Trackpoint>
          <Trackpoint>
            <Time>2018-05-22T10:46:03.000Z</Time>
            <Position>
              <LatitudeDegrees>29.04885294847190380096435546875</LatitudeDegrees>
              <LongitudeDegrees>-13.51743648760020732879638671875</LongitudeDegrees>
            </Position>
            <AltitudeMeters>201.600006103515625</AltitudeMeters>
            <DistanceMeters>17676.274102398</DistanceMeters>
          </Trackpoint>
          <Trackpoint>
            <Time>2018-05-22T10:46:23.000Z</Time>
            <Position>
              <LatitudeDegrees>29.04925167560577392578125</LatitudeDegrees>
              <LongitudeDegrees>-13.51743984036147594451904296875</LongitudeDegrees>
            </Position>
            <AltitudeMeters>201.399993896484375</AltitudeMeters>
            <DistanceMeters>17720.654426684</DistanceMeters>
          </Trackpoint>
          <Trackpoint>
            <Time>2018-05-22T10:46:36.000Z</Time>
            <Position>
              <LatitudeDegrees>29.0494345687329769134521484375</LatitudeDegrees>
              <LongitudeDegrees>-13.51755886338651180267333984375</LongitudeDegrees>
            </Position>
            <AltitudeMeters>202.600006103515625</AltitudeMeters>
            <DistanceMeters>17744.074608224</DistanceMeters>
          </Trackpoint>
          <Trackpoint>
            <Time>2018-05-22T10:46:44.000Z</Time>
            <Position>
              <LatitudeDegrees>29.04944186098873615264892578125</LatitudeDegrees>
              <LongitudeDegrees>-13.51773169822990894317626953125</LongitudeDegrees>
            </Position>
            <AltitudeMeters>203.8000030517578125</AltitudeMeters>
            <DistanceMeters>17760.910971539</DistanceMeters>
          </Trackpoint>
          <Trackpoint>
            <Time>2018-05-22T10:46:49.000Z</Time>
            <Position>
              <LatitudeDegrees>29.04945929534733295440673828125</LatitudeDegrees>
              <LongitudeDegrees>-13.5178383998572826385498046875</LongitudeDegrees>
            </Position>
            <AltitudeMeters>205</AltitudeMeters>
            <DistanceMeters>17771.472625496</DistanceMeters>
          </Trackpoint>
          <Trackpoint>
            <Time>2018-05-22T10:46:52.000Z</Time>
            <Position>
              <LatitudeDegrees>29.04946734197437763214111328125</LatitudeDegrees>
              <LongitudeDegrees>-13.51789690554141998291015625</LongitudeDegrees>
            </Position>
            <AltitudeMeters>206.399993896484375</AltitudeMeters>
            <DistanceMeters>17777.235664725</DistanceMeters>
          </Trackpoint>
          <Trackpoint>
            <Time>2018-05-22T10:47:02.000Z</Time>
            <Position>
              <LatitudeDegrees>29.04951612465083599090576171875</LatitudeDegrees>
              <LongitudeDegrees>-13.518105447292327880859375</LongitudeDegrees>
            </Position>
            <AltitudeMeters>207.399993896484375</AltitudeMeters>
            <DistanceMeters>17798.240653063</DistanceMeters>
          </Trackpoint>
          <Trackpoint>
            <Time>2018-05-22T10:47:08.000Z</Time>
            <Position>
              <LatitudeDegrees>29.0495411865413188934326171875</LatitudeDegrees>
              <LongitudeDegrees>-13.5182253085076808929443359375</LongitudeDegrees>
            </Position>
            <AltitudeMeters>208.399993896484375</AltitudeMeters>
            <DistanceMeters>17810.232105739</DistanceMeters>
          </Trackpoint>
          <Trackpoint>
            <Time>2018-05-22T10:47:14.000Z</Time>
            <Position>
              <LatitudeDegrees>29.04957965947687625885009765625</LatitudeDegrees>
              <LongitudeDegrees>-13.518348522484302520751953125</LongitudeDegrees>
            </Position>
            <AltitudeMeters>209.600006103515625</AltitudeMeters>
            <DistanceMeters>17822.96284853</DistanceMeters>
          </Trackpoint>
          <Trackpoint>
            <Time>2018-05-22T10:47:20.000Z</Time>
            <Position>
              <LatitudeDegrees>29.0496115945279598236083984375</LatitudeDegrees>
              <LongitudeDegrees>-13.51846444420516490936279296875</LongitudeDegrees>
            </Position>
            <AltitudeMeters>210.600006103515625</AltitudeMeters>
            <DistanceMeters>17834.788616746</DistanceMeters>
          </Trackpoint>
          <Trackpoint>
            <Time>2018-05-22T10:47:34.000Z</Time>
            <Position>
              <LatitudeDegrees>29.049807228147983551025390625</LatitudeDegrees>
              <LongitudeDegrees>-13.518663346767425537109375</LongitudeDegrees>
            </Position>
            <AltitudeMeters>211.600006103515625</AltitudeMeters>
            <DistanceMeters>17863.920466058</DistanceMeters>
          </Trackpoint>
          <Trackpoint>
            <Time>2018-05-22T10:47:40.000Z</Time>
            <Position>
              <LatitudeDegrees>29.0498087368905544281005859375</LatitudeDegrees>
              <LongitudeDegrees>-13.5187855549156665802001953125</LongitudeDegrees>
            </Position>
            <AltitudeMeters>212.8000030517578125</AltitudeMeters>
            <DistanceMeters>17875.812481329</DistanceMeters>
          </Trackpoint>
          <Trackpoint>
            <Time>2018-05-22T10:47:47.000Z</Time>
            <Position>
              <LatitudeDegrees>29.04976875521242618560791015625</LatitudeDegrees>
              <LongitudeDegrees>-13.51893265731632709503173828125</LongitudeDegrees>
            </Position>
            <AltitudeMeters>213.8000030517578125</AltitudeMeters>
            <DistanceMeters>17890.80172187</DistanceMeters>
          </Trackpoint>
          <Trackpoint>
            <Time>2018-05-22T10:47:54.000Z</Time>
            <Position>
              <LatitudeDegrees>29.0497135184705257415771484375</LatitudeDegrees>
              <LongitudeDegrees>-13.519068025052547454833984375</LongitudeDegrees>
            </Position>
            <AltitudeMeters>214.8000030517578125</AltitudeMeters>
            <DistanceMeters>17905.337392774</DistanceMeters>
          </Trackpoint>
          <Trackpoint>
            <Time>2018-05-22T10:48:01.000Z</Time>
            <Position>
              <LatitudeDegrees>29.04962559230625629425048828125</LatitudeDegrees>
              <LongitudeDegrees>-13.51917070336639881134033203125</LongitudeDegrees>
            </Position>
            <AltitudeMeters>215</AltitudeMeters>
            <DistanceMeters>17919.322148604</DistanceMeters>
          </Trackpoint>
          <Trackpoint>
            <Time>2018-05-22T10:48:09.000Z</Time>
            <Position>
              <LatitudeDegrees>29.04957228340208530426025390625</LatitudeDegrees>
              <LongitudeDegrees>-13.51927832700312137603759765625</LongitudeDegrees>
            </Position>
            <AltitudeMeters>215.600006103515625</AltitudeMeters>
            <DistanceMeters>17931.358323926</DistanceMeters>
          </Trackpoint>
          <Trackpoint>
            <Time>2018-05-22T10:48:24.000Z</Time>
            <Position>
              <LatitudeDegrees>29.0496017038822174072265625</LatitudeDegrees>
              <LongitudeDegrees>-13.519551493227481842041015625</LongitudeDegrees>
            </Position>
            <AltitudeMeters>216</AltitudeMeters>
            <DistanceMeters>17958.138328989</DistanceMeters>
          </Trackpoint>
          <Trackpoint>
            <Time>2018-05-22T10:48:30.000Z</Time>
            <Position>
              <LatitudeDegrees>29.04965543188154697418212890625</LatitudeDegrees>
              <LongitudeDegrees>-13.5196431912481784820556640625</LongitudeDegrees>
            </Position>
            <AltitudeMeters>217.1999969482421875</AltitudeMeters>
            <DistanceMeters>17968.87887025</DistanceMeters>
          </Trackpoint>
          <Trackpoint>
            <Time>2018-05-22T10:48:36.000Z</Time>
            <Position>
              <LatitudeDegrees>29.04970136471092700958251953125</LatitudeDegrees>
              <LongitudeDegrees>-13.51973312906920909881591796875</LongitudeDegrees>
            </Position>
            <AltitudeMeters>218.1999969482421875</AltitudeMeters>
            <DistanceMeters>17979.014261196</DistanceMeters>
          </Trackpoint>
          <Trackpoint>
            <Time>2018-05-22T10:48:38.000Z</Time>
            <Position>
              <LatitudeDegrees>29.04971594922244548797607421875</LatitudeDegrees>
              <LongitudeDegrees>-13.51976498030126094818115234375</LongitudeDegrees>
            </Position>
            <AltitudeMeters>218.600006103515625</AltitudeMeters>
            <DistanceMeters>17982.512225401</DistanceMeters>
          </Trackpoint>
          <Trackpoint>
            <Time>2018-05-22T10:48:40.000Z</Time>
            <Position>
              <LatitudeDegrees>29.04972651042044162750244140625</LatitudeDegrees>
              <LongitudeDegrees>-13.51979850791394710540771484375</LongitudeDegrees>
            </Position>
            <AltitudeMeters>219</AltitudeMeters>
            <DistanceMeters>17985.977770333</DistanceMeters>
          </Trackpoint>
          <Trackpoint>
            <Time>2018-05-22T10:48:42.000Z</Time>
            <Position>
              <LatitudeDegrees>29.0497393347322940826416015625</LatitudeDegrees>
              <LongitudeDegrees>-13.51983387954533100128173828125</LongitudeDegrees>
            </Position>
            <AltitudeMeters>219.1999969482421875</AltitudeMeters>
            <DistanceMeters>17989.702041727</DistanceMeters>
          </Trackpoint>
          <Trackpoint>
            <Time>2018-05-22T10:48:47.000Z</Time>
            <Position>
              <LatitudeDegrees>29.049779064953327178955078125</LatitudeDegrees>
              <LongitudeDegrees>-13.51991233415901660919189453125</LongitudeDegrees>
            </Position>
            <AltitudeMeters>220.399993896484375</AltitudeMeters>
            <DistanceMeters>17998.52367416</DistanceMeters>
          </Trackpoint>
          <Trackpoint>
            <Time>2018-05-22T10:48:51.000Z</Time>
            <Position>
              <LatitudeDegrees>29.0498030371963977813720703125</LatitudeDegrees>
              <LongitudeDegrees>-13.5199744440615177154541015625</LongitudeDegrees>
            </Position>
            <AltitudeMeters>221.1999969482421875</AltitudeMeters>
            <DistanceMeters>18005.12922708</DistanceMeters>
          </Trackpoint>
          <Trackpoint>
            <Time>2018-05-22T10:48:53.000Z</Time>
            <Position>
              <LatitudeDegrees>29.04981234110891819000244140625</LatitudeDegrees>
              <LongitudeDegrees>-13.5200123302638530731201171875</LongitudeDegrees>
            </Position>
            <AltitudeMeters>221.600006103515625</AltitudeMeters>
            <DistanceMeters>18008.958697559</DistanceMeters>
          </Trackpoint>
          <Trackpoint>
            <Time>2018-05-22T10:48:57.000Z</Time>
            <Position>
              <LatitudeDegrees>29.04982826672494411468505859375</LatitudeDegrees>
              <LongitudeDegrees>-13.5200862586498260498046875</LongitudeDegrees>
            </Position>
            <AltitudeMeters>222.600006103515625</AltitudeMeters>
            <DistanceMeters>18016.366516033</DistanceMeters>
          </Trackpoint>
          <Trackpoint>
            <Time>2018-05-22T10:49:00.000Z</Time>
            <Position>
              <LatitudeDegrees>29.04983480460941791534423828125</LatitudeDegrees>
              <LongitudeDegrees>-13.52013646624982357025146484375</LongitudeDegrees>
            </Position>
            <AltitudeMeters>223.8000030517578125</AltitudeMeters>
            <DistanceMeters>18021.306077405</DistanceMeters>
          </Trackpoint>
          <Trackpoint>
            <Time>2018-05-22T10:49:05.000Z</Time>
            <Position>
              <LatitudeDegrees>29.0498543344438076019287109375</LatitudeDegrees>
              <LongitudeDegrees>-13.52022414095699787139892578125</LongitudeDegrees>
            </Position>
            <AltitudeMeters>225</AltitudeMeters>
            <DistanceMeters>18030.109778111</DistanceMeters>
          </Trackpoint>
          <Trackpoint>
            <Time>2018-05-22T10:49:08.000Z</Time>
            <Position>
              <LatitudeDegrees>29.0498724393546581268310546875</LatitudeDegrees>
              <LongitudeDegrees>-13.52027493529021739959716796875</LongitudeDegrees>
            </Position>
            <AltitudeMeters>226</AltitudeMeters>
            <DistanceMeters>18035.446524414</DistanceMeters>
          </Trackpoint>
          <Trackpoint>
            <Time>2018-05-22T10:49:14.000Z</Time>
            <Position>
              <LatitudeDegrees>29.049916528165340423583984375</LatitudeDegrees>
              <LongitudeDegrees>-13.52036981843411922454833984375</LongitudeDegrees>
            </Position>
            <AltitudeMeters>227</AltitudeMeters>
            <DistanceMeters>18045.902054312</DistanceMeters>
          </Trackpoint>
          <Trackpoint>
            <Time>2018-05-22T10:49:18.000Z</Time>
            <Position>
              <LatitudeDegrees>29.04995508491992950439453125</LatitudeDegrees>
              <LongitudeDegrees>-13.52042488753795623779296875</LongitudeDegrees>
            </Position>
            <AltitudeMeters>228</AltitudeMeters>
            <DistanceMeters>18052.766377941</DistanceMeters>
          </Trackpoint>
          <Trackpoint>
            <Time>2018-05-22T10:49:30.000Z</Time>
            <Position>
              <LatitudeDegrees>29.0501034446060657501220703125</LatitudeDegrees>
              <LongitudeDegrees>-13.52058690972626209259033203125</LongitudeDegrees>
            </Position>
            <AltitudeMeters>229.399993896484375</AltitudeMeters>
            <DistanceMeters>18075.596138171</DistanceMeters>
          </Trackpoint>
          <Trackpoint>
            <Time>2018-05-22T10:49:33.000Z</Time>
            <Position>
              <LatitudeDegrees>29.0501359663903713226318359375</LatitudeDegrees>
              <LongitudeDegrees>-13.520633094012737274169921875</LongitudeDegrees>
            </Position>
            <AltitudeMeters>230.600006103515625</AltitudeMeters>
            <DistanceMeters>18081.365441576</DistanceMeters>
          </Trackpoint>
          <Trackpoint>
            <Time>2018-05-22T10:49:40.000Z</Time>
            <Position>
              <LatitudeDegrees>29.050180725753307342529296875</LatitudeDegrees>
              <LongitudeDegrees>-13.52076645009219646453857421875</LongitudeDegrees>
            </Position>
            <AltitudeMeters>231.600006103515625</AltitudeMeters>
            <DistanceMeters>18095.264377699</DistanceMeters>
          </Trackpoint>
          <Trackpoint>
            <Time>2018-05-22T10:49:58.000Z</Time>
            <Position>
              <LatitudeDegrees>29.04999674297869205474853515625</LatitudeDegrees>
              <LongitudeDegrees>-13.5211559571325778961181640625</LongitudeDegrees>
            </Position>
            <AltitudeMeters>232.600006103515625</AltitudeMeters>
            <DistanceMeters>18138.341675885</DistanceMeters>
          </Trackpoint>
          <Trackpoint>
            <Time>2018-05-22T10:50:06.000Z</Time>
            <Position>
              <LatitudeDegrees>29.049981571733951568603515625</LatitudeDegrees>
              <LongitudeDegrees>-13.5214285366237163543701171875</LongitudeDegrees>
            </Position>
            <AltitudeMeters>233.8000030517578125</AltitudeMeters>
            <DistanceMeters>18164.917234936</DistanceMeters>
          </Trackpoint>
          <Trackpoint>
            <Time>2018-05-22T10:50:16.000Z</Time>
            <Position>
              <LatitudeDegrees>29.0501396544277667999267578125</LatitudeDegrees>
              <LongitudeDegrees>-13.5217001102864742279052734375</LongitudeDegrees>
            </Position>
            <AltitudeMeters>234.8000030517578125</AltitudeMeters>
            <DistanceMeters>18196.663269517</DistanceMeters>
          </Trackpoint>
          <Trackpoint>
            <Time>2018-05-22T10:50:21.000Z</Time>
            <Position>
              <LatitudeDegrees>29.050231687724590301513671875</LatitudeDegrees>
              <LongitudeDegrees>-13.52182089351117610931396484375</LongitudeDegrees>
            </Position>
            <AltitudeMeters>235.600006103515625</AltitudeMeters>
            <DistanceMeters>18212.253154298</DistanceMeters>
          </Trackpoint>
          <Trackpoint>
            <Time>2018-05-22T10:50:23.000Z</Time>
            <Position>
              <LatitudeDegrees>29.05027150176465511322021484375</LatitudeDegrees>
              <LongitudeDegrees>-13.52187059819698333740234375</LongitudeDegrees>
            </Position>
            <AltitudeMeters>235.8000030517578125</AltitudeMeters>
            <DistanceMeters>18218.812063062</DistanceMeters>
          </Trackpoint>
          <Trackpoint>
            <Time>2018-05-22T10:50:24.000Z</Time>
            <Position>
              <LatitudeDegrees>29.05029161833226680755615234375</LatitudeDegrees>
              <LongitudeDegrees>-13.5218945704400539398193359375</LongitudeDegrees>
            </Position>
            <AltitudeMeters>236</AltitudeMeters>
            <DistanceMeters>18222.0443685</DistanceMeters>
          </Trackpoint>
          <Trackpoint>
            <Time>2018-05-22T10:50:25.000Z</Time>
            <Position>
              <LatitudeDegrees>29.05031056143343448638916015625</LatitudeDegrees>
              <LongitudeDegrees>-13.52192013524472713470458984375</LongitudeDegrees>
            </Position>
            <AltitudeMeters>236</AltitudeMeters>
            <DistanceMeters>18225.307259876</DistanceMeters>
          </Trackpoint>
          <Trackpoint>
            <Time>2018-05-22T10:50:26.000Z</Time>
            <Position>
              <LatitudeDegrees>29.0503304265439510345458984375</LatitudeDegrees>
              <LongitudeDegrees>-13.52194578386843204498291015625</LongitudeDegrees>
            </Position>
            <AltitudeMeters>236</AltitudeMeters>
            <DistanceMeters>18228.639975589</DistanceMeters>
          </Trackpoint>
          <Trackpoint>
            <Time>2018-05-22T10:50:27.000Z</Time>
            <Position>
              <LatitudeDegrees>29.0503505431115627288818359375</LatitudeDegrees>
              <LongitudeDegrees>-13.5219706781208515167236328125</LongitudeDegrees>
            </Position>
            <AltitudeMeters>235.8000030517578125</AltitudeMeters>
            <DistanceMeters>18231.93864837</DistanceMeters>
          </Trackpoint>
          <Trackpoint>
            <Time>2018-05-22T10:50:38.000Z</Time>
            <Position>
              <LatitudeDegrees>29.050595127046108245849609375</LatitudeDegrees>
              <LongitudeDegrees>-13.522206880152225494384765625</LongitudeDegrees>
            </Position>
            <AltitudeMeters>234.600006103515625</AltitudeMeters>
            <DistanceMeters>18267.565429658</DistanceMeters>
          </Trackpoint>
          <Trackpoint>
            <Time>2018-05-22T10:50:54.000Z</Time>
            <Position>
              <LatitudeDegrees>29.05084800906479358673095703125</LatitudeDegrees>
              <LongitudeDegrees>-13.52263494394719600677490234375</LongitudeDegrees>
            </Position>
            <AltitudeMeters>235.600006103515625</AltitudeMeters>
            <DistanceMeters>18317.834202289</DistanceMeters>
          </Trackpoint>
          <Trackpoint>
            <Time>2018-05-22T10:50:58.000Z</Time>
            <Position>
              <LatitudeDegrees>29.05089260078966617584228515625</LatitudeDegrees>
              <LongitudeDegrees>-13.5227371193468570709228515625</LongitudeDegrees>
            </Position>
            <AltitudeMeters>235.8000030517578125</AltitudeMeters>
            <DistanceMeters>18328.945828418</DistanceMeters>
          </Trackpoint>
          <Trackpoint>
            <Time>2018-05-22T10:51:05.000Z</Time>
            <Position>
              <LatitudeDegrees>29.0509307384490966796875</LatitudeDegrees>
              <LongitudeDegrees>-13.5229265503585338592529296875</LongitudeDegrees>
            </Position>
            <AltitudeMeters>236.8000030517578125</AltitudeMeters>
            <DistanceMeters>18347.85948693</DistanceMeters>
          </Trackpoint>
          <Trackpoint>
            <Time>2018-05-22T10:51:12.000Z</Time>
            <Position>
              <LatitudeDegrees>29.050981700420379638671875</LatitudeDegrees>
              <LongitudeDegrees>-13.523096702992916107177734375</LongitudeDegrees>
            </Position>
            <AltitudeMeters>237.8000030517578125</AltitudeMeters>
            <DistanceMeters>18365.359889002</DistanceMeters>
          </Trackpoint>
          <Trackpoint>
            <Time>2018-05-22T10:51:15.000Z</Time>
            <Position>
              <LatitudeDegrees>29.051007516682147979736328125</LatitudeDegrees>
              <LongitudeDegrees>-13.5231689549982547760009765625</LongitudeDegrees>
            </Position>
            <AltitudeMeters>239</AltitudeMeters>
            <DistanceMeters>18372.954895804</DistanceMeters>
          </Trackpoint>
          <Trackpoint>
            <Time>2018-05-22T10:51:28.000Z</Time>
            <Position>
              <LatitudeDegrees>29.051151014864444732666015625</LatitudeDegrees>
              <LongitudeDegrees>-13.52344480343163013458251953125</LongitudeDegrees>
            </Position>
            <AltitudeMeters>240</AltitudeMeters>
            <DistanceMeters>18404.187185949</DistanceMeters>
          </Trackpoint>
          <Trackpoint>
            <Time>2018-05-22T10:51:35.000Z</Time>
            <Position>
              <LatitudeDegrees>29.0512566268444061279296875</LatitudeDegrees>
              <LongitudeDegrees>-13.5235803388059139251708984375</LongitudeDegrees>
            </Position>
            <AltitudeMeters>240.8000030517578125</AltitudeMeters>
            <DistanceMeters>18421.853211874</DistanceMeters>
          </Trackpoint>
          <Trackpoint>
            <Time>2018-05-22T10:51:39.000Z</Time>
            <Position>
              <LatitudeDegrees>29.05131454579532146453857421875</LatitudeDegrees>
              <LongitudeDegrees>-13.52365233935415744781494140625</LongitudeDegrees>
            </Position>
            <AltitudeMeters>241.1999969482421875</AltitudeMeters>
            <DistanceMeters>18431.373447022</DistanceMeters>
          </Trackpoint>
          <Trackpoint>
            <Time>2018-05-22T10:51:44.000Z</Time>
            <Position>
              <LatitudeDegrees>29.0513791702687740325927734375</LatitudeDegrees>
              <LongitudeDegrees>-13.52374202571809291839599609375</LongitudeDegrees>
            </Position>
            <AltitudeMeters>242.399993896484375</AltitudeMeters>
            <DistanceMeters>18442.682025297</DistanceMeters>
          </Trackpoint>
          <Trackpoint>
            <Time>2018-05-22T10:51:51.000Z</Time>
            <Position>
              <LatitudeDegrees>29.051467515528202056884765625</LatitudeDegrees>
              <LongitudeDegrees>-13.52387261576950550079345703125</LongitudeDegrees>
            </Position>
            <AltitudeMeters>243.8000030517578125</AltitudeMeters>
            <DistanceMeters>18458.748567091</DistanceMeters>
          </Trackpoint>
          <Trackpoint>
            <Time>2018-05-22T10:52:14.000Z</Time>
            <Position>
              <LatitudeDegrees>29.051825590431690216064453125</LatitudeDegrees>
              <LongitudeDegrees>-13.524344265460968017578125</LongitudeDegrees>
            </Position>
            <AltitudeMeters>244.1999969482421875</AltitudeMeters>
            <DistanceMeters>18519.52949884</DistanceMeters>
          </Trackpoint>
          <Trackpoint>
            <Time>2018-05-22T10:52:15.000Z</Time>
            <Position>
              <LatitudeDegrees>29.051840007305145263671875</LatitudeDegrees>
              <LongitudeDegrees>-13.524368740618228912353515625</LongitudeDegrees>
            </Position>
            <AltitudeMeters>244.1999969482421875</AltitudeMeters>
            <DistanceMeters>18522.402387607</DistanceMeters>
          </Trackpoint>
          <Trackpoint>
            <Time>2018-05-22T10:52:16.000Z</Time>
            <Position>
              <LatitudeDegrees>29.0518569387495517730712890625</LatitudeDegrees>
              <LongitudeDegrees>-13.52439187467098236083984375</LongitudeDegrees>
            </Position>
            <AltitudeMeters>244</AltitudeMeters>
            <DistanceMeters>18525.33900522</DistanceMeters>
          </Trackpoint>
          <Trackpoint>
            <Time>2018-05-22T10:52:20.000Z</Time>
            <Position>
              <LatitudeDegrees>29.0519249998033046722412109375</LatitudeDegrees>
              <LongitudeDegrees>-13.52448399178683757781982421875</LongitudeDegrees>
            </Position>
            <AltitudeMeters>242.8000030517578125</AltitudeMeters>
            <DistanceMeters>18537.074708263</DistanceMeters>
          </Trackpoint>
          <Trackpoint>
            <Time>2018-05-22T10:52:41.000Z</Time>
            <Position>
              <LatitudeDegrees>29.052328504621982574462890625</LatitudeDegrees>
              <LongitudeDegrees>-13.52493644692003726959228515625</LongitudeDegrees>
            </Position>
            <AltitudeMeters>243.600006103515625</AltitudeMeters>
            <DistanceMeters>18599.963585985</DistanceMeters>
          </Trackpoint>
          <Trackpoint>
            <Time>2018-05-22T10:52:47.000Z</Time>
            <Position>
              <LatitudeDegrees>29.05244073830544948577880859375</LatitudeDegrees>
              <LongitudeDegrees>-13.52509235031902790069580078125</LongitudeDegrees>
            </Position>
            <AltitudeMeters>243.399993896484375</AltitudeMeters>
            <DistanceMeters>18619.614366096</DistanceMeters>
          </Trackpoint>
          <Trackpoint>
            <Time>2018-05-22T10:52:53.000Z</Time>
            <Position>
              <LatitudeDegrees>29.05255607329308986663818359375</LatitudeDegrees>
              <LongitudeDegrees>-13.52524842135608196258544921875</LongitudeDegrees>
            </Position>
            <AltitudeMeters>243.399993896484375</AltitudeMeters>
            <DistanceMeters>18639.498578354</DistanceMeters>
          </Trackpoint>
          <Trackpoint>
            <Time>2018-05-22T10:52:56.000Z</Time>
            <Position>
              <LatitudeDegrees>29.052610136568546295166015625</LatitudeDegrees>
              <LongitudeDegrees>-13.5253318212926387786865234375</LongitudeDegrees>
            </Position>
            <AltitudeMeters>243.8000030517578125</AltitudeMeters>
            <DistanceMeters>18649.600950549</DistanceMeters>
          </Trackpoint>
          <Trackpoint>
            <Time>2018-05-22T10:52:57.000Z</Time>
            <Position>
              <LatitudeDegrees>29.0526280738413333892822265625</LatitudeDegrees>
              <LongitudeDegrees>-13.52535973303020000457763671875</LongitudeDegrees>
            </Position>
            <AltitudeMeters>244</AltitudeMeters>
            <DistanceMeters>18652.972725488</DistanceMeters>
          </Trackpoint>
          <Trackpoint>
            <Time>2018-05-22T10:53:15.000Z</Time>
            <Position>
              <LatitudeDegrees>29.052950106561183929443359375</LatitudeDegrees>
              <LongitudeDegrees>-13.5258556902408599853515625</LongitudeDegrees>
            </Position>
            <AltitudeMeters>244</AltitudeMeters>
            <DistanceMeters>18713.083263068</DistanceMeters>
          </Trackpoint>
          <Trackpoint>
            <Time>2018-05-22T10:53:24.000Z</Time>
            <Position>
              <LatitudeDegrees>29.05311732552945613861083984375</LatitudeDegrees>
              <LongitudeDegrees>-13.52610069327056407928466796875</LongitudeDegrees>
            </Position>
            <AltitudeMeters>244.600006103515625</AltitudeMeters>
            <DistanceMeters>18743.326550638</DistanceMeters>
          </Trackpoint>
          <Trackpoint>
            <Time>2018-05-22T10:53:35.000Z</Time>
            <Position>
              <LatitudeDegrees>29.053324274718761444091796875</LatitudeDegrees>
              <LongitudeDegrees>-13.52638207376003265380859375</LongitudeDegrees>
            </Position>
            <AltitudeMeters>245</AltitudeMeters>
            <DistanceMeters>18779.104834227</DistanceMeters>
          </Trackpoint>
          <Trackpoint>
            <Time>2018-05-22T10:53:52.000Z</Time>
            <Position>
              <LatitudeDegrees>29.05358905903995037078857421875</LatitudeDegrees>
              <LongitudeDegrees>-13.52684232406318187713623046875</LongitudeDegrees>
            </Position>
            <AltitudeMeters>246</AltitudeMeters>
            <DistanceMeters>18832.713209958</DistanceMeters>
          </Trackpoint>
          <Trackpoint>
            <Time>2018-05-22T10:54:02.000Z</Time>
            <Position>
              <LatitudeDegrees>29.05374236404895782470703125</LatitudeDegrees>
              <LongitudeDegrees>-13.5271101258695125579833984375</LongitudeDegrees>
            </Position>
            <AltitudeMeters>247.1999969482421875</AltitudeMeters>
            <DistanceMeters>18863.859366258</DistanceMeters>
          </Trackpoint>
          <Trackpoint>
            <Time>2018-05-22T10:54:13.000Z</Time>
            <Position>
              <LatitudeDegrees>29.05392819084227085113525390625</LatitudeDegrees>
              <LongitudeDegrees>-13.52737574838101863861083984375</LongitudeDegrees>
            </Position>
            <AltitudeMeters>247.8000030517578125</AltitudeMeters>
            <DistanceMeters>18896.960732478</DistanceMeters>
          </Trackpoint>
          <Trackpoint>
            <Time>2018-05-22T10:54:18.000Z</Time>
            <Position>
              <LatitudeDegrees>29.05400932766497135162353515625</LatitudeDegrees>
              <LongitudeDegrees>-13.5274906642735004425048828125</LongitudeDegrees>
            </Position>
            <AltitudeMeters>248.399993896484375</AltitudeMeters>
            <DistanceMeters>18911.333346323</DistanceMeters>
          </Trackpoint>
          <Trackpoint>
            <Time>2018-05-22T10:54:21.000Z</Time>
            <Position>
              <LatitudeDegrees>29.0540613792836666107177734375</LatitudeDegrees>
              <LongitudeDegrees>-13.5275557078421115875244140625</LongitudeDegrees>
            </Position>
            <AltitudeMeters>249.8000030517578125</AltitudeMeters>
            <DistanceMeters>18919.91315886</DistanceMeters>
          </Trackpoint>
          <Trackpoint>
            <Time>2018-05-22T10:54:25.000Z</Time>
            <Position>
              <LatitudeDegrees>29.05415098182857036590576171875</LatitudeDegrees>
              <LongitudeDegrees>-13.52763064205646514892578125</LongitudeDegrees>
            </Position>
            <AltitudeMeters>250.399993896484375</AltitudeMeters>
            <DistanceMeters>18932.266631728</DistanceMeters>
          </Trackpoint>
          <Trackpoint>
            <Time>2018-05-22T10:54:27.000Z</Time>
            <Position>
              <LatitudeDegrees>29.05418618582189083099365234375</LatitudeDegrees>
              <LongitudeDegrees>-13.52766794152557849884033203125</LongitudeDegrees>
            </Position>
            <AltitudeMeters>250.8000030517578125</AltitudeMeters>
            <DistanceMeters>18937.608451789</DistanceMeters>
          </Trackpoint>
          <Trackpoint>
            <Time>2018-05-22T10:54:41.000Z</Time>
            <Position>
              <LatitudeDegrees>29.054470248520374298095703125</LatitudeDegrees>
              <LongitudeDegrees>-13.52784647606313228607177734375</LongitudeDegrees>
            </Position>
            <AltitudeMeters>252.1999969482421875</AltitudeMeters>
            <DistanceMeters>18973.682700313</DistanceMeters>
          </Trackpoint>
          <Trackpoint>
            <Time>2018-05-22T10:54:43.000Z</Time>
            <Position>
              <LatitudeDegrees>29.05448994599282741546630859375</LatitudeDegrees>
              <LongitudeDegrees>-13.52788008749485015869140625</LongitudeDegrees>
            </Position>
            <AltitudeMeters>253.399993896484375</AltitudeMeters>
            <DistanceMeters>18977.619146829</DistanceMeters>
          </Trackpoint>
          <Trackpoint>
            <Time>2018-05-22T10:55:04.000Z</Time>
            <Position>
              <LatitudeDegrees>29.054715335369110107421875</LatitudeDegrees>
              <LongitudeDegrees>-13.52832223288714885711669921875</LongitudeDegrees>
            </Position>
            <AltitudeMeters>254.600006103515625</AltitudeMeters>
            <DistanceMeters>19027.418041333</DistanceMeters>
          </Trackpoint>
          <Trackpoint>
            <Time>2018-05-22T10:55:14.000Z</Time>
            <Position>
              <LatitudeDegrees>29.05482865869998931884765625</LatitudeDegrees>
              <LongitudeDegrees>-13.52851451374590396881103515625</LongitudeDegrees>
            </Position>
            <AltitudeMeters>255.8000030517578125</AltitudeMeters>
            <DistanceMeters>19049.980633372</DistanceMeters>
          </Trackpoint>
          <Trackpoint>
            <Time>2018-05-22T10:55:17.000Z</Time>
            <Position>
              <LatitudeDegrees>29.05485707335174083709716796875</LatitudeDegrees>
              <LongitudeDegrees>-13.52857201360166072845458984375</LongitudeDegrees>
            </Position>
            <AltitudeMeters>256.79998779296875</AltitudeMeters>
            <DistanceMeters>19056.406716128</DistanceMeters>
          </Trackpoint>
          <Trackpoint>
            <Time>2018-05-22T10:55:25.000Z</Time>
            <Position>
              <LatitudeDegrees>29.05492731370031833648681640625</LatitudeDegrees>
              <LongitudeDegrees>-13.52872096002101898193359375</LongitudeDegrees>
            </Position>
            <AltitudeMeters>258</AltitudeMeters>
            <DistanceMeters>19072.8729566</DistanceMeters>
          </Trackpoint>
          <Trackpoint>
            <Time>2018-05-22T10:55:29.000Z</Time>
            <Position>
              <LatitudeDegrees>29.05495715327560901641845703125</LatitudeDegrees>
              <LongitudeDegrees>-13.52879899553954601287841796875</LongitudeDegrees>
            </Position>
            <AltitudeMeters>259</AltitudeMeters>
            <DistanceMeters>19081.160462946</DistanceMeters>
          </Trackpoint>
          <Trackpoint>
            <Time>2018-05-22T10:55:36.000Z</Time>
            <Position>
              <LatitudeDegrees>29.05503694899380207061767578125</LatitudeDegrees>
              <LongitudeDegrees>-13.5289175994694232940673828125</LongitudeDegrees>
            </Position>
            <AltitudeMeters>260.20001220703125</AltitudeMeters>
            <DistanceMeters>19095.721582234</DistanceMeters>
          </Trackpoint>
          <Trackpoint>
            <Time>2018-05-22T10:55:47.000Z</Time>
            <Position>
              <LatitudeDegrees>29.0551364421844482421875</LatitudeDegrees>
              <LongitudeDegrees>-13.52910711430013179779052734375</LongitudeDegrees>
            </Position>
            <AltitudeMeters>261.20001220703125</AltitudeMeters>
            <DistanceMeters>19117.229971672</DistanceMeters>
          </Trackpoint>
          <Trackpoint>
            <Time>2018-05-22T10:56:03.000Z</Time>
            <Position>
              <LatitudeDegrees>29.05524305999279022216796875</LatitudeDegrees>
              <LongitudeDegrees>-13.529405258595943450927734375</LongitudeDegrees>
            </Position>
            <AltitudeMeters>262.20001220703125</AltitudeMeters>
            <DistanceMeters>19148.571216948</DistanceMeters>
          </Trackpoint>
          <Trackpoint>
            <Time>2018-05-22T10:56:10.000Z</Time>
            <Position>
              <LatitudeDegrees>29.05528069473803043365478515625</LatitudeDegrees>
              <LongitudeDegrees>-13.52951682172715663909912109375</LongitudeDegrees>
            </Position>
            <AltitudeMeters>262.600006103515625</AltitudeMeters>
            <DistanceMeters>19160.205684958</DistanceMeters>
          </Trackpoint>
          <Trackpoint>
            <Time>2018-05-22T10:56:20.000Z</Time>
            <Position>
              <LatitudeDegrees>29.05535160563886165618896484375</LatitudeDegrees>
              <LongitudeDegrees>-13.52970407344400882720947265625</LongitudeDegrees>
            </Position>
            <AltitudeMeters>263.399993896484375</AltitudeMeters>
            <DistanceMeters>19180.060129224</DistanceMeters>
          </Trackpoint>
          <Trackpoint>
            <Time>2018-05-22T10:56:29.000Z</Time>
            <Position>
              <LatitudeDegrees>29.05540072359144687652587890625</LatitudeDegrees>
              <LongitudeDegrees>-13.52990758605301380157470703125</LongitudeDegrees>
            </Position>
            <AltitudeMeters>264.399993896484375</AltitudeMeters>
            <DistanceMeters>19200.601731208</DistanceMeters>
          </Trackpoint>
          <Trackpoint>
            <Time>2018-05-22T10:56:42.000Z</Time>
            <Position>
              <LatitudeDegrees>29.05546492896974086761474609375</LatitudeDegrees>
              <LongitudeDegrees>-13.5301899723708629608154296875</LongitudeDegrees>
            </Position>
            <AltitudeMeters>265.399993896484375</AltitudeMeters>
            <DistanceMeters>19228.990713624</DistanceMeters>
          </Trackpoint>
          <Trackpoint>
            <Time>2018-05-22T10:56:45.000Z</Time>
            <Position>
              <LatitudeDegrees>29.055490829050540924072265625</LatitudeDegrees>
              <LongitudeDegrees>-13.53025292046368122100830078125</LongitudeDegrees>
            </Position>
            <AltitudeMeters>265.79998779296875</AltitudeMeters>
            <DistanceMeters>19235.760324983</DistanceMeters>
          </Trackpoint>
          <Trackpoint>
            <Time>2018-05-22T10:56:50.000Z</Time>
            <Position>
              <LatitudeDegrees>29.055523015558719635009765625</LatitudeDegrees>
              <LongitudeDegrees>-13.53036439977586269378662109375</LongitudeDegrees>
            </Position>
            <AltitudeMeters>266</AltitudeMeters>
            <DistanceMeters>19247.183310784</DistanceMeters>
          </Trackpoint>
          <Trackpoint>
            <Time>2018-05-22T10:56:53.000Z</Time>
            <Position>
              <LatitudeDegrees>29.055549167096614837646484375</LatitudeDegrees>
              <LongitudeDegrees>-13.5304296948015689849853515625</LongitudeDegrees>
            </Position>
            <AltitudeMeters>266.399993896484375</AltitudeMeters>
            <DistanceMeters>19254.171490333</DistanceMeters>
          </Trackpoint>
          <Trackpoint>
            <Time>2018-05-22T10:57:09.000Z</Time>
            <Position>
              <LatitudeDegrees>29.05565268360078334808349609375</LatitudeDegrees>
              <LongitudeDegrees>-13.530791960656642913818359375</LongitudeDegrees>
            </Position>
            <AltitudeMeters>267.399993896484375</AltitudeMeters>
            <DistanceMeters>19291.253344664</DistanceMeters>
          </Trackpoint>
          <Trackpoint>
            <Time>2018-05-22T10:57:10.000Z</Time>
            <Position>
              <LatitudeDegrees>29.05565938912332057952880859375</LatitudeDegrees>
              <LongitudeDegrees>-13.53080998174846172332763671875</LongitudeDegrees>
            </Position>
            <AltitudeMeters>267.79998779296875</AltitudeMeters>
            <DistanceMeters>19293.160992641</DistanceMeters>
          </Trackpoint>
          <Trackpoint>
            <Time>2018-05-22T10:57:13.000Z</Time>
            <Position>
              <LatitudeDegrees>29.05567682348191738128662109375</LatitudeDegrees>
              <LongitudeDegrees>-13.5308685712516307830810546875</LongitudeDegrees>
            </Position>
            <AltitudeMeters>269</AltitudeMeters>
            <DistanceMeters>19299.182267998</DistanceMeters>
          </Trackpoint>
          <Trackpoint>
            <Time>2018-05-22T10:57:15.000Z</Time>
            <Position>
              <LatitudeDegrees>29.0556951798498630523681640625</LatitudeDegrees>
              <LongitudeDegrees>-13.530897907912731170654296875</LongitudeDegrees>
            </Position>
            <AltitudeMeters>269.600006103515625</AltitudeMeters>
            <DistanceMeters>19302.691829833</DistanceMeters>
          </Trackpoint>
          <Trackpoint>
            <Time>2018-05-22T10:57:19.000Z</Time>
            <Position>
              <LatitudeDegrees>29.05575745739042758941650390625</LatitudeDegrees>
              <LongitudeDegrees>-13.53090452961623668670654296875</LongitudeDegrees>
            </Position>
            <AltitudeMeters>270</AltitudeMeters>
            <DistanceMeters>19309.653469027</DistanceMeters>
          </Trackpoint>
          <Trackpoint>
            <Time>2018-05-22T10:57:30.000Z</Time>
            <Position>
              <LatitudeDegrees>29.0559318847954273223876953125</LatitudeDegrees>
              <LongitudeDegrees>-13.5309057869017124176025390625</LongitudeDegrees>
            </Position>
            <AltitudeMeters>269.79998779296875</AltitudeMeters>
            <DistanceMeters>19329.068010506</DistanceMeters>
          </Trackpoint>
          <Trackpoint>
            <Time>2018-05-22T11:13:36.000Z</Time>
            <Position>
              <LatitudeDegrees>29.05587916262447834014892578125</LatitudeDegrees>
              <LongitudeDegrees>-13.53145270608365535736083984375</LongitudeDegrees>
            </Position>
            <AltitudeMeters>269</AltitudeMeters>
            <DistanceMeters>19382.602640716</DistanceMeters>
          </Trackpoint>
          <Trackpoint>
            <Time>2018-05-22T11:13:37.000Z</Time>
            <Position>
              <LatitudeDegrees>29.05588318593800067901611328125</LatitudeDegrees>
              <LongitudeDegrees>-13.53147299028933048248291015625</LongitudeDegrees>
            </Position>
            <AltitudeMeters>270.600006103515625</AltitudeMeters>
            <DistanceMeters>19384.625169982</DistanceMeters>
          </Trackpoint>
          <Trackpoint>
            <Time>2018-05-22T11:13:38.000Z</Time>
            <Position>
              <LatitudeDegrees>29.05589357949793338775634765625</LatitudeDegrees>
              <LongitudeDegrees>-13.5314915142953395843505859375</LongitudeDegrees>
            </Position>
            <AltitudeMeters>272</AltitudeMeters>
            <DistanceMeters>19386.76696335</DistanceMeters>
          </Trackpoint>
          <Trackpoint>
            <Time>2018-05-22T11:13:40.000Z</Time>
            <Position>
              <LatitudeDegrees>29.05591218732297420501708984375</LatitudeDegrees>
              <LongitudeDegrees>-13.53153317235410213470458984375</LongitudeDegrees>
            </Position>
            <AltitudeMeters>273.20001220703125</AltitudeMeters>
            <DistanceMeters>19391.31833626</DistanceMeters>
          </Trackpoint>
          <Trackpoint>
            <Time>2018-05-22T11:13:41.000Z</Time>
            <Position>
              <LatitudeDegrees>29.0559214912354946136474609375</LatitudeDegrees>
              <LongitudeDegrees>-13.5315528698265552520751953125</LongitudeDegrees>
            </Position>
            <AltitudeMeters>273.600006103515625</AltitudeMeters>
            <DistanceMeters>19393.495671818</DistanceMeters>
          </Trackpoint>
          <Trackpoint>
            <Time>2018-05-22T11:13:42.000Z</Time>
            <Position>
              <LatitudeDegrees>29.0559328906238079071044921875</LatitudeDegrees>
              <LongitudeDegrees>-13.5315714776515960693359375</LongitudeDegrees>
            </Position>
            <AltitudeMeters>274.20001220703125</AltitudeMeters>
            <DistanceMeters>19395.705936815</DistanceMeters>
          </Trackpoint>
          <Trackpoint>
            <Time>2018-05-22T11:13:43.000Z</Time>
            <Position>
              <LatitudeDegrees>29.05594303272664546966552734375</LatitudeDegrees>
              <LongitudeDegrees>-13.53159050457179546356201171875</LongitudeDegrees>
            </Position>
            <AltitudeMeters>274</AltitudeMeters>
            <DistanceMeters>19397.874961902</DistanceMeters>
          </Trackpoint>
          <Trackpoint>
            <Time>2018-05-22T11:13:45.000Z</Time>
            <Position>
              <LatitudeDegrees>29.05596935190260410308837890625</LatitudeDegrees>
              <LongitudeDegrees>-13.5316202603280544281005859375</LongitudeDegrees>
            </Position>
            <AltitudeMeters>274.20001220703125</AltitudeMeters>
            <DistanceMeters>19401.993029842</DistanceMeters>
          </Trackpoint>
          <Trackpoint>
            <Time>2018-05-22T11:13:46.000Z</Time>
            <Position>
              <LatitudeDegrees>29.05598024837672710418701171875</LatitudeDegrees>
              <LongitudeDegrees>-13.53163509629666805267333984375</LongitudeDegrees>
            </Position>
            <AltitudeMeters>274.600006103515625</AltitudeMeters>
            <DistanceMeters>19403.879256265</DistanceMeters>
          </Trackpoint>
          <Trackpoint>
            <Time>2018-05-22T11:13:48.000Z</Time>
            <Position>
              <LatitudeDegrees>29.05600623227655887603759765625</LatitudeDegrees>
              <LongitudeDegrees>-13.53166191838681697845458984375</LongitudeDegrees>
            </Position>
            <AltitudeMeters>275.20001220703125</AltitudeMeters>
            <DistanceMeters>19407.77419252</DistanceMeters>
          </Trackpoint>
          <Trackpoint>
            <Time>2018-05-22T11:13:49.000Z</Time>
            <Position>
              <LatitudeDegrees>29.05602048151195049285888671875</LatitudeDegrees>
              <LongitudeDegrees>-13.53167382068932056427001953125</LongitudeDegrees>
            </Position>
            <AltitudeMeters>275.600006103515625</AltitudeMeters>
            <DistanceMeters>19409.735521805</DistanceMeters>
          </Trackpoint>
          <Trackpoint>
            <Time>2018-05-22T11:13:52.000Z</Time>
            <Position>
              <LatitudeDegrees>29.05606088228523731231689453125</LatitudeDegrees>
              <LongitudeDegrees>-13.53171556256711483001708984375</LongitudeDegrees>
            </Position>
            <AltitudeMeters>275.79998779296875</AltitudeMeters>
            <DistanceMeters>19415.794918707</DistanceMeters>
          </Trackpoint>
          <Trackpoint>
            <Time>2018-05-22T11:13:54.000Z</Time>
            <Position>
              <LatitudeDegrees>29.05608720146119594573974609375</LatitudeDegrees>
              <LongitudeDegrees>-13.5317402891814708709716796875</LongitudeDegrees>
            </Position>
            <AltitudeMeters>275.79998779296875</AltitudeMeters>
            <DistanceMeters>19419.585281701</DistanceMeters>
          </Trackpoint>
          <Trackpoint>
            <Time>2018-05-22T11:13:59.000Z</Time>
            <Position>
              <LatitudeDegrees>29.05615744180977344512939453125</LatitudeDegrees>
              <LongitudeDegrees>-13.53179284371435642242431640625</LongitudeDegrees>
            </Position>
            <AltitudeMeters>276.600006103515625</AltitudeMeters>
            <DistanceMeters>19428.926944227</DistanceMeters>
          </Trackpoint>
          <Trackpoint>
            <Time>2018-05-22T11:14:01.000Z</Time>
            <Position>
              <LatitudeDegrees>29.056181497871875762939453125</LatitudeDegrees>
              <LongitudeDegrees>-13.53181363083422183990478515625</LongitudeDegrees>
            </Position>
            <AltitudeMeters>277</AltitudeMeters>
            <DistanceMeters>19432.282611869</DistanceMeters>
          </Trackpoint>
          <Trackpoint>
            <Time>2018-05-22T11:14:04.000Z</Time>
            <Position>
              <LatitudeDegrees>29.0562195517122745513916015625</LatitudeDegrees>
              <LongitudeDegrees>-13.5318459011614322662353515625</LongitudeDegrees>
            </Position>
            <AltitudeMeters>277.79998779296875</AltitudeMeters>
            <DistanceMeters>19437.555524288</DistanceMeters>
          </Trackpoint>
          <Trackpoint>
            <Time>2018-05-22T11:14:10.000Z</Time>
            <Position>
              <LatitudeDegrees>29.0563037060201168060302734375</LatitudeDegrees>
              <LongitudeDegrees>-13.53191739879548549652099609375</LongitudeDegrees>
            </Position>
            <AltitudeMeters>278.399993896484375</AltitudeMeters>
            <DistanceMeters>19449.223318958</DistanceMeters>
          </Trackpoint>
          <Trackpoint>
            <Time>2018-05-22T11:14:12.000Z</Time>
            <Position>
              <LatitudeDegrees>29.0563325397670269012451171875</LatitudeDegrees>
              <LongitudeDegrees>-13.531942628324031829833984375</LongitudeDegrees>
            </Position>
            <AltitudeMeters>278.79998779296875</AltitudeMeters>
            <DistanceMeters>19453.263910277</DistanceMeters>
          </Trackpoint>
          <Trackpoint>
            <Time>2018-05-22T11:14:14.000Z</Time>
            <Position>
              <LatitudeDegrees>29.05636196024715900421142578125</LatitudeDegrees>
              <LongitudeDegrees>-13.53196903131902217864990234375</LongitudeDegrees>
            </Position>
            <AltitudeMeters>279.20001220703125</AltitudeMeters>
            <DistanceMeters>19457.425603036</DistanceMeters>
          </Trackpoint>
          <Trackpoint>
            <Time>2018-05-22T11:14:17.000Z</Time>
            <Position>
              <LatitudeDegrees>29.0564116649329662322998046875</LatitudeDegrees>
              <LongitudeDegrees>-13.5320098511874675750732421875</LongitudeDegrees>
            </Position>
            <AltitudeMeters>279.79998779296875</AltitudeMeters>
            <DistanceMeters>19464.235777235</DistanceMeters>
          </Trackpoint>
          <Trackpoint>
            <Time>2018-05-22T11:14:18.000Z</Time>
            <Position>
              <LatitudeDegrees>29.056428931653499603271484375</LatitudeDegrees>
              <LongitudeDegrees>-13.5320225916802883148193359375</LongitudeDegrees>
            </Position>
            <AltitudeMeters>279.79998779296875</AltitudeMeters>
            <DistanceMeters>19466.522349836</DistanceMeters>
          </Trackpoint>
          <Trackpoint>
            <Time>2018-05-22T11:14:23.000Z</Time>
            <Position>
              <LatitudeDegrees>29.05651400797069072723388671875</LatitudeDegrees>
              <LongitudeDegrees>-13.53209920227527618408203125</LongitudeDegrees>
            </Position>
            <AltitudeMeters>279.79998779296875</AltitudeMeters>
            <DistanceMeters>19478.573146049</DistanceMeters>
          </Trackpoint>
          <Trackpoint>
            <Time>2018-05-22T11:14:35.000Z</Time>
            <Position>
              <LatitudeDegrees>29.05670008622109889984130859375</LatitudeDegrees>
              <LongitudeDegrees>-13.5323260165750980377197265625</LongitudeDegrees>
            </Position>
            <AltitudeMeters>281</AltitudeMeters>
            <DistanceMeters>19508.837327084</DistanceMeters>
          </Trackpoint>
          <Trackpoint>
            <Time>2018-05-22T11:14:43.000Z</Time>
            <Position>
              <LatitudeDegrees>29.05681751668453216552734375</LatitudeDegrees>
              <LongitudeDegrees>-13.53248502127826213836669921875</LongitudeDegrees>
            </Position>
            <AltitudeMeters>282</AltitudeMeters>
            <DistanceMeters>19529.089836367</DistanceMeters>
          </Trackpoint>
          <Trackpoint>
            <Time>2018-05-22T11:14:47.000Z</Time>
            <Position>
              <LatitudeDegrees>29.05686571262776851654052734375</LatitudeDegrees>
              <LongitudeDegrees>-13.53257169015705585479736328125</LongitudeDegrees>
            </Position>
            <AltitudeMeters>283.20001220703125</AltitudeMeters>
            <DistanceMeters>19539.084370154</DistanceMeters>
          </Trackpoint>
          <Trackpoint>
            <Time>2018-05-22T11:14:52.000Z</Time>
            <Position>
              <LatitudeDegrees>29.05691550113260746002197265625</LatitudeDegrees>
              <LongitudeDegrees>-13.532687611877918243408203125</LongitudeDegrees>
            </Position>
            <AltitudeMeters>284.399993896484375</AltitudeMeters>
            <DistanceMeters>19551.650193513</DistanceMeters>
          </Trackpoint>
          <Trackpoint>
            <Time>2018-05-22T11:14:55.000Z</Time>
            <Position>
              <LatitudeDegrees>29.0569388866424560546875</LatitudeDegrees>
              <LongitudeDegrees>-13.5327598638832569122314453125</LongitudeDegrees>
            </Position>
            <AltitudeMeters>284.600006103515625</AltitudeMeters>
            <DistanceMeters>19559.146470303</DistanceMeters>
          </Trackpoint>
          <Trackpoint>
            <Time>2018-05-22T11:14:59.000Z</Time>
            <Position>
              <LatitudeDegrees>29.05695824883878231048583984375</LatitudeDegrees>
              <LongitudeDegrees>-13.53284728713333606719970703125</LongitudeDegrees>
            </Position>
            <AltitudeMeters>285</AltitudeMeters>
            <DistanceMeters>19567.920889473</DistanceMeters>
          </Trackpoint>
          <Trackpoint>
            <Time>2018-05-22T11:15:01.000Z</Time>
            <Position>
              <LatitudeDegrees>29.0569709055125713348388671875</LatitudeDegrees>
              <LongitudeDegrees>-13.53288182057440280914306640625</LongitudeDegrees>
            </Position>
            <AltitudeMeters>285.600006103515625</AltitudeMeters>
            <DistanceMeters>19571.564268724</DistanceMeters>
          </Trackpoint>
          <Trackpoint>
            <Time>2018-05-22T11:15:08.000Z</Time>
            <Position>
              <LatitudeDegrees>29.05698138289153575897216796875</LatitudeDegrees>
              <LongitudeDegrees>-13.53288886137306690216064453125</LongitudeDegrees>
            </Position>
            <AltitudeMeters>284.399993896484375</AltitudeMeters>
            <DistanceMeters>19572.914852095</DistanceMeters>
          </Trackpoint>
          <Trackpoint>
            <Time>2018-05-22T11:15:40.000Z</Time>
            <Position>
              <LatitudeDegrees>29.05698004178702831268310546875</LatitudeDegrees>
              <LongitudeDegrees>-13.53288433514535427093505859375</LongitudeDegrees>
            </Position>
            <AltitudeMeters>283.79998779296875</AltitudeMeters>
            <DistanceMeters>19573.370584208</DistanceMeters>
          </Trackpoint>
          <Trackpoint>
            <Time>2018-05-22T11:15:41.000Z</Time>
            <Position>
              <LatitudeDegrees>29.05697953887283802032470703125</LatitudeDegrees>
              <LongitudeDegrees>-13.53288416750729084014892578125</LongitudeDegrees>
            </Position>
            <AltitudeMeters>283.79998779296875</AltitudeMeters>
            <DistanceMeters>19573.370584208</DistanceMeters>
          </Trackpoint>
          <Trackpoint>
            <Time>2018-05-22T11:15:42.000Z</Time>
            <Position>
              <LatitudeDegrees>29.05697970651090145111083984375</LatitudeDegrees>
              <LongitudeDegrees>-13.5328842513263225555419921875</LongitudeDegrees>
            </Position>
            <AltitudeMeters>283.79998779296875</AltitudeMeters>
            <DistanceMeters>19573.370584208</DistanceMeters>
          </Trackpoint>
          <Trackpoint>
            <Time>2018-05-22T11:15:44.000Z</Time>
            <Position>
              <LatitudeDegrees>29.0569796226918697357177734375</LatitudeDegrees>
              <LongitudeDegrees>-13.5328842513263225555419921875</LongitudeDegrees>
            </Position>
            <AltitudeMeters>284</AltitudeMeters>
            <DistanceMeters>19573.370584208</DistanceMeters>
          </Trackpoint>
          <Trackpoint>
            <Time>2018-05-22T11:15:47.000Z</Time>
            <Position>
              <LatitudeDegrees>29.056978113949298858642578125</LatitudeDegrees>
              <LongitudeDegrees>-13.53289003483951091766357421875</LongitudeDegrees>
            </Position>
            <AltitudeMeters>284.600006103515625</AltitudeMeters>
            <DistanceMeters>19573.964025849</DistanceMeters>
          </Trackpoint>
          <Trackpoint>
            <Time>2018-05-22T11:15:49.000Z</Time>
            <Position>
              <LatitudeDegrees>29.05698037706315517425537109375</LatitudeDegrees>
              <LongitudeDegrees>-13.5329093970358371734619140625</LongitudeDegrees>
            </Position>
            <AltitudeMeters>285.20001220703125</AltitudeMeters>
            <DistanceMeters>19575.864560136</DistanceMeters>
          </Trackpoint>
          <Trackpoint>
            <Time>2018-05-22T11:15:51.000Z</Time>
            <Position>
              <LatitudeDegrees>29.0569792874157428741455078125</LatitudeDegrees>
              <LongitudeDegrees>-13.5329238139092922210693359375</LongitudeDegrees>
            </Position>
            <AltitudeMeters>285.600006103515625</AltitudeMeters>
            <DistanceMeters>19577.274034087</DistanceMeters>
          </Trackpoint>
          <Trackpoint>
            <Time>2018-05-22T11:15:53.000Z</Time>
            <Position>
              <LatitudeDegrees>29.0569725818932056427001953125</LatitudeDegrees>
              <LongitudeDegrees>-13.53294317610561847686767578125</LongitudeDegrees>
            </Position>
            <AltitudeMeters>285.79998779296875</AltitudeMeters>
            <DistanceMeters>19579.30102318</DistanceMeters>
          </Trackpoint>
          <Trackpoint>
            <Time>2018-05-22T11:15:55.000Z</Time>
            <Position>
              <LatitudeDegrees>29.05696948058903217315673828125</LatitudeDegrees>
              <LongitudeDegrees>-13.53297770954668521881103515625</LongitudeDegrees>
            </Position>
            <AltitudeMeters>286</AltitudeMeters>
            <DistanceMeters>19582.678150146</DistanceMeters>
          </Trackpoint>
          <Trackpoint>
            <Time>2018-05-22T11:15:56.000Z</Time>
            <Position>
              <LatitudeDegrees>29.056963361799716949462890625</LatitudeDegrees>
              <LongitudeDegrees>-13.5330002568662166595458984375</LongitudeDegrees>
            </Position>
            <AltitudeMeters>286</AltitudeMeters>
            <DistanceMeters>19584.974574463</DistanceMeters>
          </Trackpoint>
          <Trackpoint>
            <Time>2018-05-22T11:15:59.000Z</Time>
            <Position>
              <LatitudeDegrees>29.05694467015564441680908203125</LatitudeDegrees>
              <LongitudeDegrees>-13.533068485558032989501953125</LongitudeDegrees>
            </Position>
            <AltitudeMeters>286</AltitudeMeters>
            <DistanceMeters>19591.931023246</DistanceMeters>
          </Trackpoint>
          <Trackpoint>
            <Time>2018-05-22T11:16:02.000Z</Time>
            <Position>
              <LatitudeDegrees>29.0569212846457958221435546875</LatitudeDegrees>
              <LongitudeDegrees>-13.53313495405018329620361328125</LongitudeDegrees>
            </Position>
            <AltitudeMeters>286.20001220703125</AltitudeMeters>
            <DistanceMeters>19598.901736361</DistanceMeters>
          </Trackpoint>
          <Trackpoint>
            <Time>2018-05-22T11:16:03.000Z</Time>
            <Position>
              <LatitudeDegrees>29.05691499821841716766357421875</LatitudeDegrees>
              <LongitudeDegrees>-13.5331605188548564910888671875</LongitudeDegrees>
            </Position>
            <AltitudeMeters>286.399993896484375</AltitudeMeters>
            <DistanceMeters>19601.484995251</DistanceMeters>
          </Trackpoint>
          <Trackpoint>
            <Time>2018-05-22T11:16:06.000Z</Time>
            <Position>
              <LatitudeDegrees>29.0568907745182514190673828125</LatitudeDegrees>
              <LongitudeDegrees>-13.5332336090505123138427734375</LongitudeDegrees>
            </Position>
            <AltitudeMeters>286.600006103515625</AltitudeMeters>
            <DistanceMeters>19609.089507698</DistanceMeters>
          </Trackpoint>
          <Trackpoint>
            <Time>2018-05-22T11:16:09.000Z</Time>
            <Position>
              <LatitudeDegrees>29.05687141232192516326904296875</LatitudeDegrees>
              <LongitudeDegrees>-13.53330477140843868255615234375</LongitudeDegrees>
            </Position>
            <AltitudeMeters>287</AltitudeMeters>
            <DistanceMeters>19616.340239044</DistanceMeters>
          </Trackpoint>
          <Trackpoint>
            <Time>2018-05-22T11:16:17.000Z</Time>
            <Position>
              <LatitudeDegrees>29.05683360993862152099609375</LatitudeDegrees>
              <LongitudeDegrees>-13.53349084965884685516357421875</LongitudeDegrees>
            </Position>
            <AltitudeMeters>287.600006103515625</AltitudeMeters>
            <DistanceMeters>19634.926648177</DistanceMeters>
          </Trackpoint>
          <Trackpoint>
            <Time>2018-05-22T11:16:19.000Z</Time>
            <Position>
              <LatitudeDegrees>29.05682816170156002044677734375</LatitudeDegrees>
              <LongitudeDegrees>-13.533535189926624298095703125</LongitudeDegrees>
            </Position>
            <AltitudeMeters>287.79998779296875</AltitudeMeters>
            <DistanceMeters>19639.282355996</DistanceMeters>
          </Trackpoint>
          <Trackpoint>
            <Time>2018-05-22T11:16:23.000Z</Time>
            <Position>
              <LatitudeDegrees>29.056823216378688812255859375</LatitudeDegrees>
              <LongitudeDegrees>-13.53362579829990863800048828125</LongitudeDegrees>
            </Position>
            <AltitudeMeters>288.600006103515625</AltitudeMeters>
            <DistanceMeters>19648.114218785</DistanceMeters>
          </Trackpoint>
          <Trackpoint>
            <Time>2018-05-22T11:16:33.000Z</Time>
            <Position>
              <LatitudeDegrees>29.05683956108987331390380859375</LatitudeDegrees>
              <LongitudeDegrees>-13.53385873138904571533203125</LongitudeDegrees>
            </Position>
            <AltitudeMeters>289.79998779296875</AltitudeMeters>
            <DistanceMeters>19670.849645674</DistanceMeters>
          </Trackpoint>
          <Trackpoint>
            <Time>2018-05-22T11:16:37.000Z</Time>
            <Position>
              <LatitudeDegrees>29.05684744007885456085205078125</LatitudeDegrees>
              <LongitudeDegrees>-13.5339510999619960784912109375</LongitudeDegrees>
            </Position>
            <AltitudeMeters>291</AltitudeMeters>
            <DistanceMeters>19679.879183879</DistanceMeters>
          </Trackpoint>
          <Trackpoint>
            <Time>2018-05-22T11:16:56.000Z</Time>
            <Position>
              <LatitudeDegrees>29.056845344603061676025390625</LatitudeDegrees>
              <LongitudeDegrees>-13.53440263308584690093994140625</LongitudeDegrees>
            </Position>
            <AltitudeMeters>292</AltitudeMeters>
            <DistanceMeters>19723.811031877</DistanceMeters>
          </Trackpoint>
          <Trackpoint>
            <Time>2018-05-22T11:16:58.000Z</Time>
            <Position>
              <LatitudeDegrees>29.05684090219438076019287109375</LatitudeDegrees>
              <LongitudeDegrees>-13.5344468057155609130859375</LongitudeDegrees>
            </Position>
            <AltitudeMeters>292.79998779296875</AltitudeMeters>
            <DistanceMeters>19728.137618114</DistanceMeters>
          </Trackpoint>
          <Trackpoint>
            <Time>2018-05-22T11:16:59.000Z</Time>
            <Position>
              <LatitudeDegrees>29.0568361245095729827880859375</LatitudeDegrees>
              <LongitudeDegrees>-13.534468598663806915283203125</LongitudeDegrees>
            </Position>
            <AltitudeMeters>293</AltitudeMeters>
            <DistanceMeters>19730.325297367</DistanceMeters>
          </Trackpoint>
          <Trackpoint>
            <Time>2018-05-22T11:17:00.000Z</Time>
            <Position>
              <LatitudeDegrees>29.056829251348972320556640625</LatitudeDegrees>
              <LongitudeDegrees>-13.534491397440433502197265625</LongitudeDegrees>
            </Position>
            <AltitudeMeters>293</AltitudeMeters>
            <DistanceMeters>19732.670359532</DistanceMeters>
          </Trackpoint>
          <Trackpoint>
            <Time>2018-05-22T11:17:09.000Z</Time>
            <Position>
              <LatitudeDegrees>29.05680972151458263397216796875</LatitudeDegrees>
              <LongitudeDegrees>-13.534715361893177032470703125</LongitudeDegrees>
            </Position>
            <AltitudeMeters>293.20001220703125</AltitudeMeters>
            <DistanceMeters>19754.568399385</DistanceMeters>
          </Trackpoint>
          <Trackpoint>
            <Time>2018-05-22T11:17:18.000Z</Time>
            <Position>
              <LatitudeDegrees>29.05679798685014247894287109375</LatitudeDegrees>
              <LongitudeDegrees>-13.5349322855472564697265625</LongitudeDegrees>
            </Position>
            <AltitudeMeters>293.399993896484375</AltitudeMeters>
            <DistanceMeters>19775.713925275</DistanceMeters>
          </Trackpoint>
          <Trackpoint>
            <Time>2018-05-22T11:17:28.000Z</Time>
            <Position>
              <LatitudeDegrees>29.0565700829029083251953125</LatitudeDegrees>
              <LongitudeDegrees>-13.5350886918604373931884765625</LongitudeDegrees>
            </Position>
            <AltitudeMeters>294.20001220703125</AltitudeMeters>
            <DistanceMeters>19805.29456772</DistanceMeters>
          </Trackpoint>
          <Trackpoint>
            <Time>2018-05-22T11:17:39.000Z</Time>
            <Position>
              <LatitudeDegrees>29.05628568492829799652099609375</LatitudeDegrees>
              <LongitudeDegrees>-13.53521936573088169097900390625</LongitudeDegrees>
            </Position>
            <AltitudeMeters>295.20001220703125</AltitudeMeters>
            <DistanceMeters>19839.406378732</DistanceMeters>
          </Trackpoint>
          <Trackpoint>
            <Time>2018-05-22T11:17:47.000Z</Time>
            <Position>
              <LatitudeDegrees>29.0560887940227985382080078125</LatitudeDegrees>
              <LongitudeDegrees>-13.5353277437388896942138671875</LongitudeDegrees>
            </Position>
            <AltitudeMeters>296.20001220703125</AltitudeMeters>
            <DistanceMeters>19863.72560686</DistanceMeters>
          </Trackpoint>
          <Trackpoint>
            <Time>2018-05-22T11:18:05.000Z</Time>
            <Position>
              <LatitudeDegrees>29.05556819401681423187255859375</LatitudeDegrees>
              <LongitudeDegrees>-13.535598814487457275390625</LongitudeDegrees>
            </Position>
            <AltitudeMeters>296.600006103515625</AltitudeMeters>
            <DistanceMeters>19927.389250418</DistanceMeters>
          </Trackpoint>
          <Trackpoint>
            <Time>2018-05-22T11:18:11.000Z</Time>
            <Position>
              <LatitudeDegrees>29.055407010018825531005859375</LatitudeDegrees>
              <LongitudeDegrees>-13.5356683842837810516357421875</LongitudeDegrees>
            </Position>
            <AltitudeMeters>297.399993896484375</AltitudeMeters>
            <DistanceMeters>19946.56393666</DistanceMeters>
          </Trackpoint>
          <Trackpoint>
            <Time>2018-05-22T11:18:16.000Z</Time>
            <Position>
              <LatitudeDegrees>29.0553049184381961822509765625</LatitudeDegrees>
              <LongitudeDegrees>-13.53571356274187564849853515625</LongitudeDegrees>
            </Position>
            <AltitudeMeters>298.399993896484375</AltitudeMeters>
            <DistanceMeters>19958.74775489</DistanceMeters>
          </Trackpoint>
          <Trackpoint>
            <Time>2018-05-22T11:18:23.000Z</Time>
            <Position>
              <LatitudeDegrees>29.0551436506211757659912109375</LatitudeDegrees>
              <LongitudeDegrees>-13.53578648529946804046630859375</LongitudeDegrees>
            </Position>
            <AltitudeMeters>299.399993896484375</AltitudeMeters>
            <DistanceMeters>19978.048473622</DistanceMeters>
          </Trackpoint>
          <Trackpoint>
            <Time>2018-05-22T11:18:26.000Z</Time>
            <Position>
              <LatitudeDegrees>29.05507751740515232086181640625</LatitudeDegrees>
              <LongitudeDegrees>-13.5358115471899509429931640625</LongitudeDegrees>
            </Position>
            <AltitudeMeters>300</AltitudeMeters>
            <DistanceMeters>19985.802909709</DistanceMeters>
          </Trackpoint>
          <Trackpoint>
            <Time>2018-05-22T11:18:35.000Z</Time>
            <Position>
              <LatitudeDegrees>29.0548707358539104461669921875</LatitudeDegrees>
              <LongitudeDegrees>-13.53589209727942943572998046875</LongitudeDegrees>
            </Position>
            <AltitudeMeters>300.399993896484375</AltitudeMeters>
            <DistanceMeters>20010.115824675</DistanceMeters>
          </Trackpoint>
          <Trackpoint>
            <Time>2018-05-22T11:18:45.000Z</Time>
            <Position>
              <LatitudeDegrees>29.05468247830867767333984375</LatitudeDegrees>
              <LongitudeDegrees>-13.5359818674623966217041015625</LongitudeDegrees>
            </Position>
            <AltitudeMeters>301.600006103515625</AltitudeMeters>
            <DistanceMeters>20032.816670529</DistanceMeters>
          </Trackpoint>
          <Trackpoint>
            <Time>2018-05-22T11:18:52.000Z</Time>
            <Position>
              <LatitudeDegrees>29.0545438416302204132080078125</LatitudeDegrees>
              <LongitudeDegrees>-13.53604531846940517425537109375</LongitudeDegrees>
            </Position>
            <AltitudeMeters>302</AltitudeMeters>
            <DistanceMeters>20049.435753479</DistanceMeters>
          </Trackpoint>
          <Trackpoint>
            <Time>2018-05-22T11:18:58.000Z</Time>
            <Position>
              <LatitudeDegrees>29.0544392354786396026611328125</LatitudeDegrees>
              <LongitudeDegrees>-13.53609544225037097930908203125</LongitudeDegrees>
            </Position>
            <AltitudeMeters>302.600006103515625</AltitudeMeters>
            <DistanceMeters>20062.058935682</DistanceMeters>
          </Trackpoint>
          <Trackpoint>
            <Time>2018-05-22T11:19:08.000Z</Time>
            <Position>
              <LatitudeDegrees>29.054267071187496185302734375</LatitudeDegrees>
              <LongitudeDegrees>-13.53617875836789608001708984375</LongitudeDegrees>
            </Position>
            <AltitudeMeters>303.600006103515625</AltitudeMeters>
            <DistanceMeters>20082.865012551</DistanceMeters>
          </Trackpoint>
          <Trackpoint>
            <Time>2018-05-22T11:19:18.000Z</Time>
            <Position>
              <LatitudeDegrees>29.05408434569835662841796875</LatitudeDegrees>
              <LongitudeDegrees>-13.53628403507173061370849609375</LongitudeDegrees>
            </Position>
            <AltitudeMeters>304.600006103515625</AltitudeMeters>
            <DistanceMeters>20105.636554214</DistanceMeters>
          </Trackpoint>
          <Trackpoint>
            <Time>2018-05-22T11:19:24.000Z</Time>
            <Position>
              <LatitudeDegrees>29.0539785660803318023681640625</LatitudeDegrees>
              <LongitudeDegrees>-13.53637062013149261474609375</LongitudeDegrees>
            </Position>
            <AltitudeMeters>305.20001220703125</AltitudeMeters>
            <DistanceMeters>20120.113711195</DistanceMeters>
          </Trackpoint>
          <Trackpoint>
            <Time>2018-05-22T11:19:28.000Z</Time>
            <Position>
              <LatitudeDegrees>29.05391813255846500396728515625</LatitudeDegrees>
              <LongitudeDegrees>-13.53639584966003894805908203125</LongitudeDegrees>
            </Position>
            <AltitudeMeters>305.79998779296875</AltitudeMeters>
            <DistanceMeters>20127.274212159</DistanceMeters>
          </Trackpoint>
          <Trackpoint>
            <Time>2018-05-22T11:19:36.000Z</Time>
            <Position>
              <LatitudeDegrees>29.05378033407032489776611328125</LatitudeDegrees>
              <LongitudeDegrees>-13.53648461401462554931640625</LongitudeDegrees>
            </Position>
            <AltitudeMeters>306.79998779296875</AltitudeMeters>
            <DistanceMeters>20144.875971241</DistanceMeters>
          </Trackpoint>
          <Trackpoint>
            <Time>2018-05-22T11:19:47.000Z</Time>
            <Position>
              <LatitudeDegrees>29.0535906516015529632568359375</LatitudeDegrees>
              <LongitudeDegrees>-13.53654940612614154815673828125</LongitudeDegrees>
            </Position>
            <AltitudeMeters>307.79998779296875</AltitudeMeters>
            <DistanceMeters>20166.909057943</DistanceMeters>
          </Trackpoint>
          <Trackpoint>
            <Time>2018-05-22T11:19:57.000Z</Time>
            <Position>
              <LatitudeDegrees>29.05341052450239658355712890625</LatitudeDegrees>
              <LongitudeDegrees>-13.53663406334817409515380859375</LongitudeDegrees>
            </Position>
            <AltitudeMeters>308.79998779296875</AltitudeMeters>
            <DistanceMeters>20188.583691204</DistanceMeters>
          </Trackpoint>
          <Trackpoint>
            <Time>2018-05-22T11:20:03.000Z</Time>
            <Position>
              <LatitudeDegrees>29.053316228091716766357421875</LatitudeDegrees>
              <LongitudeDegrees>-13.53669089265167713165283203125</LongitudeDegrees>
            </Position>
            <AltitudeMeters>310</AltitudeMeters>
            <DistanceMeters>20200.446435883</DistanceMeters>
          </Trackpoint>
          <Trackpoint>
            <Time>2018-05-22T11:20:05.000Z</Time>
            <Position>
              <LatitudeDegrees>29.05328370630741119384765625</LatitudeDegrees>
              <LongitudeDegrees>-13.53670463897287845611572265625</LongitudeDegrees>
            </Position>
            <AltitudeMeters>310.20001220703125</AltitudeMeters>
            <DistanceMeters>20204.305269392</DistanceMeters>
          </Trackpoint>
          <Trackpoint>
            <Time>2018-05-22T11:20:06.000Z</Time>
            <Position>
              <LatitudeDegrees>29.0532694570720195770263671875</LatitudeDegrees>
              <LongitudeDegrees>-13.5367131046950817108154296875</LongitudeDegrees>
            </Position>
            <AltitudeMeters>310.20001220703125</AltitudeMeters>
            <DistanceMeters>20206.090659261</DistanceMeters>
          </Trackpoint>
          <Trackpoint>
            <Time>2018-05-22T11:20:13.000Z</Time>
            <Position>
              <LatitudeDegrees>29.0531571395695209503173828125</LatitudeDegrees>
              <LongitudeDegrees>-13.536758534610271453857421875</LongitudeDegrees>
            </Position>
            <AltitudeMeters>311</AltitudeMeters>
            <DistanceMeters>20219.350206326</DistanceMeters>
          </Trackpoint>
          <Trackpoint>
            <Time>2018-05-22T11:20:16.000Z</Time>
            <Position>
              <LatitudeDegrees>29.0531102009117603302001953125</LatitudeDegrees>
              <LongitudeDegrees>-13.53678259067237377166748046875</LongitudeDegrees>
            </Position>
            <AltitudeMeters>311.600006103515625</AltitudeMeters>
            <DistanceMeters>20225.075516579</DistanceMeters>
          </Trackpoint>
          <Trackpoint>
            <Time>2018-05-22T11:20:23.000Z</Time>
            <Position>
              <LatitudeDegrees>29.0529898367822170257568359375</LatitudeDegrees>
              <LongitudeDegrees>-13.53685048408806324005126953125</LongitudeDegrees>
            </Position>
            <AltitudeMeters>312.20001220703125</AltitudeMeters>
            <DistanceMeters>20240.012555401</DistanceMeters>
          </Trackpoint>
          <Trackpoint>
            <Time>2018-05-22T11:20:30.000Z</Time>
            <Position>
              <LatitudeDegrees>29.05289319343864917755126953125</LatitudeDegrees>
              <LongitudeDegrees>-13.53691720403730869293212890625</LongitudeDegrees>
            </Position>
            <AltitudeMeters>313.20001220703125</AltitudeMeters>
            <DistanceMeters>20252.57622271</DistanceMeters>
          </Trackpoint>
          <Trackpoint>
            <Time>2018-05-22T11:20:39.000Z</Time>
            <Position>
              <LatitudeDegrees>29.05281339772045612335205078125</LatitudeDegrees>
              <LongitudeDegrees>-13.53706128895282745361328125</LongitudeDegrees>
            </Position>
            <AltitudeMeters>314.20001220703125</AltitudeMeters>
            <DistanceMeters>20269.171924911</DistanceMeters>
          </Trackpoint>
          <Trackpoint>
            <Time>2018-05-22T11:20:44.000Z</Time>
            <Position>
              <LatitudeDegrees>29.05277232639491558074951171875</LatitudeDegrees>
              <LongitudeDegrees>-13.537160865962505340576171875</LongitudeDegrees>
            </Position>
            <AltitudeMeters>315</AltitudeMeters>
            <DistanceMeters>20279.884685597</DistanceMeters>
          </Trackpoint>
          <Trackpoint>
            <Time>2018-05-22T11:20:45.000Z</Time>
            <Position>
              <LatitudeDegrees>29.0527595020830631256103515625</LatitudeDegrees>
              <LongitudeDegrees>-13.53718106634914875030517578125</LongitudeDegrees>
            </Position>
            <AltitudeMeters>315.399993896484375</AltitudeMeters>
            <DistanceMeters>20282.312985397</DistanceMeters>
          </Trackpoint>
          <Trackpoint>
            <Time>2018-05-22T11:20:48.000Z</Time>
            <Position>
              <LatitudeDegrees>29.05272672884166240692138671875</LatitudeDegrees>
              <LongitudeDegrees>-13.537250719964504241943359375</LongitudeDegrees>
            </Position>
            <AltitudeMeters>316.20001220703125</AltitudeMeters>
            <DistanceMeters>20290.008976002</DistanceMeters>
          </Trackpoint>
          <Trackpoint>
            <Time>2018-05-22T11:20:49.000Z</Time>
            <Position>
              <LatitudeDegrees>29.05271641910076141357421875</LatitudeDegrees>
              <LongitudeDegrees>-13.53727192617952823638916015625</LongitudeDegrees>
            </Position>
            <AltitudeMeters>316.600006103515625</AltitudeMeters>
            <DistanceMeters>20292.36939062</DistanceMeters>
          </Trackpoint>
          <Trackpoint>
            <Time>2018-05-22T11:20:52.000Z</Time>
            <Position>
              <LatitudeDegrees>29.0526904352009296417236328125</LatitudeDegrees>
              <LongitudeDegrees>-13.5373296774923801422119140625</LongitudeDegrees>
            </Position>
            <AltitudeMeters>317.79998779296875</AltitudeMeters>
            <DistanceMeters>20298.689202968</DistanceMeters>
          </Trackpoint>
          <Trackpoint>
            <Time>2018-05-22T11:20:56.000Z</Time>
            <Position>
              <LatitudeDegrees>29.05264978297054767608642578125</LatitudeDegrees>
              <LongitudeDegrees>-13.53741207160055637359619140625</LongitudeDegrees>
            </Position>
            <AltitudeMeters>318.20001220703125</AltitudeMeters>
            <DistanceMeters>20307.894540406</DistanceMeters>
          </Trackpoint>
          <Trackpoint>
            <Time>2018-05-22T11:21:01.000Z</Time>
            <Position>
              <LatitudeDegrees>29.05260921455919742584228515625</LatitudeDegrees>
              <LongitudeDegrees>-13.537530004978179931640625</LongitudeDegrees>
            </Position>
            <AltitudeMeters>318.79998779296875</AltitudeMeters>
            <DistanceMeters>20320.225332236</DistanceMeters>
          </Trackpoint>
          <Trackpoint>
            <Time>2018-05-22T11:21:05.000Z</Time>
            <Position>
              <LatitudeDegrees>29.05256696976721286773681640625</LatitudeDegrees>
              <LongitudeDegrees>-13.53761709295213222503662109375</LongitudeDegrees>
            </Position>
            <AltitudeMeters>319.20001220703125</AltitudeMeters>
            <DistanceMeters>20329.915727736</DistanceMeters>
          </Trackpoint>
          <Trackpoint>
            <Time>2018-05-22T11:21:14.000Z</Time>
            <Position>
              <LatitudeDegrees>29.0525767765939235687255859375</LatitudeDegrees>
              <LongitudeDegrees>-13.53784793056547641754150390625</LongitudeDegrees>
            </Position>
            <AltitudeMeters>320</AltitudeMeters>
            <DistanceMeters>20352.40214876</DistanceMeters>
          </Trackpoint>
          <Trackpoint>
            <Time>2018-05-22T11:21:17.000Z</Time>
            <Position>
              <LatitudeDegrees>29.05257686041295528411865234375</LatitudeDegrees>
              <LongitudeDegrees>-13.53792940266430377960205078125</LongitudeDegrees>
            </Position>
            <AltitudeMeters>321.399993896484375</AltitudeMeters>
            <DistanceMeters>20360.329905823</DistanceMeters>
          </Trackpoint>
          <Trackpoint>
            <Time>2018-05-22T11:21:20.000Z</Time>
            <Position>
              <LatitudeDegrees>29.0525663830339908599853515625</LatitudeDegrees>
              <LongitudeDegrees>-13.53799411095678806304931640625</LongitudeDegrees>
            </Position>
            <AltitudeMeters>322.600006103515625</AltitudeMeters>
            <DistanceMeters>20366.732760425</DistanceMeters>
          </Trackpoint>
          <Trackpoint>
            <Time>2018-05-22T11:21:28.000Z</Time>
            <Position>
              <LatitudeDegrees>29.05247862450778484344482421875</LatitudeDegrees>
              <LongitudeDegrees>-13.53814716450870037078857421875</LongitudeDegrees>
            </Position>
            <AltitudeMeters>323.399993896484375</AltitudeMeters>
            <DistanceMeters>20384.542095197</DistanceMeters>
          </Trackpoint>
          <Trackpoint>
            <Time>2018-05-22T11:21:29.000Z</Time>
            <Position>
              <LatitudeDegrees>29.0524728409945964813232421875</LatitudeDegrees>
              <LongitudeDegrees>-13.53817147202789783477783203125</LongitudeDegrees>
            </Position>
            <AltitudeMeters>323.79998779296875</AltitudeMeters>
            <DistanceMeters>20386.994447315</DistanceMeters>
          </Trackpoint>
          <Trackpoint>
            <Time>2018-05-22T11:21:33.000Z</Time>
            <Position>
              <LatitudeDegrees>29.05246001668274402618408203125</LatitudeDegrees>
              <LongitudeDegrees>-13.5382707975804805755615234375</LongitudeDegrees>
            </Position>
            <AltitudeMeters>325</AltitudeMeters>
            <DistanceMeters>20396.763267503</DistanceMeters>
          </Trackpoint>
          <Trackpoint>
            <Time>2018-05-22T11:21:47.000Z</Time>
            <Position>
              <LatitudeDegrees>29.0525494515895843505859375</LatitudeDegrees>
              <LongitudeDegrees>-13.53857497684657573699951171875</LongitudeDegrees>
            </Position>
            <AltitudeMeters>326</AltitudeMeters>
            <DistanceMeters>20427.988328654</DistanceMeters>
          </Trackpoint>
          <Trackpoint>
            <Time>2018-05-22T11:21:52.000Z</Time>
            <Position>
              <LatitudeDegrees>29.052569903433322906494140625</LatitudeDegrees>
              <LongitudeDegrees>-13.53868880309164524078369140625</LongitudeDegrees>
            </Position>
            <AltitudeMeters>326.20001220703125</AltitudeMeters>
            <DistanceMeters>20439.294511128</DistanceMeters>
          </Trackpoint>
          <Trackpoint>
            <Time>2018-05-22T11:21:56.000Z</Time>
            <Position>
              <LatitudeDegrees>29.0525797940790653228759765625</LatitudeDegrees>
              <LongitudeDegrees>-13.53878184221684932708740234375</LongitudeDegrees>
            </Position>
            <AltitudeMeters>327</AltitudeMeters>
            <DistanceMeters>20448.414105639</DistanceMeters>
          </Trackpoint>
          <Trackpoint>
            <Time>2018-05-22T11:22:03.000Z</Time>
            <Position>
              <LatitudeDegrees>29.05255959369242191314697265625</LatitudeDegrees>
              <LongitudeDegrees>-13.53895266540348529815673828125</LongitudeDegrees>
            </Position>
            <AltitudeMeters>328</AltitudeMeters>
            <DistanceMeters>20465.186253426</DistanceMeters>
          </Trackpoint>
          <Trackpoint>
            <Time>2018-05-22T11:22:07.000Z</Time>
            <Position>
              <LatitudeDegrees>29.05256244353950023651123046875</LatitudeDegrees>
              <LongitudeDegrees>-13.5390426032245159149169921875</LongitudeDegrees>
            </Position>
            <AltitudeMeters>329.20001220703125</AltitudeMeters>
            <DistanceMeters>20473.942644183</DistanceMeters>
          </Trackpoint>
          <Trackpoint>
            <Time>2018-05-22T11:22:14.000Z</Time>
            <Position>
              <LatitudeDegrees>29.05261860229074954986572265625</LatitudeDegrees>
              <LongitudeDegrees>-13.5392628796398639678955078125</LongitudeDegrees>
            </Position>
            <AltitudeMeters>329.20001220703125</AltitudeMeters>
            <DistanceMeters>20496.267653461</DistanceMeters>
          </Trackpoint>
          <Trackpoint>
            <Time>2018-05-22T11:22:18.000Z</Time>
            <Position>
              <LatitudeDegrees>29.05272119678556919097900390625</LatitudeDegrees>
              <LongitudeDegrees>-13.5394673980772495269775390625</LongitudeDegrees>
            </Position>
            <AltitudeMeters>328</AltitudeMeters>
            <DistanceMeters>20519.210062354</DistanceMeters>
          </Trackpoint>
          <Trackpoint>
            <Time>2018-05-22T11:22:22.000Z</Time>
            <Position>
              <LatitudeDegrees>29.05279344879090785980224609375</LatitudeDegrees>
              <LongitudeDegrees>-13.53967065922915935516357421875</LongitudeDegrees>
            </Position>
            <AltitudeMeters>329.600006103515625</AltitudeMeters>
            <DistanceMeters>20540.559162533</DistanceMeters>
          </Trackpoint>
          <Trackpoint>
            <Time>2018-05-22T11:22:24.000Z</Time>
            <Position>
              <LatitudeDegrees>29.05281700193881988525390625</LatitudeDegrees>
              <LongitudeDegrees>-13.5397319309413433074951171875</LongitudeDegrees>
            </Position>
            <AltitudeMeters>331.20001220703125</AltitudeMeters>
            <DistanceMeters>20547.071786356</DistanceMeters>
          </Trackpoint>
          <Trackpoint>
            <Time>2018-05-22T11:22:28.000Z</Time>
            <Position>
              <LatitudeDegrees>29.0528476797044277191162109375</LatitudeDegrees>
              <LongitudeDegrees>-13.53983159177005290985107421875</LongitudeDegrees>
            </Position>
            <AltitudeMeters>332.600006103515625</AltitudeMeters>
            <DistanceMeters>20557.352253986</DistanceMeters>
          </Trackpoint>
          <Trackpoint>
            <Time>2018-05-22T11:22:30.000Z</Time>
            <Position>
              <LatitudeDegrees>29.052868969738483428955078125</LatitudeDegrees>
              <LongitudeDegrees>-13.5398782789707183837890625</LongitudeDegrees>
            </Position>
            <AltitudeMeters>333.79998779296875</AltitudeMeters>
            <DistanceMeters>20562.475771549</DistanceMeters>
          </Trackpoint>
          <Trackpoint>
            <Time>2018-05-22T11:22:35.000Z</Time>
            <Position>
              <LatitudeDegrees>29.05295186676084995269775390625</LatitudeDegrees>
              <LongitudeDegrees>-13.5399947874248027801513671875</LongitudeDegrees>
            </Position>
            <AltitudeMeters>334</AltitudeMeters>
            <DistanceMeters>20577.091671058</DistanceMeters>
          </Trackpoint>
          <Trackpoint>
            <Time>2018-05-22T11:22:39.000Z</Time>
            <Position>
              <LatitudeDegrees>29.05300433747470378875732421875</LatitudeDegrees>
              <LongitudeDegrees>-13.54004767723381519317626953125</LongitudeDegrees>
            </Position>
            <AltitudeMeters>332.600006103515625</AltitudeMeters>
            <DistanceMeters>20584.875745372</DistanceMeters>
          </Trackpoint>
          <Trackpoint>
            <Time>2018-05-22T11:22:52.000Z</Time>
            <Position>
              <LatitudeDegrees>29.0531594865024089813232421875</LatitudeDegrees>
              <LongitudeDegrees>-13.540195114910602569580078125</LongitudeDegrees>
            </Position>
            <AltitudeMeters>333.600006103515625</AltitudeMeters>
            <DistanceMeters>20607.325391839</DistanceMeters>
          </Trackpoint>
          <Trackpoint>
            <Time>2018-05-22T11:23:01.000Z</Time>
            <Position>
              <LatitudeDegrees>29.0532895736396312713623046875</LatitudeDegrees>
              <LongitudeDegrees>-13.5402911715209484100341796875</LongitudeDegrees>
            </Position>
            <AltitudeMeters>334.79998779296875</AltitudeMeters>
            <DistanceMeters>20624.55879499</DistanceMeters>
          </Trackpoint>
          <Trackpoint>
            <Time>2018-05-22T11:23:17.000Z</Time>
            <Position>
              <LatitudeDegrees>29.0534464828670024871826171875</LatitudeDegrees>
              <LongitudeDegrees>-13.54050130583345890045166015625</LongitudeDegrees>
            </Position>
            <AltitudeMeters>336</AltitudeMeters>
            <DistanceMeters>20651.447661286</DistanceMeters>
          </Trackpoint>
          <Trackpoint>
            <Time>2018-05-22T11:23:21.000Z</Time>
            <Position>
              <LatitudeDegrees>29.0534484945237636566162109375</LatitudeDegrees>
              <LongitudeDegrees>-13.5405622422695159912109375</LongitudeDegrees>
            </Position>
            <AltitudeMeters>337.20001220703125</AltitudeMeters>
            <DistanceMeters>20657.381316825</DistanceMeters>
          </Trackpoint>
          <Trackpoint>
            <Time>2018-05-22T11:23:24.000Z</Time>
            <Position>
              <LatitudeDegrees>29.053438939154148101806640625</LatitudeDegrees>
              <LongitudeDegrees>-13.5406073369085788726806640625</LongitudeDegrees>
            </Position>
            <AltitudeMeters>338.20001220703125</AltitudeMeters>
            <DistanceMeters>20661.895835906</DistanceMeters>
          </Trackpoint>
          <Trackpoint>
            <Time>2018-05-22T11:23:29.000Z</Time>
            <Position>
              <LatitudeDegrees>29.05341957695782184600830078125</LatitudeDegrees>
              <LongitudeDegrees>-13.5406834445893764495849609375</LongitudeDegrees>
            </Position>
            <AltitudeMeters>339.399993896484375</AltitudeMeters>
            <DistanceMeters>20669.607650443</DistanceMeters>
          </Trackpoint>
          <Trackpoint>
            <Time>2018-05-22T11:23:37.000Z</Time>
            <Position>
              <LatitudeDegrees>29.0533982031047344207763671875</LatitudeDegrees>
              <LongitudeDegrees>-13.540821075439453125</LongitudeDegrees>
            </Position>
            <AltitudeMeters>340.399993896484375</AltitudeMeters>
            <DistanceMeters>20683.208426743</DistanceMeters>
          </Trackpoint>
          <Trackpoint>
            <Time>2018-05-22T11:23:42.000Z</Time>
            <Position>
              <LatitudeDegrees>29.05339744873344898223876953125</LatitudeDegrees>
              <LongitudeDegrees>-13.5409067384898662567138671875</LongitudeDegrees>
            </Position>
            <AltitudeMeters>341.20001220703125</AltitudeMeters>
            <DistanceMeters>20691.543737664</DistanceMeters>
          </Trackpoint>
          <Trackpoint>
            <Time>2018-05-22T11:23:45.000Z</Time>
            <Position>
              <LatitudeDegrees>29.05339778400957584381103515625</LatitudeDegrees>
              <LongitudeDegrees>-13.54095946066081523895263671875</LongitudeDegrees>
            </Position>
            <AltitudeMeters>341.399993896484375</AltitudeMeters>
            <DistanceMeters>20696.673420185</DistanceMeters>
          </Trackpoint>
          <Trackpoint>
            <Time>2018-05-22T11:23:52.000Z</Time>
            <Position>
              <LatitudeDegrees>29.0534002147614955902099609375</LatitudeDegrees>
              <LongitudeDegrees>-13.54108753614127635955810546875</LongitudeDegrees>
            </Position>
            <AltitudeMeters>342.399993896484375</AltitudeMeters>
            <DistanceMeters>20709.137505997</DistanceMeters>
          </Trackpoint>
          <Trackpoint>
            <Time>2018-05-22T11:23:54.000Z</Time>
            <Position>
              <LatitudeDegrees>29.0534005500376224517822265625</LatitudeDegrees>
              <LongitudeDegrees>-13.54112341068685054779052734375</LongitudeDegrees>
            </Position>
            <AltitudeMeters>342.399993896484375</AltitudeMeters>
            <DistanceMeters>20712.629010429</DistanceMeters>
          </Trackpoint>
          <Trackpoint>
            <Time>2018-05-22T11:24:00.000Z</Time>
            <Position>
              <LatitudeDegrees>29.053396023809909820556640625</LatitudeDegrees>
              <LongitudeDegrees>-13.54123103432357311248779296875</LongitudeDegrees>
            </Position>
            <AltitudeMeters>343.79998779296875</AltitudeMeters>
            <DistanceMeters>20723.112571866</DistanceMeters>
          </Trackpoint>
          <Trackpoint>
            <Time>2018-05-22T11:24:03.000Z</Time>
            <Position>
              <LatitudeDegrees>29.05338956974446773529052734375</LatitudeDegrees>
              <LongitudeDegrees>-13.541282750666141510009765625</LongitudeDegrees>
            </Position>
            <AltitudeMeters>344.79998779296875</AltitudeMeters>
            <DistanceMeters>20728.196279055</DistanceMeters>
          </Trackpoint>
          <Trackpoint>
            <Time>2018-05-22T11:24:11.000Z</Time>
            <Position>
              <LatitudeDegrees>29.05339258722960948944091796875</LatitudeDegrees>
              <LongitudeDegrees>-13.5414287634193897247314453125</LongitudeDegrees>
            </Position>
            <AltitudeMeters>346</AltitudeMeters>
            <DistanceMeters>20742.406824418</DistanceMeters>
          </Trackpoint>
          <Trackpoint>
            <Time>2018-05-22T11:24:23.000Z</Time>
            <Position>
              <LatitudeDegrees>29.053401052951812744140625</LatitudeDegrees>
              <LongitudeDegrees>-13.5416430048644542694091796875</LongitudeDegrees>
            </Position>
            <AltitudeMeters>347</AltitudeMeters>
            <DistanceMeters>20763.272925295</DistanceMeters>
          </Trackpoint>
          <Trackpoint>
            <Time>2018-05-22T11:24:33.000Z</Time>
            <Position>
              <LatitudeDegrees>29.0533435530960559844970703125</LatitudeDegrees>
              <LongitudeDegrees>-13.5417995788156986236572265625</LongitudeDegrees>
            </Position>
            <AltitudeMeters>348</AltitudeMeters>
            <DistanceMeters>20779.796647375</DistanceMeters>
          </Trackpoint>
          <Trackpoint>
            <Time>2018-05-22T11:24:38.000Z</Time>
            <Position>
              <LatitudeDegrees>29.05331262387335300445556640625</LatitudeDegrees>
              <LongitudeDegrees>-13.54188255965709686279296875</LongitudeDegrees>
            </Position>
            <AltitudeMeters>349.20001220703125</AltitudeMeters>
            <DistanceMeters>20788.573639009</DistanceMeters>
          </Trackpoint>
          <Trackpoint>
            <Time>2018-05-22T11:24:49.000Z</Time>
            <Position>
              <LatitudeDegrees>29.0532473288476467132568359375</LatitudeDegrees>
              <LongitudeDegrees>-13.5420724935829639434814453125</LongitudeDegrees>
            </Position>
            <AltitudeMeters>350.20001220703125</AltitudeMeters>
            <DistanceMeters>20808.431266716</DistanceMeters>
          </Trackpoint>
          <Trackpoint>
            <Time>2018-05-22T11:24:55.000Z</Time>
            <Position>
              <LatitudeDegrees>29.0532208420336246490478515625</LatitudeDegrees>
              <LongitudeDegrees>-13.5421744175255298614501953125</LongitudeDegrees>
            </Position>
            <AltitudeMeters>351.20001220703125</AltitudeMeters>
            <DistanceMeters>20818.776966117</DistanceMeters>
          </Trackpoint>
          <Trackpoint>
            <Time>2018-05-22T11:24:57.000Z</Time>
            <Position>
              <LatitudeDegrees>29.05321321450173854827880859375</LatitudeDegrees>
              <LongitudeDegrees>-13.54220752604305744171142578125</LongitudeDegrees>
            </Position>
            <AltitudeMeters>351.600006103515625</AltitudeMeters>
            <DistanceMeters>20822.108326792</DistanceMeters>
          </Trackpoint>
          <Trackpoint>
            <Time>2018-05-22T11:25:00.000Z</Time>
            <Position>
              <LatitudeDegrees>29.05320013873279094696044921875</LatitudeDegrees>
              <LongitudeDegrees>-13.54225513525307178497314453125</LongitudeDegrees>
            </Position>
            <AltitudeMeters>352.399993896484375</AltitudeMeters>
            <DistanceMeters>20826.964926392</DistanceMeters>
          </Trackpoint>
          <Trackpoint>
            <Time>2018-05-22T11:25:03.000Z</Time>
            <Position>
              <LatitudeDegrees>29.05318538658320903778076171875</LatitudeDegrees>
              <LongitudeDegrees>-13.54230559431016445159912109375</LongitudeDegrees>
            </Position>
            <AltitudeMeters>352.79998779296875</AltitudeMeters>
            <DistanceMeters>20832.141048184</DistanceMeters>
          </Trackpoint>
          <Trackpoint>
            <Time>2018-05-22T11:25:05.000Z</Time>
            <Position>
              <LatitudeDegrees>29.0531789325177669525146484375</LatitudeDegrees>
              <LongitudeDegrees>-13.54234063066542148590087890625</LongitudeDegrees>
            </Position>
            <AltitudeMeters>353</AltitudeMeters>
            <DistanceMeters>20835.624785077</DistanceMeters>
          </Trackpoint>
          <Trackpoint>
            <Time>2018-05-22T11:25:09.000Z</Time>
            <Position>
              <LatitudeDegrees>29.053164683282375335693359375</LatitudeDegrees>
              <LongitudeDegrees>-13.5424124635756015777587890625</LongitudeDegrees>
            </Position>
            <AltitudeMeters>353.399993896484375</AltitudeMeters>
            <DistanceMeters>20842.792218711</DistanceMeters>
          </Trackpoint>
          <Trackpoint>
            <Time>2018-05-22T11:25:10.000Z</Time>
            <Position>
              <LatitudeDegrees>29.05315990559756755828857421875</LatitudeDegrees>
              <LongitudeDegrees>-13.54243098758161067962646484375</LongitudeDegrees>
            </Position>
            <AltitudeMeters>353.399993896484375</AltitudeMeters>
            <DistanceMeters>20844.673651666</DistanceMeters>
          </Trackpoint>
          <Trackpoint>
            <Time>2018-05-22T11:25:18.000Z</Time>
            <Position>
              <LatitudeDegrees>29.0531293116509914398193359375</LatitudeDegrees>
              <LongitudeDegrees>-13.54257524013519287109375</LongitudeDegrees>
            </Position>
            <AltitudeMeters>354.600006103515625</AltitudeMeters>
            <DistanceMeters>20859.116149226</DistanceMeters>
          </Trackpoint>
          <Trackpoint>
            <Time>2018-05-22T11:25:22.000Z</Time>
            <Position>
              <LatitudeDegrees>29.05311263166368007659912109375</LatitudeDegrees>
              <LongitudeDegrees>-13.54264564812183380126953125</LongitudeDegrees>
            </Position>
            <AltitudeMeters>356</AltitudeMeters>
            <DistanceMeters>20866.213951455</DistanceMeters>
          </Trackpoint>
          <Trackpoint>
            <Time>2018-05-22T11:25:28.000Z</Time>
            <Position>
              <LatitudeDegrees>29.05309519730508327484130859375</LatitudeDegrees>
              <LongitudeDegrees>-13.54274748824536800384521484375</LongitudeDegrees>
            </Position>
            <AltitudeMeters>357.20001220703125</AltitudeMeters>
            <DistanceMeters>20876.310959084</DistanceMeters>
          </Trackpoint>
          <Trackpoint>
            <Time>2018-05-22T11:25:32.000Z</Time>
            <Position>
              <LatitudeDegrees>29.0530820377171039581298828125</LatitudeDegrees>
              <LongitudeDegrees>-13.54282275773584842681884765625</LongitudeDegrees>
            </Position>
            <AltitudeMeters>358.20001220703125</AltitudeMeters>
            <DistanceMeters>20883.778873928</DistanceMeters>
          </Trackpoint>
          <Trackpoint>
            <Time>2018-05-22T11:25:36.000Z</Time>
            <Position>
              <LatitudeDegrees>29.053077511489391326904296875</LatitudeDegrees>
              <LongitudeDegrees>-13.54289509356021881103515625</LongitudeDegrees>
            </Position>
            <AltitudeMeters>359.399993896484375</AltitudeMeters>
            <DistanceMeters>20890.833927532</DistanceMeters>
          </Trackpoint>
          <Trackpoint>
            <Time>2018-05-22T11:25:41.000Z</Time>
            <Position>
              <LatitudeDegrees>29.0530763380229473114013671875</LatitudeDegrees>
              <LongitudeDegrees>-13.54298570193350315093994140625</LongitudeDegrees>
            </Position>
            <AltitudeMeters>360.600006103515625</AltitudeMeters>
            <DistanceMeters>20899.650952433</DistanceMeters>
          </Trackpoint>
          <Trackpoint>
            <Time>2018-05-22T11:25:48.000Z</Time>
            <Position>
              <LatitudeDegrees>29.05308195389807224273681640625</LatitudeDegrees>
              <LongitudeDegrees>-13.54312500916421413421630859375</LongitudeDegrees>
            </Position>
            <AltitudeMeters>361.600006103515625</AltitudeMeters>
            <DistanceMeters>20913.219489515</DistanceMeters>
          </Trackpoint>
          <Trackpoint>
            <Time>2018-05-22T11:26:07.000Z</Time>
            <Position>
              <LatitudeDegrees>29.05305580236017704010009765625</LatitudeDegrees>
              <LongitudeDegrees>-13.54354494251310825347900390625</LongitudeDegrees>
            </Position>
            <AltitudeMeters>362.600006103515625</AltitudeMeters>
            <DistanceMeters>20954.181294578</DistanceMeters>
          </Trackpoint>
          <Trackpoint>
            <Time>2018-05-22T11:26:14.000Z</Time>
            <Position>
              <LatitudeDegrees>29.052986316382884979248046875</LatitudeDegrees>
              <LongitudeDegrees>-13.54365122504532337188720703125</LongitudeDegrees>
            </Position>
            <AltitudeMeters>363.79998779296875</AltitudeMeters>
            <DistanceMeters>20967.094442591</DistanceMeters>
          </Trackpoint>
          <Trackpoint>
            <Time>2018-05-22T11:26:23.000Z</Time>
            <Position>
              <LatitudeDegrees>29.0528352744877338409423828125</LatitudeDegrees>
              <LongitudeDegrees>-13.5437498800456523895263671875</LongitudeDegrees>
            </Position>
            <AltitudeMeters>365</AltitudeMeters>
            <DistanceMeters>20986.453089302</DistanceMeters>
          </Trackpoint>
          <Trackpoint>
            <Time>2018-05-22T11:26:30.000Z</Time>
            <Position>
              <LatitudeDegrees>29.0527149103581905364990234375</LatitudeDegrees>
              <LongitudeDegrees>-13.54382975958287715911865234375</LongitudeDegrees>
            </Position>
            <AltitudeMeters>366</AltitudeMeters>
            <DistanceMeters>21001.941277729</DistanceMeters>
          </Trackpoint>
          <Trackpoint>
            <Time>2018-05-22T11:26:33.000Z</Time>
            <Position>
              <LatitudeDegrees>29.05266352929174900054931640625</LatitudeDegrees>
              <LongitudeDegrees>-13.54387803934514522552490234375</LongitudeDegrees>
            </Position>
            <AltitudeMeters>367.399993896484375</AltitudeMeters>
            <DistanceMeters>21009.342388707</DistanceMeters>
          </Trackpoint>
          <Trackpoint>
            <Time>2018-05-22T11:26:36.000Z</Time>
            <Position>
              <LatitudeDegrees>29.0526138246059417724609375</LatitudeDegrees>
              <LongitudeDegrees>-13.54391844011843204498291015625</LongitudeDegrees>
            </Position>
            <AltitudeMeters>368.600006103515625</AltitudeMeters>
            <DistanceMeters>21016.128653502</DistanceMeters>
          </Trackpoint>
          <Trackpoint>
            <Time>2018-05-22T11:26:41.000Z</Time>
            <Position>
              <LatitudeDegrees>29.05253830365836620330810546875</LatitudeDegrees>
              <LongitudeDegrees>-13.5439802147448062896728515625</LongitudeDegrees>
            </Position>
            <AltitudeMeters>369.600006103515625</AltitudeMeters>
            <DistanceMeters>21026.461689061</DistanceMeters>
          </Trackpoint>
          <Trackpoint>
            <Time>2018-05-22T11:26:50.000Z</Time>
            <Position>
              <LatitudeDegrees>29.052414000034332275390625</LatitudeDegrees>
              <LongitudeDegrees>-13.5440875031054019927978515625</LongitudeDegrees>
            </Position>
            <AltitudeMeters>370.600006103515625</AltitudeMeters>
            <DistanceMeters>21043.793321786</DistanceMeters>
          </Trackpoint>
          <Trackpoint>
            <Time>2018-05-22T11:26:58.000Z</Time>
            <Position>
              <LatitudeDegrees>29.0523055382072925567626953125</LatitudeDegrees>
              <LongitudeDegrees>-13.5441636107861995697021484375</LongitudeDegrees>
            </Position>
            <AltitudeMeters>371.399993896484375</AltitudeMeters>
            <DistanceMeters>21057.955490684</DistanceMeters>
          </Trackpoint>
          <Trackpoint>
            <Time>2018-05-22T11:26:59.000Z</Time>
            <Position>
              <LatitudeDegrees>29.052293300628662109375</LatitudeDegrees>
              <LongitudeDegrees>-13.5441751778125762939453125</LongitudeDegrees>
            </Position>
            <AltitudeMeters>371.600006103515625</AltitudeMeters>
            <DistanceMeters>21059.725642239</DistanceMeters>
          </Trackpoint>
          <Trackpoint>
            <Time>2018-05-22T11:27:05.000Z</Time>
            <Position>
              <LatitudeDegrees>29.0522052906453609466552734375</LatitudeDegrees>
              <LongitudeDegrees>-13.544248603284358978271484375</LongitudeDegrees>
            </Position>
            <AltitudeMeters>372.79998779296875</AltitudeMeters>
            <DistanceMeters>21071.849650831</DistanceMeters>
          </Trackpoint>
          <Trackpoint>
            <Time>2018-05-22T11:27:13.000Z</Time>
            <Position>
              <LatitudeDegrees>29.05207428149878978729248046875</LatitudeDegrees>
              <LongitudeDegrees>-13.544343151152133941650390625</LongitudeDegrees>
            </Position>
            <AltitudeMeters>373.600006103515625</AltitudeMeters>
            <DistanceMeters>21089.090650117</DistanceMeters>
          </Trackpoint>
          <Trackpoint>
            <Time>2018-05-22T11:27:14.000Z</Time>
            <Position>
              <LatitudeDegrees>29.0520607866346836090087890625</LatitudeDegrees>
              <LongitudeDegrees>-13.54435614310204982757568359375</LongitudeDegrees>
            </Position>
            <AltitudeMeters>373.79998779296875</AltitudeMeters>
            <DistanceMeters>21091.054280083</DistanceMeters>
          </Trackpoint>
          <Trackpoint>
            <Time>2018-05-22T11:27:19.000Z</Time>
            <Position>
              <LatitudeDegrees>29.0519927255809307098388671875</LatitudeDegrees>
              <LongitudeDegrees>-13.5444187559187412261962890625</LongitudeDegrees>
            </Position>
            <AltitudeMeters>374.600006103515625</AltitudeMeters>
            <DistanceMeters>21100.775378271</DistanceMeters>
          </Trackpoint>
          <Trackpoint>
            <Time>2018-05-22T11:27:20.000Z</Time>
            <Position>
              <LatitudeDegrees>29.05197872780263423919677734375</LatitudeDegrees>
              <LongitudeDegrees>-13.54443040676414966583251953125</LongitudeDegrees>
            </Position>
            <AltitudeMeters>374.79998779296875</AltitudeMeters>
            <DistanceMeters>21102.701867674</DistanceMeters>
          </Trackpoint>
          <Trackpoint>
            <Time>2018-05-22T11:27:21.000Z</Time>
            <Position>
              <LatitudeDegrees>29.05196548439562320709228515625</LatitudeDegrees>
              <LongitudeDegrees>-13.54444314725697040557861328125</LongitudeDegrees>
            </Position>
            <AltitudeMeters>374.79998779296875</AltitudeMeters>
            <DistanceMeters>21104.628357076</DistanceMeters>
          </Trackpoint>
          <Trackpoint>
            <Time>2018-05-22T11:27:26.000Z</Time>
            <Position>
              <LatitudeDegrees>29.05189909972250461578369140625</LatitudeDegrees>
              <LongitudeDegrees>-13.54449561797082424163818359375</LongitudeDegrees>
            </Position>
            <AltitudeMeters>376</AltitudeMeters>
            <DistanceMeters>21113.609261418</DistanceMeters>
          </Trackpoint>
          <Trackpoint>
            <Time>2018-05-22T11:27:34.000Z</Time>
            <Position>
              <LatitudeDegrees>29.05176825821399688720703125</LatitudeDegrees>
              <LongitudeDegrees>-13.5445837117731571197509765625</LongitudeDegrees>
            </Position>
            <AltitudeMeters>377.20001220703125</AltitudeMeters>
            <DistanceMeters>21130.507191683</DistanceMeters>
          </Trackpoint>
          <Trackpoint>
            <Time>2018-05-22T11:27:49.000Z</Time>
            <Position>
              <LatitudeDegrees>29.05158544890582561492919921875</LatitudeDegrees>
              <LongitudeDegrees>-13.5447637550532817840576171875</LongitudeDegrees>
            </Position>
            <AltitudeMeters>378.20001220703125</AltitudeMeters>
            <DistanceMeters>21157.356400845</DistanceMeters>
          </Trackpoint>
          <Trackpoint>
            <Time>2018-05-22T11:28:08.000Z</Time>
            <Position>
              <LatitudeDegrees>29.051391072571277618408203125</LatitudeDegrees>
              <LongitudeDegrees>-13.545026443898677825927734375</LongitudeDegrees>
            </Position>
            <AltitudeMeters>379.20001220703125</AltitudeMeters>
            <DistanceMeters>21190.842499042</DistanceMeters>
          </Trackpoint>
          <Trackpoint>
            <Time>2018-05-22T11:28:23.000Z</Time>
            <Position>
              <LatitudeDegrees>29.05131588689982891082763671875</LatitudeDegrees>
              <LongitudeDegrees>-13.5453240014612674713134765625</LongitudeDegrees>
            </Position>
            <AltitudeMeters>380.399993896484375</AltitudeMeters>
            <DistanceMeters>21220.979304258</DistanceMeters>
          </Trackpoint>
          <Trackpoint>
            <Time>2018-05-22T11:28:34.000Z</Time>
            <Position>
              <LatitudeDegrees>29.05129862017929553985595703125</LatitudeDegrees>
              <LongitudeDegrees>-13.5455623827874660491943359375</LongitudeDegrees>
            </Position>
            <AltitudeMeters>381.600006103515625</AltitudeMeters>
            <DistanceMeters>21244.252702706</DistanceMeters>
          </Trackpoint>
          <Trackpoint>
            <Time>2018-05-22T11:28:41.000Z</Time>
            <Position>
              <LatitudeDegrees>29.0513070859014987945556640625</LatitudeDegrees>
              <LongitudeDegrees>-13.5457467846572399139404296875</LongitudeDegrees>
            </Position>
            <AltitudeMeters>382.79998779296875</AltitudeMeters>
            <DistanceMeters>21262.219286762</DistanceMeters>
          </Trackpoint>
          <Trackpoint>
            <Time>2018-05-22T11:28:46.000Z</Time>
            <Position>
              <LatitudeDegrees>29.05132326297461986541748046875</LatitudeDegrees>
              <LongitudeDegrees>-13.545861952006816864013671875</LongitudeDegrees>
            </Position>
            <AltitudeMeters>383.79998779296875</AltitudeMeters>
            <DistanceMeters>21273.568516269</DistanceMeters>
          </Trackpoint>
          <Trackpoint>
            <Time>2018-05-22T11:28:59.000Z</Time>
            <Position>
              <LatitudeDegrees>29.0512702055275440216064453125</LatitudeDegrees>
              <LongitudeDegrees>-13.54618507437407970428466796875</LongitudeDegrees>
            </Position>
            <AltitudeMeters>385</AltitudeMeters>
            <DistanceMeters>21305.557816868</DistanceMeters>
          </Trackpoint>
          <Trackpoint>
            <Time>2018-05-22T11:29:02.000Z</Time>
            <Position>
              <LatitudeDegrees>29.0512497536838054656982421875</LatitudeDegrees>
              <LongitudeDegrees>-13.54625145904719829559326171875</LongitudeDegrees>
            </Position>
            <AltitudeMeters>386.399993896484375</AltitudeMeters>
            <DistanceMeters>21312.406336201</DistanceMeters>
          </Trackpoint>
          <Trackpoint>
            <Time>2018-05-22T11:29:06.000Z</Time>
            <Position>
              <LatitudeDegrees>29.05123022384941577911376953125</LatitudeDegrees>
              <LongitudeDegrees>-13.5463335178792476654052734375</LongitudeDegrees>
            </Position>
            <AltitudeMeters>387.600006103515625</AltitudeMeters>
            <DistanceMeters>21320.681848255</DistanceMeters>
          </Trackpoint>
          <Trackpoint>
            <Time>2018-05-22T11:29:10.000Z</Time>
            <Position>
              <LatitudeDegrees>29.05122318305075168609619140625</LatitudeDegrees>
              <LongitudeDegrees>-13.54641339741647243499755859375</LongitudeDegrees>
            </Position>
            <AltitudeMeters>388.79998779296875</AltitudeMeters>
            <DistanceMeters>21328.494292602</DistanceMeters>
          </Trackpoint>
          <Trackpoint>
            <Time>2018-05-22T11:29:12.000Z</Time>
            <Position>
              <LatitudeDegrees>29.0512351691722869873046875</LatitudeDegrees>
              <LongitudeDegrees>-13.5464525409042835235595703125</LongitudeDegrees>
            </Position>
            <AltitudeMeters>390</AltitudeMeters>
            <DistanceMeters>21332.529292953</DistanceMeters>
          </Trackpoint>
          <Trackpoint>
            <Time>2018-05-22T11:29:22.000Z</Time>
            <Position>
              <LatitudeDegrees>29.0514016337692737579345703125</LatitudeDegrees>
              <LongitudeDegrees>-13.54655723087489604949951171875</LongitudeDegrees>
            </Position>
            <AltitudeMeters>388.79998779296875</AltitudeMeters>
            <DistanceMeters>21353.672683514</DistanceMeters>
          </Trackpoint>
          <Trackpoint>
            <Time>2018-05-22T11:29:40.000Z</Time>
            <Position>
              <LatitudeDegrees>29.05182668007910251617431640625</LatitudeDegrees>
              <LongitudeDegrees>-13.54665664024651050567626953125</LongitudeDegrees>
            </Position>
            <AltitudeMeters>389.79998779296875</AltitudeMeters>
            <DistanceMeters>21401.959814393</DistanceMeters>
          </Trackpoint>
          <Trackpoint>
            <Time>2018-05-22T11:29:55.000Z</Time>
            <Position>
              <LatitudeDegrees>29.05215424485504627227783203125</LatitudeDegrees>
              <LongitudeDegrees>-13.54680382646620273590087890625</LongitudeDegrees>
            </Position>
            <AltitudeMeters>389.600006103515625</AltitudeMeters>
            <DistanceMeters>21441.130305568</DistanceMeters>
          </Trackpoint>
          <Trackpoint>
            <Time>2018-05-22T11:29:56.000Z</Time>
            <Position>
              <LatitudeDegrees>29.0521633811295032501220703125</LatitudeDegrees>
              <LongitudeDegrees>-13.54682628996670246124267578125</LongitudeDegrees>
            </Position>
            <AltitudeMeters>389.79998779296875</AltitudeMeters>
            <DistanceMeters>21443.541813235</DistanceMeters>
          </Trackpoint>
          <Trackpoint>
            <Time>2018-05-22T11:30:00.000Z</Time>
            <Position>
              <LatitudeDegrees>29.0522207133471965789794921875</LatitudeDegrees>
              <LongitudeDegrees>-13.54689451865851879119873046875</LongitudeDegrees>
            </Position>
            <AltitudeMeters>391</AltitudeMeters>
            <DistanceMeters>21452.750093086</DistanceMeters>
          </Trackpoint>
          <Trackpoint>
            <Time>2018-05-22T11:30:16.000Z</Time>
            <Position>
              <LatitudeDegrees>29.05254417099058628082275390625</LatitudeDegrees>
              <LongitudeDegrees>-13.54714899323880672454833984375</LongitudeDegrees>
            </Position>
            <AltitudeMeters>392</AltitudeMeters>
            <DistanceMeters>21496.443888891</DistanceMeters>
          </Trackpoint>
          <Trackpoint>
            <Time>2018-05-22T11:30:28.000Z</Time>
            <Position>
              <LatitudeDegrees>29.0525494515895843505859375</LatitudeDegrees>
              <LongitudeDegrees>-13.54751461185514926910400390625</LongitudeDegrees>
            </Position>
            <AltitudeMeters>393</AltitudeMeters>
            <DistanceMeters>21532.022479587</DistanceMeters>
          </Trackpoint>
          <Trackpoint>
            <Time>2018-05-22T11:30:47.000Z</Time>
            <Position>
              <LatitudeDegrees>29.05258138664066791534423828125</LatitudeDegrees>
              <LongitudeDegrees>-13.5481430031359195709228515625</LongitudeDegrees>
            </Position>
            <AltitudeMeters>393.600006103515625</AltitudeMeters>
            <DistanceMeters>21593.266441351</DistanceMeters>
          </Trackpoint>
          <Trackpoint>
            <Time>2018-05-22T11:31:04.000Z</Time>
            <Position>
              <LatitudeDegrees>29.05267140828073024749755859375</LatitudeDegrees>
              <LongitudeDegrees>-13.54877575300633907318115234375</LongitudeDegrees>
            </Position>
            <AltitudeMeters>392.600006103515625</AltitudeMeters>
            <DistanceMeters>21655.641328093</DistanceMeters>
          </Trackpoint>
          <Trackpoint>
            <Time>2018-05-22T11:31:11.000Z</Time>
            <Position>
              <LatitudeDegrees>29.052732177078723907470703125</LatitudeDegrees>
              <LongitudeDegrees>-13.5490220971405506134033203125</LongitudeDegrees>
            </Position>
            <AltitudeMeters>393.399993896484375</AltitudeMeters>
            <DistanceMeters>21680.545942738</DistanceMeters>
          </Trackpoint>
          <Trackpoint>
            <Time>2018-05-22T11:31:15.000Z</Time>
            <Position>
              <LatitudeDegrees>29.05277936719357967376708984375</LatitudeDegrees>
              <LongitudeDegrees>-13.54916249401867389678955078125</LongitudeDegrees>
            </Position>
            <AltitudeMeters>392</AltitudeMeters>
            <DistanceMeters>21695.180673795</DistanceMeters>
          </Trackpoint>
          <Trackpoint>
            <Time>2018-05-22T11:31:19.000Z</Time>
            <Position>
              <LatitudeDegrees>29.052821360528469085693359375</LatitudeDegrees>
              <LongitudeDegrees>-13.54927967302501201629638671875</LongitudeDegrees>
            </Position>
            <AltitudeMeters>391</AltitudeMeters>
            <DistanceMeters>21707.50267466</DistanceMeters>
          </Trackpoint>
          <Trackpoint>
            <Time>2018-05-22T11:31:25.000Z</Time>
            <Position>
              <LatitudeDegrees>29.0528594143688678741455078125</LatitudeDegrees>
              <LongitudeDegrees>-13.54943892918527126312255859375</LongitudeDegrees>
            </Position>
            <AltitudeMeters>390</AltitudeMeters>
            <DistanceMeters>21723.566405997</DistanceMeters>
          </Trackpoint>
          <Trackpoint>
            <Time>2018-05-22T11:31:30.000Z</Time>
            <Position>
              <LatitudeDegrees>29.0529083646833896636962890625</LatitudeDegrees>
              <LongitudeDegrees>-13.5496182180941104888916015625</LongitudeDegrees>
            </Position>
            <AltitudeMeters>388.79998779296875</AltitudeMeters>
            <DistanceMeters>21741.841700998</DistanceMeters>
          </Trackpoint>
          <Trackpoint>
            <Time>2018-05-22T11:31:40.000Z</Time>
            <Position>
              <LatitudeDegrees>29.05299964360892772674560546875</LatitudeDegrees>
              <LongitudeDegrees>-13.54999699629843235015869140625</LongitudeDegrees>
            </Position>
            <AltitudeMeters>390.20001220703125</AltitudeMeters>
            <DistanceMeters>21780.070323412</DistanceMeters>
          </Trackpoint>
          <Trackpoint>
            <Time>2018-05-22T11:31:43.000Z</Time>
            <Position>
              <LatitudeDegrees>29.05304088257253170013427734375</LatitudeDegrees>
              <LongitudeDegrees>-13.5501365549862384796142578125</LongitudeDegrees>
            </Position>
            <AltitudeMeters>391</AltitudeMeters>
            <DistanceMeters>21794.403615747</DistanceMeters>
          </Trackpoint>
          <Trackpoint>
            <Time>2018-05-22T11:31:46.000Z</Time>
            <Position>
              <LatitudeDegrees>29.0530964545905590057373046875</LatitudeDegrees>
              <LongitudeDegrees>-13.55026471428573131561279296875</LongitudeDegrees>
            </Position>
            <AltitudeMeters>391</AltitudeMeters>
            <DistanceMeters>21808.323002235</DistanceMeters>
          </Trackpoint>
          <Trackpoint>
            <Time>2018-05-22T11:31:48.000Z</Time>
            <Position>
              <LatitudeDegrees>29.05311564914882183074951171875</LatitudeDegrees>
              <LongitudeDegrees>-13.550363369286060333251953125</LongitudeDegrees>
            </Position>
            <AltitudeMeters>391</AltitudeMeters>
            <DistanceMeters>21818.156315947</DistanceMeters>
          </Trackpoint>
          <Trackpoint>
            <Time>2018-05-22T11:31:51.000Z</Time>
            <Position>
              <LatitudeDegrees>29.05312755145132541656494140625</LatitudeDegrees>
              <LongitudeDegrees>-13.55051700957119464874267578125</LongitudeDegrees>
            </Position>
            <AltitudeMeters>391.20001220703125</AltitudeMeters>
            <DistanceMeters>21833.163618722</DistanceMeters>
          </Trackpoint>
          <Trackpoint>
            <Time>2018-05-22T11:31:52.000Z</Time>
            <Position>
              <LatitudeDegrees>29.0531232766807079315185546875</LatitudeDegrees>
              <LongitudeDegrees>-13.55056755244731903076171875</LongitudeDegrees>
            </Position>
            <AltitudeMeters>391.600006103515625</AltitudeMeters>
            <DistanceMeters>21838.104094066</DistanceMeters>
          </Trackpoint>
          <Trackpoint>
            <Time>2018-05-22T11:31:53.000Z</Time>
            <Position>
              <LatitudeDegrees>29.053113721311092376708984375</LatitudeDegrees>
              <LongitudeDegrees>-13.55061289854347705841064453125</LongitudeDegrees>
            </Position>
            <AltitudeMeters>392</AltitudeMeters>
            <DistanceMeters>21842.642552436</DistanceMeters>
          </Trackpoint>
          <Trackpoint>
            <Time>2018-05-22T11:31:55.000Z</Time>
            <Position>
              <LatitudeDegrees>29.0531014837324619293212890625</LatitudeDegrees>
              <LongitudeDegrees>-13.55071096681058406829833984375</LongitudeDegrees>
            </Position>
            <AltitudeMeters>392.20001220703125</AltitudeMeters>
            <DistanceMeters>21852.281091041</DistanceMeters>
          </Trackpoint>
          <Trackpoint>
            <Time>2018-05-22T11:31:57.000Z</Time>
            <Position>
              <LatitudeDegrees>29.0531252883374691009521484375</LatitudeDegrees>
              <LongitudeDegrees>-13.5508114658296108245849609375</LongitudeDegrees>
            </Position>
            <AltitudeMeters>392.600006103515625</AltitudeMeters>
            <DistanceMeters>21862.411580604</DistanceMeters>
          </Trackpoint>
          <Trackpoint>
            <Time>2018-05-22T11:32:02.000Z</Time>
            <Position>
              <LatitudeDegrees>29.05320189893245697021484375</LatitudeDegrees>
              <LongitudeDegrees>-13.55101942084729671478271484375</LongitudeDegrees>
            </Position>
            <AltitudeMeters>393.79998779296875</AltitudeMeters>
            <DistanceMeters>21884.368304431</DistanceMeters>
          </Trackpoint>
          <Trackpoint>
            <Time>2018-05-22T11:32:21.000Z</Time>
            <Position>
              <LatitudeDegrees>29.05349350534379482269287109375</LatitudeDegrees>
              <LongitudeDegrees>-13.551304154098033905029296875</LongitudeDegrees>
            </Position>
            <AltitudeMeters>393.600006103515625</AltitudeMeters>
            <DistanceMeters>21927.040272452</DistanceMeters>
          </Trackpoint>
          <Trackpoint>
            <Time>2018-05-22T11:32:23.000Z</Time>
            <Position>
              <LatitudeDegrees>29.053518064320087432861328125</LatitudeDegrees>
              <LongitudeDegrees>-13.55129049159586429595947265625</LongitudeDegrees>
            </Position>
            <AltitudeMeters>393.600006103515625</AltitudeMeters>
            <DistanceMeters>21930.081127312</DistanceMeters>
          </Trackpoint>
          <Trackpoint>
            <Time>2018-05-22T11:32:44.000Z</Time>
            <Position>
              <LatitudeDegrees>29.05398518778383731842041015625</LatitudeDegrees>
              <LongitudeDegrees>-13.5512436367571353912353515625</LongitudeDegrees>
            </Position>
            <AltitudeMeters>394.79998779296875</AltitudeMeters>
            <DistanceMeters>21982.272425335</DistanceMeters>
          </Trackpoint>
          <Trackpoint>
            <Time>2018-05-22T11:32:59.000Z</Time>
            <Position>
              <LatitudeDegrees>29.054320715367794036865234375</LatitudeDegrees>
              <LongitudeDegrees>-13.55126718990504741668701171875</LongitudeDegrees>
            </Position>
            <AltitudeMeters>395.79998779296875</AltitudeMeters>
            <DistanceMeters>22019.687617849</DistanceMeters>
          </Trackpoint>
          <Trackpoint>
            <Time>2018-05-22T11:33:07.000Z</Time>
            <Position>
              <LatitudeDegrees>29.0544901974499225616455078125</LatitudeDegrees>
              <LongitudeDegrees>-13.551271297037601470947265625</LongitudeDegrees>
            </Position>
            <AltitudeMeters>397</AltitudeMeters>
            <DistanceMeters>22038.555626056</DistanceMeters>
          </Trackpoint>
          <Trackpoint>
            <Time>2018-05-22T11:33:12.000Z</Time>
            <Position>
              <LatitudeDegrees>29.054597318172454833984375</LatitudeDegrees>
              <LongitudeDegrees>-13.551263250410556793212890625</LongitudeDegrees>
            </Position>
            <AltitudeMeters>398</AltitudeMeters>
            <DistanceMeters>22050.504456068</DistanceMeters>
          </Trackpoint>
          <Trackpoint>
            <Time>2018-05-22T11:33:18.000Z</Time>
            <Position>
              <LatitudeDegrees>29.0547118149697780609130859375</LatitudeDegrees>
              <LongitudeDegrees>-13.551232405006885528564453125</LongitudeDegrees>
            </Position>
            <AltitudeMeters>399</AltitudeMeters>
            <DistanceMeters>22063.596433802</DistanceMeters>
          </Trackpoint>
          <Trackpoint>
            <Time>2018-05-22T11:33:22.000Z</Time>
            <Position>
              <LatitudeDegrees>29.0547778643667697906494140625</LatitudeDegrees>
              <LongitudeDegrees>-13.5511970333755016326904296875</LongitudeDegrees>
            </Position>
            <AltitudeMeters>399.79998779296875</AltitudeMeters>
            <DistanceMeters>22071.712738852</DistanceMeters>
          </Trackpoint>
          <Trackpoint>
            <Time>2018-05-22T11:33:23.000Z</Time>
            <Position>
              <LatitudeDegrees>29.05478976666927337646484375</LatitudeDegrees>
              <LongitudeDegrees>-13.5511846281588077545166015625</LongitudeDegrees>
            </Position>
            <AltitudeMeters>400</AltitudeMeters>
            <DistanceMeters>22073.505699313</DistanceMeters>
          </Trackpoint>
          <Trackpoint>
            <Time>2018-05-22T11:33:27.000Z</Time>
            <Position>
              <LatitudeDegrees>29.054806195199489593505859375</LatitudeDegrees>
              <LongitudeDegrees>-13.5511725582182407379150390625</LongitudeDegrees>
            </Position>
            <AltitudeMeters>400.20001220703125</AltitudeMeters>
            <DistanceMeters>22075.680960229</DistanceMeters>
          </Trackpoint>
          <Trackpoint>
            <Time>2018-05-22T11:33:29.000Z</Time>
            <Position>
              <LatitudeDegrees>29.054799489676952362060546875</LatitudeDegrees>
              <LongitudeDegrees>-13.55116576887667179107666015625</LongitudeDegrees>
            </Position>
            <AltitudeMeters>400.20001220703125</AltitudeMeters>
            <DistanceMeters>22076.677608818</DistanceMeters>
          </Trackpoint>
          <Trackpoint>
            <Time>2018-05-22T11:42:13.000Z</Time>
            <Position>
              <LatitudeDegrees>29.05477392487227916717529296875</LatitudeDegrees>
              <LongitudeDegrees>-13.551072813570499420166015625</LongitudeDegrees>
            </Position>
            <AltitudeMeters>399.600006103515625</AltitudeMeters>
            <DistanceMeters>22086.158398918</DistanceMeters>
          </Trackpoint>
          <Trackpoint>
            <Time>2018-05-22T11:42:14.000Z</Time>
            <Position>
              <LatitudeDegrees>29.05477593652904033660888671875</LatitudeDegrees>
              <LongitudeDegrees>-13.5510716401040554046630859375</LongitudeDegrees>
            </Position>
            <AltitudeMeters>399.79998779296875</AltitudeMeters>
            <DistanceMeters>22086.427175055</DistanceMeters>
          </Trackpoint>
          <Trackpoint>
            <Time>2018-05-22T11:42:15.000Z</Time>
            <Position>
              <LatitudeDegrees>29.0547808818519115447998046875</LatitudeDegrees>
              <LongitudeDegrees>-13.55106837116181850433349609375</LongitudeDegrees>
            </Position>
            <AltitudeMeters>399</AltitudeMeters>
            <DistanceMeters>22087.064633634</DistanceMeters>
          </Trackpoint>
          <Trackpoint>
            <Time>2018-05-22T11:42:18.000Z</Time>
            <Position>
              <LatitudeDegrees>29.05478172004222869873046875</LatitudeDegrees>
              <LongitudeDegrees>-13.5510719753801822662353515625</LongitudeDegrees>
            </Position>
            <AltitudeMeters>397.79998779296875</AltitudeMeters>
            <DistanceMeters>22087.432670516</DistanceMeters>
          </Trackpoint>
          <Trackpoint>
            <Time>2018-05-22T11:42:21.000Z</Time>
            <Position>
              <LatitudeDegrees>29.054786749184131622314453125</LatitudeDegrees>
              <LongitudeDegrees>-13.5510736517608165740966796875</LongitudeDegrees>
            </Position>
            <AltitudeMeters>397.600006103515625</AltitudeMeters>
            <DistanceMeters>22088.002830802</DistanceMeters>
          </Trackpoint>
          <Trackpoint>
            <Time>2018-05-22T11:42:23.000Z</Time>
            <Position>
              <LatitudeDegrees>29.0547986514866352081298828125</LatitudeDegrees>
              <LongitudeDegrees>-13.55108630843460559844970703125</LongitudeDegrees>
            </Position>
            <AltitudeMeters>397.600006103515625</AltitudeMeters>
            <DistanceMeters>22089.808338375</DistanceMeters>
          </Trackpoint>
          <Trackpoint>
            <Time>2018-05-22T11:42:26.000Z</Time>
            <Position>
              <LatitudeDegrees>29.05482756905257701873779296875</LatitudeDegrees>
              <LongitudeDegrees>-13.55112419463694095611572265625</LongitudeDegrees>
            </Position>
            <AltitudeMeters>397.399993896484375</AltitudeMeters>
            <DistanceMeters>22094.701983512</DistanceMeters>
          </Trackpoint>
          <Trackpoint>
            <Time>2018-05-22T11:42:28.000Z</Time>
            <Position>
              <LatitudeDegrees>29.0548566542565822601318359375</LatitudeDegrees>
              <LongitudeDegrees>-13.55115286074578762054443359375</LongitudeDegrees>
            </Position>
            <AltitudeMeters>396.79998779296875</AltitudeMeters>
            <DistanceMeters>22098.975016928</DistanceMeters>
          </Trackpoint>
          <Trackpoint>
            <Time>2018-05-22T11:42:31.000Z</Time>
            <Position>
              <LatitudeDegrees>29.05490602366626262664794921875</LatitudeDegrees>
              <LongitudeDegrees>-13.55119560845196247100830078125</LongitudeDegrees>
            </Position>
            <AltitudeMeters>395.399993896484375</AltitudeMeters>
            <DistanceMeters>22105.866910869</DistanceMeters>
          </Trackpoint>
          <Trackpoint>
            <Time>2018-05-22T11:42:32.000Z</Time>
            <Position>
              <LatitudeDegrees>29.05492597259581089019775390625</LatitudeDegrees>
              <LongitudeDegrees>-13.55120684020221233367919921875</LongitudeDegrees>
            </Position>
            <AltitudeMeters>395.20001220703125</AltitudeMeters>
            <DistanceMeters>22108.341257617</DistanceMeters>
          </Trackpoint>
          <Trackpoint>
            <Time>2018-05-22T11:42:33.000Z</Time>
            <Position>
              <LatitudeDegrees>29.05494935810565948486328125</LatitudeDegrees>
              <LongitudeDegrees>-13.55122310109436511993408203125</LongitudeDegrees>
            </Position>
            <AltitudeMeters>395</AltitudeMeters>
            <DistanceMeters>22111.386563596</DistanceMeters>
          </Trackpoint>
          <Trackpoint>
            <Time>2018-05-22T11:42:34.000Z</Time>
            <Position>
              <LatitudeDegrees>29.0549746714532375335693359375</LatitudeDegrees>
              <LongitudeDegrees>-13.55124087072908878326416015625</LongitudeDegrees>
            </Position>
            <AltitudeMeters>394.79998779296875</AltitudeMeters>
            <DistanceMeters>22114.692073012</DistanceMeters>
          </Trackpoint>
          <Trackpoint>
            <Time>2018-05-22T11:42:36.000Z</Time>
            <Position>
              <LatitudeDegrees>29.0550299920141696929931640625</LatitudeDegrees>
              <LongitudeDegrees>-13.551299460232257843017578125</LongitudeDegrees>
            </Position>
            <AltitudeMeters>394.20001220703125</AltitudeMeters>
            <DistanceMeters>22123.082452977</DistanceMeters>
          </Trackpoint>
          <Trackpoint>
            <Time>2018-05-22T11:42:37.000Z</Time>
            <Position>
              <LatitudeDegrees>29.05505404807627201080322265625</LatitudeDegrees>
              <LongitudeDegrees>-13.5513311438262462615966796875</LongitudeDegrees>
            </Position>
            <AltitudeMeters>393.79998779296875</AltitudeMeters>
            <DistanceMeters>22127.165285464</DistanceMeters>
          </Trackpoint>
          <Trackpoint>
            <Time>2018-05-22T11:42:38.000Z</Time>
            <Position>
              <LatitudeDegrees>29.05507600866258144378662109375</LatitudeDegrees>
              <LongitudeDegrees>-13.55136928148567676544189453125</LongitudeDegrees>
            </Position>
            <AltitudeMeters>393.79998779296875</AltitudeMeters>
            <DistanceMeters>22131.608228982</DistanceMeters>
          </Trackpoint>
          <Trackpoint>
            <Time>2018-05-22T11:42:39.000Z</Time>
            <Position>
              <LatitudeDegrees>29.0550973825156688690185546875</LatitudeDegrees>
              <LongitudeDegrees>-13.55141471140086650848388671875</LongitudeDegrees>
            </Position>
            <AltitudeMeters>393.600006103515625</AltitudeMeters>
            <DistanceMeters>22136.627582853</DistanceMeters>
          </Trackpoint>
          <Trackpoint>
            <Time>2018-05-22T11:42:41.000Z</Time>
            <Position>
              <LatitudeDegrees>29.05513937585055828094482421875</LatitudeDegrees>
              <LongitudeDegrees>-13.55151764117181301116943359375</LongitudeDegrees>
            </Position>
            <AltitudeMeters>393</AltitudeMeters>
            <DistanceMeters>22147.678907837</DistanceMeters>
          </Trackpoint>
          <Trackpoint>
            <Time>2018-05-22T11:42:42.000Z</Time>
            <Position>
              <LatitudeDegrees>29.05515915714204311370849609375</LatitudeDegrees>
              <LongitudeDegrees>-13.5515738837420940399169921875</LongitudeDegrees>
            </Position>
            <AltitudeMeters>392.600006103515625</AltitudeMeters>
            <DistanceMeters>22153.576691697</DistanceMeters>
          </Trackpoint>
          <Trackpoint>
            <Time>2018-05-22T11:42:43.000Z</Time>
            <Position>
              <LatitudeDegrees>29.0551751665771007537841796875</LatitudeDegrees>
              <LongitudeDegrees>-13.55163347907364368438720703125</LongitudeDegrees>
            </Position>
            <AltitudeMeters>392</AltitudeMeters>
            <DistanceMeters>22159.64204671</DistanceMeters>
          </Trackpoint>
          <Trackpoint>
            <Time>2018-05-22T11:42:45.000Z</Time>
            <Position>
              <LatitudeDegrees>29.05520416796207427978515625</LatitudeDegrees>
              <LongitudeDegrees>-13.55176247656345367431640625</LongitudeDegrees>
            </Position>
            <AltitudeMeters>390.20001220703125</AltitudeMeters>
            <DistanceMeters>22172.601265888</DistanceMeters>
          </Trackpoint>
          <Trackpoint>
            <Time>2018-05-22T11:42:47.000Z</Time>
            <Position>
              <LatitudeDegrees>29.0552264638245105743408203125</LatitudeDegrees>
              <LongitudeDegrees>-13.5518980957567691802978515625</LongitudeDegrees>
            </Position>
            <AltitudeMeters>388.20001220703125</AltitudeMeters>
            <DistanceMeters>22186.027299776</DistanceMeters>
          </Trackpoint>
          <Trackpoint>
            <Time>2018-05-22T11:42:49.000Z</Time>
            <Position>
              <LatitudeDegrees>29.0552516095340251922607421875</LatitudeDegrees>
              <LongitudeDegrees>-13.5520394146442413330078125</LongitudeDegrees>
            </Position>
            <AltitudeMeters>387</AltitudeMeters>
            <DistanceMeters>22200.058791383</DistanceMeters>
          </Trackpoint>
          <Trackpoint>
            <Time>2018-05-22T11:42:51.000Z</Time>
            <Position>
              <LatitudeDegrees>29.05528253875672817230224609375</LatitudeDegrees>
              <LongitudeDegrees>-13.55220881290733814239501953125</LongitudeDegrees>
            </Position>
            <AltitudeMeters>386</AltitudeMeters>
            <DistanceMeters>22216.89622735</DistanceMeters>
          </Trackpoint>
          <Trackpoint>
            <Time>2018-05-22T11:42:52.000Z</Time>
            <Position>
              <LatitudeDegrees>29.05530014075338840484619140625</LatitudeDegrees>
              <LongitudeDegrees>-13.552305959165096282958984375</LongitudeDegrees>
            </Position>
            <AltitudeMeters>385.20001220703125</AltitudeMeters>
            <DistanceMeters>22226.549276549</DistanceMeters>
          </Trackpoint>
          <Trackpoint>
            <Time>2018-05-22T11:42:53.000Z</Time>
            <Position>
              <LatitudeDegrees>29.05532076023519039154052734375</LatitudeDegrees>
              <LongitudeDegrees>-13.552407883107662200927734375</LongitudeDegrees>
            </Position>
            <AltitudeMeters>384</AltitudeMeters>
            <DistanceMeters>22236.728230184</DistanceMeters>
          </Trackpoint>
          <Trackpoint>
            <Time>2018-05-22T11:42:54.000Z</Time>
            <Position>
              <LatitudeDegrees>29.055341966450214385986328125</LatitudeDegrees>
              <LongitudeDegrees>-13.55251341126859188079833984375</LongitudeDegrees>
            </Position>
            <AltitudeMeters>383</AltitudeMeters>
            <DistanceMeters>22247.263346205</DistanceMeters>
          </Trackpoint>
          <Trackpoint>
            <Time>2018-05-22T11:42:55.000Z</Time>
            <Position>
              <LatitudeDegrees>29.05536367557942867279052734375</LatitudeDegrees>
              <LongitudeDegrees>-13.55262254364788532257080078125</LongitudeDegrees>
            </Position>
            <AltitudeMeters>382</AltitudeMeters>
            <DistanceMeters>22258.152926724</DistanceMeters>
          </Trackpoint>
          <Trackpoint>
            <Time>2018-05-22T11:42:56.000Z</Time>
            <Position>
              <LatitudeDegrees>29.0553860552608966827392578125</LatitudeDegrees>
              <LongitudeDegrees>-13.55273586697876453399658203125</LongitudeDegrees>
            </Position>
            <AltitudeMeters>381</AltitudeMeters>
            <DistanceMeters>22269.456712889</DistanceMeters>
          </Trackpoint>
          <Trackpoint>
            <Time>2018-05-22T11:42:57.000Z</Time>
            <Position>
              <LatitudeDegrees>29.05540944077074527740478515625</LatitudeDegrees>
              <LongitudeDegrees>-13.5528509505093097686767578125</LongitudeDegrees>
            </Position>
            <AltitudeMeters>380</AltitudeMeters>
            <DistanceMeters>22280.952196293</DistanceMeters>
          </Trackpoint>
          <Trackpoint>
            <Time>2018-05-22T11:42:58.000Z</Time>
            <Position>
              <LatitudeDegrees>29.055433161556720733642578125</LatitudeDegrees>
              <LongitudeDegrees>-13.55296838097274303436279296875</LongitudeDegrees>
            </Position>
            <AltitudeMeters>379</AltitudeMeters>
            <DistanceMeters>22292.67866226</DistanceMeters>
          </Trackpoint>
          <Trackpoint>
            <Time>2018-05-22T11:43:00.000Z</Time>
            <Position>
              <LatitudeDegrees>29.05547632835805416107177734375</LatitudeDegrees>
              <LongitudeDegrees>-13.55320827104151248931884765625</LongitudeDegrees>
            </Position>
            <AltitudeMeters>377.20001220703125</AltitudeMeters>
            <DistanceMeters>22316.508209615</DistanceMeters>
          </Trackpoint>
          <Trackpoint>
            <Time>2018-05-22T11:43:01.000Z</Time>
            <Position>
              <LatitudeDegrees>29.055497534573078155517578125</LatitudeDegrees>
              <LongitudeDegrees>-13.553328551352024078369140625</LongitudeDegrees>
            </Position>
            <AltitudeMeters>376.20001220703125</AltitudeMeters>
            <DistanceMeters>22328.446454733</DistanceMeters>
          </Trackpoint>
          <Trackpoint>
            <Time>2018-05-22T11:43:02.000Z</Time>
            <Position>
              <LatitudeDegrees>29.05552008189260959625244140625</LatitudeDegrees>
              <LongitudeDegrees>-13.55344682000577449798583984375</LongitudeDegrees>
            </Position>
            <AltitudeMeters>375.20001220703125</AltitudeMeters>
            <DistanceMeters>22340.224018329</DistanceMeters>
          </Trackpoint>
          <Trackpoint>
            <Time>2018-05-22T11:43:03.000Z</Time>
            <Position>
              <LatitudeDegrees>29.0555427968502044677734375</LatitudeDegrees>
              <LongitudeDegrees>-13.55356399901211261749267578125</LongitudeDegrees>
            </Position>
            <AltitudeMeters>373.79998779296875</AltitudeMeters>
            <DistanceMeters>22351.901869778</DistanceMeters>
          </Trackpoint>
          <Trackpoint>
            <Time>2018-05-22T11:43:04.000Z</Time>
            <Position>
              <LatitudeDegrees>29.055567272007465362548828125</LatitudeDegrees>
              <LongitudeDegrees>-13.55368201620876789093017578125</LongitudeDegrees>
            </Position>
            <AltitudeMeters>372.600006103515625</AltitudeMeters>
            <DistanceMeters>22363.703177714</DistanceMeters>
          </Trackpoint>
          <Trackpoint>
            <Time>2018-05-22T11:43:05.000Z</Time>
            <Position>
              <LatitudeDegrees>29.05559174716472625732421875</LatitudeDegrees>
              <LongitudeDegrees>-13.55380070395767688751220703125</LongitudeDegrees>
            </Position>
            <AltitudeMeters>371.399993896484375</AltitudeMeters>
            <DistanceMeters>22375.567825272</DistanceMeters>
          </Trackpoint>
          <Trackpoint>
            <Time>2018-05-22T11:43:06.000Z</Time>
            <Position>
              <LatitudeDegrees>29.05561496503651142120361328125</LatitudeDegrees>
              <LongitudeDegrees>-13.5539181344211101531982421875</LongitudeDegrees>
            </Position>
            <AltitudeMeters>370.399993896484375</AltitudeMeters>
            <DistanceMeters>22387.281963808</DistanceMeters>
          </Trackpoint>
          <Trackpoint>
            <Time>2018-05-22T11:43:07.000Z</Time>
            <Position>
              <LatitudeDegrees>29.055635668337345123291015625</LatitudeDegrees>
              <LongitudeDegrees>-13.5540296137332916259765625</LongitudeDegrees>
            </Position>
            <AltitudeMeters>369.399993896484375</AltitudeMeters>
            <DistanceMeters>22398.370811852</DistanceMeters>
          </Trackpoint>
          <Trackpoint>
            <Time>2018-05-22T11:43:08.000Z</Time>
            <Position>
              <LatitudeDegrees>29.055655114352703094482421875</LatitudeDegrees>
              <LongitudeDegrees>-13.55413212440907955169677734375</LongitudeDegrees>
            </Position>
            <AltitudeMeters>368.600006103515625</AltitudeMeters>
            <DistanceMeters>22408.576344748</DistanceMeters>
          </Trackpoint>
          <Trackpoint>
            <Time>2018-05-22T11:43:09.000Z</Time>
            <Position>
              <LatitudeDegrees>29.0556774102151393890380859375</LatitudeDegrees>
              <LongitudeDegrees>-13.55422449298202991485595703125</LongitudeDegrees>
            </Position>
            <AltitudeMeters>367.79998779296875</AltitudeMeters>
            <DistanceMeters>22417.899622919</DistanceMeters>
          </Trackpoint>
          <Trackpoint>
            <Time>2018-05-22T11:43:10.000Z</Time>
            <Position>
              <LatitudeDegrees>29.0557117760181427001953125</LatitudeDegrees>
              <LongitudeDegrees>-13.55430898256599903106689453125</LongitudeDegrees>
            </Position>
            <AltitudeMeters>367.399993896484375</AltitudeMeters>
            <DistanceMeters>22426.966585804</DistanceMeters>
          </Trackpoint>
          <Trackpoint>
            <Time>2018-05-22T11:43:11.000Z</Time>
            <Position>
              <LatitudeDegrees>29.05576340854167938232421875</LatitudeDegrees>
              <LongitudeDegrees>-13.55438056401908397674560546875</LongitudeDegrees>
            </Position>
            <AltitudeMeters>366.399993896484375</AltitudeMeters>
            <DistanceMeters>22435.995623966</DistanceMeters>
          </Trackpoint>
          <Trackpoint>
            <Time>2018-05-22T11:43:12.000Z</Time>
            <Position>
              <LatitudeDegrees>29.05583054758608341217041015625</LatitudeDegrees>
              <LongitudeDegrees>-13.55443437583744525909423828125</LongitudeDegrees>
            </Position>
            <AltitudeMeters>364.79998779296875</AltitudeMeters>
            <DistanceMeters>22445.120168054</DistanceMeters>
          </Trackpoint>
          <Trackpoint>
            <Time>2018-05-22T11:43:13.000Z</Time>
            <Position>
              <LatitudeDegrees>29.05591084621846675872802734375</LatitudeDegrees>
              <LongitudeDegrees>-13.554467149078845977783203125</LongitudeDegrees>
            </Position>
            <AltitudeMeters>363.20001220703125</AltitudeMeters>
            <DistanceMeters>22454.609526425</DistanceMeters>
          </Trackpoint>
          <Trackpoint>
            <Time>2018-05-22T11:43:14.000Z</Time>
            <Position>
              <LatitudeDegrees>29.0559989400207996368408203125</LatitudeDegrees>
              <LongitudeDegrees>-13.55448265559971332550048828125</LongitudeDegrees>
            </Position>
            <AltitudeMeters>362.20001220703125</AltitudeMeters>
            <DistanceMeters>22464.529696438</DistanceMeters>
          </Trackpoint>
          <Trackpoint>
            <Time>2018-05-22T11:43:15.000Z</Time>
            <Position>
              <LatitudeDegrees>29.05609524808824062347412109375</LatitudeDegrees>
              <LongitudeDegrees>-13.55447712354362010955810546875</LongitudeDegrees>
            </Position>
            <AltitudeMeters>361.20001220703125</AltitudeMeters>
            <DistanceMeters>22475.262247631</DistanceMeters>
          </Trackpoint>
          <Trackpoint>
            <Time>2018-05-22T11:43:16.000Z</Time>
            <Position>
              <LatitudeDegrees>29.05619524419307708740234375</LatitudeDegrees>
              <LongitudeDegrees>-13.55445801280438899993896484375</LongitudeDegrees>
            </Position>
            <AltitudeMeters>360.20001220703125</AltitudeMeters>
            <DistanceMeters>22486.546444897</DistanceMeters>
          </Trackpoint>
          <Trackpoint>
            <Time>2018-05-22T11:43:17.000Z</Time>
            <Position>
              <LatitudeDegrees>29.05629758723080158233642578125</LatitudeDegrees>
              <LongitudeDegrees>-13.55443353764712810516357421875</LongitudeDegrees>
            </Position>
            <AltitudeMeters>359.399993896484375</AltitudeMeters>
            <DistanceMeters>22498.183629111</DistanceMeters>
          </Trackpoint>
          <Trackpoint>
            <Time>2018-05-22T11:43:18.000Z</Time>
            <Position>
              <LatitudeDegrees>29.05640286393463611602783203125</LatitudeDegrees>
              <LongitudeDegrees>-13.55440889485180377960205078125</LongitudeDegrees>
            </Position>
            <AltitudeMeters>358.399993896484375</AltitudeMeters>
            <DistanceMeters>22510.144167186</DistanceMeters>
          </Trackpoint>
          <Trackpoint>
            <Time>2018-05-22T11:43:19.000Z</Time>
            <Position>
              <LatitudeDegrees>29.0565109066665172576904296875</LatitudeDegrees>
              <LongitudeDegrees>-13.55438089929521083831787109375</LongitudeDegrees>
            </Position>
            <AltitudeMeters>356.79998779296875</AltitudeMeters>
            <DistanceMeters>22522.474226675</DistanceMeters>
          </Trackpoint>
          <Trackpoint>
            <Time>2018-05-22T11:43:20.000Z</Time>
            <Position>
              <LatitudeDegrees>29.05662112869322299957275390625</LatitudeDegrees>
              <LongitudeDegrees>-13.55434787459671497344970703125</LongitudeDegrees>
            </Position>
            <AltitudeMeters>354.600006103515625</AltitudeMeters>
            <DistanceMeters>22535.155932454</DistanceMeters>
          </Trackpoint>
          <Trackpoint>
            <Time>2018-05-22T11:43:21.000Z</Time>
            <Position>
              <LatitudeDegrees>29.05673361383378505706787109375</LatitudeDegrees>
              <LongitudeDegrees>-13.55431535281240940093994140625</LongitudeDegrees>
            </Position>
            <AltitudeMeters>352.600006103515625</AltitudeMeters>
            <DistanceMeters>22548.069779742</DistanceMeters>
          </Trackpoint>
          <Trackpoint>
            <Time>2018-05-22T11:43:22.000Z</Time>
            <Position>
              <LatitudeDegrees>29.05684509314596652984619140625</LatitudeDegrees>
              <LongitudeDegrees>-13.554293476045131683349609375</LongitudeDegrees>
            </Position>
            <AltitudeMeters>351.20001220703125</AltitudeMeters>
            <DistanceMeters>22560.65893665</DistanceMeters>
          </Trackpoint>
          <Trackpoint>
            <Time>2018-05-22T11:43:24.000Z</Time>
            <Position>
              <LatitudeDegrees>29.057065956294536590576171875</LatitudeDegrees>
              <LongitudeDegrees>-13.5543231479823589324951171875</LongitudeDegrees>
            </Position>
            <AltitudeMeters>349.399993896484375</AltitudeMeters>
            <DistanceMeters>22585.410431681</DistanceMeters>
          </Trackpoint>
          <Trackpoint>
            <Time>2018-05-22T11:43:25.000Z</Time>
            <Position>
              <LatitudeDegrees>29.05716888606548309326171875</LatitudeDegrees>
              <LongitudeDegrees>-13.55438626371324062347412109375</LongitudeDegrees>
            </Position>
            <AltitudeMeters>348.399993896484375</AltitudeMeters>
            <DistanceMeters>22598.408613487</DistanceMeters>
          </Trackpoint>
          <Trackpoint>
            <Time>2018-05-22T11:43:26.000Z</Time>
            <Position>
              <LatitudeDegrees>29.0572555549442768096923828125</LatitudeDegrees>
              <LongitudeDegrees>-13.5544802248477935791015625</LongitudeDegrees>
            </Position>
            <AltitudeMeters>347.20001220703125</AltitudeMeters>
            <DistanceMeters>22611.698771321</DistanceMeters>
          </Trackpoint>
          <Trackpoint>
            <Time>2018-05-22T11:43:28.000Z</Time>
            <Position>
              <LatitudeDegrees>29.05739511363208293914794921875</LatitudeDegrees>
              <LongitudeDegrees>-13.5547135770320892333984375</LongitudeDegrees>
            </Position>
            <AltitudeMeters>345</AltitudeMeters>
            <DistanceMeters>22639.207322828</DistanceMeters>
          </Trackpoint>
          <Trackpoint>
            <Time>2018-05-22T11:43:29.000Z</Time>
            <Position>
              <LatitudeDegrees>29.05745814554393291473388671875</LatitudeDegrees>
              <LongitudeDegrees>-13.5548381321132183074951171875</LongitudeDegrees>
            </Position>
            <AltitudeMeters>343.399993896484375</AltitudeMeters>
            <DistanceMeters>22653.210146825</DistanceMeters>
          </Trackpoint>
          <Trackpoint>
            <Time>2018-05-22T11:43:30.000Z</Time>
            <Position>
              <LatitudeDegrees>29.05751765705645084381103515625</LatitudeDegrees>
              <LongitudeDegrees>-13.55496771633625030517578125</LongitudeDegrees>
            </Position>
            <AltitudeMeters>341.79998779296875</AltitudeMeters>
            <DistanceMeters>22667.452112177</DistanceMeters>
          </Trackpoint>
          <Trackpoint>
            <Time>2018-05-22T11:43:31.000Z</Time>
            <Position>
              <LatitudeDegrees>29.0575717203319072723388671875</LatitudeDegrees>
              <LongitudeDegrees>-13.55509973131120204925537109375</LongitudeDegrees>
            </Position>
            <AltitudeMeters>340.20001220703125</AltitudeMeters>
            <DistanceMeters>22681.635943574</DistanceMeters>
          </Trackpoint>
          <Trackpoint>
            <Time>2018-05-22T11:43:32.000Z</Time>
            <Position>
              <LatitudeDegrees>29.057624526321887969970703125</LatitudeDegrees>
              <LongitudeDegrees>-13.55523350648581981658935546875</LongitudeDegrees>
            </Position>
            <AltitudeMeters>338.79998779296875</AltitudeMeters>
            <DistanceMeters>22695.916849585</DistanceMeters>
          </Trackpoint>
          <Trackpoint>
            <Time>2018-05-22T11:43:33.000Z</Time>
            <Position>
              <LatitudeDegrees>29.05767976306378841400146484375</LatitudeDegrees>
              <LongitudeDegrees>-13.55536677874624729156494140625</LongitudeDegrees>
            </Position>
            <AltitudeMeters>337.399993896484375</AltitudeMeters>
            <DistanceMeters>22710.266827397</DistanceMeters>
          </Trackpoint>
          <Trackpoint>
            <Time>2018-05-22T11:43:34.000Z</Time>
            <Position>
              <LatitudeDegrees>29.057741872966289520263671875</LatitudeDegrees>
              <LongitudeDegrees>-13.5554946027696132659912109375</LongitudeDegrees>
            </Position>
            <AltitudeMeters>336</AltitudeMeters>
            <DistanceMeters>22724.495471531</DistanceMeters>
          </Trackpoint>
          <Trackpoint>
            <Time>2018-05-22T11:43:35.000Z</Time>
            <Position>
              <LatitudeDegrees>29.05781588517129421234130859375</LatitudeDegrees>
              <LongitudeDegrees>-13.555613793432712554931640625</LongitudeDegrees>
            </Position>
            <AltitudeMeters>334.600006103515625</AltitudeMeters>
            <DistanceMeters>22738.719989902</DistanceMeters>
          </Trackpoint>
          <Trackpoint>
            <Time>2018-05-22T11:43:36.000Z</Time>
            <Position>
              <LatitudeDegrees>29.05790322460234165191650390625</LatitudeDegrees>
              <LongitudeDegrees>-13.55572007596492767333984375</LongitudeDegrees>
            </Position>
            <AltitudeMeters>333.20001220703125</AltitudeMeters>
            <DistanceMeters>22752.912413414</DistanceMeters>
          </Trackpoint>
          <Trackpoint>
            <Time>2018-05-22T11:43:37.000Z</Time>
            <Position>
              <LatitudeDegrees>29.058004729449748992919921875</LatitudeDegrees>
              <LongitudeDegrees>-13.55580515228211879730224609375</LongitudeDegrees>
            </Position>
            <AltitudeMeters>331.600006103515625</AltitudeMeters>
            <DistanceMeters>22766.91813905</DistanceMeters>
          </Trackpoint>
          <Trackpoint>
            <Time>2018-05-22T11:43:38.000Z</Time>
            <Position>
              <LatitudeDegrees>29.05811704695224761962890625</LatitudeDegrees>
              <LongitudeDegrees>-13.55586835183203220367431640625</LongitudeDegrees>
            </Position>
            <AltitudeMeters>330.20001220703125</AltitudeMeters>
            <DistanceMeters>22780.849846163</DistanceMeters>
          </Trackpoint>
          <Trackpoint>
            <Time>2018-05-22T11:43:39.000Z</Time>
            <Position>
              <LatitudeDegrees>29.05823498032987117767333984375</LatitudeDegrees>
              <LongitudeDegrees>-13.5559130273759365081787109375</LongitudeDegrees>
            </Position>
            <AltitudeMeters>328.79998779296875</AltitudeMeters>
            <DistanceMeters>22794.677131094</DistanceMeters>
          </Trackpoint>
          <Trackpoint>
            <Time>2018-05-22T11:43:40.000Z</Time>
            <Position>
              <LatitudeDegrees>29.05835333280265331268310546875</LatitudeDegrees>
              <LongitudeDegrees>-13.55595401488244533538818359375</LongitudeDegrees>
            </Position>
            <AltitudeMeters>327.600006103515625</AltitudeMeters>
            <DistanceMeters>22808.44059518</DistanceMeters>
          </Trackpoint>
          <Trackpoint>
            <Time>2018-05-22T11:43:42.000Z</Time>
            <Position>
              <LatitudeDegrees>29.05858869664371013641357421875</LatitudeDegrees>
              <LongitudeDegrees>-13.55603523552417755126953125</LongitudeDegrees>
            </Position>
            <AltitudeMeters>326</AltitudeMeters>
            <DistanceMeters>22835.802844138</DistanceMeters>
          </Trackpoint>
          <Trackpoint>
            <Time>2018-05-22T11:43:44.000Z</Time>
            <Position>
              <LatitudeDegrees>29.0588226355612277984619140625</LatitudeDegrees>
              <LongitudeDegrees>-13.55612802319228649139404296875</LongitudeDegrees>
            </Position>
            <AltitudeMeters>324.20001220703125</AltitudeMeters>
            <DistanceMeters>22863.361246654</DistanceMeters>
          </Trackpoint>
          <Trackpoint>
            <Time>2018-05-22T11:43:45.000Z</Time>
            <Position>
              <LatitudeDegrees>29.05894258059561252593994140625</LatitudeDegrees>
              <LongitudeDegrees>-13.55617496185004711151123046875</LongitudeDegrees>
            </Position>
            <AltitudeMeters>323</AltitudeMeters>
            <DistanceMeters>22877.471033873</DistanceMeters>
          </Trackpoint>
          <Trackpoint>
            <Time>2018-05-22T11:43:46.000Z</Time>
            <Position>
              <LatitudeDegrees>29.05906478874385356903076171875</LatitudeDegrees>
              <LongitudeDegrees>-13.5562231577932834625244140625</LongitudeDegrees>
            </Position>
            <AltitudeMeters>321.79998779296875</AltitudeMeters>
            <DistanceMeters>22891.85871862</DistanceMeters>
          </Trackpoint>
          <Trackpoint>
            <Time>2018-05-22T11:43:47.000Z</Time>
            <Position>
              <LatitudeDegrees>29.05918565578758716583251953125</LatitudeDegrees>
              <LongitudeDegrees>-13.556273616850376129150390625</LongitudeDegrees>
            </Position>
            <AltitudeMeters>320.399993896484375</AltitudeMeters>
            <DistanceMeters>22906.179089986</DistanceMeters>
          </Trackpoint>
          <Trackpoint>
            <Time>2018-05-22T11:43:49.000Z</Time>
            <Position>
              <LatitudeDegrees>29.0594200976192951202392578125</LatitudeDegrees>
              <LongitudeDegrees>-13.556358776986598968505859375</LongitudeDegrees>
            </Position>
            <AltitudeMeters>319</AltitudeMeters>
            <DistanceMeters>22933.556680551</DistanceMeters>
          </Trackpoint>
          <Trackpoint>
            <Time>2018-05-22T11:43:54.000Z</Time>
            <Position>
              <LatitudeDegrees>29.05977523885667324066162109375</LatitudeDegrees>
              <LongitudeDegrees>-13.55650403536856174468994140625</LongitudeDegrees>
            </Position>
            <AltitudeMeters>320.399993896484375</AltitudeMeters>
            <DistanceMeters>22975.535047572</DistanceMeters>
          </Trackpoint>
          <Trackpoint>
            <Time>2018-05-22T11:43:59.000Z</Time>
            <Position>
              <LatitudeDegrees>29.05983340926468372344970703125</LatitudeDegrees>
              <LongitudeDegrees>-13.55658366344869136810302734375</LongitudeDegrees>
            </Position>
            <AltitudeMeters>321.20001220703125</AltitudeMeters>
            <DistanceMeters>22985.631608025</DistanceMeters>
          </Trackpoint>
          <Trackpoint>
            <Time>2018-05-22T11:44:01.000Z</Time>
            <Position>
              <LatitudeDegrees>29.0598230995237827301025390625</LatitudeDegrees>
              <LongitudeDegrees>-13.5566335357725620269775390625</LongitudeDegrees>
            </Position>
            <AltitudeMeters>321.20001220703125</AltitudeMeters>
            <DistanceMeters>22990.616662726</DistanceMeters>
          </Trackpoint>
          <Trackpoint>
            <Time>2018-05-22T11:44:18.000Z</Time>
            <Position>
              <LatitudeDegrees>29.05949930660426616668701171875</LatitudeDegrees>
              <LongitudeDegrees>-13.55701625347137451171875</LongitudeDegrees>
            </Position>
            <AltitudeMeters>319.600006103515625</AltitudeMeters>
            <DistanceMeters>23042.43585494</DistanceMeters>
          </Trackpoint>
          <Trackpoint>
            <Time>2018-05-22T12:33:00.000Z</Time>
            <Position>
              <LatitudeDegrees>29.0594056807458400726318359375</LatitudeDegrees>
              <LongitudeDegrees>-13.5570737533271312713623046875</LongitudeDegrees>
            </Position>
            <AltitudeMeters>317.600006103515625</AltitudeMeters>
            <DistanceMeters>23054.263150244</DistanceMeters>
          </Trackpoint>
          <Trackpoint>
            <Time>2018-05-22T12:33:01.000Z</Time>
            <Position>
              <LatitudeDegrees>29.059392102062702178955078125</LatitudeDegrees>
              <LongitudeDegrees>-13.5570885054767131805419921875</LongitudeDegrees>
            </Position>
            <AltitudeMeters>329.399993896484375</AltitudeMeters>
            <DistanceMeters>23056.347248795</DistanceMeters>
          </Trackpoint>
          <Trackpoint>
            <Time>2018-05-22T12:33:09.000Z</Time>
            <Position>
              <LatitudeDegrees>29.05927198939025402069091796875</LatitudeDegrees>
              <LongitudeDegrees>-13.557236194610595703125</LongitudeDegrees>
            </Position>
            <AltitudeMeters>329.600006103515625</AltitudeMeters>
            <DistanceMeters>23075.973428779</DistanceMeters>
          </Trackpoint>
          <Trackpoint>
            <Time>2018-05-22T12:33:12.000Z</Time>
            <Position>
              <LatitudeDegrees>29.05921675264835357666015625</LatitudeDegrees>
              <LongitudeDegrees>-13.55731104500591754913330078125</LongitudeDegrees>
            </Position>
            <AltitudeMeters>329.20001220703125</AltitudeMeters>
            <DistanceMeters>23085.50409187</DistanceMeters>
          </Trackpoint>
          <Trackpoint>
            <Time>2018-05-22T12:33:17.000Z</Time>
            <Position>
              <LatitudeDegrees>29.0591096319258213043212890625</LatitudeDegrees>
              <LongitudeDegrees>-13.55744607746601104736328125</LongitudeDegrees>
            </Position>
            <AltitudeMeters>329.20001220703125</AltitudeMeters>
            <DistanceMeters>23103.24484395</DistanceMeters>
          </Trackpoint>
          <Trackpoint>
            <Time>2018-05-22T12:33:18.000Z</Time>
            <Position>
              <LatitudeDegrees>29.05909068882465362548828125</LatitudeDegrees>
              <LongitudeDegrees>-13.55747533030807971954345703125</LongitudeDegrees>
            </Position>
            <AltitudeMeters>329.20001220703125</AltitudeMeters>
            <DistanceMeters>23106.786422155</DistanceMeters>
          </Trackpoint>
          <Trackpoint>
            <Time>2018-05-22T12:33:19.000Z</Time>
            <Position>
              <LatitudeDegrees>29.0590710751712322235107421875</LatitudeDegrees>
              <LongitudeDegrees>-13.557508103549480438232421875</LongitudeDegrees>
            </Position>
            <AltitudeMeters>329.20001220703125</AltitudeMeters>
            <DistanceMeters>23110.6511015</DistanceMeters>
          </Trackpoint>
          <Trackpoint>
            <Time>2018-05-22T12:33:22.000Z</Time>
            <Position>
              <LatitudeDegrees>29.05899706296622753143310546875</LatitudeDegrees>
              <LongitudeDegrees>-13.5576008073985576629638671875</LongitudeDegrees>
            </Position>
            <AltitudeMeters>329</AltitudeMeters>
            <DistanceMeters>23122.866378131</DistanceMeters>
          </Trackpoint>
          <Trackpoint>
            <Time>2018-05-22T12:33:23.000Z</Time>
            <Position>
              <LatitudeDegrees>29.0589714981615543365478515625</LatitudeDegrees>
              <LongitudeDegrees>-13.55762855149805545806884765625</LongitudeDegrees>
            </Position>
            <AltitudeMeters>329</AltitudeMeters>
            <DistanceMeters>23126.789036701</DistanceMeters>
          </Trackpoint>
          <Trackpoint>
            <Time>2018-05-22T12:33:28.000Z</Time>
            <Position>
              <LatitudeDegrees>29.05885373242199420928955078125</LatitudeDegrees>
              <LongitudeDegrees>-13.557760231196880340576171875</LongitudeDegrees>
            </Position>
            <AltitudeMeters>329</AltitudeMeters>
            <DistanceMeters>23145.117618312</DistanceMeters>
          </Trackpoint>
          <Trackpoint>
            <Time>2018-05-22T12:33:32.000Z</Time>
            <Position>
              <LatitudeDegrees>29.0587534010410308837890625</LatitudeDegrees>
              <LongitudeDegrees>-13.55787749402225017547607421875</LongitudeDegrees>
            </Position>
            <AltitudeMeters>328.600006103515625</AltitudeMeters>
            <DistanceMeters>23161.082106326</DistanceMeters>
          </Trackpoint>
          <Trackpoint>
            <Time>2018-05-22T12:33:34.000Z</Time>
            <Position>
              <LatitudeDegrees>29.05869548209011554718017578125</LatitudeDegrees>
              <LongitudeDegrees>-13.55794320814311504364013671875</LongitudeDegrees>
            </Position>
            <AltitudeMeters>328.399993896484375</AltitudeMeters>
            <DistanceMeters>23170.160515201</DistanceMeters>
          </Trackpoint>
          <Trackpoint>
            <Time>2018-05-22T12:33:38.000Z</Time>
            <Position>
              <LatitudeDegrees>29.05858232639729976654052734375</LatitudeDegrees>
              <LongitudeDegrees>-13.55807782150804996490478515625</LongitudeDegrees>
            </Position>
            <AltitudeMeters>327.600006103515625</AltitudeMeters>
            <DistanceMeters>23188.33025914</DistanceMeters>
          </Trackpoint>
          <Trackpoint>
            <Time>2018-05-22T12:33:40.000Z</Time>
            <Position>
              <LatitudeDegrees>29.05853035859763622283935546875</LatitudeDegrees>
              <LongitudeDegrees>-13.558150827884674072265625</LongitudeDegrees>
            </Position>
            <AltitudeMeters>327.399993896484375</AltitudeMeters>
            <DistanceMeters>23197.489868315</DistanceMeters>
          </Trackpoint>
          <Trackpoint>
            <Time>2018-05-22T12:33:42.000Z</Time>
            <Position>
              <LatitudeDegrees>29.0584769658744335174560546875</LatitudeDegrees>
              <LongitudeDegrees>-13.5582267679274082183837890625</LongitudeDegrees>
            </Position>
            <AltitudeMeters>327</AltitudeMeters>
            <DistanceMeters>23206.971610828</DistanceMeters>
          </Trackpoint>
          <Trackpoint>
            <Time>2018-05-22T12:33:44.000Z</Time>
            <Position>
              <LatitudeDegrees>29.05841820873320102691650390625</LatitudeDegrees>
              <LongitudeDegrees>-13.5583045519888401031494140625</LongitudeDegrees>
            </Position>
            <AltitudeMeters>326</AltitudeMeters>
            <DistanceMeters>23216.973370015</DistanceMeters>
          </Trackpoint>
          <Trackpoint>
            <Time>2018-05-22T12:33:50.000Z</Time>
            <Position>
              <LatitudeDegrees>29.058231376111507415771484375</LatitudeDegrees>
              <LongitudeDegrees>-13.55852030217647552490234375</LongitudeDegrees>
            </Position>
            <AltitudeMeters>325</AltitudeMeters>
            <DistanceMeters>23246.52056651</DistanceMeters>
          </Trackpoint>
          <Trackpoint>
            <Time>2018-05-22T12:33:53.000Z</Time>
            <Position>
              <LatitudeDegrees>29.05813573859632015228271484375</LatitudeDegrees>
              <LongitudeDegrees>-13.55863924138247966766357421875</LongitudeDegrees>
            </Position>
            <AltitudeMeters>325</AltitudeMeters>
            <DistanceMeters>23262.243396176</DistanceMeters>
          </Trackpoint>
          <Trackpoint>
            <Time>2018-05-22T12:34:01.000Z</Time>
            <Position>
              <LatitudeDegrees>29.05784673057496547698974609375</LatitudeDegrees>
              <LongitudeDegrees>-13.5588912852108478546142578125</LongitudeDegrees>
            </Position>
            <AltitudeMeters>324</AltitudeMeters>
            <DistanceMeters>23302.691525799</DistanceMeters>
          </Trackpoint>
          <Trackpoint>
            <Time>2018-05-22T12:34:08.000Z</Time>
            <Position>
              <LatitudeDegrees>29.05764120630919933319091796875</LatitudeDegrees>
              <LongitudeDegrees>-13.55906210839748382568359375</LongitudeDegrees>
            </Position>
            <AltitudeMeters>323</AltitudeMeters>
            <DistanceMeters>23330.967043623</DistanceMeters>
          </Trackpoint>
          <Trackpoint>
            <Time>2018-05-22T12:34:11.000Z</Time>
            <Position>
              <LatitudeDegrees>29.05757264234125614166259765625</LatitudeDegrees>
              <LongitudeDegrees>-13.55912245810031890869140625</LongitudeDegrees>
            </Position>
            <AltitudeMeters>322.600006103515625</AltitudeMeters>
            <DistanceMeters>23340.595740048</DistanceMeters>
          </Trackpoint>
          <Trackpoint>
            <Time>2018-05-22T12:34:16.000Z</Time>
            <Position>
              <LatitudeDegrees>29.0574805252254009246826171875</LatitudeDegrees>
              <LongitudeDegrees>-13.55927576310932636260986328125</LongitudeDegrees>
            </Position>
            <AltitudeMeters>322</AltitudeMeters>
            <DistanceMeters>23358.695273557</DistanceMeters>
          </Trackpoint>
          <Trackpoint>
            <Time>2018-05-22T12:34:17.000Z</Time>
            <Position>
              <LatitudeDegrees>29.05744247138500213623046875</LatitudeDegrees>
              <LongitudeDegrees>-13.5593009926378726959228515625</LongitudeDegrees>
            </Position>
            <AltitudeMeters>321.79998779296875</AltitudeMeters>
            <DistanceMeters>23363.590763612</DistanceMeters>
          </Trackpoint>
          <Trackpoint>
            <Time>2018-05-22T12:34:18.000Z</Time>
            <Position>
              <LatitudeDegrees>29.0573962032794952392578125</LatitudeDegrees>
              <LongitudeDegrees>-13.55931867845356464385986328125</LongitudeDegrees>
            </Position>
            <AltitudeMeters>321.600006103515625</AltitudeMeters>
            <DistanceMeters>23369.019775448</DistanceMeters>
          </Trackpoint>
          <Trackpoint>
            <Time>2018-05-22T12:34:21.000Z</Time>
            <Position>
              <LatitudeDegrees>29.05723803676664829254150390625</LatitudeDegrees>
              <LongitudeDegrees>-13.5593737475574016571044921875</LongitudeDegrees>
            </Position>
            <AltitudeMeters>321</AltitudeMeters>
            <DistanceMeters>23387.421128835</DistanceMeters>
          </Trackpoint>
          <Trackpoint>
            <Time>2018-05-22T12:34:22.000Z</Time>
            <Position>
              <LatitudeDegrees>29.057180620729923248291015625</LatitudeDegrees>
              <LongitudeDegrees>-13.55940417386591434478759765625</LongitudeDegrees>
            </Position>
            <AltitudeMeters>320.79998779296875</AltitudeMeters>
            <DistanceMeters>23394.464012471</DistanceMeters>
          </Trackpoint>
          <Trackpoint>
            <Time>2018-05-22T12:34:23.000Z</Time>
            <Position>
              <LatitudeDegrees>29.05712320469319820404052734375</LatitudeDegrees>
              <LongitudeDegrees>-13.5594438202679157257080078125</LongitudeDegrees>
            </Position>
            <AltitudeMeters>320.399993896484375</AltitudeMeters>
            <DistanceMeters>23401.927693974</DistanceMeters>
          </Trackpoint>
          <Trackpoint>
            <Time>2018-05-22T12:34:26.000Z</Time>
            <Position>
              <LatitudeDegrees>29.0569370426237583160400390625</LatitudeDegrees>
              <LongitudeDegrees>-13.5595859773457050323486328125</LongitudeDegrees>
            </Position>
            <AltitudeMeters>319.600006103515625</AltitudeMeters>
            <DistanceMeters>23426.839921772</DistanceMeters>
          </Trackpoint>
          <Trackpoint>
            <Time>2018-05-22T12:34:33.000Z</Time>
            <Position>
              <LatitudeDegrees>29.05643530189990997314453125</LatitudeDegrees>
              <LongitudeDegrees>-13.5599789209663867950439453125</LongitudeDegrees>
            </Position>
            <AltitudeMeters>318</AltitudeMeters>
            <DistanceMeters>23494.517357997</DistanceMeters>
          </Trackpoint>
          <Trackpoint>
            <Time>2018-05-22T12:34:35.000Z</Time>
            <Position>
              <LatitudeDegrees>29.0562777221202850341796875</LatitudeDegrees>
              <LongitudeDegrees>-13.56009014882147312164306640625</LongitudeDegrees>
            </Position>
            <AltitudeMeters>316.20001220703125</AltitudeMeters>
            <DistanceMeters>23515.126328023</DistanceMeters>
          </Trackpoint>
          <Trackpoint>
            <Time>2018-05-22T12:34:38.000Z</Time>
            <Position>
              <LatitudeDegrees>29.05602366663515567779541015625</LatitudeDegrees>
              <LongitudeDegrees>-13.56024823151528835296630859375</LongitudeDegrees>
            </Position>
            <AltitudeMeters>315.20001220703125</AltitudeMeters>
            <DistanceMeters>23547.315566776</DistanceMeters>
          </Trackpoint>
          <Trackpoint>
            <Time>2018-05-22T12:34:42.000Z</Time>
            <Position>
              <LatitudeDegrees>29.05567011795938014984130859375</LatitudeDegrees>
              <LongitudeDegrees>-13.560434393584728240966796875</LongitudeDegrees>
            </Position>
            <AltitudeMeters>314</AltitudeMeters>
            <DistanceMeters>23590.634617848</DistanceMeters>
          </Trackpoint>
          <Trackpoint>
            <Time>2018-05-22T12:34:46.000Z</Time>
            <Position>
              <LatitudeDegrees>29.0552955307066440582275390625</LatitudeDegrees>
              <LongitudeDegrees>-13.5606157779693603515625</LongitudeDegrees>
            </Position>
            <AltitudeMeters>312.600006103515625</AltitudeMeters>
            <DistanceMeters>23635.908240762</DistanceMeters>
          </Trackpoint>
          <Trackpoint>
            <Time>2018-05-22T12:34:49.000Z</Time>
            <Position>
              <LatitudeDegrees>29.05500023625791072845458984375</LatitudeDegrees>
              <LongitudeDegrees>-13.5607604496181011199951171875</LongitudeDegrees>
            </Position>
            <AltitudeMeters>311.20001220703125</AltitudeMeters>
            <DistanceMeters>23671.662539273</DistanceMeters>
          </Trackpoint>
          <Trackpoint>
            <Time>2018-05-22T12:34:51.000Z</Time>
            <Position>
              <LatitudeDegrees>29.054802171885967254638671875</LatitudeDegrees>
              <LongitudeDegrees>-13.5608596913516521453857421875</LongitudeDegrees>
            </Position>
            <AltitudeMeters>310</AltitudeMeters>
            <DistanceMeters>23695.729450029</DistanceMeters>
          </Trackpoint>
          <Trackpoint>
            <Time>2018-05-22T12:34:54.000Z</Time>
            <Position>
              <LatitudeDegrees>29.0544955618679523468017578125</LatitudeDegrees>
              <LongitudeDegrees>-13.56101601384580135345458984375</LongitudeDegrees>
            </Position>
            <AltitudeMeters>309</AltitudeMeters>
            <DistanceMeters>23733.091629131</DistanceMeters>
          </Trackpoint>
          <Trackpoint>
            <Time>2018-05-22T12:34:56.000Z</Time>
            <Position>
              <LatitudeDegrees>29.0542883612215518951416015625</LatitudeDegrees>
              <LongitudeDegrees>-13.56111668050289154052734375</LongitudeDegrees>
            </Position>
            <AltitudeMeters>307.79998779296875</AltitudeMeters>
            <DistanceMeters>23758.146986131</DistanceMeters>
          </Trackpoint>
          <Trackpoint>
            <Time>2018-05-22T12:34:58.000Z</Time>
            <Position>
              <LatitudeDegrees>29.054079316556453704833984375</LatitudeDegrees>
              <LongitudeDegrees>-13.56121726334095001220703125</LongitudeDegrees>
            </Position>
            <AltitudeMeters>306.600006103515625</AltitudeMeters>
            <DistanceMeters>23783.388342544</DistanceMeters>
          </Trackpoint>
          <Trackpoint>
            <Time>2018-05-22T12:35:00.000Z</Time>
            <Position>
              <LatitudeDegrees>29.05387002043426036834716796875</LatitudeDegrees>
              <LongitudeDegrees>-13.5613171756267547607421875</LongitudeDegrees>
            </Position>
            <AltitudeMeters>305.399993896484375</AltitudeMeters>
            <DistanceMeters>23808.630414446</DistanceMeters>
          </Trackpoint>
          <Trackpoint>
            <Time>2018-05-22T12:35:04.000Z</Time>
            <Position>
              <LatitudeDegrees>29.0534639172255992889404296875</LatitudeDegrees>
              <LongitudeDegrees>-13.561519682407379150390625</LongitudeDegrees>
            </Position>
            <AltitudeMeters>304.20001220703125</AltitudeMeters>
            <DistanceMeters>23857.938200664</DistanceMeters>
          </Trackpoint>
          <Trackpoint>
            <Time>2018-05-22T12:35:08.000Z</Time>
            <Position>
              <LatitudeDegrees>29.05307223089039325714111328125</LatitudeDegrees>
              <LongitudeDegrees>-13.56171925552189350128173828125</LongitudeDegrees>
            </Position>
            <AltitudeMeters>303.20001220703125</AltitudeMeters>
            <DistanceMeters>23905.662618536</DistanceMeters>
          </Trackpoint>
          <Trackpoint>
            <Time>2018-05-22T12:35:11.000Z</Time>
            <Position>
              <LatitudeDegrees>29.0527900122106075286865234375</LatitudeDegrees>
              <LongitudeDegrees>-13.5618645139038562774658203125</LongitudeDegrees>
            </Position>
            <AltitudeMeters>301.399993896484375</AltitudeMeters>
            <DistanceMeters>23940.10741036</DistanceMeters>
          </Trackpoint>
          <Trackpoint>
            <Time>2018-05-22T12:35:14.000Z</Time>
            <Position>
              <LatitudeDegrees>29.05250393785536289215087890625</LatitudeDegrees>
              <LongitudeDegrees>-13.5620065033435821533203125</LongitudeDegrees>
            </Position>
            <AltitudeMeters>300.20001220703125</AltitudeMeters>
            <DistanceMeters>23974.81610478</DistanceMeters>
          </Trackpoint>
          <Trackpoint>
            <Time>2018-05-22T12:35:17.000Z</Time>
            <Position>
              <LatitudeDegrees>29.05221677385270595550537109375</LatitudeDegrees>
              <LongitudeDegrees>-13.56215125881135463714599609375</LongitudeDegrees>
            </Position>
            <AltitudeMeters>299</AltitudeMeters>
            <DistanceMeters>24009.743561132</DistanceMeters>
          </Trackpoint>
          <Trackpoint>
            <Time>2018-05-22T12:35:19.000Z</Time>
            <Position>
              <LatitudeDegrees>29.0520225651562213897705078125</LatitudeDegrees>
              <LongitudeDegrees>-13.5622510872781276702880859375</LongitudeDegrees>
            </Position>
            <AltitudeMeters>297.600006103515625</AltitudeMeters>
            <DistanceMeters>24033.441249924</DistanceMeters>
          </Trackpoint>
          <Trackpoint>
            <Time>2018-05-22T12:35:21.000Z</Time>
            <Position>
              <LatitudeDegrees>29.05182466842234134674072265625</LatitudeDegrees>
              <LongitudeDegrees>-13.56235049664974212646484375</LongitudeDegrees>
            </Position>
            <AltitudeMeters>296.20001220703125</AltitudeMeters>
            <DistanceMeters>24057.497652586</DistanceMeters>
          </Trackpoint>
          <Trackpoint>
            <Time>2018-05-22T12:35:24.000Z</Time>
            <Position>
              <LatitudeDegrees>29.051528871059417724609375</LatitudeDegrees>
              <LongitudeDegrees>-13.5624919831752777099609375</LongitudeDegrees>
            </Position>
            <AltitudeMeters>295.399993896484375</AltitudeMeters>
            <DistanceMeters>24093.182809307</DistanceMeters>
          </Trackpoint>
          <Trackpoint>
            <Time>2018-05-22T12:35:25.000Z</Time>
            <Position>
              <LatitudeDegrees>29.05143105424940586090087890625</LatitudeDegrees>
              <LongitudeDegrees>-13.5625390894711017608642578125</LongitudeDegrees>
            </Position>
            <AltitudeMeters>295.20001220703125</AltitudeMeters>
            <DistanceMeters>24104.995207083</DistanceMeters>
          </Trackpoint>
          <Trackpoint>
            <Time>2018-05-22T12:35:26.000Z</Time>
            <Position>
              <LatitudeDegrees>29.05133399181067943572998046875</LatitudeDegrees>
              <LongitudeDegrees>-13.5625870339572429656982421875</LongitudeDegrees>
            </Position>
            <AltitudeMeters>295</AltitudeMeters>
            <DistanceMeters>24116.762799117</DistanceMeters>
          </Trackpoint>
          <Trackpoint>
            <Time>2018-05-22T12:35:30.000Z</Time>
            <Position>
              <LatitudeDegrees>29.0509459935128688812255859375</LatitudeDegrees>
              <LongitudeDegrees>-13.562780320644378662109375</LongitudeDegrees>
            </Position>
            <AltitudeMeters>294</AltitudeMeters>
            <DistanceMeters>24163.86519398</DistanceMeters>
          </Trackpoint>
          <Trackpoint>
            <Time>2018-05-22T12:35:33.000Z</Time>
            <Position>
              <LatitudeDegrees>29.0506531298160552978515625</LatitudeDegrees>
              <LongitudeDegrees>-13.56291786767542362213134765625</LongitudeDegrees>
            </Position>
            <AltitudeMeters>293</AltitudeMeters>
            <DistanceMeters>24199.101914613</DistanceMeters>
          </Trackpoint>
          <Trackpoint>
            <Time>2018-05-22T12:35:34.000Z</Time>
            <Position>
              <LatitudeDegrees>29.0505560673773288726806640625</LatitudeDegrees>
              <LongitudeDegrees>-13.56296262703835964202880859375</LongitudeDegrees>
            </Position>
            <AltitudeMeters>292.79998779296875</AltitudeMeters>
            <DistanceMeters>24210.749957305</DistanceMeters>
          </Trackpoint>
          <Trackpoint>
            <Time>2018-05-22T12:35:35.000Z</Time>
            <Position>
              <LatitudeDegrees>29.0504554845392704010009765625</LatitudeDegrees>
              <LongitudeDegrees>-13.56300688348710536956787109375</LongitudeDegrees>
            </Position>
            <AltitudeMeters>292.399993896484375</AltitudeMeters>
            <DistanceMeters>24222.744798196</DistanceMeters>
          </Trackpoint>
          <Trackpoint>
            <Time>2018-05-22T12:35:37.000Z</Time>
            <Position>
              <LatitudeDegrees>29.05025004409253597259521484375</LatitudeDegrees>
              <LongitudeDegrees>-13.56308542191982269287109375</LongitudeDegrees>
            </Position>
            <AltitudeMeters>291.79998779296875</AltitudeMeters>
            <DistanceMeters>24246.853882802</DistanceMeters>
          </Trackpoint>
          <Trackpoint>
            <Time>2018-05-22T12:35:38.000Z</Time>
            <Position>
              <LatitudeDegrees>29.050143845379352569580078125</LatitudeDegrees>
              <LongitudeDegrees>-13.5631169378757476806640625</LongitudeDegrees>
            </Position>
            <AltitudeMeters>291.20001220703125</AltitudeMeters>
            <DistanceMeters>24259.06546265</DistanceMeters>
          </Trackpoint>
          <Trackpoint>
            <Time>2018-05-22T12:35:39.000Z</Time>
            <Position>
              <LatitudeDegrees>29.05003597028553485870361328125</LatitudeDegrees>
              <LongitudeDegrees>-13.56314300559461116790771484375</LongitudeDegrees>
            </Position>
            <AltitudeMeters>290.399993896484375</AltitudeMeters>
            <DistanceMeters>24271.336793254</DistanceMeters>
          </Trackpoint>
          <Trackpoint>
            <Time>2018-05-22T12:35:40.000Z</Time>
            <Position>
              <LatitudeDegrees>29.0499254129827022552490234375</LatitudeDegrees>
              <LongitudeDegrees>-13.563166223466396331787109375</LongitudeDegrees>
            </Position>
            <AltitudeMeters>290</AltitudeMeters>
            <DistanceMeters>24283.847882138</DistanceMeters>
          </Trackpoint>
          <Trackpoint>
            <Time>2018-05-22T12:35:41.000Z</Time>
            <Position>
              <LatitudeDegrees>29.04981317929923534393310546875</LatitudeDegrees>
              <LongitudeDegrees>-13.563187681138515472412109375</LongitudeDegrees>
            </Position>
            <AltitudeMeters>289.600006103515625</AltitudeMeters>
            <DistanceMeters>24296.512487059</DistanceMeters>
          </Trackpoint>
          <Trackpoint>
            <Time>2018-05-22T12:35:42.000Z</Time>
            <Position>
              <LatitudeDegrees>29.04969885013997554779052734375</LatitudeDegrees>
              <LongitudeDegrees>-13.563207127153873443603515625</LongitudeDegrees>
            </Position>
            <AltitudeMeters>289.20001220703125</AltitudeMeters>
            <DistanceMeters>24309.377644312</DistanceMeters>
          </Trackpoint>
          <Trackpoint>
            <Time>2018-05-22T12:35:44.000Z</Time>
            <Position>
              <LatitudeDegrees>29.0494714491069316864013671875</LatitudeDegrees>
              <LongitudeDegrees>-13.56324995867908000946044921875</LongitudeDegrees>
            </Position>
            <AltitudeMeters>288.20001220703125</AltitudeMeters>
            <DistanceMeters>24335.02887333</DistanceMeters>
          </Trackpoint>
          <Trackpoint>
            <Time>2018-05-22T12:35:46.000Z</Time>
            <Position>
              <LatitudeDegrees>29.0492468141019344329833984375</LatitudeDegrees>
              <LongitudeDegrees>-13.56329262256622314453125</LongitudeDegrees>
            </Position>
            <AltitudeMeters>287.20001220703125</AltitudeMeters>
            <DistanceMeters>24360.373408398</DistanceMeters>
          </Trackpoint>
          <Trackpoint>
            <Time>2018-05-22T12:35:48.000Z</Time>
            <Position>
              <LatitudeDegrees>29.04902176000177860260009765625</LatitudeDegrees>
              <LongitudeDegrees>-13.56333486735820770263671875</LongitudeDegrees>
            </Position>
            <AltitudeMeters>286</AltitudeMeters>
            <DistanceMeters>24385.757283292</DistanceMeters>
          </Trackpoint>
          <Trackpoint>
            <Time>2018-05-22T12:35:51.000Z</Time>
            <Position>
              <LatitudeDegrees>29.04868899844586849212646484375</LatitudeDegrees>
              <LongitudeDegrees>-13.5633973963558673858642578125</LongitudeDegrees>
            </Position>
            <AltitudeMeters>285</AltitudeMeters>
            <DistanceMeters>24423.290549946</DistanceMeters>
          </Trackpoint>
          <Trackpoint>
            <Time>2018-05-22T12:35:54.000Z</Time>
            <Position>
              <LatitudeDegrees>29.0483529679477214813232421875</LatitudeDegrees>
              <LongitudeDegrees>-13.563461601734161376953125</LongitudeDegrees>
            </Position>
            <AltitudeMeters>283.79998779296875</AltitudeMeters>
            <DistanceMeters>24461.209424033</DistanceMeters>
          </Trackpoint>
          <Trackpoint>
            <Time>2018-05-22T12:35:58.000Z</Time>
            <Position>
              <LatitudeDegrees>29.04790294356644153594970703125</LatitudeDegrees>
              <LongitudeDegrees>-13.563544750213623046875</LongitudeDegrees>
            </Position>
            <AltitudeMeters>282.600006103515625</AltitudeMeters>
            <DistanceMeters>24511.947282807</DistanceMeters>
          </Trackpoint>
          <Trackpoint>
            <Time>2018-05-22T12:36:00.000Z</Time>
            <Position>
              <LatitudeDegrees>29.047682248055934906005859375</LatitudeDegrees>
              <LongitudeDegrees>-13.56359227560460567474365234375</LongitudeDegrees>
            </Position>
            <AltitudeMeters>281.20001220703125</AltitudeMeters>
            <DistanceMeters>24536.942560339</DistanceMeters>
          </Trackpoint>
          <Trackpoint>
            <Time>2018-05-22T12:36:02.000Z</Time>
            <Position>
              <LatitudeDegrees>29.0474591217935085296630859375</LatitudeDegrees>
              <LongitudeDegrees>-13.56363468803465366363525390625</LongitudeDegrees>
            </Position>
            <AltitudeMeters>280.20001220703125</AltitudeMeters>
            <DistanceMeters>24562.117646145</DistanceMeters>
          </Trackpoint>
          <Trackpoint>
            <Time>2018-05-22T12:36:04.000Z</Time>
            <Position>
              <LatitudeDegrees>29.04723406769335269927978515625</LatitudeDegrees>
              <LongitudeDegrees>-13.5636736638844013214111328125</LongitudeDegrees>
            </Position>
            <AltitudeMeters>279</AltitudeMeters>
            <DistanceMeters>24587.452203048</DistanceMeters>
          </Trackpoint>
          <Trackpoint>
            <Time>2018-05-22T12:36:06.000Z</Time>
            <Position>
              <LatitudeDegrees>29.04700289480388164520263671875</LatitudeDegrees>
              <LongitudeDegrees>-13.5637045092880725860595703125</LongitudeDegrees>
            </Position>
            <AltitudeMeters>277.79998779296875</AltitudeMeters>
            <DistanceMeters>24613.356527216</DistanceMeters>
          </Trackpoint>
          <Trackpoint>
            <Time>2018-05-22T12:36:08.000Z</Time>
            <Position>
              <LatitudeDegrees>29.04676853679120540618896484375</LatitudeDegrees>
              <LongitudeDegrees>-13.56369973160326480865478515625</LongitudeDegrees>
            </Position>
            <AltitudeMeters>276.20001220703125</AltitudeMeters>
            <DistanceMeters>24639.445297824</DistanceMeters>
          </Trackpoint>
          <Trackpoint>
            <Time>2018-05-22T12:36:10.000Z</Time>
            <Position>
              <LatitudeDegrees>29.04653820209205150604248046875</LatitudeDegrees>
              <LongitudeDegrees>-13.56363468803465366363525390625</LongitudeDegrees>
            </Position>
            <AltitudeMeters>274.600006103515625</AltitudeMeters>
            <DistanceMeters>24665.851783826</DistanceMeters>
          </Trackpoint>
          <Trackpoint>
            <Time>2018-05-22T12:36:11.000Z</Time>
            <Position>
              <LatitudeDegrees>29.04642663896083831787109375</LatitudeDegrees>
              <LongitudeDegrees>-13.56358422897756099700927734375</LongitudeDegrees>
            </Position>
            <AltitudeMeters>273.399993896484375</AltitudeMeters>
            <DistanceMeters>24679.204643422</DistanceMeters>
          </Trackpoint>
          <Trackpoint>
            <Time>2018-05-22T12:36:12.000Z</Time>
            <Position>
              <LatitudeDegrees>29.0463138185441493988037109375</LatitudeDegrees>
              <LongitudeDegrees>-13.56352572329342365264892578125</LongitudeDegrees>
            </Position>
            <AltitudeMeters>272.20001220703125</AltitudeMeters>
            <DistanceMeters>24692.99170653</DistanceMeters>
          </Trackpoint>
          <Trackpoint>
            <Time>2018-05-22T12:36:14.000Z</Time>
            <Position>
              <LatitudeDegrees>29.04608541168272495269775390625</LatitudeDegrees>
              <LongitudeDegrees>-13.5634000785648822784423828125</LongitudeDegrees>
            </Position>
            <AltitudeMeters>270.399993896484375</AltitudeMeters>
            <DistanceMeters>24721.200719211</DistanceMeters>
          </Trackpoint>
          <Trackpoint>
            <Time>2018-05-22T12:36:16.000Z</Time>
            <Position>
              <LatitudeDegrees>29.0458487905561923980712890625</LatitudeDegrees>
              <LongitudeDegrees>-13.5632723383605480194091796875</LongitudeDegrees>
            </Position>
            <AltitudeMeters>268.79998779296875</AltitudeMeters>
            <DistanceMeters>24750.322802748</DistanceMeters>
          </Trackpoint>
          <Trackpoint>
            <Time>2018-05-22T12:36:17.000Z</Time>
            <Position>
              <LatitudeDegrees>29.04572901315987110137939453125</LatitudeDegrees>
              <LongitudeDegrees>-13.5632069595158100128173828125</LongitudeDegrees>
            </Position>
            <AltitudeMeters>267.600006103515625</AltitudeMeters>
            <DistanceMeters>24765.094490775</DistanceMeters>
          </Trackpoint>
          <Trackpoint>
            <Time>2018-05-22T12:36:18.000Z</Time>
            <Position>
              <LatitudeDegrees>29.045610241591930389404296875</LatitudeDegrees>
              <LongitudeDegrees>-13.56314199976623058319091796875</LongitudeDegrees>
            </Position>
            <AltitudeMeters>266.600006103515625</AltitudeMeters>
            <DistanceMeters>24779.747104792</DistanceMeters>
          </Trackpoint>
          <Trackpoint>
            <Time>2018-05-22T12:36:20.000Z</Time>
            <Position>
              <LatitudeDegrees>29.04537043534219264984130859375</LatitudeDegrees>
              <LongitudeDegrees>-13.5630118288099765777587890625</LongitudeDegrees>
            </Position>
            <AltitudeMeters>264.79998779296875</AltitudeMeters>
            <DistanceMeters>24809.291092152</DistanceMeters>
          </Trackpoint>
          <Trackpoint>
            <Time>2018-05-22T12:36:22.000Z</Time>
            <Position>
              <LatitudeDegrees>29.04512979090213775634765625</LatitudeDegrees>
              <LongitudeDegrees>-13.5628787241876125335693359375</LongitudeDegrees>
            </Position>
            <AltitudeMeters>263.79998779296875</AltitudeMeters>
            <DistanceMeters>24839.042346295</DistanceMeters>
          </Trackpoint>
          <Trackpoint>
            <Time>2018-05-22T12:36:25.000Z</Time>
            <Position>
              <LatitudeDegrees>29.04476861469447612762451171875</LatitudeDegrees>
              <LongitudeDegrees>-13.56268418021500110626220703125</LongitudeDegrees>
            </Position>
            <AltitudeMeters>262.20001220703125</AltitudeMeters>
            <DistanceMeters>24883.476049425</DistanceMeters>
          </Trackpoint>
          <Trackpoint>
            <Time>2018-05-22T12:36:27.000Z</Time>
            <Position>
              <LatitudeDegrees>29.04453098773956298828125</LatitudeDegrees>
              <LongitudeDegrees>-13.56255660764873027801513671875</LongitudeDegrees>
            </Position>
            <AltitudeMeters>261.20001220703125</AltitudeMeters>
            <DistanceMeters>24912.69239872</DistanceMeters>
          </Trackpoint>
          <Trackpoint>
            <Time>2018-05-22T12:36:30.000Z</Time>
            <Position>
              <LatitudeDegrees>29.04418020509183406829833984375</LatitudeDegrees>
              <LongitudeDegrees>-13.56237069703638553619384765625</LongitudeDegrees>
            </Position>
            <AltitudeMeters>260</AltitudeMeters>
            <DistanceMeters>24955.722505443</DistanceMeters>
          </Trackpoint>
          <Trackpoint>
            <Time>2018-05-22T12:36:32.000Z</Time>
            <Position>
              <LatitudeDegrees>29.043946601450443267822265625</LatitudeDegrees>
              <LongitudeDegrees>-13.5622447170317173004150390625</LongitudeDegrees>
            </Position>
            <AltitudeMeters>258.600006103515625</AltitudeMeters>
            <DistanceMeters>24984.467890203</DistanceMeters>
          </Trackpoint>
          <Trackpoint>
            <Time>2018-05-22T12:36:33.000Z</Time>
            <Position>
              <LatitudeDegrees>29.0438310988247394561767578125</LatitudeDegrees>
              <LongitudeDegrees>-13.56218151748180389404296875</LongitudeDegrees>
            </Position>
            <AltitudeMeters>257.20001220703125</AltitudeMeters>
            <DistanceMeters>24998.718729449</DistanceMeters>
          </Trackpoint>
          <Trackpoint>
            <Time>2018-05-22T12:36:34.000Z</Time>
            <Position>
              <LatitudeDegrees>29.0437171049416065216064453125</LatitudeDegrees>
              <LongitudeDegrees>-13.5621191561222076416015625</LongitudeDegrees>
            </Position>
            <AltitudeMeters>255.399993896484375</AltitudeMeters>
            <DistanceMeters>25012.783004209</DistanceMeters>
          </Trackpoint>
          <Trackpoint>
            <Time>2018-05-22T12:36:36.000Z</Time>
            <Position>
              <LatitudeDegrees>29.04349188320338726043701171875</LatitudeDegrees>
              <LongitudeDegrees>-13.56199200265109539031982421875</LongitudeDegrees>
            </Position>
            <AltitudeMeters>254</AltitudeMeters>
            <DistanceMeters>25040.737660627</DistanceMeters>
          </Trackpoint>
          <Trackpoint>
            <Time>2018-05-22T12:36:38.000Z</Time>
            <Position>
              <LatitudeDegrees>29.0432651527225971221923828125</LatitudeDegrees>
              <LongitudeDegrees>-13.561870045959949493408203125</LongitudeDegrees>
            </Position>
            <AltitudeMeters>253.1999969482421875</AltitudeMeters>
            <DistanceMeters>25068.624075298</DistanceMeters>
          </Trackpoint>
          <Trackpoint>
            <Time>2018-05-22T12:36:40.000Z</Time>
            <Position>
              <LatitudeDegrees>29.0430375002324581146240234375</LatitudeDegrees>
              <LongitudeDegrees>-13.56174943037331104278564453125</LongitudeDegrees>
            </Position>
            <AltitudeMeters>252.399993896484375</AltitudeMeters>
            <DistanceMeters>25096.548512466</DistanceMeters>
          </Trackpoint>
          <Trackpoint>
            <Time>2018-05-22T12:36:42.000Z</Time>
            <Position>
              <LatitudeDegrees>29.0428088419139385223388671875</LatitudeDegrees>
              <LongitudeDegrees>-13.5616318322718143463134765625</LongitudeDegrees>
            </Position>
            <AltitudeMeters>250.8000030517578125</AltitudeMeters>
            <DistanceMeters>25124.452893156</DistanceMeters>
          </Trackpoint>
          <Trackpoint>
            <Time>2018-05-22T12:36:44.000Z</Time>
            <Position>
              <LatitudeDegrees>29.0425775013864040374755859375</LatitudeDegrees>
              <LongitudeDegrees>-13.5615372844040393829345703125</LongitudeDegrees>
            </Position>
            <AltitudeMeters>249</AltitudeMeters>
            <DistanceMeters>25151.795829156</DistanceMeters>
          </Trackpoint>
          <Trackpoint>
            <Time>2018-05-22T12:36:46.000Z</Time>
            <Position>
              <LatitudeDegrees>29.042348004877567291259765625</LatitudeDegrees>
              <LongitudeDegrees>-13.56145572848618030548095703125</LongitudeDegrees>
            </Position>
            <AltitudeMeters>247.8000030517578125</AltitudeMeters>
            <DistanceMeters>25178.543781539</DistanceMeters>
          </Trackpoint>
          <Trackpoint>
            <Time>2018-05-22T12:36:49.000Z</Time>
            <Position>
              <LatitudeDegrees>29.04201013036072254180908203125</LatitudeDegrees>
              <LongitudeDegrees>-13.56134089641273021697998046875</LongitudeDegrees>
            </Position>
            <AltitudeMeters>246.399993896484375</AltitudeMeters>
            <DistanceMeters>25217.774971033</DistanceMeters>
          </Trackpoint>
          <Trackpoint>
            <Time>2018-05-22T12:36:52.000Z</Time>
            <Position>
              <LatitudeDegrees>29.041678123176097869873046875</LatitudeDegrees>
              <LongitudeDegrees>-13.5612499527633190155029296875</LongitudeDegrees>
            </Position>
            <AltitudeMeters>245.1999969482421875</AltitudeMeters>
            <DistanceMeters>25255.772826009</DistanceMeters>
          </Trackpoint>
          <Trackpoint>
            <Time>2018-05-22T12:36:54.000Z</Time>
            <Position>
              <LatitudeDegrees>29.04146128334105014801025390625</LatitudeDegrees>
              <LongitudeDegrees>-13.5611976496875286102294921875</LongitudeDegrees>
            </Position>
            <AltitudeMeters>244</AltitudeMeters>
            <DistanceMeters>25280.438437096</DistanceMeters>
          </Trackpoint>
          <Trackpoint>
            <Time>2018-05-22T12:36:57.000Z</Time>
            <Position>
              <LatitudeDegrees>29.0411338023841381072998046875</LatitudeDegrees>
              <LongitudeDegrees>-13.56112162582576274871826171875</LongitudeDegrees>
            </Position>
            <AltitudeMeters>242.8000030517578125</AltitudeMeters>
            <DistanceMeters>25317.630926797</DistanceMeters>
          </Trackpoint>
          <Trackpoint>
            <Time>2018-05-22T12:37:01.000Z</Time>
            <Position>
              <LatitudeDegrees>29.04069517739117145538330078125</LatitudeDegrees>
              <LongitudeDegrees>-13.5610290057957172393798828125</LongitudeDegrees>
            </Position>
            <AltitudeMeters>241.399993896484375</AltitudeMeters>
            <DistanceMeters>25367.275814592</DistanceMeters>
          </Trackpoint>
          <Trackpoint>
            <Time>2018-05-22T12:37:03.000Z</Time>
            <Position>
              <LatitudeDegrees>29.040476493537425994873046875</LatitudeDegrees>
              <LongitudeDegrees>-13.5609803907573223114013671875</LongitudeDegrees>
            </Position>
            <AltitudeMeters>239.8000030517578125</AltitudeMeters>
            <DistanceMeters>25392.071050518</DistanceMeters>
          </Trackpoint>
          <Trackpoint>
            <Time>2018-05-22T12:37:05.000Z</Time>
            <Position>
              <LatitudeDegrees>29.040256552398204803466796875</LatitudeDegrees>
              <LongitudeDegrees>-13.560931272804737091064453125</LongitudeDegrees>
            </Position>
            <AltitudeMeters>238.8000030517578125</AltitudeMeters>
            <DistanceMeters>25417.013345651</DistanceMeters>
          </Trackpoint>
          <Trackpoint>
            <Time>2018-05-22T12:37:07.000Z</Time>
            <Position>
              <LatitudeDegrees>29.04003560543060302734375</LatitudeDegrees>
              <LongitudeDegrees>-13.560885675251483917236328125</LongitudeDegrees>
            </Position>
            <AltitudeMeters>237.600006103515625</AltitudeMeters>
            <DistanceMeters>25442.002300136</DistanceMeters>
          </Trackpoint>
          <Trackpoint>
            <Time>2018-05-22T12:37:09.000Z</Time>
            <Position>
              <LatitudeDegrees>29.03981675393879413604736328125</LatitudeDegrees>
              <LongitudeDegrees>-13.56084435246884822845458984375</LongitudeDegrees>
            </Position>
            <AltitudeMeters>235.8000030517578125</AltitudeMeters>
            <DistanceMeters>25466.690598981</DistanceMeters>
          </Trackpoint>
          <Trackpoint>
            <Time>2018-05-22T12:37:12.000Z</Time>
            <Position>
              <LatitudeDegrees>29.03949706815183162689208984375</LatitudeDegrees>
              <LongitudeDegrees>-13.5607530735433101654052734375</LongitudeDegrees>
            </Position>
            <AltitudeMeters>234.600006103515625</AltitudeMeters>
            <DistanceMeters>25503.364140065</DistanceMeters>
          </Trackpoint>
          <Trackpoint>
            <Time>2018-05-22T12:37:16.000Z</Time>
            <Position>
              <LatitudeDegrees>29.0390802361071109771728515625</LatitudeDegrees>
              <LongitudeDegrees>-13.5605676658451557159423828125</LongitudeDegrees>
            </Position>
            <AltitudeMeters>232.8000030517578125</AltitudeMeters>
            <DistanceMeters>25553.142993476</DistanceMeters>
          </Trackpoint>
          <Trackpoint>
            <Time>2018-05-22T12:37:18.000Z</Time>
            <Position>
              <LatitudeDegrees>29.038867168128490447998046875</LatitudeDegrees>
              <LongitudeDegrees>-13.56045551598072052001953125</LongitudeDegrees>
            </Position>
            <AltitudeMeters>231</AltitudeMeters>
            <DistanceMeters>25579.248372982</DistanceMeters>
          </Trackpoint>
          <Trackpoint>
            <Time>2018-05-22T12:37:20.000Z</Time>
            <Position>
              <LatitudeDegrees>29.03865200467407703399658203125</LatitudeDegrees>
              <LongitudeDegrees>-13.56033557094633579254150390625</LongitudeDegrees>
            </Position>
            <AltitudeMeters>229.600006103515625</AltitudeMeters>
            <DistanceMeters>25605.88943055</DistanceMeters>
          </Trackpoint>
          <Trackpoint>
            <Time>2018-05-22T12:37:22.000Z</Time>
            <Position>
              <LatitudeDegrees>29.03843608684837818145751953125</LatitudeDegrees>
              <LongitudeDegrees>-13.5602116025984287261962890625</LongitudeDegrees>
            </Position>
            <AltitudeMeters>228.399993896484375</AltitudeMeters>
            <DistanceMeters>25632.779472223</DistanceMeters>
          </Trackpoint>
          <Trackpoint>
            <Time>2018-05-22T12:37:25.000Z</Time>
            <Position>
              <LatitudeDegrees>29.03811070136725902557373046875</LatitudeDegrees>
              <LongitudeDegrees>-13.56003030203282833099365234375</LongitudeDegrees>
            </Position>
            <AltitudeMeters>227.1999969482421875</AltitudeMeters>
            <DistanceMeters>25673.064187045</DistanceMeters>
          </Trackpoint>
          <Trackpoint>
            <Time>2018-05-22T12:37:30.000Z</Time>
            <Position>
              <LatitudeDegrees>29.03757627122104167938232421875</LatitudeDegrees>
              <LongitudeDegrees>-13.55974146164953708648681640625</LongitudeDegrees>
            </Position>
            <AltitudeMeters>226.1999969482421875</AltitudeMeters>
            <DistanceMeters>25738.85390669</DistanceMeters>
          </Trackpoint>
          <Trackpoint>
            <Time>2018-05-22T12:37:31.000Z</Time>
            <Position>
              <LatitudeDegrees>29.03746931813657283782958984375</LatitudeDegrees>
              <LongitudeDegrees>-13.55968438088893890380859375</LongitudeDegrees>
            </Position>
            <AltitudeMeters>225.8000030517578125</AltitudeMeters>
            <DistanceMeters>25751.990297399</DistanceMeters>
          </Trackpoint>
          <Trackpoint>
            <Time>2018-05-22T12:37:34.000Z</Time>
            <Position>
              <LatitudeDegrees>29.03714979998767375946044921875</LatitudeDegrees>
              <LongitudeDegrees>-13.5595128871500492095947265625</LongitudeDegrees>
            </Position>
            <AltitudeMeters>224.399993896484375</AltitudeMeters>
            <DistanceMeters>25791.27439169</DistanceMeters>
          </Trackpoint>
          <Trackpoint>
            <Time>2018-05-22T12:37:39.000Z</Time>
            <Position>
              <LatitudeDegrees>29.0366387553513050079345703125</LatitudeDegrees>
              <LongitudeDegrees>-13.55924357660114765167236328125</LongitudeDegrees>
            </Position>
            <AltitudeMeters>223.1999969482421875</AltitudeMeters>
            <DistanceMeters>25853.901754825</DistanceMeters>
          </Trackpoint>
          <Trackpoint>
            <Time>2018-05-22T12:37:43.000Z</Time>
            <Position>
              <LatitudeDegrees>29.03626198880374431610107421875</LatitudeDegrees>
              <LongitudeDegrees>-13.55903855524957180023193359375</LongitudeDegrees>
            </Position>
            <AltitudeMeters>222</AltitudeMeters>
            <DistanceMeters>25900.34075693</DistanceMeters>
          </Trackpoint>
          <Trackpoint>
            <Time>2018-05-22T12:37:46.000Z</Time>
            <Position>
              <LatitudeDegrees>29.03598672710359096527099609375</LatitudeDegrees>
              <LongitudeDegrees>-13.55889321304857730865478515625</LongitudeDegrees>
            </Position>
            <AltitudeMeters>221</AltitudeMeters>
            <DistanceMeters>25934.085143271</DistanceMeters>
          </Trackpoint>
          <Trackpoint>
            <Time>2018-05-22T12:37:49.000Z</Time>
            <Position>
              <LatitudeDegrees>29.03571213595569133758544921875</LatitudeDegrees>
              <LongitudeDegrees>-13.5587464459240436553955078125</LongitudeDegrees>
            </Position>
            <AltitudeMeters>219.600006103515625</AltitudeMeters>
            <DistanceMeters>25967.820296068</DistanceMeters>
          </Trackpoint>
          <Trackpoint>
            <Time>2018-05-22T12:37:53.000Z</Time>
            <Position>
              <LatitudeDegrees>29.0353502891957759857177734375</LatitudeDegrees>
              <LongitudeDegrees>-13.55854938738048076629638671875</LongitudeDegrees>
            </Position>
            <AltitudeMeters>218.600006103515625</AltitudeMeters>
            <DistanceMeters>26012.427013995</DistanceMeters>
          </Trackpoint>
          <Trackpoint>
            <Time>2018-05-22T12:37:55.000Z</Time>
            <Position>
              <LatitudeDegrees>29.03516965918242931365966796875</LatitudeDegrees>
              <LongitudeDegrees>-13.55845266021788120269775390625</LongitudeDegrees>
            </Position>
            <AltitudeMeters>217.600006103515625</AltitudeMeters>
            <DistanceMeters>26034.625872788</DistanceMeters>
          </Trackpoint>
          <Trackpoint>
            <Time>2018-05-22T12:37:57.000Z</Time>
            <Position>
              <LatitudeDegrees>29.034986682236194610595703125</LatitudeDegrees>
              <LongitudeDegrees>-13.5583560168743133544921875</LongitudeDegrees>
            </Position>
            <AltitudeMeters>216.600006103515625</AltitudeMeters>
            <DistanceMeters>26057.0582164</DistanceMeters>
          </Trackpoint>
          <Trackpoint>
            <Time>2018-05-22T12:37:59.000Z</Time>
            <Position>
              <LatitudeDegrees>29.03480194509029388427734375</LatitudeDegrees>
              <LongitudeDegrees>-13.55825836770236492156982421875</LongitudeDegrees>
            </Position>
            <AltitudeMeters>215.399993896484375</AltitudeMeters>
            <DistanceMeters>26079.709683097</DistanceMeters>
          </Trackpoint>
          <Trackpoint>
            <Time>2018-05-22T12:38:03.000Z</Time>
            <Position>
              <LatitudeDegrees>29.03442685492336750030517578125</LatitudeDegrees>
              <LongitudeDegrees>-13.55805871076881885528564453125</LongitudeDegrees>
            </Position>
            <AltitudeMeters>214.399993896484375</AltitudeMeters>
            <DistanceMeters>26125.757750271</DistanceMeters>
          </Trackpoint>
          <Trackpoint>
            <Time>2018-05-22T12:38:07.000Z</Time>
            <Position>
              <LatitudeDegrees>29.03405134566128253936767578125</LatitudeDegrees>
              <LongitudeDegrees>-13.55785536579787731170654296875</LongitudeDegrees>
            </Position>
            <AltitudeMeters>213.1999969482421875</AltitudeMeters>
            <DistanceMeters>26172.00062402</DistanceMeters>
          </Trackpoint>
          <Trackpoint>
            <Time>2018-05-22T12:38:09.000Z</Time>
            <Position>
              <LatitudeDegrees>29.033864848315715789794921875</LatitudeDegrees>
              <LongitudeDegrees>-13.5577546991407871246337890625</LongitudeDegrees>
            </Position>
            <AltitudeMeters>212</AltitudeMeters>
            <DistanceMeters>26194.953657588</DistanceMeters>
          </Trackpoint>
          <Trackpoint>
            <Time>2018-05-22T12:38:11.000Z</Time>
            <Position>
              <LatitudeDegrees>29.03367717750370502471923828125</LatitudeDegrees>
              <LongitudeDegrees>-13.55765369720757007598876953125</LongitudeDegrees>
            </Position>
            <AltitudeMeters>211</AltitudeMeters>
            <DistanceMeters>26218.038891429</DistanceMeters>
          </Trackpoint>
          <Trackpoint>
            <Time>2018-05-22T12:38:14.000Z</Time>
            <Position>
              <LatitudeDegrees>29.03339269571006298065185546875</LatitudeDegrees>
              <LongitudeDegrees>-13.557502739131450653076171875</LongitudeDegrees>
            </Position>
            <AltitudeMeters>209.600006103515625</AltitudeMeters>
            <DistanceMeters>26252.944106428</DistanceMeters>
          </Trackpoint>
          <Trackpoint>
            <Time>2018-05-22T12:38:15.000Z</Time>
            <Position>
              <LatitudeDegrees>29.03329714201390743255615234375</LatitudeDegrees>
              <LongitudeDegrees>-13.5574519447982311248779296875</LongitudeDegrees>
            </Position>
            <AltitudeMeters>208.600006103515625</AltitudeMeters>
            <DistanceMeters>26264.671727428</DistanceMeters>
          </Trackpoint>
          <Trackpoint>
            <Time>2018-05-22T12:38:17.000Z</Time>
            <Position>
              <LatitudeDegrees>29.03310477733612060546875</LatitudeDegrees>
              <LongitudeDegrees>-13.55734951794147491455078125</LongitudeDegrees>
            </Position>
            <AltitudeMeters>206.8000030517578125</AltitudeMeters>
            <DistanceMeters>26288.288877167</DistanceMeters>
          </Trackpoint>
          <Trackpoint>
            <Time>2018-05-22T12:38:20.000Z</Time>
            <Position>
              <LatitudeDegrees>29.03281736187636852264404296875</LatitudeDegrees>
              <LongitudeDegrees>-13.55719755403697490692138671875</LongitudeDegrees>
            </Position>
            <AltitudeMeters>205.600006103515625</AltitudeMeters>
            <DistanceMeters>26323.531619605</DistanceMeters>
          </Trackpoint>
          <Trackpoint>
            <Time>2018-05-22T12:38:22.000Z</Time>
            <Position>
              <LatitudeDegrees>29.032623656094074249267578125</LatitudeDegrees>
              <LongitudeDegrees>-13.55709361843764781951904296875</LongitudeDegrees>
            </Position>
            <AltitudeMeters>204.600006103515625</AltitudeMeters>
            <DistanceMeters>26347.346193947</DistanceMeters>
          </Trackpoint>
          <Trackpoint>
            <Time>2018-05-22T12:38:24.000Z</Time>
            <Position>
              <LatitudeDegrees>29.0324343927204608917236328125</LatitudeDegrees>
              <LongitudeDegrees>-13.556993119418621063232421875</LongitudeDegrees>
            </Position>
            <AltitudeMeters>203.399993896484375</AltitudeMeters>
            <DistanceMeters>26370.571430574</DistanceMeters>
          </Trackpoint>
          <Trackpoint>
            <Time>2018-05-22T12:38:26.000Z</Time>
            <Position>
              <LatitudeDegrees>29.0322463028132915496826171875</LatitudeDegrees>
              <LongitudeDegrees>-13.5568947158753871917724609375</LongitudeDegrees>
            </Position>
            <AltitudeMeters>202.399993896484375</AltitudeMeters>
            <DistanceMeters>26393.592424393</DistanceMeters>
          </Trackpoint>
          <Trackpoint>
            <Time>2018-05-22T12:38:30.000Z</Time>
            <Position>
              <LatitudeDegrees>29.03187297284603118896484375</LatitudeDegrees>
              <LongitudeDegrees>-13.55669505894184112548828125</LongitudeDegrees>
            </Position>
            <AltitudeMeters>201.399993896484375</AltitudeMeters>
            <DistanceMeters>26439.463168909</DistanceMeters>
          </Trackpoint>
          <Trackpoint>
            <Time>2018-05-22T12:38:36.000Z</Time>
            <Position>
              <LatitudeDegrees>29.0313041768968105316162109375</LatitudeDegrees>
              <LongitudeDegrees>-13.55638752691447734832763671875</LongitudeDegrees>
            </Position>
            <AltitudeMeters>200</AltitudeMeters>
            <DistanceMeters>26509.489024645</DistanceMeters>
          </Trackpoint>
          <Trackpoint>
            <Time>2018-05-22T12:38:40.000Z</Time>
            <Position>
              <LatitudeDegrees>29.03092070482671260833740234375</LatitudeDegrees>
              <LongitudeDegrees>-13.5561835952103137969970703125</LongitudeDegrees>
            </Position>
            <AltitudeMeters>198.8000030517578125</AltitudeMeters>
            <DistanceMeters>26556.558625405</DistanceMeters>
          </Trackpoint>
          <Trackpoint>
            <Time>2018-05-22T12:38:43.000Z</Time>
            <Position>
              <LatitudeDegrees>29.03063354082405567169189453125</LatitudeDegrees>
              <LongitudeDegrees>-13.55602928437292575836181640625</LongitudeDegrees>
            </Position>
            <AltitudeMeters>197.600006103515625</AltitudeMeters>
            <DistanceMeters>26591.872654446</DistanceMeters>
          </Trackpoint>
          <Trackpoint>
            <Time>2018-05-22T12:38:46.000Z</Time>
            <Position>
              <LatitudeDegrees>29.03035710565745830535888671875</LatitudeDegrees>
              <LongitudeDegrees>-13.555842451751232147216796875</LongitudeDegrees>
            </Position>
            <AltitudeMeters>195.8000030517578125</AltitudeMeters>
            <DistanceMeters>26627.611164522</DistanceMeters>
          </Trackpoint>
          <Trackpoint>
            <Time>2018-05-22T12:38:48.000Z</Time>
            <Position>
              <LatitudeDegrees>29.03017915785312652587890625</LatitudeDegrees>
              <LongitudeDegrees>-13.55569400824606418609619140625</LongitudeDegrees>
            </Position>
            <AltitudeMeters>194.399993896484375</AltitudeMeters>
            <DistanceMeters>26652.125846807</DistanceMeters>
          </Trackpoint>
          <Trackpoint>
            <Time>2018-05-22T12:38:51.000Z</Time>
            <Position>
              <LatitudeDegrees>29.02991051785647869110107421875</LatitudeDegrees>
              <LongitudeDegrees>-13.55545043013989925384521484375</LongitudeDegrees>
            </Position>
            <AltitudeMeters>193.1999969482421875</AltitudeMeters>
            <DistanceMeters>26690.282593067</DistanceMeters>
          </Trackpoint>
          <Trackpoint>
            <Time>2018-05-22T12:38:54.000Z</Time>
            <Position>
              <LatitudeDegrees>29.02964497916400432586669921875</LatitudeDegrees>
              <LongitudeDegrees>-13.5551935248076915740966796875</LongitudeDegrees>
            </Position>
            <AltitudeMeters>192</AltitudeMeters>
            <DistanceMeters>26728.994171907</DistanceMeters>
          </Trackpoint>
          <Trackpoint>
            <Time>2018-05-22T12:38:56.000Z</Time>
            <Position>
              <LatitudeDegrees>29.02946191839873790740966796875</LatitudeDegrees>
              <LongitudeDegrees>-13.5550247132778167724609375</LongitudeDegrees>
            </Position>
            <AltitudeMeters>190.600006103515625</AltitudeMeters>
            <DistanceMeters>26755.167434203</DistanceMeters>
          </Trackpoint>
          <Trackpoint>
            <Time>2018-05-22T12:38:58.000Z</Time>
            <Position>
              <LatitudeDegrees>29.029274918138980865478515625</LatitudeDegrees>
              <LongitudeDegrees>-13.55485229752957820892333984375</LongitudeDegrees>
            </Position>
            <AltitudeMeters>189.399993896484375</AltitudeMeters>
            <DistanceMeters>26781.902385872</DistanceMeters>
          </Trackpoint>
          <Trackpoint>
            <Time>2018-05-22T12:39:00.000Z</Time>
            <Position>
              <LatitudeDegrees>29.0290859900414943695068359375</LatitudeDegrees>
              <LongitudeDegrees>-13.55467795394361019134521484375</LongitudeDegrees>
            </Position>
            <AltitudeMeters>187.8000030517578125</AltitudeMeters>
            <DistanceMeters>26808.922075366</DistanceMeters>
          </Trackpoint>
          <Trackpoint>
            <Time>2018-05-22T12:39:02.000Z</Time>
            <Position>
              <LatitudeDegrees>29.0288982354104518890380859375</LatitudeDegrees>
              <LongitudeDegrees>-13.554504700005054473876953125</LongitudeDegrees>
            </Position>
            <AltitudeMeters>186.1999969482421875</AltitudeMeters>
            <DistanceMeters>26835.773470555</DistanceMeters>
          </Trackpoint>
          <Trackpoint>
            <Time>2018-05-22T12:39:04.000Z</Time>
            <Position>
              <LatitudeDegrees>29.0287113189697265625</LatitudeDegrees>
              <LongitudeDegrees>-13.55432935059070587158203125</LongitudeDegrees>
            </Position>
            <AltitudeMeters>184.600006103515625</AltitudeMeters>
            <DistanceMeters>26862.681304531</DistanceMeters>
          </Trackpoint>
          <Trackpoint>
            <Time>2018-05-22T12:39:07.000Z</Time>
            <Position>
              <LatitudeDegrees>29.02843262068927288055419921875</LatitudeDegrees>
              <LongitudeDegrees>-13.55406624265015125274658203125</LongitudeDegrees>
            </Position>
            <AltitudeMeters>183</AltitudeMeters>
            <DistanceMeters>26902.903992358</DistanceMeters>
          </Trackpoint>
          <Trackpoint>
            <Time>2018-05-22T12:39:09.000Z</Time>
            <Position>
              <LatitudeDegrees>29.0282464586198329925537109375</LatitudeDegrees>
              <LongitudeDegrees>-13.553891144692897796630859375</LongitudeDegrees>
            </Position>
            <AltitudeMeters>181.8000030517578125</AltitudeMeters>
            <DistanceMeters>26929.731331448</DistanceMeters>
          </Trackpoint>
          <Trackpoint>
            <Time>2018-05-22T12:39:11.000Z</Time>
            <Position>
              <LatitudeDegrees>29.0280576981604099273681640625</LatitudeDegrees>
              <LongitudeDegrees>-13.55372459627687931060791015625</LongitudeDegrees>
            </Position>
            <AltitudeMeters>180.600006103515625</AltitudeMeters>
            <DistanceMeters>26956.266424827</DistanceMeters>
          </Trackpoint>
          <Trackpoint>
            <Time>2018-05-22T12:39:13.000Z</Time>
            <Position>
              <LatitudeDegrees>29.0278629027307033538818359375</LatitudeDegrees>
              <LongitudeDegrees>-13.5535682737827301025390625</LongitudeDegrees>
            </Position>
            <AltitudeMeters>179.1999969482421875</AltitudeMeters>
            <DistanceMeters>26982.752639141</DistanceMeters>
          </Trackpoint>
          <Trackpoint>
            <Time>2018-05-22T12:39:15.000Z</Time>
            <Position>
              <LatitudeDegrees>29.02766031213104724884033203125</LatitudeDegrees>
              <LongitudeDegrees>-13.5534236021339893341064453125</LongitudeDegrees>
            </Position>
            <AltitudeMeters>178</AltitudeMeters>
            <DistanceMeters>27009.336012185</DistanceMeters>
          </Trackpoint>
          <Trackpoint>
            <Time>2018-05-22T12:39:17.000Z</Time>
            <Position>
              <LatitudeDegrees>29.0274488367140293121337890625</LatitudeDegrees>
              <LongitudeDegrees>-13.553290329873561859130859375</LongitudeDegrees>
            </Position>
            <AltitudeMeters>176.399993896484375</AltitudeMeters>
            <DistanceMeters>27036.210769936</DistanceMeters>
          </Trackpoint>
          <Trackpoint>
            <Time>2018-05-22T12:39:19.000Z</Time>
            <Position>
              <LatitudeDegrees>29.0272319130599498748779296875</LatitudeDegrees>
              <LongitudeDegrees>-13.55317021720111370086669921875</LongitudeDegrees>
            </Position>
            <AltitudeMeters>174.600006103515625</AltitudeMeters>
            <DistanceMeters>27063.035584409</DistanceMeters>
          </Trackpoint>
          <Trackpoint>
            <Time>2018-05-22T12:39:21.000Z</Time>
            <Position>
              <LatitudeDegrees>29.027011804282665252685546875</LatitudeDegrees>
              <LongitudeDegrees>-13.55305102653801441192626953125</LongitudeDegrees>
            </Position>
            <AltitudeMeters>173</AltitudeMeters>
            <DistanceMeters>27090.14136128</DistanceMeters>
          </Trackpoint>
          <Trackpoint>
            <Time>2018-05-22T12:39:23.000Z</Time>
            <Position>
              <LatitudeDegrees>29.02679161168634891510009765625</LatitudeDegrees>
              <LongitudeDegrees>-13.552930913865566253662109375</LongitudeDegrees>
            </Position>
            <AltitudeMeters>171.600006103515625</AltitudeMeters>
            <DistanceMeters>27117.294403127</DistanceMeters>
          </Trackpoint>
          <Trackpoint>
            <Time>2018-05-22T12:39:25.000Z</Time>
            <Position>
              <LatitudeDegrees>29.02656781487166881561279296875</LatitudeDegrees>
              <LongitudeDegrees>-13.5528092086315155029296875</LongitudeDegrees>
            </Position>
            <AltitudeMeters>170.600006103515625</AltitudeMeters>
            <DistanceMeters>27144.876224136</DistanceMeters>
          </Trackpoint>
          <Trackpoint>
            <Time>2018-05-22T12:39:27.000Z</Time>
            <Position>
              <LatitudeDegrees>29.0263496339321136474609375</LatitudeDegrees>
              <LongitudeDegrees>-13.55269144289195537567138671875</LongitudeDegrees>
            </Position>
            <AltitudeMeters>169.399993896484375</AltitudeMeters>
            <DistanceMeters>27171.729132624</DistanceMeters>
          </Trackpoint>
          <Trackpoint>
            <Time>2018-05-22T12:39:31.000Z</Time>
            <Position>
              <LatitudeDegrees>29.0259136073291301727294921875</LatitudeDegrees>
              <LongitudeDegrees>-13.5524620302021503448486328125</LongitudeDegrees>
            </Position>
            <AltitudeMeters>168.399993896484375</AltitudeMeters>
            <DistanceMeters>27225.149361734</DistanceMeters>
          </Trackpoint>
          <Trackpoint>
            <Time>2018-05-22T12:39:36.000Z</Time>
            <Position>
              <LatitudeDegrees>29.0253771655261516571044921875</LatitudeDegrees>
              <LongitudeDegrees>-13.55218098498880863189697265625</LongitudeDegrees>
            </Position>
            <AltitudeMeters>168.399993896484375</AltitudeMeters>
            <DistanceMeters>27290.823272095</DistanceMeters>
          </Trackpoint>
          <Trackpoint>
            <Time>2018-05-22T12:39:40.000Z</Time>
            <Position>
              <LatitudeDegrees>29.0249590761959552764892578125</LatitudeDegrees>
              <LongitudeDegrees>-13.55195417068898677825927734375</LongitudeDegrees>
            </Position>
            <AltitudeMeters>167.1999969482421875</AltitudeMeters>
            <DistanceMeters>27342.327575958</DistanceMeters>
          </Trackpoint>
          <Trackpoint>
            <Time>2018-05-22T12:39:44.000Z</Time>
            <Position>
              <LatitudeDegrees>29.02455389499664306640625</LatitudeDegrees>
              <LongitudeDegrees>-13.55173372663557529449462890625</LongitudeDegrees>
            </Position>
            <AltitudeMeters>166</AltitudeMeters>
            <DistanceMeters>27392.268250698</DistanceMeters>
          </Trackpoint>
          <Trackpoint>
            <Time>2018-05-22T12:39:47.000Z</Time>
            <Position>
              <LatitudeDegrees>29.02425826527178287506103515625</LatitudeDegrees>
              <LongitudeDegrees>-13.5515769012272357940673828125</LongitudeDegrees>
            </Position>
            <AltitudeMeters>164.8000030517578125</AltitudeMeters>
            <DistanceMeters>27428.540085744</DistanceMeters>
          </Trackpoint>
          <Trackpoint>
            <Time>2018-05-22T12:39:52.000Z</Time>
            <Position>
              <LatitudeDegrees>29.02378267608582973480224609375</LatitudeDegrees>
              <LongitudeDegrees>-13.5513230971992015838623046875</LongitudeDegrees>
            </Position>
            <AltitudeMeters>163.600006103515625</AltitudeMeters>
            <DistanceMeters>27486.953773058</DistanceMeters>
          </Trackpoint>
          <Trackpoint>
            <Time>2018-05-22T12:39:56.000Z</Time>
            <Position>
              <LatitudeDegrees>29.0234045684337615966796875</LatitudeDegrees>
              <LongitudeDegrees>-13.5511194169521331787109375</LongitudeDegrees>
            </Position>
            <AltitudeMeters>162.600006103515625</AltitudeMeters>
            <DistanceMeters>27533.472916747</DistanceMeters>
          </Trackpoint>
          <Trackpoint>
            <Time>2018-05-22T12:40:02.000Z</Time>
            <Position>
              <LatitudeDegrees>29.022834599018096923828125</LatitudeDegrees>
              <LongitudeDegrees>-13.55081431567668914794921875</LongitudeDegrees>
            </Position>
            <AltitudeMeters>161.8000030517578125</AltitudeMeters>
            <DistanceMeters>27603.5172104</DistanceMeters>
          </Trackpoint>
          <Trackpoint>
            <Time>2018-05-22T12:40:03.000Z</Time>
            <Position>
              <LatitudeDegrees>29.02273912914097309112548828125</LatitudeDegrees>
              <LongitudeDegrees>-13.55076209641993045806884765625</LongitudeDegrees>
            </Position>
            <AltitudeMeters>161.399993896484375</AltitudeMeters>
            <DistanceMeters>27615.295924018</DistanceMeters>
          </Trackpoint>
          <Trackpoint>
            <Time>2018-05-22T12:40:07.000Z</Time>
            <Position>
              <LatitudeDegrees>29.02235381305217742919921875</LatitudeDegrees>
              <LongitudeDegrees>-13.55055606923997402191162109375</LongitudeDegrees>
            </Position>
            <AltitudeMeters>160.399993896484375</AltitudeMeters>
            <DistanceMeters>27662.638591707</DistanceMeters>
          </Trackpoint>
          <Trackpoint>
            <Time>2018-05-22T12:40:13.000Z</Time>
            <Position>
              <LatitudeDegrees>29.02178493328392505645751953125</LatitudeDegrees>
              <LongitudeDegrees>-13.550254739820957183837890625</LongitudeDegrees>
            </Position>
            <AltitudeMeters>159.399993896484375</AltitudeMeters>
            <DistanceMeters>27732.418164578</DistanceMeters>
          </Trackpoint>
          <Trackpoint>
            <Time>2018-05-22T12:40:19.000Z</Time>
            <Position>
              <LatitudeDegrees>29.02121647261083126068115234375</LatitudeDegrees>
              <LongitudeDegrees>-13.5499511472880840301513671875</LongitudeDegrees>
            </Position>
            <AltitudeMeters>158.600006103515625</AltitudeMeters>
            <DistanceMeters>27802.248382535</DistanceMeters>
          </Trackpoint>
          <Trackpoint>
            <Time>2018-05-22T12:40:21.000Z</Time>
            <Position>
              <LatitudeDegrees>29.0210299752652645111083984375</LatitudeDegrees>
              <LongitudeDegrees>-13.5498475469648838043212890625</LongitudeDegrees>
            </Position>
            <AltitudeMeters>158.1999969482421875</AltitudeMeters>
            <DistanceMeters>27825.325204851</DistanceMeters>
          </Trackpoint>
          <Trackpoint>
            <Time>2018-05-22T12:40:27.000Z</Time>
            <Position>
              <LatitudeDegrees>29.02048724703490734100341796875</LatitudeDegrees>
              <LongitudeDegrees>-13.54955644346773624420166015625</LongitudeDegrees>
            </Position>
            <AltitudeMeters>158</AltitudeMeters>
            <DistanceMeters>27892.046140139</DistanceMeters>
          </Trackpoint>
          <Trackpoint>
            <Time>2018-05-22T12:40:33.000Z</Time>
            <Position>
              <LatitudeDegrees>29.01998064480721950531005859375</LatitudeDegrees>
              <LongitudeDegrees>-13.54928738437592983245849609375</LongitudeDegrees>
            </Position>
            <AltitudeMeters>157.8000030517578125</AltitudeMeters>
            <DistanceMeters>27954.21612888</DistanceMeters>
          </Trackpoint>
          <Trackpoint>
            <Time>2018-05-22T12:40:40.000Z</Time>
            <Position>
              <LatitudeDegrees>29.01941553689539432525634765625</LatitudeDegrees>
              <LongitudeDegrees>-13.5489875636994838714599609375</LongitudeDegrees>
            </Position>
            <AltitudeMeters>157.399993896484375</AltitudeMeters>
            <DistanceMeters>28023.55327469</DistanceMeters>
          </Trackpoint>
          <Trackpoint>
            <Time>2018-05-22T12:40:45.000Z</Time>
            <Position>
              <LatitudeDegrees>29.01901387609541416168212890625</LatitudeDegrees>
              <LongitudeDegrees>-13.548768125474452972412109375</LongitudeDegrees>
            </Position>
            <AltitudeMeters>157.600006103515625</AltitudeMeters>
            <DistanceMeters>28073.098566904</DistanceMeters>
          </Trackpoint>
          <Trackpoint>
            <Time>2018-05-22T12:40:49.000Z</Time>
            <Position>
              <LatitudeDegrees>29.01867960579693317413330078125</LatitudeDegrees>
              <LongitudeDegrees>-13.54858732782304286956787109375</LongitudeDegrees>
            </Position>
            <AltitudeMeters>157.399993896484375</AltitudeMeters>
            <DistanceMeters>28114.255008796</DistanceMeters>
          </Trackpoint>
          <Trackpoint>
            <Time>2018-05-22T12:40:50.000Z</Time>
            <Position>
              <LatitudeDegrees>29.01859427802264690399169921875</LatitudeDegrees>
              <LongitudeDegrees>-13.54854206554591655731201171875</LongitudeDegrees>
            </Position>
            <AltitudeMeters>157.1999969482421875</AltitudeMeters>
            <DistanceMeters>28124.724348216</DistanceMeters>
          </Trackpoint>
          <Trackpoint>
            <Time>2018-05-22T12:40:56.000Z</Time>
            <Position>
              <LatitudeDegrees>29.01807845570147037506103515625</LatitudeDegrees>
              <LongitudeDegrees>-13.5482628643512725830078125</LongitudeDegrees>
            </Position>
            <AltitudeMeters>156.8000030517578125</AltitudeMeters>
            <DistanceMeters>28188.242723311</DistanceMeters>
          </Trackpoint>
          <Trackpoint>
            <Time>2018-05-22T12:41:02.000Z</Time>
            <Position>
              <LatitudeDegrees>29.017575792968273162841796875</LatitudeDegrees>
              <LongitudeDegrees>-13.5479931347072124481201171875</LongitudeDegrees>
            </Position>
            <AltitudeMeters>156.8000030517578125</AltitudeMeters>
            <DistanceMeters>28250.043338052</DistanceMeters>
          </Trackpoint>
          <Trackpoint>
            <Time>2018-05-22T12:41:07.000Z</Time>
            <Position>
              <LatitudeDegrees>29.01716030202805995941162109375</LatitudeDegrees>
              <LongitudeDegrees>-13.54777277447283267974853515625</LongitudeDegrees>
            </Position>
            <AltitudeMeters>156</AltitudeMeters>
            <DistanceMeters>28301.019834189</DistanceMeters>
          </Trackpoint>
          <Trackpoint>
            <Time>2018-05-22T12:41:12.000Z</Time>
            <Position>
              <LatitudeDegrees>29.01675210334360599517822265625</LatitudeDegrees>
              <LongitudeDegrees>-13.54755668900907039642333984375</LongitudeDegrees>
            </Position>
            <AltitudeMeters>154.8000030517578125</AltitudeMeters>
            <DistanceMeters>28351.085116562</DistanceMeters>
          </Trackpoint>
          <Trackpoint>
            <Time>2018-05-22T12:41:19.000Z</Time>
            <Position>
              <LatitudeDegrees>29.01618649251759052276611328125</LatitudeDegrees>
              <LongitudeDegrees>-13.54724354110658168792724609375</LongitudeDegrees>
            </Position>
            <AltitudeMeters>154.1999969482421875</AltitudeMeters>
            <DistanceMeters>28421.028909813</DistanceMeters>
          </Trackpoint>
          <Trackpoint>
            <Time>2018-05-22T12:41:23.000Z</Time>
            <Position>
              <LatitudeDegrees>29.0158576704561710357666015625</LatitudeDegrees>
              <LongitudeDegrees>-13.5470634140074253082275390625</LongitudeDegrees>
            </Position>
            <AltitudeMeters>153.8000030517578125</AltitudeMeters>
            <DistanceMeters>28461.610101284</DistanceMeters>
          </Trackpoint>
          <Trackpoint>
            <Time>2018-05-22T12:41:28.000Z</Time>
            <Position>
              <LatitudeDegrees>29.01545072905719280242919921875</LatitudeDegrees>
              <LongitudeDegrees>-13.54684892110526561737060546875</LongitudeDegrees>
            </Position>
            <AltitudeMeters>152.399993896484375</AltitudeMeters>
            <DistanceMeters>28511.483467088</DistanceMeters>
          </Trackpoint>
          <Trackpoint>
            <Time>2018-05-22T12:41:35.000Z</Time>
            <Position>
              <LatitudeDegrees>29.01490640826523303985595703125</LatitudeDegrees>
              <LongitudeDegrees>-13.5465708933770656585693359375</LongitudeDegrees>
            </Position>
            <AltitudeMeters>151.8000030517578125</AltitudeMeters>
            <DistanceMeters>28577.836478559</DistanceMeters>
          </Trackpoint>
          <Trackpoint>
            <Time>2018-05-22T12:41:42.000Z</Time>
            <Position>
              <LatitudeDegrees>29.0143982134759426116943359375</LatitudeDegrees>
              <LongitudeDegrees>-13.54629881680011749267578125</LongitudeDegrees>
            </Position>
            <AltitudeMeters>151.600006103515625</AltitudeMeters>
            <DistanceMeters>28640.291950707</DistanceMeters>
          </Trackpoint>
          <Trackpoint>
            <Time>2018-05-22T12:41:45.000Z</Time>
            <Position>
              <LatitudeDegrees>29.014200232923030853271484375</LatitudeDegrees>
              <LongitudeDegrees>-13.54616814292967319488525390625</LongitudeDegrees>
            </Position>
            <AltitudeMeters>151.399993896484375</AltitudeMeters>
            <DistanceMeters>28665.734987478</DistanceMeters>
          </Trackpoint>
          <Trackpoint>
            <Time>2018-05-22T12:41:48.000Z</Time>
            <Position>
              <LatitudeDegrees>29.0140190161764621734619140625</LatitudeDegrees>
              <LongitudeDegrees>-13.54601718485355377197265625</LongitudeDegrees>
            </Position>
            <AltitudeMeters>151</AltitudeMeters>
            <DistanceMeters>28690.689227029</DistanceMeters>
          </Trackpoint>
          <Trackpoint>
            <Time>2018-05-22T12:41:51.000Z</Time>
            <Position>
              <LatitudeDegrees>29.01380603201687335968017578125</LatitudeDegrees>
              <LongitudeDegrees>-13.54595172218978404998779296875</LongitudeDegrees>
            </Position>
            <AltitudeMeters>150.8000030517578125</AltitudeMeters>
            <DistanceMeters>28715.236119111</DistanceMeters>
          </Trackpoint>
          <Trackpoint>
            <Time>2018-05-22T12:41:54.000Z</Time>
            <Position>
              <LatitudeDegrees>29.01360218413174152374267578125</LatitudeDegrees>
              <LongitudeDegrees>-13.54586907662451267242431640625</LongitudeDegrees>
            </Position>
            <AltitudeMeters>150.600006103515625</AltitudeMeters>
            <DistanceMeters>28739.308469755</DistanceMeters>
          </Trackpoint>
          <Trackpoint>
            <Time>2018-05-22T12:41:56.000Z</Time>
            <Position>
              <LatitudeDegrees>29.0134584344923496246337890625</LatitudeDegrees>
              <LongitudeDegrees>-13.5458523966372013092041015625</LongitudeDegrees>
            </Position>
            <AltitudeMeters>150.600006103515625</AltitudeMeters>
            <DistanceMeters>28755.390179532</DistanceMeters>
          </Trackpoint>
          <Trackpoint>
            <Time>2018-05-22T12:41:58.000Z</Time>
            <Position>
              <LatitudeDegrees>29.01331183500587940216064453125</LatitudeDegrees>
              <LongitudeDegrees>-13.54586220346391201019287109375</LongitudeDegrees>
            </Position>
            <AltitudeMeters>150.1999969482421875</AltitudeMeters>
            <DistanceMeters>28771.735050642</DistanceMeters>
          </Trackpoint>
          <Trackpoint>
            <Time>2018-05-22T12:42:04.000Z</Time>
            <Position>
              <LatitudeDegrees>29.01285342872142791748046875</LatitudeDegrees>
              <LongitudeDegrees>-13.54585180990397930145263671875</LongitudeDegrees>
            </Position>
            <AltitudeMeters>149</AltitudeMeters>
            <DistanceMeters>28822.766519717</DistanceMeters>
          </Trackpoint>
          <Trackpoint>
            <Time>2018-05-22T12:42:12.000Z</Time>
            <Position>
              <LatitudeDegrees>29.0122573077678680419921875</LatitudeDegrees>
              <LongitudeDegrees>-13.54580855928361415863037109375</LongitudeDegrees>
            </Position>
            <AltitudeMeters>149.1999969482421875</AltitudeMeters>
            <DistanceMeters>28889.249303557</DistanceMeters>
          </Trackpoint>
          <Trackpoint>
            <Time>2018-05-22T12:42:20.000Z</Time>
            <Position>
              <LatitudeDegrees>29.01171592064201831817626953125</LatitudeDegrees>
              <LongitudeDegrees>-13.5457467846572399139404296875</LongitudeDegrees>
            </Position>
            <AltitudeMeters>149.399993896484375</AltitudeMeters>
            <DistanceMeters>28949.806004622</DistanceMeters>
          </Trackpoint>
          <Trackpoint>
            <Time>2018-05-22T12:42:29.000Z</Time>
            <Position>
              <LatitudeDegrees>29.01115768589079380035400390625</LatitudeDegrees>
              <LongitudeDegrees>-13.5456941463053226470947265625</LongitudeDegrees>
            </Position>
            <AltitudeMeters>148.8000030517578125</AltitudeMeters>
            <DistanceMeters>29012.14961298</DistanceMeters>
          </Trackpoint>
          <Trackpoint>
            <Time>2018-05-22T12:42:39.000Z</Time>
            <Position>
              <LatitudeDegrees>29.0105613134801387786865234375</LatitudeDegrees>
              <LongitudeDegrees>-13.5456369817256927490234375</LongitudeDegrees>
            </Position>
            <AltitudeMeters>149</AltitudeMeters>
            <DistanceMeters>29078.759882915</DistanceMeters>
          </Trackpoint>
          <Trackpoint>
            <Time>2018-05-22T12:42:47.000Z</Time>
            <Position>
              <LatitudeDegrees>29.01009234599769115447998046875</LatitudeDegrees>
              <LongitudeDegrees>-13.5455945692956447601318359375</LongitudeDegrees>
            </Position>
            <AltitudeMeters>148.399993896484375</AltitudeMeters>
            <DistanceMeters>29131.119947456</DistanceMeters>
          </Trackpoint>
          <Trackpoint>
            <Time>2018-05-22T12:42:49.000Z</Time>
            <Position>
              <LatitudeDegrees>29.009979106485843658447265625</LatitudeDegrees>
              <LongitudeDegrees>-13.54558073915541172027587890625</LongitudeDegrees>
            </Position>
            <AltitudeMeters>148.1999969482421875</AltitudeMeters>
            <DistanceMeters>29143.794886904</DistanceMeters>
          </Trackpoint>
          <Trackpoint>
            <Time>2018-05-22T12:42:50.000Z</Time>
            <Position>
              <LatitudeDegrees>29.00992252863943576812744140625</LatitudeDegrees>
              <LongitudeDegrees>-13.5455737821757793426513671875</LongitudeDegrees>
            </Position>
            <AltitudeMeters>148.1999969482421875</AltitudeMeters>
            <DistanceMeters>29150.128258799</DistanceMeters>
          </Trackpoint>
          <Trackpoint>
            <Time>2018-05-22T12:43:00.000Z</Time>
            <Position>
              <LatitudeDegrees>29.00933512486517429351806640625</LatitudeDegrees>
              <LongitudeDegrees>-13.5454990155994892120361328125</LongitudeDegrees>
            </Position>
            <AltitudeMeters>148.8000030517578125</AltitudeMeters>
            <DistanceMeters>29215.911252526</DistanceMeters>
          </Trackpoint>
          <Trackpoint>
            <Time>2018-05-22T12:43:03.000Z</Time>
            <Position>
              <LatitudeDegrees>29.00913546793162822723388671875</LatitudeDegrees>
              <LongitudeDegrees>-13.5454768873751163482666015625</LongitudeDegrees>
            </Position>
            <AltitudeMeters>148</AltitudeMeters>
            <DistanceMeters>29238.237677447</DistanceMeters>
          </Trackpoint>
          <Trackpoint>
            <Time>2018-05-22T12:43:07.000Z</Time>
            <Position>
              <LatitudeDegrees>29.00886255316436290740966796875</LatitudeDegrees>
              <LongitudeDegrees>-13.54543958790600299835205078125</LongitudeDegrees>
            </Position>
            <AltitudeMeters>147</AltitudeMeters>
            <DistanceMeters>29268.830081452</DistanceMeters>
          </Trackpoint>
          <Trackpoint>
            <Time>2018-05-22T12:43:08.000Z</Time>
            <Position>
              <LatitudeDegrees>29.00879122316837310791015625</LatitudeDegrees>
              <LongitudeDegrees>-13.5454292781651020050048828125</LongitudeDegrees>
            </Position>
            <AltitudeMeters>146.8000030517578125</AltitudeMeters>
            <DistanceMeters>29276.83266242</DistanceMeters>
          </Trackpoint>
          <Trackpoint>
            <Time>2018-05-22T12:43:10.000Z</Time>
            <Position>
              <LatitudeDegrees>29.00864780880510807037353515625</LatitudeDegrees>
              <LongitudeDegrees>-13.5454084910452365875244140625</LongitudeDegrees>
            </Position>
            <AltitudeMeters>146.1999969482421875</AltitudeMeters>
            <DistanceMeters>29292.922792676</DistanceMeters>
          </Trackpoint>
          <Trackpoint>
            <Time>2018-05-22T12:43:13.000Z</Time>
            <Position>
              <LatitudeDegrees>29.0084329806268215179443359375</LatitudeDegrees>
              <LongitudeDegrees>-13.54538124985992908477783203125</LongitudeDegrees>
            </Position>
            <AltitudeMeters>145.8000030517578125</AltitudeMeters>
            <DistanceMeters>29316.980509101</DistanceMeters>
          </Trackpoint>
          <Trackpoint>
            <Time>2018-05-22T12:43:14.000Z</Time>
            <Position>
              <LatitudeDegrees>29.00836064480245113372802734375</LatitudeDegrees>
              <LongitudeDegrees>-13.5453732870519161224365234375</LongitudeDegrees>
            </Position>
            <AltitudeMeters>145.600006103515625</AltitudeMeters>
            <DistanceMeters>29325.06895171</DistanceMeters>
          </Trackpoint>
          <Trackpoint>
            <Time>2018-05-22T12:43:15.000Z</Time>
            <Position>
              <LatitudeDegrees>29.008288644254207611083984375</LatitudeDegrees>
              <LongitudeDegrees>-13.5453669168055057525634765625</LongitudeDegrees>
            </Position>
            <AltitudeMeters>145.600006103515625</AltitudeMeters>
            <DistanceMeters>29333.106998547</DistanceMeters>
          </Trackpoint>
          <Trackpoint>
            <Time>2018-05-22T12:43:16.000Z</Time>
            <Position>
              <LatitudeDegrees>29.00821664370596408843994140625</LatitudeDegrees>
              <LongitudeDegrees>-13.54536029510200023651123046875</LongitudeDegrees>
            </Position>
            <AltitudeMeters>145.399993896484375</AltitudeMeters>
            <DistanceMeters>29341.146730333</DistanceMeters>
          </Trackpoint>
          <Trackpoint>
            <Time>2018-05-22T12:43:17.000Z</Time>
            <Position>
              <LatitudeDegrees>29.0081443078815937042236328125</LatitudeDegrees>
              <LongitudeDegrees>-13.54535333812236785888671875</LongitudeDegrees>
            </Position>
            <AltitudeMeters>145.1999969482421875</AltitudeMeters>
            <DistanceMeters>29349.225677822</DistanceMeters>
          </Trackpoint>
          <Trackpoint>
            <Time>2018-05-22T12:43:18.000Z</Time>
            <Position>
              <LatitudeDegrees>29.0080712176859378814697265625</LatitudeDegrees>
              <LongitudeDegrees>-13.54534604586660861968994140625</LongitudeDegrees>
            </Position>
            <AltitudeMeters>145</AltitudeMeters>
            <DistanceMeters>29357.391342796</DistanceMeters>
          </Trackpoint>
          <Trackpoint>
            <Time>2018-05-22T12:43:19.000Z</Time>
            <Position>
              <LatitudeDegrees>29.00799821130931377410888671875</LatitudeDegrees>
              <LongitudeDegrees>-13.54533724486827850341796875</LongitudeDegrees>
            </Position>
            <AltitudeMeters>144.8000030517578125</AltitudeMeters>
            <DistanceMeters>29365.561430009</DistanceMeters>
          </Trackpoint>
          <Trackpoint>
            <Time>2018-05-22T12:43:20.000Z</Time>
            <Position>
              <LatitudeDegrees>29.007924534380435943603515625</LatitudeDegrees>
              <LongitudeDegrees>-13.54532995261251926422119140625</LongitudeDegrees>
            </Position>
            <AltitudeMeters>144.600006103515625</AltitudeMeters>
            <DistanceMeters>29373.792630624</DistanceMeters>
          </Trackpoint>
          <Trackpoint>
            <Time>2018-05-22T12:43:21.000Z</Time>
            <Position>
              <LatitudeDegrees>29.0078496001660823822021484375</LatitudeDegrees>
              <LongitudeDegrees>-13.54532182216644287109375</LongitudeDegrees>
            </Position>
            <AltitudeMeters>144.1999969482421875</AltitudeMeters>
            <DistanceMeters>29382.170624668</DistanceMeters>
          </Trackpoint>
          <Trackpoint>
            <Time>2018-05-22T12:43:22.000Z</Time>
            <Position>
              <LatitudeDegrees>29.00777609087526798248291015625</LatitudeDegrees>
              <LongitudeDegrees>-13.54531419463455677032470703125</LongitudeDegrees>
            </Position>
            <AltitudeMeters>144</AltitudeMeters>
            <DistanceMeters>29390.38590259</DistanceMeters>
          </Trackpoint>
          <Trackpoint>
            <Time>2018-05-22T12:43:23.000Z</Time>
            <Position>
              <LatitudeDegrees>29.00770224630832672119140625</LatitudeDegrees>
              <LongitudeDegrees>-13.54530774056911468505859375</LongitudeDegrees>
            </Position>
            <AltitudeMeters>144</AltitudeMeters>
            <DistanceMeters>29398.629161972</DistanceMeters>
          </Trackpoint>
          <Trackpoint>
            <Time>2018-05-22T12:43:24.000Z</Time>
            <Position>
              <LatitudeDegrees>29.00762588717043399810791015625</LatitudeDegrees>
              <LongitudeDegrees>-13.54530371725559234619140625</LongitudeDegrees>
            </Position>
            <AltitudeMeters>143.8000030517578125</AltitudeMeters>
            <DistanceMeters>29407.137104895</DistanceMeters>
          </Trackpoint>
          <Trackpoint>
            <Time>2018-05-22T12:43:26.000Z</Time>
            <Position>
              <LatitudeDegrees>29.0074667148292064666748046875</LatitudeDegrees>
              <LongitudeDegrees>-13.54529927484691143035888671875</LongitudeDegrees>
            </Position>
            <AltitudeMeters>143.1999969482421875</AltitudeMeters>
            <DistanceMeters>29424.858504348</DistanceMeters>
          </Trackpoint>
          <Trackpoint>
            <Time>2018-05-22T12:43:29.000Z</Time>
            <Position>
              <LatitudeDegrees>29.007217772305011749267578125</LatitudeDegrees>
              <LongitudeDegrees>-13.54531687684357166290283203125</LongitudeDegrees>
            </Position>
            <AltitudeMeters>142.1999969482421875</AltitudeMeters>
            <DistanceMeters>29452.618993966</DistanceMeters>
          </Trackpoint>
          <Trackpoint>
            <Time>2018-05-22T12:43:31.000Z</Time>
            <Position>
              <LatitudeDegrees>29.0070553310215473175048828125</LatitudeDegrees>
              <LongitudeDegrees>-13.5453880392014980316162109375</LongitudeDegrees>
            </Position>
            <AltitudeMeters>141.8000030517578125</AltitudeMeters>
            <DistanceMeters>29471.98020605</DistanceMeters>
          </Trackpoint>
          <Trackpoint>
            <Time>2018-05-22T12:43:34.000Z</Time>
            <Position>
              <LatitudeDegrees>29.0068266727030277252197265625</LatitudeDegrees>
              <LongitudeDegrees>-13.545536734163761138916015625</LongitudeDegrees>
            </Position>
            <AltitudeMeters>141</AltitudeMeters>
            <DistanceMeters>29501.258305317</DistanceMeters>
          </Trackpoint>
          <Trackpoint>
            <Time>2018-05-22T12:43:36.000Z</Time>
            <Position>
              <LatitudeDegrees>29.00665274821221828460693359375</LatitudeDegrees>
              <LongitudeDegrees>-13.54553698562085628509521484375</LongitudeDegrees>
            </Position>
            <AltitudeMeters>139.8000030517578125</AltitudeMeters>
            <DistanceMeters>29520.616252322</DistanceMeters>
          </Trackpoint>
          <Trackpoint>
            <Time>2018-05-22T12:43:38.000Z</Time>
            <Position>
              <LatitudeDegrees>29.0064991079270839691162109375</LatitudeDegrees>
              <LongitudeDegrees>-13.5454390011727809906005859375</LongitudeDegrees>
            </Position>
            <AltitudeMeters>139.1999969482421875</AltitudeMeters>
            <DistanceMeters>29540.196598478</DistanceMeters>
          </Trackpoint>
          <Trackpoint>
            <Time>2018-05-22T12:43:41.000Z</Time>
            <Position>
              <LatitudeDegrees>29.0063250996172428131103515625</LatitudeDegrees>
              <LongitudeDegrees>-13.545241020619869232177734375</LongitudeDegrees>
            </Position>
            <AltitudeMeters>139</AltitudeMeters>
            <DistanceMeters>29567.518720641</DistanceMeters>
          </Trackpoint>
          <Trackpoint>
            <Time>2018-05-22T12:43:43.000Z</Time>
            <Position>
              <LatitudeDegrees>29.006183110177516937255859375</LatitudeDegrees>
              <LongitudeDegrees>-13.545165248215198516845703125</LongitudeDegrees>
            </Position>
            <AltitudeMeters>139</AltitudeMeters>
            <DistanceMeters>29584.959164871</DistanceMeters>
          </Trackpoint>
          <Trackpoint>
            <Time>2018-05-22T12:43:46.000Z</Time>
            <Position>
              <LatitudeDegrees>29.005946405231952667236328125</LatitudeDegrees>
              <LongitudeDegrees>-13.545119650661945343017578125</LongitudeDegrees>
            </Position>
            <AltitudeMeters>139</AltitudeMeters>
            <DistanceMeters>29611.676040111</DistanceMeters>
          </Trackpoint>
          <Trackpoint>
            <Time>2018-05-22T12:43:48.000Z</Time>
            <Position>
              <LatitudeDegrees>29.00578580796718597412109375</LatitudeDegrees>
              <LongitudeDegrees>-13.54510230012238025665283203125</LongitudeDegrees>
            </Position>
            <AltitudeMeters>138.8000030517578125</AltitudeMeters>
            <DistanceMeters>29629.630306147</DistanceMeters>
          </Trackpoint>
          <Trackpoint>
            <Time>2018-05-22T12:43:51.000Z</Time>
            <Position>
              <LatitudeDegrees>29.005542062222957611083984375</LatitudeDegrees>
              <LongitudeDegrees>-13.54507715441286563873291015625</LongitudeDegrees>
            </Position>
            <AltitudeMeters>138</AltitudeMeters>
            <DistanceMeters>29656.869676941</DistanceMeters>
          </Trackpoint>
          <Trackpoint>
            <Time>2018-05-22T12:43:52.000Z</Time>
            <Position>
              <LatitudeDegrees>29.0054570697247982025146484375</LatitudeDegrees>
              <LongitudeDegrees>-13.5450683534145355224609375</LongitudeDegrees>
            </Position>
            <AltitudeMeters>137.600006103515625</AltitudeMeters>
            <DistanceMeters>29666.367595854</DistanceMeters>
          </Trackpoint>
          <Trackpoint>
            <Time>2018-05-22T12:43:55.000Z</Time>
            <Position>
              <LatitudeDegrees>29.00519865565001964569091796875</LatitudeDegrees>
              <LongitudeDegrees>-13.545044548809528350830078125</LongitudeDegrees>
            </Position>
            <AltitudeMeters>136.399993896484375</AltitudeMeters>
            <DistanceMeters>29695.222720156</DistanceMeters>
          </Trackpoint>
          <Trackpoint>
            <Time>2018-05-22T12:43:58.000Z</Time>
            <Position>
              <LatitudeDegrees>29.00494200177490711212158203125</LatitudeDegrees>
              <LongitudeDegrees>-13.54501730762422084808349609375</LongitudeDegrees>
            </Position>
            <AltitudeMeters>136</AltitudeMeters>
            <DistanceMeters>29723.911661363</DistanceMeters>
          </Trackpoint>
          <Trackpoint>
            <Time>2018-05-22T12:44:02.000Z</Time>
            <Position>
              <LatitudeDegrees>29.00459532625973224639892578125</LatitudeDegrees>
              <LongitudeDegrees>-13.54497942142188549041748046875</LongitudeDegrees>
            </Position>
            <AltitudeMeters>135.600006103515625</AltitudeMeters>
            <DistanceMeters>29762.673010396</DistanceMeters>
          </Trackpoint>
          <Trackpoint>
            <Time>2018-05-22T12:44:03.000Z</Time>
            <Position>
              <LatitudeDegrees>29.00450773537158966064453125</LatitudeDegrees>
              <LongitudeDegrees>-13.5449736379086971282958984375</LongitudeDegrees>
            </Position>
            <AltitudeMeters>135.399993896484375</AltitudeMeters>
            <DistanceMeters>29772.438132375</DistanceMeters>
          </Trackpoint>
          <Trackpoint>
            <Time>2018-05-22T12:44:05.000Z</Time>
            <Position>
              <LatitudeDegrees>29.0043286979198455810546875</LatitudeDegrees>
              <LongitudeDegrees>-13.5449555329978466033935546875</LongitudeDegrees>
            </Position>
            <AltitudeMeters>135</AltitudeMeters>
            <DistanceMeters>29792.443004977</DistanceMeters>
          </Trackpoint>
          <Trackpoint>
            <Time>2018-05-22T12:44:06.000Z</Time>
            <Position>
              <LatitudeDegrees>29.0042383410036563873291015625</LatitudeDegrees>
              <LongitudeDegrees>-13.5449451394379138946533203125</LongitudeDegrees>
            </Position>
            <AltitudeMeters>135</AltitudeMeters>
            <DistanceMeters>29802.55029219</DistanceMeters>
          </Trackpoint>
          <Trackpoint>
            <Time>2018-05-22T12:44:08.000Z</Time>
            <Position>
              <LatitudeDegrees>29.00405712425708770751953125</LatitudeDegrees>
              <LongitudeDegrees>-13.54492845945060253143310546875</LongitudeDegrees>
            </Position>
            <AltitudeMeters>134.399993896484375</AltitudeMeters>
            <DistanceMeters>29822.785181767</DistanceMeters>
          </Trackpoint>
          <Trackpoint>
            <Time>2018-05-22T12:44:09.000Z</Time>
            <Position>
              <LatitudeDegrees>29.00396567769348621368408203125</LatitudeDegrees>
              <LongitudeDegrees>-13.5449208319187164306640625</LongitudeDegrees>
            </Position>
            <AltitudeMeters>133.8000030517578125</AltitudeMeters>
            <DistanceMeters>29832.990272244</DistanceMeters>
          </Trackpoint>
          <Trackpoint>
            <Time>2018-05-22T12:44:11.000Z</Time>
            <Position>
              <LatitudeDegrees>29.00377825833857059478759765625</LatitudeDegrees>
              <LongitudeDegrees>-13.5449032299220561981201171875</LongitudeDegrees>
            </Position>
            <AltitudeMeters>133.1999969482421875</AltitudeMeters>
            <DistanceMeters>29853.920755482</DistanceMeters>
          </Trackpoint>
          <Trackpoint>
            <Time>2018-05-22T12:44:15.000Z</Time>
            <Position>
              <LatitudeDegrees>29.0033907629549503326416015625</LatitudeDegrees>
              <LongitudeDegrees>-13.54486643336713314056396484375</LongitudeDegrees>
            </Position>
            <AltitudeMeters>132</AltitudeMeters>
            <DistanceMeters>29897.198199784</DistanceMeters>
          </Trackpoint>
          <Trackpoint>
            <Time>2018-05-22T12:44:18.000Z</Time>
            <Position>
              <LatitudeDegrees>29.00309530086815357208251953125</LatitudeDegrees>
              <LongitudeDegrees>-13.54483106173574924468994140625</LongitudeDegrees>
            </Position>
            <AltitudeMeters>131</AltitudeMeters>
            <DistanceMeters>29930.26367325</DistanceMeters>
          </Trackpoint>
          <Trackpoint>
            <Time>2018-05-22T12:44:21.000Z</Time>
            <Position>
              <LatitudeDegrees>29.00279489345848560333251953125</LatitudeDegrees>
              <LongitudeDegrees>-13.5448001325130462646484375</LongitudeDegrees>
            </Position>
            <AltitudeMeters>129</AltitudeMeters>
            <DistanceMeters>29963.834877888</DistanceMeters>
          </Trackpoint>
          <Trackpoint>
            <Time>2018-05-22T12:44:22.000Z</Time>
            <Position>
              <LatitudeDegrees>29.002694226801395416259765625</LatitudeDegrees>
              <LongitudeDegrees>-13.54479066096246242523193359375</LongitudeDegrees>
            </Position>
            <AltitudeMeters>127.8000030517578125</AltitudeMeters>
            <DistanceMeters>29975.076984003</DistanceMeters>
          </Trackpoint>
          <Trackpoint>
            <Time>2018-05-22T12:44:23.000Z</Time>
            <Position>
              <LatitudeDegrees>29.00259322486817836761474609375</LatitudeDegrees>
              <LongitudeDegrees>-13.544781021773815155029296875</LongitudeDegrees>
            </Position>
            <AltitudeMeters>126.1999969482421875</AltitudeMeters>
            <DistanceMeters>29986.357179355</DistanceMeters>
          </Trackpoint>
          <Trackpoint>
            <Time>2018-05-22T12:44:24.000Z</Time>
            <Position>
              <LatitudeDegrees>29.00249264203011989593505859375</LatitudeDegrees>
              <LongitudeDegrees>-13.54477205313742160797119140625</LongitudeDegrees>
            </Position>
            <AltitudeMeters>125</AltitudeMeters>
            <DistanceMeters>29997.586024237</DistanceMeters>
          </Trackpoint>
          <Trackpoint>
            <Time>2018-05-22T12:44:27.000Z</Time>
            <Position>
              <LatitudeDegrees>29.002195335924625396728515625</LatitudeDegrees>
              <LongitudeDegrees>-13.54475964792072772979736328125</LongitudeDegrees>
            </Position>
            <AltitudeMeters>123.8000030517578125</AltitudeMeters>
            <DistanceMeters>30030.698846105</DistanceMeters>
          </Trackpoint>
          <Trackpoint>
            <Time>2018-05-22T12:44:29.000Z</Time>
            <Position>
              <LatitudeDegrees>29.002031721174716949462890625</LatitudeDegrees>
              <LongitudeDegrees>-13.5447778366506099700927734375</LongitudeDegrees>
            </Position>
            <AltitudeMeters>124</AltitudeMeters>
            <DistanceMeters>30048.995375665</DistanceMeters>
          </Trackpoint>
          <Trackpoint>
            <Time>2018-05-22T12:44:31.000Z</Time>
            <Position>
              <LatitudeDegrees>29.00192434899508953094482421875</LatitudeDegrees>
              <LongitudeDegrees>-13.54483122937381267547607421875</LongitudeDegrees>
            </Position>
            <AltitudeMeters>124.1999969482421875</AltitudeMeters>
            <DistanceMeters>30062.027554215</DistanceMeters>
          </Trackpoint>
          <Trackpoint>
            <Time>2018-05-22T12:44:35.000Z</Time>
            <Position>
              <LatitudeDegrees>29.0017586387693881988525390625</LatitudeDegrees>
              <LongitudeDegrees>-13.54496282525360584259033203125</LongitudeDegrees>
            </Position>
            <AltitudeMeters>123.40000152587890625</AltitudeMeters>
            <DistanceMeters>30084.48363555</DistanceMeters>
          </Trackpoint>
          <Trackpoint>
            <Time>2018-05-22T12:44:36.000Z</Time>
            <Position>
              <LatitudeDegrees>29.00170776061713695526123046875</LatitudeDegrees>
              <LongitudeDegrees>-13.54499995708465576171875</LongitudeDegrees>
            </Position>
            <AltitudeMeters>123.1999969482421875</AltitudeMeters>
            <DistanceMeters>30091.201694948</DistanceMeters>
          </Trackpoint>
          <Trackpoint>
            <Time>2018-05-22T12:44:38.000Z</Time>
            <Position>
              <LatitudeDegrees>29.00158253498375415802001953125</LatitudeDegrees>
              <LongitudeDegrees>-13.54503775946795940399169921875</LongitudeDegrees>
            </Position>
            <AltitudeMeters>122.8000030517578125</AltitudeMeters>
            <DistanceMeters>30105.616968761</DistanceMeters>
          </Trackpoint>
          <Trackpoint>
            <Time>2018-05-22T12:44:39.000Z</Time>
            <Position>
              <LatitudeDegrees>29.00151430629193782806396484375</LatitudeDegrees>
              <LongitudeDegrees>-13.5450279526412487030029296875</LongitudeDegrees>
            </Position>
            <AltitudeMeters>122.1999969482421875</AltitudeMeters>
            <DistanceMeters>30113.271192169</DistanceMeters>
          </Trackpoint>
          <Trackpoint>
            <Time>2018-05-22T12:44:40.000Z</Time>
            <Position>
              <LatitudeDegrees>29.00144523940980434417724609375</LatitudeDegrees>
              <LongitudeDegrees>-13.54500255547463893890380859375</LongitudeDegrees>
            </Position>
            <AltitudeMeters>121.8000030517578125</AltitudeMeters>
            <DistanceMeters>30121.345667503</DistanceMeters>
          </Trackpoint>
          <Trackpoint>
            <Time>2018-05-22T12:44:42.000Z</Time>
            <Position>
              <LatitudeDegrees>29.00131766684353351593017578125</LatitudeDegrees>
              <LongitudeDegrees>-13.5449109412729740142822265625</LongitudeDegrees>
            </Position>
            <AltitudeMeters>121.1999969482421875</AltitudeMeters>
            <DistanceMeters>30138.113507559</DistanceMeters>
          </Trackpoint>
          <Trackpoint>
            <Time>2018-05-22T12:44:43.000Z</Time>
            <Position>
              <LatitudeDegrees>29.0012610889971256256103515625</LatitudeDegrees>
              <LongitudeDegrees>-13.54484816081821918487548828125</LongitudeDegrees>
            </Position>
            <AltitudeMeters>121.1999969482421875</AltitudeMeters>
            <DistanceMeters>30146.888441282</DistanceMeters>
          </Trackpoint>
          <Trackpoint>
            <Time>2018-05-22T12:44:44.000Z</Time>
            <Position>
              <LatitudeDegrees>29.00119663216173648834228515625</LatitudeDegrees>
              <LongitudeDegrees>-13.54479485191404819488525390625</LongitudeDegrees>
            </Position>
            <AltitudeMeters>120.8000030517578125</AltitudeMeters>
            <DistanceMeters>30155.742769246</DistanceMeters>
          </Trackpoint>
          <Trackpoint>
            <Time>2018-05-22T12:44:46.000Z</Time>
            <Position>
              <LatitudeDegrees>29.0010438300669193267822265625</LatitudeDegrees>
              <LongitudeDegrees>-13.54472679086029529571533203125</LongitudeDegrees>
            </Position>
            <AltitudeMeters>119.59999847412109375</AltitudeMeters>
            <DistanceMeters>30173.994826121</DistanceMeters>
          </Trackpoint>
          <Trackpoint>
            <Time>2018-05-22T12:44:48.000Z</Time>
            <Position>
              <LatitudeDegrees>29.00088272988796234130859375</LatitudeDegrees>
              <LongitudeDegrees>-13.5446906648576259613037109375</LongitudeDegrees>
            </Position>
            <AltitudeMeters>118</AltitudeMeters>
            <DistanceMeters>30192.267156198</DistanceMeters>
          </Trackpoint>
          <Trackpoint>
            <Time>2018-05-22T12:44:50.000Z</Time>
            <Position>
              <LatitudeDegrees>29.000718779861927032470703125</LatitudeDegrees>
              <LongitudeDegrees>-13.54467566125094890594482421875</LongitudeDegrees>
            </Position>
            <AltitudeMeters>116.8000030517578125</AltitudeMeters>
            <DistanceMeters>30210.573553904</DistanceMeters>
          </Trackpoint>
          <Trackpoint>
            <Time>2018-05-22T12:44:56.000Z</Time>
            <Position>
              <LatitudeDegrees>29.00020547211170196533203125</LatitudeDegrees>
              <LongitudeDegrees>-13.54463274590671062469482421875</LongitudeDegrees>
            </Position>
            <AltitudeMeters>115.59999847412109375</AltitudeMeters>
            <DistanceMeters>30267.858270975</DistanceMeters>
          </Trackpoint>
          <Trackpoint>
            <Time>2018-05-22T12:45:01.000Z</Time>
            <Position>
              <LatitudeDegrees>28.99975628592073917388916015625</LatitudeDegrees>
              <LongitudeDegrees>-13.54458262212574481964111328125</LongitudeDegrees>
            </Position>
            <AltitudeMeters>114.8000030517578125</AltitudeMeters>
            <DistanceMeters>30318.091193459</DistanceMeters>
          </Trackpoint>
          <Trackpoint>
            <Time>2018-05-22T12:45:02.000Z</Time>
            <Position>
              <LatitudeDegrees>28.999663330614566802978515625</LatitudeDegrees>
              <LongitudeDegrees>-13.54457239620387554168701171875</LongitudeDegrees>
            </Position>
            <AltitudeMeters>114.8000030517578125</AltitudeMeters>
            <DistanceMeters>30328.484787857</DistanceMeters>
          </Trackpoint>
          <Trackpoint>
            <Time>2018-05-22T12:45:03.000Z</Time>
            <Position>
              <LatitudeDegrees>28.9995686151087284088134765625</LatitudeDegrees>
              <LongitudeDegrees>-13.54456208646297454833984375</LongitudeDegrees>
            </Position>
            <AltitudeMeters>114.59999847412109375</AltitudeMeters>
            <DistanceMeters>30339.074618798</DistanceMeters>
          </Trackpoint>
          <Trackpoint>
            <Time>2018-05-22T12:45:06.000Z</Time>
            <Position>
              <LatitudeDegrees>28.99928522296249866485595703125</LatitudeDegrees>
              <LongitudeDegrees>-13.5445292294025421142578125</LongitudeDegrees>
            </Position>
            <AltitudeMeters>113.8000030517578125</AltitudeMeters>
            <DistanceMeters>30370.778527216</DistanceMeters>
          </Trackpoint>
          <Trackpoint>
            <Time>2018-05-22T12:45:07.000Z</Time>
            <Position>
              <LatitudeDegrees>28.99919084273278713226318359375</LatitudeDegrees>
              <LongitudeDegrees>-13.5445183329284191131591796875</LongitudeDegrees>
            </Position>
            <AltitudeMeters>113.40000152587890625</AltitudeMeters>
            <DistanceMeters>30381.336760671</DistanceMeters>
          </Trackpoint>
          <Trackpoint>
            <Time>2018-05-22T12:45:10.000Z</Time>
            <Position>
              <LatitudeDegrees>28.99890736676752567291259765625</LatitudeDegrees>
              <LongitudeDegrees>-13.5444851405918598175048828125</LongitudeDegrees>
            </Position>
            <AltitudeMeters>112.40000152587890625</AltitudeMeters>
            <DistanceMeters>30413.053198928</DistanceMeters>
          </Trackpoint>
          <Trackpoint>
            <Time>2018-05-22T12:45:13.000Z</Time>
            <Position>
              <LatitudeDegrees>28.99862875230610370635986328125</LatitudeDegrees>
              <LongitudeDegrees>-13.54445219971239566802978515625</LongitudeDegrees>
            </Position>
            <AltitudeMeters>111.1999969482421875</AltitudeMeters>
            <DistanceMeters>30444.229058466</DistanceMeters>
          </Trackpoint>
          <Trackpoint>
            <Time>2018-05-22T12:45:15.000Z</Time>
            <Position>
              <LatitudeDegrees>28.99844652973115444183349609375</LatitudeDegrees>
              <LongitudeDegrees>-13.54442956857383251190185546875</LongitudeDegrees>
            </Position>
            <AltitudeMeters>109.59999847412109375</AltitudeMeters>
            <DistanceMeters>30464.630388899</DistanceMeters>
          </Trackpoint>
          <Trackpoint>
            <Time>2018-05-22T12:45:18.000Z</Time>
            <Position>
              <LatitudeDegrees>28.998178727924823760986328125</LatitudeDegrees>
              <LongitudeDegrees>-13.5443989746272563934326171875</LongitudeDegrees>
            </Position>
            <AltitudeMeters>108.59999847412109375</AltitudeMeters>
            <DistanceMeters>30494.585667169</DistanceMeters>
          </Trackpoint>
          <Trackpoint>
            <Time>2018-05-22T12:45:25.000Z</Time>
            <Position>
              <LatitudeDegrees>28.99756676517426967620849609375</LatitudeDegrees>
              <LongitudeDegrees>-13.54432965628802776336669921875</LongitudeDegrees>
            </Position>
            <AltitudeMeters>108.59999847412109375</AltitudeMeters>
            <DistanceMeters>30563.031820456</DistanceMeters>
          </Trackpoint>
          <Trackpoint>
            <Time>2018-05-22T12:45:28.000Z</Time>
            <Position>
              <LatitudeDegrees>28.99730323813855648040771484375</LatitudeDegrees>
              <LongitudeDegrees>-13.54430031962692737579345703125</LongitudeDegrees>
            </Position>
            <AltitudeMeters>107.40000152587890625</AltitudeMeters>
            <DistanceMeters>30592.501441626</DistanceMeters>
          </Trackpoint>
          <Trackpoint>
            <Time>2018-05-22T12:45:31.000Z</Time>
            <Position>
              <LatitudeDegrees>28.99703853763639926910400390625</LatitudeDegrees>
              <LongitudeDegrees>-13.54427148588001728057861328125</LongitudeDegrees>
            </Position>
            <AltitudeMeters>106.1999969482421875</AltitudeMeters>
            <DistanceMeters>30622.096580833</DistanceMeters>
          </Trackpoint>
          <Trackpoint>
            <Time>2018-05-22T12:45:36.000Z</Time>
            <Position>
              <LatitudeDegrees>28.99658993817865848541259765625</LatitudeDegrees>
              <LongitudeDegrees>-13.5442229546606540679931640625</LongitudeDegrees>
            </Position>
            <AltitudeMeters>105</AltitudeMeters>
            <DistanceMeters>30672.249624544</DistanceMeters>
          </Trackpoint>
          <Trackpoint>
            <Time>2018-05-22T12:45:38.000Z</Time>
            <Position>
              <LatitudeDegrees>28.99641073308885097503662109375</LatitudeDegrees>
              <LongitudeDegrees>-13.54420392774045467376708984375</LongitudeDegrees>
            </Position>
            <AltitudeMeters>103.8000030517578125</AltitudeMeters>
            <DistanceMeters>30692.281337076</DistanceMeters>
          </Trackpoint>
          <Trackpoint>
            <Time>2018-05-22T12:45:44.000Z</Time>
            <Position>
              <LatitudeDegrees>28.99586624465882778167724609375</LatitudeDegrees>
              <LongitudeDegrees>-13.5441448353230953216552734375</LongitudeDegrees>
            </Position>
            <AltitudeMeters>103</AltitudeMeters>
            <DistanceMeters>30753.156387804</DistanceMeters>
          </Trackpoint>
          <Trackpoint>
            <Time>2018-05-22T12:45:46.000Z</Time>
            <Position>
              <LatitudeDegrees>28.9956797473132610321044921875</LatitudeDegrees>
              <LongitudeDegrees>-13.5441247187554836273193359375</LongitudeDegrees>
            </Position>
            <AltitudeMeters>102.40000152587890625</AltitudeMeters>
            <DistanceMeters>30774.006037202</DistanceMeters>
          </Trackpoint>
          <Trackpoint>
            <Time>2018-05-22T12:45:51.000Z</Time>
            <Position>
              <LatitudeDegrees>28.9951992966234683990478515625</LatitudeDegrees>
              <LongitudeDegrees>-13.54407769627869129180908203125</LongitudeDegrees>
            </Position>
            <AltitudeMeters>101.1999969482421875</AltitudeMeters>
            <DistanceMeters>30827.67670149</DistanceMeters>
          </Trackpoint>
          <Trackpoint>
            <Time>2018-05-22T12:45:53.000Z</Time>
            <Position>
              <LatitudeDegrees>28.99500458501279354095458984375</LatitudeDegrees>
              <LongitudeDegrees>-13.54406244121491909027099609375</LongitudeDegrees>
            </Position>
            <AltitudeMeters>99.8000030517578125</AltitudeMeters>
            <DistanceMeters>30849.399193166</DistanceMeters>
          </Trackpoint>
          <Trackpoint>
            <Time>2018-05-22T12:45:56.000Z</Time>
            <Position>
              <LatitudeDegrees>28.9947102963924407958984375</LatitudeDegrees>
              <LongitudeDegrees>-13.54403972625732421875</LongitudeDegrees>
            </Position>
            <AltitudeMeters>98.40000152587890625</AltitudeMeters>
            <DistanceMeters>30882.228688195</DistanceMeters>
          </Trackpoint>
          <Trackpoint>
            <Time>2018-05-22T12:45:59.000Z</Time>
            <Position>
              <LatitudeDegrees>28.994419611990451812744140625</LatitudeDegrees>
              <LongitudeDegrees>-13.54402204044163227081298828125</LongitudeDegrees>
            </Position>
            <AltitudeMeters>97.1999969482421875</AltitudeMeters>
            <DistanceMeters>30914.628199402</DistanceMeters>
          </Trackpoint>
          <Trackpoint>
            <Time>2018-05-22T12:46:01.000Z</Time>
            <Position>
              <LatitudeDegrees>28.99422842077910900115966796875</LatitudeDegrees>
              <LongitudeDegrees>-13.54400896467268466949462890625</LongitudeDegrees>
            </Position>
            <AltitudeMeters>95.8000030517578125</AltitudeMeters>
            <DistanceMeters>30935.946188454</DistanceMeters>
          </Trackpoint>
          <Trackpoint>
            <Time>2018-05-22T12:46:05.000Z</Time>
            <Position>
              <LatitudeDegrees>28.99384670890867710113525390625</LatitudeDegrees>
              <LongitudeDegrees>-13.543984405696392059326171875</LongitudeDegrees>
            </Position>
            <AltitudeMeters>94.1999969482421875</AltitudeMeters>
            <DistanceMeters>30978.498637602</DistanceMeters>
          </Trackpoint>
          <Trackpoint>
            <Time>2018-05-22T12:46:07.000Z</Time>
            <Position>
              <LatitudeDegrees>28.99366197176277637481689453125</LatitudeDegrees>
              <LongitudeDegrees>-13.5439738444983959197998046875</LongitudeDegrees>
            </Position>
            <AltitudeMeters>93.1999969482421875</AltitudeMeters>
            <DistanceMeters>30999.085907163</DistanceMeters>
          </Trackpoint>
          <Trackpoint>
            <Time>2018-05-22T12:46:11.000Z</Time>
            <Position>
              <LatitudeDegrees>28.9932929165661334991455078125</LatitudeDegrees>
              <LongitudeDegrees>-13.5439590923488140106201171875</LongitudeDegrees>
            </Position>
            <AltitudeMeters>92</AltitudeMeters>
            <DistanceMeters>31040.187680011</DistanceMeters>
          </Trackpoint>
          <Trackpoint>
            <Time>2018-05-22T12:46:12.000Z</Time>
            <Position>
              <LatitudeDegrees>28.9932007156312465667724609375</LatitudeDegrees>
              <LongitudeDegrees>-13.54397174902260303497314453125</LongitudeDegrees>
            </Position>
            <AltitudeMeters>91.8000030517578125</AltitudeMeters>
            <DistanceMeters>31050.523336948</DistanceMeters>
          </Trackpoint>
          <Trackpoint>
            <Time>2018-05-22T12:46:14.000Z</Time>
            <Position>
              <LatitudeDegrees>28.9930205047130584716796875</LatitudeDegrees>
              <LongitudeDegrees>-13.54404307901859283447265625</LongitudeDegrees>
            </Position>
            <AltitudeMeters>91.59999847412109375</AltitudeMeters>
            <DistanceMeters>31071.74920805</DistanceMeters>
          </Trackpoint>
          <Trackpoint>
            <Time>2018-05-22T12:46:17.000Z</Time>
            <Position>
              <LatitudeDegrees>28.9927702210843563079833984375</LatitudeDegrees>
              <LongitudeDegrees>-13.5441864095628261566162109375</LongitudeDegrees>
            </Position>
            <AltitudeMeters>90.8000030517578125</AltitudeMeters>
            <DistanceMeters>31102.905655018</DistanceMeters>
          </Trackpoint>
          <Trackpoint>
            <Time>2018-05-22T12:46:19.000Z</Time>
            <Position>
              <LatitudeDegrees>28.9925913512706756591796875</LatitudeDegrees>
              <LongitudeDegrees>-13.544159419834613800048828125</LongitudeDegrees>
            </Position>
            <AltitudeMeters>89.1999969482421875</AltitudeMeters>
            <DistanceMeters>31122.986668281</DistanceMeters>
          </Trackpoint>
          <Trackpoint>
            <Time>2018-05-22T12:46:21.000Z</Time>
            <Position>
              <LatitudeDegrees>28.99243771098554134368896484375</LatitudeDegrees>
              <LongitudeDegrees>-13.5440546460449695587158203125</LongitudeDegrees>
            </Position>
            <AltitudeMeters>88</AltitudeMeters>
            <DistanceMeters>31142.898336628</DistanceMeters>
          </Trackpoint>
          <Trackpoint>
            <Time>2018-05-22T12:46:23.000Z</Time>
            <Position>
              <LatitudeDegrees>28.99230678565800189971923828125</LatitudeDegrees>
              <LongitudeDegrees>-13.54392103850841522216796875</LongitudeDegrees>
            </Position>
            <AltitudeMeters>87.8000030517578125</AltitudeMeters>
            <DistanceMeters>31162.431354569</DistanceMeters>
          </Trackpoint>
          <Trackpoint>
            <Time>2018-05-22T12:46:25.000Z</Time>
            <Position>
              <LatitudeDegrees>28.9921533130109310150146484375</LatitudeDegrees>
              <LongitudeDegrees>-13.54383780620992183685302734375</LongitudeDegrees>
            </Position>
            <AltitudeMeters>87.59999847412109375</AltitudeMeters>
            <DistanceMeters>31181.33737255</DistanceMeters>
          </Trackpoint>
          <Trackpoint>
            <Time>2018-05-22T12:46:31.000Z</Time>
            <Position>
              <LatitudeDegrees>28.99166942574083805084228515625</LatitudeDegrees>
              <LongitudeDegrees>-13.5437616147100925445556640625</LongitudeDegrees>
            </Position>
            <AltitudeMeters>86.8000030517578125</AltitudeMeters>
            <DistanceMeters>31235.70328449</DistanceMeters>
          </Trackpoint>
          <Trackpoint>
            <Time>2018-05-22T12:46:37.000Z</Time>
            <Position>
              <LatitudeDegrees>28.99118646048009395599365234375</LatitudeDegrees>
              <LongitudeDegrees>-13.54371241293847560882568359375</LongitudeDegrees>
            </Position>
            <AltitudeMeters>85.59999847412109375</AltitudeMeters>
            <DistanceMeters>31289.671263849</DistanceMeters>
          </Trackpoint>
          <Trackpoint>
            <Time>2018-05-22T12:46:44.000Z</Time>
            <Position>
              <LatitudeDegrees>28.99060911498963832855224609375</LatitudeDegrees>
              <LongitudeDegrees>-13.54364812374114990234375</LongitudeDegrees>
            </Position>
            <AltitudeMeters>84.59999847412109375</AltitudeMeters>
            <DistanceMeters>31354.235045865</DistanceMeters>
          </Trackpoint>
          <Trackpoint>
            <Time>2018-05-22T12:46:50.000Z</Time>
            <Position>
              <LatitudeDegrees>28.99010360240936279296875</LatitudeDegrees>
              <LongitudeDegrees>-13.54359473101794719696044921875</LongitudeDegrees>
            </Position>
            <AltitudeMeters>83.40000152587890625</AltitudeMeters>
            <DistanceMeters>31410.739275866</DistanceMeters>
          </Trackpoint>
          <Trackpoint>
            <Time>2018-05-22T12:46:54.000Z</Time>
            <Position>
              <LatitudeDegrees>28.98975818417966365814208984375</LatitudeDegrees>
              <LongitudeDegrees>-13.54355625808238983154296875</LongitudeDegrees>
            </Position>
            <AltitudeMeters>82.40000152587890625</AltitudeMeters>
            <DistanceMeters>31449.367021611</DistanceMeters>
          </Trackpoint>
          <Trackpoint>
            <Time>2018-05-22T12:46:59.000Z</Time>
            <Position>
              <LatitudeDegrees>28.9893269352614879608154296875</LatitudeDegrees>
              <LongitudeDegrees>-13.54351392947137355804443359375</LongitudeDegrees>
            </Position>
            <AltitudeMeters>81</AltitudeMeters>
            <DistanceMeters>31497.542473113</DistanceMeters>
          </Trackpoint>
          <Trackpoint>
            <Time>2018-05-22T12:47:03.000Z</Time>
            <Position>
              <LatitudeDegrees>28.98898503743112087249755859375</LatitudeDegrees>
              <LongitudeDegrees>-13.543475456535816192626953125</LongitudeDegrees>
            </Position>
            <AltitudeMeters>79.8000030517578125</AltitudeMeters>
            <DistanceMeters>31535.780306703</DistanceMeters>
          </Trackpoint>
          <Trackpoint>
            <Time>2018-05-22T12:47:06.000Z</Time>
            <Position>
              <LatitudeDegrees>28.9887301437556743621826171875</LatitudeDegrees>
              <LongitudeDegrees>-13.54344653896987438201904296875</LongitudeDegrees>
            </Position>
            <AltitudeMeters>78.59999847412109375</AltitudeMeters>
            <DistanceMeters>31564.289904748</DistanceMeters>
          </Trackpoint>
          <Trackpoint>
            <Time>2018-05-22T12:47:09.000Z</Time>
            <Position>
              <LatitudeDegrees>28.98848178796470165252685546875</LatitudeDegrees>
              <LongitudeDegrees>-13.54342826642096042633056640625</LongitudeDegrees>
            </Position>
            <AltitudeMeters>77.40000152587890625</AltitudeMeters>
            <DistanceMeters>31591.989499245</DistanceMeters>
          </Trackpoint>
          <Trackpoint>
            <Time>2018-05-22T12:47:17.000Z</Time>
            <Position>
              <LatitudeDegrees>28.987871669232845306396484375</LatitudeDegrees>
              <LongitudeDegrees>-13.54345123283565044403076171875</LongitudeDegrees>
            </Position>
            <AltitudeMeters>77.40000152587890625</AltitudeMeters>
            <DistanceMeters>31659.933732924</DistanceMeters>
          </Trackpoint>
          <Trackpoint>
            <Time>2018-05-22T12:47:21.000Z</Time>
            <Position>
              <LatitudeDegrees>28.98759297095239162445068359375</LatitudeDegrees>
              <LongitudeDegrees>-13.54349381290376186370849609375</LongitudeDegrees>
            </Position>
            <AltitudeMeters>76.1999969482421875</AltitudeMeters>
            <DistanceMeters>31691.229277674</DistanceMeters>
          </Trackpoint>
          <Trackpoint>
            <Time>2018-05-22T12:47:24.000Z</Time>
            <Position>
              <LatitudeDegrees>28.9873923920094966888427734375</LatitudeDegrees>
              <LongitudeDegrees>-13.54352868162095546722412109375</LongitudeDegrees>
            </Position>
            <AltitudeMeters>75.59999847412109375</AltitudeMeters>
            <DistanceMeters>31713.810872321</DistanceMeters>
          </Trackpoint>
          <Trackpoint>
            <Time>2018-05-22T12:47:33.000Z</Time>
            <Position>
              <LatitudeDegrees>28.98680540733039379119873046875</LatitudeDegrees>
              <LongitudeDegrees>-13.543639741837978363037109375</LongitudeDegrees>
            </Position>
            <AltitudeMeters>75.59999847412109375</AltitudeMeters>
            <DistanceMeters>31780.032152612</DistanceMeters>
          </Trackpoint>
          <Trackpoint>
            <Time>2018-05-22T12:47:36.000Z</Time>
            <Position>
              <LatitudeDegrees>28.98660323582589626312255859375</LatitudeDegrees>
              <LongitudeDegrees>-13.54368139989674091339111328125</LongitudeDegrees>
            </Position>
            <AltitudeMeters>74.8000030517578125</AltitudeMeters>
            <DistanceMeters>31802.897088776</DistanceMeters>
          </Trackpoint>
          <Trackpoint>
            <Time>2018-05-22T12:47:39.000Z</Time>
            <Position>
              <LatitudeDegrees>28.98639704100787639617919921875</LatitudeDegrees>
              <LongitudeDegrees>-13.54372364468872547149658203125</LongitudeDegrees>
            </Position>
            <AltitudeMeters>73.59999847412109375</AltitudeMeters>
            <DistanceMeters>31826.212547209</DistanceMeters>
          </Trackpoint>
          <Trackpoint>
            <Time>2018-05-22T12:47:42.000Z</Time>
            <Position>
              <LatitudeDegrees>28.98618548177182674407958984375</LatitudeDegrees>
              <LongitudeDegrees>-13.5437646321952342987060546875</LongitudeDegrees>
            </Position>
            <AltitudeMeters>72.40000152587890625</AltitudeMeters>
            <DistanceMeters>31850.095276923</DistanceMeters>
          </Trackpoint>
          <Trackpoint>
            <Time>2018-05-22T12:47:46.000Z</Time>
            <Position>
              <LatitudeDegrees>28.9859046041965484619140625</LatitudeDegrees>
              <LongitudeDegrees>-13.5438196174800395965576171875</LongitudeDegrees>
            </Position>
            <AltitudeMeters>71.1999969482421875</AltitudeMeters>
            <DistanceMeters>31881.812569306</DistanceMeters>
          </Trackpoint>
          <Trackpoint>
            <Time>2018-05-22T12:47:50.000Z</Time>
            <Position>
              <LatitudeDegrees>28.98561048321425914764404296875</LatitudeDegrees>
              <LongitudeDegrees>-13.54387904517352581024169921875</LongitudeDegrees>
            </Position>
            <AltitudeMeters>70.40000152587890625</AltitudeMeters>
            <DistanceMeters>31915.056168322</DistanceMeters>
          </Trackpoint>
          <Trackpoint>
            <Time>2018-05-22T12:47:51.000Z</Time>
            <Position>
              <LatitudeDegrees>28.9855346269905567169189453125</LatitudeDegrees>
              <LongitudeDegrees>-13.54389463551342487335205078125</LongitudeDegrees>
            </Position>
            <AltitudeMeters>70</AltitudeMeters>
            <DistanceMeters>31923.634928315</DistanceMeters>
          </Trackpoint>
          <Trackpoint>
            <Time>2018-05-22T12:47:56.000Z</Time>
            <Position>
              <LatitudeDegrees>28.98514620959758758544921875</LatitudeDegrees>
              <LongitudeDegrees>-13.543967641890048980712890625</LongitudeDegrees>
            </Position>
            <AltitudeMeters>68.8000030517578125</AltitudeMeters>
            <DistanceMeters>31967.447087467</DistanceMeters>
          </Trackpoint>
          <Trackpoint>
            <Time>2018-05-22T12:48:00.000Z</Time>
            <Position>
              <LatitudeDegrees>28.98481705226004123687744140625</LatitudeDegrees>
              <LongitudeDegrees>-13.54405087418854236602783203125</LongitudeDegrees>
            </Position>
            <AltitudeMeters>67.40000152587890625</AltitudeMeters>
            <DistanceMeters>32004.968322762</DistanceMeters>
          </Trackpoint>
          <Trackpoint>
            <Time>2018-05-22T12:48:02.000Z</Time>
            <Position>
              <LatitudeDegrees>28.98465276695787906646728515625</LatitudeDegrees>
              <LongitudeDegrees>-13.5440945439040660858154296875</LongitudeDegrees>
            </Position>
            <AltitudeMeters>65.59999847412109375</AltitudeMeters>
            <DistanceMeters>32023.741330605</DistanceMeters>
          </Trackpoint>
          <Trackpoint>
            <Time>2018-05-22T12:48:04.000Z</Time>
            <Position>
              <LatitudeDegrees>28.98448504507541656494140625</LatitudeDegrees>
              <LongitudeDegrees>-13.54412614367902278900146484375</LongitudeDegrees>
            </Position>
            <AltitudeMeters>63.799999237060546875</AltitudeMeters>
            <DistanceMeters>32042.660956136</DistanceMeters>
          </Trackpoint>
          <Trackpoint>
            <Time>2018-05-22T12:48:07.000Z</Time>
            <Position>
              <LatitudeDegrees>28.984233252704143524169921875</LatitudeDegrees>
              <LongitudeDegrees>-13.54416755028069019317626953125</LongitudeDegrees>
            </Position>
            <AltitudeMeters>62.40000152587890625</AltitudeMeters>
            <DistanceMeters>32070.974452324</DistanceMeters>
          </Trackpoint>
          <Trackpoint>
            <Time>2018-05-22T12:48:14.000Z</Time>
            <Position>
              <LatitudeDegrees>28.983669318258762359619140625</LatitudeDegrees>
              <LongitudeDegrees>-13.54425438679754734039306640625</LongitudeDegrees>
            </Position>
            <AltitudeMeters>61.40000152587890625</AltitudeMeters>
            <DistanceMeters>32134.308313856</DistanceMeters>
          </Trackpoint>
          <Trackpoint>
            <Time>2018-05-22T12:48:15.000Z</Time>
            <Position>
              <LatitudeDegrees>28.98359295912086963653564453125</LatitudeDegrees>
              <LongitudeDegrees>-13.54426679201424121856689453125</LongitudeDegrees>
            </Position>
            <AltitudeMeters>61.200000762939453125</AltitudeMeters>
            <DistanceMeters>32142.892335279</DistanceMeters>
          </Trackpoint>
          <Trackpoint>
            <Time>2018-05-22T12:48:23.000Z</Time>
            <Position>
              <LatitudeDegrees>28.9830386638641357421875</LatitudeDegrees>
              <LongitudeDegrees>-13.54435765184462070465087890625</LongitudeDegrees>
            </Position>
            <AltitudeMeters>60.40000152587890625</AltitudeMeters>
            <DistanceMeters>32205.21761822</DistanceMeters>
          </Trackpoint>
          <Trackpoint>
            <Time>2018-05-22T12:48:27.000Z</Time>
            <Position>
              <LatitudeDegrees>28.982784189283847808837890625</LatitudeDegrees>
              <LongitudeDegrees>-13.544405512511730194091796875</LongitudeDegrees>
            </Position>
            <AltitudeMeters>60</AltitudeMeters>
            <DistanceMeters>32233.921821135</DistanceMeters>
          </Trackpoint>
          <Trackpoint>
            <Time>2018-05-22T12:48:33.000Z</Time>
            <Position>
              <LatitudeDegrees>28.98240557871758937835693359375</LatitudeDegrees>
              <LongitudeDegrees>-13.54446820914745330810546875</LongitudeDegrees>
            </Position>
            <AltitudeMeters>59</AltitudeMeters>
            <DistanceMeters>32276.501848711</DistanceMeters>
          </Trackpoint>
          <Trackpoint>
            <Time>2018-05-22T12:48:34.000Z</Time>
            <Position>
              <LatitudeDegrees>28.9823538623750209808349609375</LatitudeDegrees>
              <LongitudeDegrees>-13.54448170401155948638916015625</LongitudeDegrees>
            </Position>
            <AltitudeMeters>58.799999237060546875</AltitudeMeters>
            <DistanceMeters>32282.405753781</DistanceMeters>
          </Trackpoint>
          <Trackpoint>
            <Time>2018-05-22T12:48:36.000Z</Time>
            <Position>
              <LatitudeDegrees>28.982263170182704925537109375</LatitudeDegrees>
              <LongitudeDegrees>-13.5445364378392696380615234375</LongitudeDegrees>
            </Position>
            <AltitudeMeters>58.40000152587890625</AltitudeMeters>
            <DistanceMeters>32293.820040572</DistanceMeters>
          </Trackpoint>
          <Trackpoint>
            <Time>2018-05-22T12:48:40.000Z</Time>
            <Position>
              <LatitudeDegrees>28.98212025873363018035888671875</LatitudeDegrees>
              <LongitudeDegrees>-13.54473869316279888153076171875</LongitudeDegrees>
            </Position>
            <AltitudeMeters>58</AltitudeMeters>
            <DistanceMeters>32319.133915909</DistanceMeters>
          </Trackpoint>
          <Trackpoint>
            <Time>2018-05-22T12:48:41.000Z</Time>
            <Position>
              <LatitudeDegrees>28.98207248188555240631103515625</LatitudeDegrees>
              <LongitudeDegrees>-13.544780351221561431884765625</LongitudeDegrees>
            </Position>
            <AltitudeMeters>58</AltitudeMeters>
            <DistanceMeters>32325.821663559</DistanceMeters>
          </Trackpoint>
          <Trackpoint>
            <Time>2018-05-22T12:48:42.000Z</Time>
            <Position>
              <LatitudeDegrees>28.9820145629346370697021484375</LatitudeDegrees>
              <LongitudeDegrees>-13.54481144808232784271240234375</LongitudeDegrees>
            </Position>
            <AltitudeMeters>57.799999237060546875</AltitudeMeters>
            <DistanceMeters>32332.942963252</DistanceMeters>
          </Trackpoint>
          <Trackpoint>
            <Time>2018-05-22T12:48:44.000Z</Time>
            <Position>
              <LatitudeDegrees>28.9818794466555118560791015625</LatitudeDegrees>
              <LongitudeDegrees>-13.54483969509601593017578125</LongitudeDegrees>
            </Position>
            <AltitudeMeters>57.59999847412109375</AltitudeMeters>
            <DistanceMeters>32348.231341147</DistanceMeters>
          </Trackpoint>
          <Trackpoint>
            <Time>2018-05-22T12:48:46.000Z</Time>
            <Position>
              <LatitudeDegrees>28.98173552937805652618408203125</LatitudeDegrees>
              <LongitudeDegrees>-13.54479275643825531005859375</LongitudeDegrees>
            </Position>
            <AltitudeMeters>57.200000762939453125</AltitudeMeters>
            <DistanceMeters>32364.888957692</DistanceMeters>
          </Trackpoint>
          <Trackpoint>
            <Time>2018-05-22T12:48:48.000Z</Time>
            <Position>
              <LatitudeDegrees>28.98160577751696109771728515625</LatitudeDegrees>
              <LongitudeDegrees>-13.54468672536313533782958984375</LongitudeDegrees>
            </Position>
            <AltitudeMeters>56.59999847412109375</AltitudeMeters>
            <DistanceMeters>32382.640904283</DistanceMeters>
          </Trackpoint>
          <Trackpoint>
            <Time>2018-05-22T12:48:50.000Z</Time>
            <Position>
              <LatitudeDegrees>28.98145289160311222076416015625</LatitudeDegrees>
              <LongitudeDegrees>-13.54466375894844532012939453125</LongitudeDegrees>
            </Position>
            <AltitudeMeters>55.799999237060546875</AltitudeMeters>
            <DistanceMeters>32399.803949574</DistanceMeters>
          </Trackpoint>
          <Trackpoint>
            <Time>2018-05-22T12:48:51.000Z</Time>
            <Position>
              <LatitudeDegrees>28.98137225769460201263427734375</LatitudeDegrees>
              <LongitudeDegrees>-13.544687144458293914794921875</LongitudeDegrees>
            </Position>
            <AltitudeMeters>55.40000152587890625</AltitudeMeters>
            <DistanceMeters>32409.063082674</DistanceMeters>
          </Trackpoint>
          <Trackpoint>
            <Time>2018-05-22T12:48:55.000Z</Time>
            <Position>
              <LatitudeDegrees>28.9810664020478725433349609375</LatitudeDegrees>
              <LongitudeDegrees>-13.5447443090379238128662109375</LongitudeDegrees>
            </Position>
            <AltitudeMeters>54.200000762939453125</AltitudeMeters>
            <DistanceMeters>32443.557387316</DistanceMeters>
          </Trackpoint>
          <Trackpoint>
            <Time>2018-05-22T12:49:02.000Z</Time>
            <Position>
              <LatitudeDegrees>28.98064085282385349273681640625</LatitudeDegrees>
              <LongitudeDegrees>-13.54484531097114086151123046875</LongitudeDegrees>
            </Position>
            <AltitudeMeters>54.799999237060546875</AltitudeMeters>
            <DistanceMeters>32491.932052071</DistanceMeters>
          </Trackpoint>
          <Trackpoint>
            <Time>2018-05-22T12:49:04.000Z</Time>
            <Position>
              <LatitudeDegrees>28.9805671758949756622314453125</LatitudeDegrees>
              <LongitudeDegrees>-13.54493801482021808624267578125</LongitudeDegrees>
            </Position>
            <AltitudeMeters>54.799999237060546875</AltitudeMeters>
            <DistanceMeters>32504.126982532</DistanceMeters>
          </Trackpoint>
          <Trackpoint>
            <Time>2018-05-22T12:49:06.000Z</Time>
            <Position>
              <LatitudeDegrees>28.98051478900015354156494140625</LatitudeDegrees>
              <LongitudeDegrees>-13.5450388491153717041015625</LongitudeDegrees>
            </Position>
            <AltitudeMeters>55.200000762939453125</AltitudeMeters>
            <DistanceMeters>32515.545619656</DistanceMeters>
          </Trackpoint>
          <Trackpoint>
            <Time>2018-05-22T12:49:07.000Z</Time>
            <Position>
              <LatitudeDegrees>28.980478160083293914794921875</LatitudeDegrees>
              <LongitudeDegrees>-13.54507279582321643829345703125</LongitudeDegrees>
            </Position>
            <AltitudeMeters>55.40000152587890625</AltitudeMeters>
            <DistanceMeters>32520.794501749</DistanceMeters>
          </Trackpoint>
          <Trackpoint>
            <Time>2018-05-22T12:49:08.000Z</Time>
            <Position>
              <LatitudeDegrees>28.98043398745357990264892578125</LatitudeDegrees>
              <LongitudeDegrees>-13.5450966842472553253173828125</LongitudeDegrees>
            </Position>
            <AltitudeMeters>55.40000152587890625</AltitudeMeters>
            <DistanceMeters>32526.233484231</DistanceMeters>
          </Trackpoint>
          <Trackpoint>
            <Time>2018-05-22T12:49:10.000Z</Time>
            <Position>
              <LatitudeDegrees>28.980336003005504608154296875</LatitudeDegrees>
              <LongitudeDegrees>-13.54512392543256282806396484375</LongitudeDegrees>
            </Position>
            <AltitudeMeters>55.799999237060546875</AltitudeMeters>
            <DistanceMeters>32537.457100688</DistanceMeters>
          </Trackpoint>
          <Trackpoint>
            <Time>2018-05-22T12:49:12.000Z</Time>
            <Position>
              <LatitudeDegrees>28.98023868910968303680419921875</LatitudeDegrees>
              <LongitudeDegrees>-13.5451171360909938812255859375</LongitudeDegrees>
            </Position>
            <AltitudeMeters>56.200000762939453125</AltitudeMeters>
            <DistanceMeters>32548.308053032</DistanceMeters>
          </Trackpoint>
          <Trackpoint>
            <Time>2018-05-22T12:49:13.000Z</Time>
            <Position>
              <LatitudeDegrees>28.98019351065158843994140625</LatitudeDegrees>
              <LongitudeDegrees>-13.545103557407855987548828125</LongitudeDegrees>
            </Position>
            <AltitudeMeters>56.40000152587890625</AltitudeMeters>
            <DistanceMeters>32553.507673102</DistanceMeters>
          </Trackpoint>
          <Trackpoint>
            <Time>2018-05-22T12:49:14.000Z</Time>
            <Position>
              <LatitudeDegrees>28.9801500923931598663330078125</LatitudeDegrees>
              <LongitudeDegrees>-13.545082099735736846923828125</LongitudeDegrees>
            </Position>
            <AltitudeMeters>56.59999847412109375</AltitudeMeters>
            <DistanceMeters>32558.772873448</DistanceMeters>
          </Trackpoint>
          <Trackpoint>
            <Time>2018-05-22T12:49:19.000Z</Time>
            <Position>
              <LatitudeDegrees>28.9799485914409160614013671875</LatitudeDegrees>
              <LongitudeDegrees>-13.54497455991804599761962890625</LongitudeDegrees>
            </Position>
            <AltitudeMeters>56.799999237060546875</AltitudeMeters>
            <DistanceMeters>32583.524003646</DistanceMeters>
          </Trackpoint>
          <Trackpoint>
            <Time>2018-05-22T12:49:21.000Z</Time>
            <Position>
              <LatitudeDegrees>28.9798604138195514678955078125</LatitudeDegrees>
              <LongitudeDegrees>-13.54496114887297153472900390625</LongitudeDegrees>
            </Position>
            <AltitudeMeters>57</AltitudeMeters>
            <DistanceMeters>32593.425039444</DistanceMeters>
          </Trackpoint>
          <Trackpoint>
            <Time>2018-05-22T12:49:25.000Z</Time>
            <Position>
              <LatitudeDegrees>28.97969252429902553558349609375</LatitudeDegrees>
              <LongitudeDegrees>-13.5449769906699657440185546875</LongitudeDegrees>
            </Position>
            <AltitudeMeters>57.40000152587890625</AltitudeMeters>
            <DistanceMeters>32612.174944407</DistanceMeters>
          </Trackpoint>
          <Trackpoint>
            <Time>2018-05-22T12:49:26.000Z</Time>
            <Position>
              <LatitudeDegrees>28.9796515367925167083740234375</LatitudeDegrees>
              <LongitudeDegrees>-13.5449796728789806365966796875</LongitudeDegrees>
            </Position>
            <AltitudeMeters>57.40000152587890625</AltitudeMeters>
            <DistanceMeters>32616.745126768</DistanceMeters>
          </Trackpoint>
          <Trackpoint>
            <Time>2018-05-22T12:49:32.000Z</Time>
            <Position>
              <LatitudeDegrees>28.979399241507053375244140625</LatitudeDegrees>
              <LongitudeDegrees>-13.5450078360736370086669921875</LongitudeDegrees>
            </Position>
            <AltitudeMeters>58</AltitudeMeters>
            <DistanceMeters>32644.959740873</DistanceMeters>
          </Trackpoint>
          <Trackpoint>
            <Time>2018-05-22T12:49:38.000Z</Time>
            <Position>
              <LatitudeDegrees>28.97914116270840167999267578125</LatitudeDegrees>
              <LongitudeDegrees>-13.545059971511363983154296875</LongitudeDegrees>
            </Position>
            <AltitudeMeters>58.200000762939453125</AltitudeMeters>
            <DistanceMeters>32674.12953712</DistanceMeters>
          </Trackpoint>
          <Trackpoint>
            <Time>2018-05-22T12:49:39.000Z</Time>
            <Position>
              <LatitudeDegrees>28.979098834097385406494140625</LatitudeDegrees>
              <LongitudeDegrees>-13.54506877250969409942626953125</LongitudeDegrees>
            </Position>
            <AltitudeMeters>58.59999847412109375</AltitudeMeters>
            <DistanceMeters>32678.917789838</DistanceMeters>
          </Trackpoint>
          <Trackpoint>
            <Time>2018-05-22T12:49:51.000Z</Time>
            <Position>
              <LatitudeDegrees>28.97855996154248714447021484375</LatitudeDegrees>
              <LongitudeDegrees>-13.5451758094131946563720703125</LongitudeDegrees>
            </Position>
            <AltitudeMeters>59.200000762939453125</AltitudeMeters>
            <DistanceMeters>32739.794101425</DistanceMeters>
          </Trackpoint>
          <Trackpoint>
            <Time>2018-05-22T12:50:01.000Z</Time>
            <Position>
              <LatitudeDegrees>28.9781417883932590484619140625</LatitudeDegrees>
              <LongitudeDegrees>-13.545348644256591796875</LongitudeDegrees>
            </Position>
            <AltitudeMeters>59.59999847412109375</AltitudeMeters>
            <DistanceMeters>32789.286419073</DistanceMeters>
          </Trackpoint>
          <Trackpoint>
            <Time>2018-05-22T12:50:08.000Z</Time>
            <Position>
              <LatitudeDegrees>28.97785688750445842742919921875</LatitudeDegrees>
              <LongitudeDegrees>-13.54547713883221149444580078125</LongitudeDegrees>
            </Position>
            <AltitudeMeters>60.59999847412109375</AltitudeMeters>
            <DistanceMeters>32823.37532412</DistanceMeters>
          </Trackpoint>
          <Trackpoint>
            <Time>2018-05-22T12:50:09.000Z</Time>
            <Position>
              <LatitudeDegrees>28.97781363688409328460693359375</LatitudeDegrees>
              <LongitudeDegrees>-13.54549088515341281890869140625</LongitudeDegrees>
            </Position>
            <AltitudeMeters>60.59999847412109375</AltitudeMeters>
            <DistanceMeters>32828.372139243</DistanceMeters>
          </Trackpoint>
          <Trackpoint>
            <Time>2018-05-22T12:50:20.000Z</Time>
            <Position>
              <LatitudeDegrees>28.9772435836493968963623046875</LatitudeDegrees>
              <LongitudeDegrees>-13.54547630064189434051513671875</LongitudeDegrees>
            </Position>
            <AltitudeMeters>60</AltitudeMeters>
            <DistanceMeters>32891.836041866</DistanceMeters>
          </Trackpoint>
          <Trackpoint>
            <Time>2018-05-22T12:50:22.000Z</Time>
            <Position>
              <LatitudeDegrees>28.977122046053409576416015625</LatitudeDegrees>
              <LongitudeDegrees>-13.54546976275742053985595703125</LongitudeDegrees>
            </Position>
            <AltitudeMeters>59.200000762939453125</AltitudeMeters>
            <DistanceMeters>32905.378598958</DistanceMeters>
          </Trackpoint>
          <Trackpoint>
            <Time>2018-05-22T12:50:27.000Z</Time>
            <Position>
              <LatitudeDegrees>28.97682054899632930755615234375</LatitudeDegrees>
              <LongitudeDegrees>-13.54552458040416240692138671875</LongitudeDegrees>
            </Position>
            <AltitudeMeters>58.200000762939453125</AltitudeMeters>
            <DistanceMeters>32939.357792211</DistanceMeters>
          </Trackpoint>
          <Trackpoint>
            <Time>2018-05-22T12:50:36.000Z</Time>
            <Position>
              <LatitudeDegrees>28.97624571807682514190673828125</LatitudeDegrees>
              <LongitudeDegrees>-13.54564159177243709564208984375</LongitudeDegrees>
            </Position>
            <AltitudeMeters>58.40000152587890625</AltitudeMeters>
            <DistanceMeters>33004.344185415</DistanceMeters>
          </Trackpoint>
          <Trackpoint>
            <Time>2018-05-22T12:50:43.000Z</Time>
            <Position>
              <LatitudeDegrees>28.97576543502509593963623046875</LatitudeDegrees>
              <LongitudeDegrees>-13.54574133642017841339111328125</LongitudeDegrees>
            </Position>
            <AltitudeMeters>56.799999237060546875</AltitudeMeters>
            <DistanceMeters>33058.675787264</DistanceMeters>
          </Trackpoint>
          <Trackpoint>
            <Time>2018-05-22T12:50:47.000Z</Time>
            <Position>
              <LatitudeDegrees>28.975498639047145843505859375</LatitudeDegrees>
              <LongitudeDegrees>-13.54579590260982513427734375</LongitudeDegrees>
            </Position>
            <AltitudeMeters>56.200000762939453125</AltitudeMeters>
            <DistanceMeters>33088.842391544</DistanceMeters>
          </Trackpoint>
          <Trackpoint>
            <Time>2018-05-22T12:50:49.000Z</Time>
            <Position>
              <LatitudeDegrees>28.97537064738571643829345703125</LatitudeDegrees>
              <LongitudeDegrees>-13.54582934640347957611083984375</LongitudeDegrees>
            </Position>
            <AltitudeMeters>55.799999237060546875</AltitudeMeters>
            <DistanceMeters>33103.455201598</DistanceMeters>
          </Trackpoint>
          <Trackpoint>
            <Time>2018-05-22T12:50:51.000Z</Time>
            <Position>
              <LatitudeDegrees>28.97523276507854461669921875</LatitudeDegrees>
              <LongitudeDegrees>-13.5458517260849475860595703125</LongitudeDegrees>
            </Position>
            <AltitudeMeters>55.799999237060546875</AltitudeMeters>
            <DistanceMeters>33118.955337529</DistanceMeters>
          </Trackpoint>
          <Trackpoint>
            <Time>2018-05-22T12:50:59.000Z</Time>
            <Position>
              <LatitudeDegrees>28.97470814175903797149658203125</LatitudeDegrees>
              <LongitudeDegrees>-13.54595373384654521942138671875</LongitudeDegrees>
            </Position>
            <AltitudeMeters>54.59999847412109375</AltitudeMeters>
            <DistanceMeters>33178.185649438</DistanceMeters>
          </Trackpoint>
          <Trackpoint>
            <Time>2018-05-22T12:51:07.000Z</Time>
            <Position>
              <LatitudeDegrees>28.97415510378777980804443359375</LatitudeDegrees>
              <LongitudeDegrees>-13.5460606031119823455810546875</LongitudeDegrees>
            </Position>
            <AltitudeMeters>53.799999237060546875</AltitudeMeters>
            <DistanceMeters>33240.613210593</DistanceMeters>
          </Trackpoint>
          <Trackpoint>
            <Time>2018-05-22T12:51:08.000Z</Time>
            <Position>
              <LatitudeDegrees>28.974080421030521392822265625</LatitudeDegrees>
              <LongitudeDegrees>-13.54607409797608852386474609375</LongitudeDegrees>
            </Position>
            <AltitudeMeters>53.59999847412109375</AltitudeMeters>
            <DistanceMeters>33249.028844232</DistanceMeters>
          </Trackpoint>
          <Trackpoint>
            <Time>2018-05-22T12:51:15.000Z</Time>
            <Position>
              <LatitudeDegrees>28.97349863313138484954833984375</LatitudeDegrees>
              <LongitudeDegrees>-13.54618289507925510406494140625</LongitudeDegrees>
            </Position>
            <AltitudeMeters>52.200000762939453125</AltitudeMeters>
            <DistanceMeters>33314.643809954</DistanceMeters>
          </Trackpoint>
          <Trackpoint>
            <Time>2018-05-22T12:51:18.000Z</Time>
            <Position>
              <LatitudeDegrees>28.97325371392071247100830078125</LatitudeDegrees>
              <LongitudeDegrees>-13.546226732432842254638671875</LongitudeDegrees>
            </Position>
            <AltitudeMeters>51</AltitudeMeters>
            <DistanceMeters>33342.235941894</DistanceMeters>
          </Trackpoint>
          <Trackpoint>
            <Time>2018-05-22T12:51:20.000Z</Time>
            <Position>
              <LatitudeDegrees>28.97309076972305774688720703125</LatitudeDegrees>
              <LongitudeDegrees>-13.54627191089093685150146484375</LongitudeDegrees>
            </Position>
            <AltitudeMeters>49.799999237060546875</AltitudeMeters>
            <DistanceMeters>33360.897988627</DistanceMeters>
          </Trackpoint>
          <Trackpoint>
            <Time>2018-05-22T12:51:22.000Z</Time>
            <Position>
              <LatitudeDegrees>28.972955234348773956298828125</LatitudeDegrees>
              <LongitudeDegrees>-13.54637182317674160003662109375</LongitudeDegrees>
            </Position>
            <AltitudeMeters>48.799999237060546875</AltitudeMeters>
            <DistanceMeters>33378.848230622</DistanceMeters>
          </Trackpoint>
          <Trackpoint>
            <Time>2018-05-22T12:51:24.000Z</Time>
            <Position>
              <LatitudeDegrees>28.9728397317230701446533203125</LatitudeDegrees>
              <LongitudeDegrees>-13.546476848423480987548828125</LongitudeDegrees>
            </Position>
            <AltitudeMeters>48.40000152587890625</AltitudeMeters>
            <DistanceMeters>33395.275213741</DistanceMeters>
          </Trackpoint>
          <Trackpoint>
            <Time>2018-05-22T12:51:26.000Z</Time>
            <Position>
              <LatitudeDegrees>28.9727176912128925323486328125</LatitudeDegrees>
              <LongitudeDegrees>-13.5464639402925968170166015625</LongitudeDegrees>
            </Position>
            <AltitudeMeters>48.40000152587890625</AltitudeMeters>
            <DistanceMeters>33408.916761137</DistanceMeters>
          </Trackpoint>
          <Trackpoint>
            <Time>2018-05-22T12:51:28.000Z</Time>
            <Position>
              <LatitudeDegrees>28.9726087264716625213623046875</LatitudeDegrees>
              <LongitudeDegrees>-13.546389676630496978759765625</LongitudeDegrees>
            </Position>
            <AltitudeMeters>48</AltitudeMeters>
            <DistanceMeters>33423.03678443</DistanceMeters>
          </Trackpoint>
          <Trackpoint>
            <Time>2018-05-22T12:51:30.000Z</Time>
            <Position>
              <LatitudeDegrees>28.97249464876949787139892578125</LatitudeDegrees>
              <LongitudeDegrees>-13.54638070799410343170166015625</LongitudeDegrees>
            </Position>
            <AltitudeMeters>47.799999237060546875</AltitudeMeters>
            <DistanceMeters>33435.763625404</DistanceMeters>
          </Trackpoint>
          <Trackpoint>
            <Time>2018-05-22T12:51:40.000Z</Time>
            <Position>
              <LatitudeDegrees>28.97191780619323253631591796875</LatitudeDegrees>
              <LongitudeDegrees>-13.54651699773967266082763671875</LongitudeDegrees>
            </Position>
            <AltitudeMeters>48.799999237060546875</AltitudeMeters>
            <DistanceMeters>33501.324552157</DistanceMeters>
          </Trackpoint>
          <Trackpoint>
            <Time>2018-05-22T12:51:50.000Z</Time>
            <Position>
              <LatitudeDegrees>28.9713227748870849609375</LatitudeDegrees>
              <LongitudeDegrees>-13.5466329194605350494384765625</LongitudeDegrees>
            </Position>
            <AltitudeMeters>49</AltitudeMeters>
            <DistanceMeters>33568.507767171</DistanceMeters>
          </Trackpoint>
          <Trackpoint>
            <Time>2018-05-22T12:51:54.000Z</Time>
            <Position>
              <LatitudeDegrees>28.97106754593551158905029296875</LatitudeDegrees>
              <LongitudeDegrees>-13.54668094776570796966552734375</LongitudeDegrees>
            </Position>
            <AltitudeMeters>48.799999237060546875</AltitudeMeters>
            <DistanceMeters>33597.297568432</DistanceMeters>
          </Trackpoint>
          <Trackpoint>
            <Time>2018-05-22T12:51:57.000Z</Time>
            <Position>
              <LatitudeDegrees>28.9708693139255046844482421875</LatitudeDegrees>
              <LongitudeDegrees>-13.54671665467321872711181640625</LongitudeDegrees>
            </Position>
            <AltitudeMeters>47.40000152587890625</AltitudeMeters>
            <DistanceMeters>33619.633496069</DistanceMeters>
          </Trackpoint>
          <Trackpoint>
            <Time>2018-05-22T12:52:03.000Z</Time>
            <Position>
              <LatitudeDegrees>28.97049841471016407012939453125</LatitudeDegrees>
              <LongitudeDegrees>-13.54680441319942474365234375</LongitudeDegrees>
            </Position>
            <AltitudeMeters>48.59999847412109375</AltitudeMeters>
            <DistanceMeters>33661.790671082</DistanceMeters>
          </Trackpoint>
          <Trackpoint>
            <Time>2018-05-22T12:52:09.000Z</Time>
            <Position>
              <LatitudeDegrees>28.97009055130183696746826171875</LatitudeDegrees>
              <LongitudeDegrees>-13.54689988307654857635498046875</LongitudeDegrees>
            </Position>
            <AltitudeMeters>47.40000152587890625</AltitudeMeters>
            <DistanceMeters>33708.128935911</DistanceMeters>
          </Trackpoint>
          <Trackpoint>
            <Time>2018-05-22T12:52:14.000Z</Time>
            <Position>
              <LatitudeDegrees>28.969765417277812957763671875</LatitudeDegrees>
              <LongitudeDegrees>-13.54699426330626010894775390625</LongitudeDegrees>
            </Position>
            <AltitudeMeters>46</AltitudeMeters>
            <DistanceMeters>33745.465728907</DistanceMeters>
          </Trackpoint>
          <Trackpoint>
            <Time>2018-05-22T12:52:18.000Z</Time>
            <Position>
              <LatitudeDegrees>28.96948705427348613739013671875</LatitudeDegrees>
              <LongitudeDegrees>-13.54708998464047908782958984375</LongitudeDegrees>
            </Position>
            <AltitudeMeters>44.59999847412109375</AltitudeMeters>
            <DistanceMeters>33777.819917996</DistanceMeters>
          </Trackpoint>
          <Trackpoint>
            <Time>2018-05-22T12:52:21.000Z</Time>
            <Position>
              <LatitudeDegrees>28.9692804403603076934814453125</LatitudeDegrees>
              <LongitudeDegrees>-13.54715703986585140228271484375</LongitudeDegrees>
            </Position>
            <AltitudeMeters>43.59999847412109375</AltitudeMeters>
            <DistanceMeters>33801.725700725</DistanceMeters>
          </Trackpoint>
          <Trackpoint>
            <Time>2018-05-22T12:52:23.000Z</Time>
            <Position>
              <LatitudeDegrees>28.96914012730121612548828125</LatitudeDegrees>
              <LongitudeDegrees>-13.5471821017563343048095703125</LongitudeDegrees>
            </Position>
            <AltitudeMeters>42.40000152587890625</AltitudeMeters>
            <DistanceMeters>33817.532731288</DistanceMeters>
          </Trackpoint>
          <Trackpoint>
            <Time>2018-05-22T12:52:26.000Z</Time>
            <Position>
              <LatitudeDegrees>28.968963436782360076904296875</LatitudeDegrees>
              <LongitudeDegrees>-13.5472250171005725860595703125</LongitudeDegrees>
            </Position>
            <AltitudeMeters>41.200000762939453125</AltitudeMeters>
            <DistanceMeters>33837.638012732</DistanceMeters>
          </Trackpoint>
          <Trackpoint>
            <Time>2018-05-22T12:52:28.000Z</Time>
            <Position>
              <LatitudeDegrees>28.9688693918287754058837890625</LatitudeDegrees>
              <LongitudeDegrees>-13.54728125967085361480712890625</LongitudeDegrees>
            </Position>
            <AltitudeMeters>40.799999237060546875</AltitudeMeters>
            <DistanceMeters>33849.451557138</DistanceMeters>
          </Trackpoint>
          <Trackpoint>
            <Time>2018-05-22T12:52:30.000Z</Time>
            <Position>
              <LatitudeDegrees>28.968780376017093658447265625</LatitudeDegrees>
              <LongitudeDegrees>-13.5473604686558246612548828125</LongitudeDegrees>
            </Position>
            <AltitudeMeters>40.200000762939453125</AltitudeMeters>
            <DistanceMeters>33862.007315759</DistanceMeters>
          </Trackpoint>
          <Trackpoint>
            <Time>2018-05-22T12:52:37.000Z</Time>
            <Position>
              <LatitudeDegrees>28.9684670604765415191650390625</LatitudeDegrees>
              <LongitudeDegrees>-13.54763128794729709625244140625</LongitudeDegrees>
            </Position>
            <AltitudeMeters>39.799999237060546875</AltitudeMeters>
            <DistanceMeters>33905.728589668</DistanceMeters>
          </Trackpoint>
          <Trackpoint>
            <Time>2018-05-22T12:52:45.000Z</Time>
            <Position>
              <LatitudeDegrees>28.96803815849125385284423828125</LatitudeDegrees>
              <LongitudeDegrees>-13.54782541282474994659423828125</LongitudeDegrees>
            </Position>
            <AltitudeMeters>38.799999237060546875</AltitudeMeters>
            <DistanceMeters>33957.072570783</DistanceMeters>
          </Trackpoint>
          <Trackpoint>
            <Time>2018-05-22T12:52:54.000Z</Time>
            <Position>
              <LatitudeDegrees>28.9676067419350147247314453125</LatitudeDegrees>
              <LongitudeDegrees>-13.5480072163045406341552734375</LongitudeDegrees>
            </Position>
            <AltitudeMeters>38.59999847412109375</AltitudeMeters>
            <DistanceMeters>34008.249728109</DistanceMeters>
          </Trackpoint>
          <Trackpoint>
            <Time>2018-05-22T12:52:59.000Z</Time>
            <Position>
              <LatitudeDegrees>28.96749802865087985992431640625</LatitudeDegrees>
              <LongitudeDegrees>-13.54819639585912227630615234375</LongitudeDegrees>
            </Position>
            <AltitudeMeters>38.799999237060546875</AltitudeMeters>
            <DistanceMeters>34030.290190726</DistanceMeters>
          </Trackpoint>
          <Trackpoint>
            <Time>2018-05-22T12:53:05.000Z</Time>
            <Position>
              <LatitudeDegrees>28.96760858595371246337890625</LatitudeDegrees>
              <LongitudeDegrees>-13.54835129342973232269287109375</LongitudeDegrees>
            </Position>
            <AltitudeMeters>38.799999237060546875</AltitudeMeters>
            <DistanceMeters>34049.756291975</DistanceMeters>
          </Trackpoint>
          <Trackpoint>
            <Time>2018-05-22T12:53:08.000Z</Time>
            <Position>
              <LatitudeDegrees>28.96758444607257843017578125</LatitudeDegrees>
              <LongitudeDegrees>-13.54840510524809360504150390625</LongitudeDegrees>
            </Position>
            <AltitudeMeters>38.799999237060546875</AltitudeMeters>
            <DistanceMeters>34055.645648784</DistanceMeters>
          </Trackpoint>
          <Trackpoint>
            <Time>2018-05-22T12:53:12.000Z</Time>
            <Position>
              <LatitudeDegrees>28.9674645848572254180908203125</LatitudeDegrees>
              <LongitudeDegrees>-13.5484092123806476593017578125</LongitudeDegrees>
            </Position>
            <AltitudeMeters>38.40000152587890625</AltitudeMeters>
            <DistanceMeters>34068.992082312</DistanceMeters>
          </Trackpoint>
          <Trackpoint>
            <Time>2018-05-22T12:53:14.000Z</Time>
            <Position>
              <LatitudeDegrees>28.96742074750363826751708984375</LatitudeDegrees>
              <LongitudeDegrees>-13.5484759323298931121826171875</LongitudeDegrees>
            </Position>
            <AltitudeMeters>38</AltitudeMeters>
            <DistanceMeters>34077.117283164</DistanceMeters>
          </Trackpoint>
          <Trackpoint>
            <Time>2018-05-22T12:53:16.000Z</Time>
            <Position>
              <LatitudeDegrees>28.9674080908298492431640625</LatitudeDegrees>
              <LongitudeDegrees>-13.5485604219138622283935546875</LongitudeDegrees>
            </Position>
            <AltitudeMeters>37.799999237060546875</AltitudeMeters>
            <DistanceMeters>34085.464502452</DistanceMeters>
          </Trackpoint>
          <Trackpoint>
            <Time>2018-05-22T12:53:25.000Z</Time>
            <Position>
              <LatitudeDegrees>28.96738202311098575592041015625</LatitudeDegrees>
              <LongitudeDegrees>-13.5489872284233570098876953125</LongitudeDegrees>
            </Position>
            <AltitudeMeters>38.799999237060546875</AltitudeMeters>
            <DistanceMeters>34127.127079474</DistanceMeters>
          </Trackpoint>
          <Trackpoint>
            <Time>2018-05-22T12:53:35.000Z</Time>
            <Position>
              <LatitudeDegrees>28.96722628735005855560302734375</LatitudeDegrees>
              <LongitudeDegrees>-13.54964344762265682220458984375</LongitudeDegrees>
            </Position>
            <AltitudeMeters>39.59999847412109375</AltitudeMeters>
            <DistanceMeters>34193.337449894</DistanceMeters>
          </Trackpoint>
          <Trackpoint>
            <Time>2018-05-22T12:53:44.000Z</Time>
            <Position>
              <LatitudeDegrees>28.96696762181818485260009765625</LatitudeDegrees>
              <LongitudeDegrees>-13.5502632893621921539306640625</LongitudeDegrees>
            </Position>
            <AltitudeMeters>39.40000152587890625</AltitudeMeters>
            <DistanceMeters>34260.210808028</DistanceMeters>
          </Trackpoint>
          <Trackpoint>
            <Time>2018-05-22T12:53:53.000Z</Time>
            <Position>
              <LatitudeDegrees>28.966864608228206634521484375</LatitudeDegrees>
              <LongitudeDegrees>-13.5509316623210906982421875</LongitudeDegrees>
            </Position>
            <AltitudeMeters>39.799999237060546875</AltitudeMeters>
            <DistanceMeters>34326.297840061</DistanceMeters>
          </Trackpoint>
          <Trackpoint>
            <Time>2018-05-22T12:53:55.000Z</Time>
            <Position>
              <LatitudeDegrees>28.966847173869609832763671875</LatitudeDegrees>
              <LongitudeDegrees>-13.55108119547367095947265625</LongitudeDegrees>
            </Position>
            <AltitudeMeters>39.799999237060546875</AltitudeMeters>
            <DistanceMeters>34340.987691551</DistanceMeters>
          </Trackpoint>
          <Trackpoint>
            <Time>2018-05-22T12:54:03.000Z</Time>
            <Position>
              <LatitudeDegrees>28.96675027906894683837890625</LatitudeDegrees>
              <LongitudeDegrees>-13.55171847157180309295654296875</LongitudeDegrees>
            </Position>
            <AltitudeMeters>40</AltitudeMeters>
            <DistanceMeters>34403.974635084</DistanceMeters>
          </Trackpoint>
          <Trackpoint>
            <Time>2018-05-22T12:54:09.000Z</Time>
            <Position>
              <LatitudeDegrees>28.966670818626880645751953125</LatitudeDegrees>
              <LongitudeDegrees>-13.5522524826228618621826171875</LongitudeDegrees>
            </Position>
            <AltitudeMeters>38.59999847412109375</AltitudeMeters>
            <DistanceMeters>34456.722422656</DistanceMeters>
          </Trackpoint>
          <Trackpoint>
            <Time>2018-05-22T12:54:10.000Z</Time>
            <Position>
              <LatitudeDegrees>28.96664776839315891265869140625</LatitudeDegrees>
              <LongitudeDegrees>-13.55231794528663158416748046875</LongitudeDegrees>
            </Position>
            <AltitudeMeters>38.200000762939453125</AltitudeMeters>
            <DistanceMeters>34463.593977773</DistanceMeters>
          </Trackpoint>
          <Trackpoint>
            <Time>2018-05-22T12:54:13.000Z</Time>
            <Position>
              <LatitudeDegrees>28.9665767736732959747314453125</LatitudeDegrees>
              <LongitudeDegrees>-13.55247485451400279998779296875</LongitudeDegrees>
            </Position>
            <AltitudeMeters>37.59999847412109375</AltitudeMeters>
            <DistanceMeters>34480.795650509</DistanceMeters>
          </Trackpoint>
          <Trackpoint>
            <Time>2018-05-22T12:54:32.000Z</Time>
            <Position>
              <LatitudeDegrees>28.9665256440639495849609375</LatitudeDegrees>
              <LongitudeDegrees>-13.55266411788761615753173828125</LongitudeDegrees>
            </Position>
            <AltitudeMeters>36.40000152587890625</AltitudeMeters>
            <DistanceMeters>34500.083966908</DistanceMeters>
          </Trackpoint>
          <Trackpoint>
            <Time>2018-05-22T12:54:33.000Z</Time>
            <Position>
              <LatitudeDegrees>28.96651064045727252960205078125</LatitudeDegrees>
              <LongitudeDegrees>-13.55271005071699619293212890625</LongitudeDegrees>
            </Position>
            <AltitudeMeters>36</AltitudeMeters>
            <DistanceMeters>34504.858054563</DistanceMeters>
          </Trackpoint>
          <Trackpoint>
            <Time>2018-05-22T12:54:36.000Z</Time>
            <Position>
              <LatitudeDegrees>28.96644023247063159942626953125</LatitudeDegrees>
              <LongitudeDegrees>-13.552892692387104034423828125</LongitudeDegrees>
            </Position>
            <AltitudeMeters>35.200000762939453125</AltitudeMeters>
            <DistanceMeters>34524.293515137</DistanceMeters>
          </Trackpoint>
          <Trackpoint>
            <Time>2018-05-22T12:54:39.000Z</Time>
            <Position>
              <LatitudeDegrees>28.96632087416946887969970703125</LatitudeDegrees>
              <LongitudeDegrees>-13.55312210507690906524658203125</LongitudeDegrees>
            </Position>
            <AltitudeMeters>33.799999237060546875</AltitudeMeters>
            <DistanceMeters>34550.285015266</DistanceMeters>
          </Trackpoint>
          <Trackpoint>
            <Time>2018-05-22T12:54:41.000Z</Time>
            <Position>
              <LatitudeDegrees>28.9662265777587890625</LatitudeDegrees>
              <LongitudeDegrees>-13.5532854683697223663330078125</LongitudeDegrees>
            </Position>
            <AltitudeMeters>32.799999237060546875</AltitudeMeters>
            <DistanceMeters>34569.343261901</DistanceMeters>
          </Trackpoint>
          <Trackpoint>
            <Time>2018-05-22T12:54:48.000Z</Time>
            <Position>
              <LatitudeDegrees>28.965953327715396881103515625</LatitudeDegrees>
              <LongitudeDegrees>-13.553722165524959564208984375</LongitudeDegrees>
            </Position>
            <AltitudeMeters>32.200000762939453125</AltitudeMeters>
            <DistanceMeters>34621.624711375</DistanceMeters>
          </Trackpoint>
          <Trackpoint>
            <Time>2018-05-22T12:54:50.000Z</Time>
            <Position>
              <LatitudeDegrees>28.96591074764728546142578125</LatitudeDegrees>
              <LongitudeDegrees>-13.5538205690681934356689453125</LongitudeDegrees>
            </Position>
            <AltitudeMeters>32</AltitudeMeters>
            <DistanceMeters>34632.315111156</DistanceMeters>
          </Trackpoint>
          <Trackpoint>
            <Time>2018-05-22T12:54:52.000Z</Time>
            <Position>
              <LatitudeDegrees>28.96586858667433261871337890625</LatitudeDegrees>
              <LongitudeDegrees>-13.55392844416201114654541015625</LongitudeDegrees>
            </Position>
            <AltitudeMeters>31.799999237060546875</AltitudeMeters>
            <DistanceMeters>34643.820801951</DistanceMeters>
          </Trackpoint>
          <Trackpoint>
            <Time>2018-05-22T12:54:53.000Z</Time>
            <Position>
              <LatitudeDegrees>28.965848386287689208984375</LatitudeDegrees>
              <LongitudeDegrees>-13.55398577637970447540283203125</LongitudeDegrees>
            </Position>
            <AltitudeMeters>31.6000003814697265625</AltitudeMeters>
            <DistanceMeters>34649.83907717</DistanceMeters>
          </Trackpoint>
          <Trackpoint>
            <Time>2018-05-22T12:54:56.000Z</Time>
            <Position>
              <LatitudeDegrees>28.9658046327531337738037109375</LatitudeDegrees>
              <LongitudeDegrees>-13.554173447191715240478515625</LongitudeDegrees>
            </Position>
            <AltitudeMeters>31.200000762939453125</AltitudeMeters>
            <DistanceMeters>34668.752019514</DistanceMeters>
          </Trackpoint>
          <Trackpoint>
            <Time>2018-05-22T12:54:58.000Z</Time>
            <Position>
              <LatitudeDegrees>28.9657298661768436431884765625</LatitudeDegrees>
              <LongitudeDegrees>-13.55429171584546566009521484375</LongitudeDegrees>
            </Position>
            <AltitudeMeters>30.799999237060546875</AltitudeMeters>
            <DistanceMeters>34682.960976166</DistanceMeters>
          </Trackpoint>
          <Trackpoint>
            <Time>2018-05-22T12:55:00.000Z</Time>
            <Position>
              <LatitudeDegrees>28.96558796055614948272705078125</LatitudeDegrees>
              <LongitudeDegrees>-13.55436312966048717498779296875</LongitudeDegrees>
            </Position>
            <AltitudeMeters>30.6000003814697265625</AltitudeMeters>
            <DistanceMeters>34700.218465879</DistanceMeters>
          </Trackpoint>
          <Trackpoint>
            <Time>2018-05-22T12:55:07.000Z</Time>
            <Position>
              <LatitudeDegrees>28.9650086872279644012451171875</LatitudeDegrees>
              <LongitudeDegrees>-13.55448248796164989471435546875</LongitudeDegrees>
            </Position>
            <AltitudeMeters>30.200000762939453125</AltitudeMeters>
            <DistanceMeters>34765.731925519</DistanceMeters>
          </Trackpoint>
          <Trackpoint>
            <Time>2018-05-22T12:55:12.000Z</Time>
            <Position>
              <LatitudeDegrees>28.96462353877723217010498046875</LatitudeDegrees>
              <LongitudeDegrees>-13.5545504651963710784912109375</LongitudeDegrees>
            </Position>
            <AltitudeMeters>30</AltitudeMeters>
            <DistanceMeters>34809.107743408</DistanceMeters>
          </Trackpoint>
          <Trackpoint>
            <Time>2018-05-22T12:55:14.000Z</Time>
            <Position>
              <LatitudeDegrees>28.96448205225169658660888671875</LatitudeDegrees>
              <LongitudeDegrees>-13.55454300530254840850830078125</LongitudeDegrees>
            </Position>
            <AltitudeMeters>29.3999996185302734375</AltitudeMeters>
            <DistanceMeters>34824.872156933</DistanceMeters>
          </Trackpoint>
          <Trackpoint>
            <Time>2018-05-22T12:55:16.000Z</Time>
            <Position>
              <LatitudeDegrees>28.9643629454076290130615234375</LatitudeDegrees>
              <LongitudeDegrees>-13.55449698865413665771484375</LongitudeDegrees>
            </Position>
            <AltitudeMeters>28.799999237060546875</AltitudeMeters>
            <DistanceMeters>34838.865627114</DistanceMeters>
          </Trackpoint>
          <Trackpoint>
            <Time>2018-05-22T12:55:17.000Z</Time>
            <Position>
              <LatitudeDegrees>28.9643136598169803619384765625</LatitudeDegrees>
              <LongitudeDegrees>-13.554466478526592254638671875</LongitudeDegrees>
            </Position>
            <AltitudeMeters>28.3999996185302734375</AltitudeMeters>
            <DistanceMeters>34845.104187002</DistanceMeters>
          </Trackpoint>
          <Trackpoint>
            <Time>2018-05-22T12:55:20.000Z</Time>
            <Position>
              <LatitudeDegrees>28.96416488103568553924560546875</LatitudeDegrees>
              <LongitudeDegrees>-13.55437318794429302215576171875</LongitudeDegrees>
            </Position>
            <AltitudeMeters>27.799999237060546875</AltitudeMeters>
            <DistanceMeters>34863.992046332</DistanceMeters>
          </Trackpoint>
          <Trackpoint>
            <Time>2018-05-22T12:55:22.000Z</Time>
            <Position>
              <LatitudeDegrees>28.96406597457826137542724609375</LatitudeDegrees>
              <LongitudeDegrees>-13.55431065894663333892822265625</LongitudeDegrees>
            </Position>
            <AltitudeMeters>27.799999237060546875</AltitudeMeters>
            <DistanceMeters>34876.572592815</DistanceMeters>
          </Trackpoint>
          <Trackpoint>
            <Time>2018-05-22T12:55:24.000Z</Time>
            <Position>
              <LatitudeDegrees>28.96397276781499385833740234375</LatitudeDegrees>
              <LongitudeDegrees>-13.55425550602376461029052734375</LongitudeDegrees>
            </Position>
            <AltitudeMeters>27.799999237060546875</AltitudeMeters>
            <DistanceMeters>34888.25430995</DistanceMeters>
          </Trackpoint>
          <Trackpoint>
            <Time>2018-05-22T12:55:26.000Z</Time>
            <Position>
              <LatitudeDegrees>28.963890038430690765380859375</LatitudeDegrees>
              <LongitudeDegrees>-13.55419398285448551177978515625</LongitudeDegrees>
            </Position>
            <AltitudeMeters>27.799999237060546875</AltitudeMeters>
            <DistanceMeters>34899.239661178</DistanceMeters>
          </Trackpoint>
          <Trackpoint>
            <Time>2018-05-22T12:55:30.000Z</Time>
            <Position>
              <LatitudeDegrees>28.96376791410148143768310546875</LatitudeDegrees>
              <LongitudeDegrees>-13.5541964136064052581787109375</LongitudeDegrees>
            </Position>
            <AltitudeMeters>27.799999237060546875</AltitudeMeters>
            <DistanceMeters>34912.83446072</DistanceMeters>
          </Trackpoint>
          <Trackpoint>
            <Time>2018-05-22T12:55:36.000Z</Time>
            <Position>
              <LatitudeDegrees>28.96357362158596515655517578125</LatitudeDegrees>
              <LongitudeDegrees>-13.5540618002414703369140625</LongitudeDegrees>
            </Position>
            <AltitudeMeters>27.200000762939453125</AltitudeMeters>
            <DistanceMeters>34938.122460315</DistanceMeters>
          </Trackpoint>
          <Trackpoint>
            <Time>2018-05-22T12:55:38.000Z</Time>
            <Position>
              <LatitudeDegrees>28.96351821720600128173828125</LatitudeDegrees>
              <LongitudeDegrees>-13.55398963205516338348388671875</LongitudeDegrees>
            </Position>
            <AltitudeMeters>27.200000762939453125</AltitudeMeters>
            <DistanceMeters>34947.471852808</DistanceMeters>
          </Trackpoint>
          <Trackpoint>
            <Time>2018-05-22T12:55:40.000Z</Time>
            <Position>
              <LatitudeDegrees>28.9634660817682743072509765625</LatitudeDegrees>
              <LongitudeDegrees>-13.55392090044915676116943359375</LongitudeDegrees>
            </Position>
            <AltitudeMeters>27</AltitudeMeters>
            <DistanceMeters>34956.330259227</DistanceMeters>
          </Trackpoint>
          <Trackpoint>
            <Time>2018-05-22T12:55:42.000Z</Time>
            <Position>
              <LatitudeDegrees>28.96340564824640750885009765625</LatitudeDegrees>
              <LongitudeDegrees>-13.55393112637102603912353515625</LongitudeDegrees>
            </Position>
            <AltitudeMeters>27.200000762939453125</AltitudeMeters>
            <DistanceMeters>34963.129817404</DistanceMeters>
          </Trackpoint>
          <Trackpoint>
            <Time>2018-05-22T12:55:46.000Z</Time>
            <Position>
              <LatitudeDegrees>28.9633410237729549407958984375</LatitudeDegrees>
              <LongitudeDegrees>-13.5540002770721912384033203125</LongitudeDegrees>
            </Position>
            <AltitudeMeters>27.200000762939453125</AltitudeMeters>
            <DistanceMeters>34972.983313328</DistanceMeters>
          </Trackpoint>
          <Trackpoint>
            <Time>2018-05-22T12:55:55.000Z</Time>
            <Position>
              <LatitudeDegrees>28.96314798854291439056396484375</LatitudeDegrees>
              <LongitudeDegrees>-13.55408401228487491607666015625</LongitudeDegrees>
            </Position>
            <AltitudeMeters>26.200000762939453125</AltitudeMeters>
            <DistanceMeters>34995.963869471</DistanceMeters>
          </Trackpoint>
          <Trackpoint>
            <Time>2018-05-22T12:55:58.000Z</Time>
            <Position>
              <LatitudeDegrees>28.96312988363206386566162109375</LatitudeDegrees>
              <LongitudeDegrees>-13.5541065596044063568115234375</LongitudeDegrees>
            </Position>
            <AltitudeMeters>26</AltitudeMeters>
            <DistanceMeters>34998.944741025</DistanceMeters>
          </Trackpoint>
          <Trackpoint>
            <Time>2018-05-22T12:56:00.000Z</Time>
            <Position>
              <LatitudeDegrees>28.96305955946445465087890625</LatitudeDegrees>
              <LongitudeDegrees>-13.5541608743369579315185546875</LongitudeDegrees>
            </Position>
            <AltitudeMeters>25.799999237060546875</AltitudeMeters>
            <DistanceMeters>35008.391180324</DistanceMeters>
          </Trackpoint>
          <Trackpoint>
            <Time>2018-05-22T12:56:05.000Z</Time>
            <Position>
              <LatitudeDegrees>28.9629180729389190673828125</LatitudeDegrees>
              <LongitudeDegrees>-13.5544478707015514373779296875</LongitudeDegrees>
            </Position>
            <AltitudeMeters>25</AltitudeMeters>
            <DistanceMeters>35040.470543966</DistanceMeters>
          </Trackpoint>
          <Trackpoint>
            <Time>2018-05-22T12:56:08.000Z</Time>
            <Position>
              <LatitudeDegrees>28.96283383481204509735107421875</LatitudeDegrees>
              <LongitudeDegrees>-13.5546255670487880706787109375</LongitudeDegrees>
            </Position>
            <AltitudeMeters>25</AltitudeMeters>
            <DistanceMeters>35060.151629532</DistanceMeters>
          </Trackpoint>
          <Trackpoint>
            <Time>2018-05-22T12:56:13.000Z</Time>
            <Position>
              <LatitudeDegrees>28.962695114314556121826171875</LatitudeDegrees>
              <LongitudeDegrees>-13.55492622591555118560791015625</LongitudeDegrees>
            </Position>
            <AltitudeMeters>25</AltitudeMeters>
            <DistanceMeters>35093.252040936</DistanceMeters>
          </Trackpoint>
          <Trackpoint>
            <Time>2018-05-22T12:56:15.000Z</Time>
            <Position>
              <LatitudeDegrees>28.9626342616975307464599609375</LatitudeDegrees>
              <LongitudeDegrees>-13.5550473444163799285888671875</LongitudeDegrees>
            </Position>
            <AltitudeMeters>25.200000762939453125</AltitudeMeters>
            <DistanceMeters>35106.853149201</DistanceMeters>
          </Trackpoint>
          <Trackpoint>
            <Time>2018-05-22T12:56:17.000Z</Time>
            <Position>
              <LatitudeDegrees>28.96258036606013774871826171875</LatitudeDegrees>
              <LongitudeDegrees>-13.555171228945255279541015625</LongitudeDegrees>
            </Position>
            <AltitudeMeters>25</AltitudeMeters>
            <DistanceMeters>35120.326851618</DistanceMeters>
          </Trackpoint>
          <Trackpoint>
            <Time>2018-05-22T12:56:19.000Z</Time>
            <Position>
              <LatitudeDegrees>28.96252672187983989715576171875</LatitudeDegrees>
              <LongitudeDegrees>-13.55530257336795330047607421875</LongitudeDegrees>
            </Position>
            <AltitudeMeters>25</AltitudeMeters>
            <DistanceMeters>35134.442077676</DistanceMeters>
          </Trackpoint>
          <Trackpoint>
            <Time>2018-05-22T12:56:20.000Z</Time>
            <Position>
              <LatitudeDegrees>28.96250358782708644866943359375</LatitudeDegrees>
              <LongitudeDegrees>-13.5553692094981670379638671875</LongitudeDegrees>
            </Position>
            <AltitudeMeters>25</AltitudeMeters>
            <DistanceMeters>35141.423793271</DistanceMeters>
          </Trackpoint>
          <Trackpoint>
            <Time>2018-05-22T12:56:21.000Z</Time>
            <Position>
              <LatitudeDegrees>28.96247944794595241546630859375</LatitudeDegrees>
              <LongitudeDegrees>-13.5554355941712856292724609375</LongitudeDegrees>
            </Position>
            <AltitudeMeters>25</AltitudeMeters>
            <DistanceMeters>35148.424237889</DistanceMeters>
          </Trackpoint>
          <Trackpoint>
            <Time>2018-05-22T12:56:23.000Z</Time>
            <Position>
              <LatitudeDegrees>28.96242781542241573333740234375</LatitudeDegrees>
              <LongitudeDegrees>-13.5555707104504108428955078125</LongitudeDegrees>
            </Position>
            <AltitudeMeters>25</AltitudeMeters>
            <DistanceMeters>35162.782393942</DistanceMeters>
          </Trackpoint>
          <Trackpoint>
            <Time>2018-05-22T12:56:29.000Z</Time>
            <Position>
              <LatitudeDegrees>28.9622617699205875396728515625</LatitudeDegrees>
              <LongitudeDegrees>-13.5559532605111598968505859375</LongitudeDegrees>
            </Position>
            <AltitudeMeters>25.3999996185302734375</AltitudeMeters>
            <DistanceMeters>35204.368281693</DistanceMeters>
          </Trackpoint>
          <Trackpoint>
            <Time>2018-05-22T12:56:33.000Z</Time>
            <Position>
              <LatitudeDegrees>28.96215741522610187530517578125</LatitudeDegrees>
              <LongitudeDegrees>-13.55617781169712543487548828125</LongitudeDegrees>
            </Position>
            <AltitudeMeters>25.799999237060546875</AltitudeMeters>
            <DistanceMeters>35229.128895783</DistanceMeters>
          </Trackpoint>
          <Trackpoint>
            <Time>2018-05-22T12:56:34.000Z</Time>
            <Position>
              <LatitudeDegrees>28.96213679574429988861083984375</LatitudeDegrees>
              <LongitudeDegrees>-13.5562290251255035400390625</LongitudeDegrees>
            </Position>
            <AltitudeMeters>26.200000762939453125</AltitudeMeters>
            <DistanceMeters>35234.618282369</DistanceMeters>
          </Trackpoint>
          <Trackpoint>
            <Time>2018-05-22T12:56:35.000Z</Time>
            <Position>
              <LatitudeDegrees>28.96211768500506877899169921875</LatitudeDegrees>
              <LongitudeDegrees>-13.55627931654453277587890625</LongitudeDegrees>
            </Position>
            <AltitudeMeters>27</AltitudeMeters>
            <DistanceMeters>35239.958411713</DistanceMeters>
          </Trackpoint>
          <Trackpoint>
            <Time>2018-05-22T12:56:36.000Z</Time>
            <Position>
              <LatitudeDegrees>28.96209673024713993072509765625</LatitudeDegrees>
              <LongitudeDegrees>-13.55632223188877105712890625</LongitudeDegrees>
            </Position>
            <AltitudeMeters>27.799999237060546875</AltitudeMeters>
            <DistanceMeters>35244.744778178</DistanceMeters>
          </Trackpoint>
          <Trackpoint>
            <Time>2018-05-22T12:56:38.000Z</Time>
            <Position>
              <LatitudeDegrees>28.96207376383244991302490234375</LatitudeDegrees>
              <LongitudeDegrees>-13.55638660490512847900390625</LongitudeDegrees>
            </Position>
            <AltitudeMeters>28.6000003814697265625</AltitudeMeters>
            <DistanceMeters>35251.515056461</DistanceMeters>
          </Trackpoint>
          <Trackpoint>
            <Time>2018-05-22T12:56:42.000Z</Time>
            <Position>
              <LatitudeDegrees>28.96203705109655857086181640625</LatitudeDegrees>
              <LongitudeDegrees>-13.55653873644769191741943359375</LongitudeDegrees>
            </Position>
            <AltitudeMeters>28.799999237060546875</AltitudeMeters>
            <DistanceMeters>35266.883259004</DistanceMeters>
          </Trackpoint>
          <Trackpoint>
            <Time>2018-05-22T12:56:43.000Z</Time>
            <Position>
              <LatitudeDegrees>28.9620143361389636993408203125</LatitudeDegrees>
              <LongitudeDegrees>-13.5565829090774059295654296875</LongitudeDegrees>
            </Position>
            <AltitudeMeters>29</AltitudeMeters>
            <DistanceMeters>35271.872840224</DistanceMeters>
          </Trackpoint>
          <Trackpoint>
            <Time>2018-05-22T12:56:46.000Z</Time>
            <Position>
              <LatitudeDegrees>28.9619616977870464324951171875</LatitudeDegrees>
              <LongitudeDegrees>-13.556717522442340850830078125</LongitudeDegrees>
            </Position>
            <AltitudeMeters>29.200000762939453125</AltitudeMeters>
            <DistanceMeters>35286.231625179</DistanceMeters>
          </Trackpoint>
          <Trackpoint>
            <Time>2018-05-22T12:56:51.000Z</Time>
            <Position>
              <LatitudeDegrees>28.96190528757870197296142578125</LatitudeDegrees>
              <LongitudeDegrees>-13.556842245161533355712890625</LongitudeDegrees>
            </Position>
            <AltitudeMeters>29.799999237060546875</AltitudeMeters>
            <DistanceMeters>35299.904249014</DistanceMeters>
          </Trackpoint>
          <Trackpoint>
            <Time>2018-05-22T12:56:52.000Z</Time>
            <Position>
              <LatitudeDegrees>28.9618959836661815643310546875</LatitudeDegrees>
              <LongitudeDegrees>-13.556863032281398773193359375</LongitudeDegrees>
            </Position>
            <AltitudeMeters>30</AltitudeMeters>
            <DistanceMeters>35302.178943236</DistanceMeters>
          </Trackpoint>
          <Trackpoint>
            <Time>2018-05-22T12:56:58.000Z</Time>
            <Position>
              <LatitudeDegrees>28.9617803134024143218994140625</LatitudeDegrees>
              <LongitudeDegrees>-13.55710300616919994354248046875</LongitudeDegrees>
            </Position>
            <AltitudeMeters>30</AltitudeMeters>
            <DistanceMeters>35328.859967324</DistanceMeters>
          </Trackpoint>
          <Trackpoint>
            <Time>2018-05-22T12:57:00.000Z</Time>
            <Position>
              <LatitudeDegrees>28.961742930114269256591796875</LatitudeDegrees>
              <LongitudeDegrees>-13.55721817351877689361572265625</LongitudeDegrees>
            </Position>
            <AltitudeMeters>29.6000003814697265625</AltitudeMeters>
            <DistanceMeters>35340.822392722</DistanceMeters>
          </Trackpoint>
          <Trackpoint>
            <Time>2018-05-22T12:57:02.000Z</Time>
            <Position>
              <LatitudeDegrees>28.96167545579373836517333984375</LatitudeDegrees>
              <LongitudeDegrees>-13.5573275573551654815673828125</LongitudeDegrees>
            </Position>
            <AltitudeMeters>28.799999237060546875</AltitudeMeters>
            <DistanceMeters>35353.85561059</DistanceMeters>
          </Trackpoint>
          <Trackpoint>
            <Time>2018-05-22T12:57:03.000Z</Time>
            <Position>
              <LatitudeDegrees>28.9616257511079311370849609375</LatitudeDegrees>
              <LongitudeDegrees>-13.55734490789473056793212890625</LongitudeDegrees>
            </Position>
            <AltitudeMeters>28.3999996185302734375</AltitudeMeters>
            <DistanceMeters>35359.640544755</DistanceMeters>
          </Trackpoint>
          <Trackpoint>
            <Time>2018-05-22T12:57:05.000Z</Time>
            <Position>
              <LatitudeDegrees>28.96152290515601634979248046875</LatitudeDegrees>
              <LongitudeDegrees>-13.55728874914348125457763671875</LongitudeDegrees>
            </Position>
            <AltitudeMeters>27.6000003814697265625</AltitudeMeters>
            <DistanceMeters>35372.32687805</DistanceMeters>
          </Trackpoint>
          <Trackpoint>
            <Time>2018-05-22T12:57:06.000Z</Time>
            <Position>
              <LatitudeDegrees>28.96147093735635280609130859375</LatitudeDegrees>
              <LongitudeDegrees>-13.557259328663349151611328125</LongitudeDegrees>
            </Position>
            <AltitudeMeters>27.200000762939453125</AltitudeMeters>
            <DistanceMeters>35378.782403031</DistanceMeters>
          </Trackpoint>
          <Trackpoint>
            <Time>2018-05-22T12:57:11.000Z</Time>
            <Position>
              <LatitudeDegrees>28.96118377335369586944580078125</LatitudeDegrees>
              <LongitudeDegrees>-13.55720224790275096893310546875</LongitudeDegrees>
            </Position>
            <AltitudeMeters>27</AltitudeMeters>
            <DistanceMeters>35411.224111365</DistanceMeters>
          </Trackpoint>
          <Trackpoint>
            <Time>2018-05-22T12:57:13.000Z</Time>
            <Position>
              <LatitudeDegrees>28.9610678516328334808349609375</LatitudeDegrees>
              <LongitudeDegrees>-13.55720467865467071533203125</LongitudeDegrees>
            </Position>
            <AltitudeMeters>26.799999237060546875</AltitudeMeters>
            <DistanceMeters>35424.128865132</DistanceMeters>
          </Trackpoint>
          <Trackpoint>
            <Time>2018-05-22T12:57:16.000Z</Time>
            <Position>
              <LatitudeDegrees>28.96090331487357616424560546875</LatitudeDegrees>
              <LongitudeDegrees>-13.55719772167503833770751953125</LongitudeDegrees>
            </Position>
            <AltitudeMeters>26.3999996185302734375</AltitudeMeters>
            <DistanceMeters>35442.454736817</DistanceMeters>
          </Trackpoint>
          <Trackpoint>
            <Time>2018-05-22T12:57:21.000Z</Time>
            <Position>
              <LatitudeDegrees>28.96065537817776203155517578125</LatitudeDegrees>
              <LongitudeDegrees>-13.557180203497409820556640625</LongitudeDegrees>
            </Position>
            <AltitudeMeters>26</AltitudeMeters>
            <DistanceMeters>35470.103101892</DistanceMeters>
          </Trackpoint>
          <Trackpoint>
            <Time>2018-05-22T12:57:22.000Z</Time>
            <Position>
              <LatitudeDegrees>28.96060860715806484222412109375</LatitudeDegrees>
              <LongitudeDegrees>-13.55717022903263568878173828125</LongitudeDegrees>
            </Position>
            <AltitudeMeters>25.6000003814697265625</AltitudeMeters>
            <DistanceMeters>35475.39737779</DistanceMeters>
          </Trackpoint>
          <Trackpoint>
            <Time>2018-05-22T12:57:26.000Z</Time>
            <Position>
              <LatitudeDegrees>28.9604388736188411712646484375</LatitudeDegrees>
              <LongitudeDegrees>-13.55719185434281826019287109375</LongitudeDegrees>
            </Position>
            <AltitudeMeters>25.6000003814697265625</AltitudeMeters>
            <DistanceMeters>35494.405808781</DistanceMeters>
          </Trackpoint>
          <Trackpoint>
            <Time>2018-05-22T12:57:28.000Z</Time>
            <Position>
              <LatitudeDegrees>28.96036922000348567962646484375</LatitudeDegrees>
              <LongitudeDegrees>-13.55718011967837810516357421875</LongitudeDegrees>
            </Position>
            <AltitudeMeters>25.6000003814697265625</AltitudeMeters>
            <DistanceMeters>35502.243064676</DistanceMeters>
          </Trackpoint>
          <Trackpoint>
            <Time>2018-05-22T12:57:30.000Z</Time>
            <Position>
              <LatitudeDegrees>28.960332088172435760498046875</LatitudeDegrees>
              <LongitudeDegrees>-13.55715983547270298004150390625</LongitudeDegrees>
            </Position>
            <AltitudeMeters>25.6000003814697265625</AltitudeMeters>
            <DistanceMeters>35506.824101421</DistanceMeters>
          </Trackpoint>
          <Trackpoint>
            <Time>2018-05-22T12:57:32.000Z</Time>
            <Position>
              <LatitudeDegrees>28.960294537246227264404296875</LatitudeDegrees>
              <LongitudeDegrees>-13.55713921599090099334716796875</LongitudeDegrees>
            </Position>
            <AltitudeMeters>25.3999996185302734375</AltitudeMeters>
            <DistanceMeters>35511.460002837</DistanceMeters>
          </Trackpoint>
          <Trackpoint>
            <Time>2018-05-22T12:57:44.000Z</Time>
            <Position>
              <LatitudeDegrees>28.9603865705430507659912109375</LatitudeDegrees>
              <LongitudeDegrees>-13.55682539753615856170654296875</LongitudeDegrees>
            </Position>
            <AltitudeMeters>25.3999996185302734375</AltitudeMeters>
            <DistanceMeters>35543.691854083</DistanceMeters>
          </Trackpoint>
          <Trackpoint>
            <Time>2018-05-22T12:57:50.000Z</Time>
            <Position>
              <LatitudeDegrees>28.96049142815172672271728515625</LatitudeDegrees>
              <LongitudeDegrees>-13.556789271533489227294921875</LongitudeDegrees>
            </Position>
            <AltitudeMeters>26</AltitudeMeters>
            <DistanceMeters>35555.880859281</DistanceMeters>
          </Trackpoint>
          <Trackpoint>
            <Time>2018-05-22T12:57:54.000Z</Time>
            <Position>
              <LatitudeDegrees>28.96052889525890350341796875</LatitudeDegrees>
              <LongitudeDegrees>-13.55679505504667758941650390625</LongitudeDegrees>
            </Position>
            <AltitudeMeters>25.799999237060546875</AltitudeMeters>
            <DistanceMeters>35560.088944345</DistanceMeters>
          </Trackpoint>
        </Track>
      </Lap>
    </Activity>
  </Activities>
</TrainingCenterDatabase>
